<?xml version="1.0" encoding="UTF-8" standalone="no" ?>
<gpx xmlns="http://www.topografix.com/GPX/1/1" xmlns:xsi="http://www.w3.org/2001/XMLSchema-instance" xsi:schemaLocation="http://www.topografix.com/GPX/1/1 http://www.topografix.com/GPX/1/1/gpx.xsd" version="1.1" creator="VisuGPX - https://www.visugpx.com">
  <metadata>
    <name>trail du bessat 2014 24 kms</name>
    <desc><![CDATA[un parcours vraiment sympas, avec une difficulté majeure qui la montée du saut du gier]]></desc>
  </metadata>
  <trk>
    <name><![CDATA[trail du bessat 22 kms]]></name>
    <trkseg>
      <trkpt lat="45.36915" lon="4.5165">
        <ele>1121</ele>
        <time>2014-09-14T06:00:08Z</time>
      </trkpt>
      <trkpt lat="45.36912" lon="4.51647">
        <ele>1121</ele>
        <time>2014-09-14T06:00:10Z</time>
      </trkpt>
      <trkpt lat="45.36907" lon="4.51642">
        <ele>1122</ele>
        <time>2014-09-14T06:00:13Z</time>
      </trkpt>
      <trkpt lat="45.36901" lon="4.51636">
        <ele>1123</ele>
        <time>2014-09-14T06:00:16Z</time>
      </trkpt>
      <trkpt lat="45.36897" lon="4.51626">
        <ele>1124</ele>
        <time>2014-09-14T06:00:19Z</time>
      </trkpt>
      <trkpt lat="45.36897" lon="4.51613">
        <ele>1125</ele>
        <time>2014-09-14T06:00:22Z</time>
      </trkpt>
      <trkpt lat="45.36897" lon="4.51599">
        <ele>1125</ele>
        <time>2014-09-14T06:00:25Z</time>
      </trkpt>
      <trkpt lat="45.36895" lon="4.51587">
        <ele>1127</ele>
        <time>2014-09-14T06:00:28Z</time>
      </trkpt>
      <trkpt lat="45.36896" lon="4.51573">
        <ele>1127</ele>
        <time>2014-09-14T06:00:31Z</time>
      </trkpt>
      <trkpt lat="45.36898" lon="4.51563">
        <ele>1127</ele>
        <time>2014-09-14T06:00:33Z</time>
      </trkpt>
      <trkpt lat="45.36901" lon="4.51553">
        <ele>1128</ele>
        <time>2014-09-14T06:00:35Z</time>
      </trkpt>
      <trkpt lat="45.36905" lon="4.5154">
        <ele>1128</ele>
        <time>2014-09-14T06:00:38Z</time>
      </trkpt>
      <trkpt lat="45.36906" lon="4.51525">
        <ele>1129</ele>
        <time>2014-09-14T06:00:41Z</time>
      </trkpt>
      <trkpt lat="45.36909" lon="4.51511">
        <ele>1129</ele>
        <time>2014-09-14T06:00:43Z</time>
      </trkpt>
      <trkpt lat="45.36911" lon="4.51502">
        <ele>1129</ele>
        <time>2014-09-14T06:00:45Z</time>
      </trkpt>
      <trkpt lat="45.36914" lon="4.51493">
        <ele>1129</ele>
        <time>2014-09-14T06:00:48Z</time>
      </trkpt>
      <trkpt lat="45.36916" lon="4.51483">
        <ele>1130</ele>
        <time>2014-09-14T06:00:50Z</time>
      </trkpt>
      <trkpt lat="45.36921" lon="4.5147">
        <ele>1130</ele>
        <time>2014-09-14T06:00:53Z</time>
      </trkpt>
      <trkpt lat="45.36927" lon="4.51456">
        <ele>1130</ele>
        <time>2014-09-14T06:00:56Z</time>
      </trkpt>
      <trkpt lat="45.36933" lon="4.51444">
        <ele>1130</ele>
        <time>2014-09-14T06:00:59Z</time>
      </trkpt>
      <trkpt lat="45.36937" lon="4.51436">
        <ele>1130</ele>
        <time>2014-09-14T06:01:01Z</time>
      </trkpt>
      <trkpt lat="45.36941" lon="4.51428">
        <ele>1130</ele>
        <time>2014-09-14T06:01:03Z</time>
      </trkpt>
      <trkpt lat="45.36947" lon="4.51416">
        <ele>1130</ele>
        <time>2014-09-14T06:01:05Z</time>
      </trkpt>
      <trkpt lat="45.36951" lon="4.51408">
        <ele>1129</ele>
        <time>2014-09-14T06:01:08Z</time>
      </trkpt>
      <trkpt lat="45.36958" lon="4.51394">
        <ele>1129</ele>
        <time>2014-09-14T06:01:10Z</time>
      </trkpt>
      <trkpt lat="45.36962" lon="4.51385">
        <ele>1128</ele>
        <time>2014-09-14T06:01:12Z</time>
      </trkpt>
      <trkpt lat="45.36966" lon="4.51376">
        <ele>1127</ele>
        <time>2014-09-14T06:01:15Z</time>
      </trkpt>
      <trkpt lat="45.36972" lon="4.51369">
        <ele>1126</ele>
        <time>2014-09-14T06:01:17Z</time>
      </trkpt>
      <trkpt lat="45.3698" lon="4.51358">
        <ele>1125</ele>
        <time>2014-09-14T06:01:20Z</time>
      </trkpt>
      <trkpt lat="45.36989" lon="4.51348">
        <ele>1125</ele>
        <time>2014-09-14T06:01:22Z</time>
      </trkpt>
      <trkpt lat="45.36998" lon="4.51338">
        <ele>1124</ele>
        <time>2014-09-14T06:01:26Z</time>
      </trkpt>
      <trkpt lat="45.37009" lon="4.5133">
        <ele>1123</ele>
        <time>2014-09-14T06:01:29Z</time>
      </trkpt>
      <trkpt lat="45.37018" lon="4.51322">
        <ele>1122</ele>
        <time>2014-09-14T06:01:31Z</time>
      </trkpt>
      <trkpt lat="45.37025" lon="4.51316">
        <ele>1121</ele>
        <time>2014-09-14T06:01:33Z</time>
      </trkpt>
      <trkpt lat="45.37032" lon="4.51309">
        <ele>1120</ele>
        <time>2014-09-14T06:01:36Z</time>
      </trkpt>
      <trkpt lat="45.37042" lon="4.513">
        <ele>1118</ele>
        <time>2014-09-14T06:01:38Z</time>
      </trkpt>
      <trkpt lat="45.37049" lon="4.51296">
        <ele>1117</ele>
        <time>2014-09-14T06:01:41Z</time>
      </trkpt>
      <trkpt lat="45.37057" lon="4.51293">
        <ele>1117</ele>
        <time>2014-09-14T06:01:43Z</time>
      </trkpt>
      <trkpt lat="45.37067" lon="4.51287">
        <ele>1117</ele>
        <time>2014-09-14T06:01:45Z</time>
      </trkpt>
      <trkpt lat="45.37073" lon="4.51284">
        <ele>1117</ele>
        <time>2014-09-14T06:01:48Z</time>
      </trkpt>
      <trkpt lat="45.37081" lon="4.51293">
        <ele>1116</ele>
        <time>2014-09-14T06:01:50Z</time>
      </trkpt>
      <trkpt lat="45.37083" lon="4.51308">
        <ele>1116</ele>
        <time>2014-09-14T06:01:54Z</time>
      </trkpt>
      <trkpt lat="45.37085" lon="4.51319">
        <ele>1116</ele>
        <time>2014-09-14T06:01:56Z</time>
      </trkpt>
      <trkpt lat="45.37085" lon="4.51335">
        <ele>1116</ele>
        <time>2014-09-14T06:01:58Z</time>
      </trkpt>
      <trkpt lat="45.37085" lon="4.51349">
        <ele>1116</ele>
        <time>2014-09-14T06:02:01Z</time>
      </trkpt>
      <trkpt lat="45.37085" lon="4.5136">
        <ele>1116</ele>
        <time>2014-09-14T06:02:03Z</time>
      </trkpt>
      <trkpt lat="45.37085" lon="4.51373">
        <ele>1116</ele>
        <time>2014-09-14T06:02:07Z</time>
      </trkpt>
      <trkpt lat="45.37086" lon="4.51382">
        <ele>1116</ele>
        <time>2014-09-14T06:02:09Z</time>
      </trkpt>
      <trkpt lat="45.37085" lon="4.51397">
        <ele>1116</ele>
        <time>2014-09-14T06:02:11Z</time>
      </trkpt>
      <trkpt lat="45.37085" lon="4.51406">
        <ele>1116</ele>
        <time>2014-09-14T06:02:14Z</time>
      </trkpt>
      <trkpt lat="45.37083" lon="4.51421">
        <ele>1115</ele>
        <time>2014-09-14T06:02:16Z</time>
      </trkpt>
      <trkpt lat="45.37083" lon="4.51431">
        <ele>1114</ele>
        <time>2014-09-14T06:02:19Z</time>
      </trkpt>
      <trkpt lat="45.37082" lon="4.5144">
        <ele>1114</ele>
        <time>2014-09-14T06:02:21Z</time>
      </trkpt>
      <trkpt lat="45.37081" lon="4.51451">
        <ele>1113</ele>
        <time>2014-09-14T06:02:24Z</time>
      </trkpt>
      <trkpt lat="45.37079" lon="4.51463">
        <ele>1113</ele>
        <time>2014-09-14T06:02:26Z</time>
      </trkpt>
      <trkpt lat="45.37078" lon="4.51469">
        <ele>1113</ele>
        <time>2014-09-14T06:02:28Z</time>
      </trkpt>
      <trkpt lat="45.37079" lon="4.51481">
        <ele>1112</ele>
        <time>2014-09-14T06:02:32Z</time>
      </trkpt>
      <trkpt lat="45.37075" lon="4.51493">
        <ele>1111</ele>
        <time>2014-09-14T06:02:34Z</time>
      </trkpt>
      <trkpt lat="45.37072" lon="4.51505">
        <ele>1110</ele>
        <time>2014-09-14T06:02:38Z</time>
      </trkpt>
      <trkpt lat="45.37071" lon="4.51514">
        <ele>1109</ele>
        <time>2014-09-14T06:02:40Z</time>
      </trkpt>
      <trkpt lat="45.37068" lon="4.51525">
        <ele>1107</ele>
        <time>2014-09-14T06:02:43Z</time>
      </trkpt>
      <trkpt lat="45.37067" lon="4.51533">
        <ele>1106</ele>
        <time>2014-09-14T06:02:45Z</time>
      </trkpt>
      <trkpt lat="45.37063" lon="4.51543">
        <ele>1105</ele>
        <time>2014-09-14T06:02:48Z</time>
      </trkpt>
      <trkpt lat="45.37058" lon="4.51555">
        <ele>1103</ele>
        <time>2014-09-14T06:02:50Z</time>
      </trkpt>
      <trkpt lat="45.37056" lon="4.51562">
        <ele>1102</ele>
        <time>2014-09-14T06:02:53Z</time>
      </trkpt>
      <trkpt lat="45.37054" lon="4.51572">
        <ele>1101</ele>
        <time>2014-09-14T06:02:55Z</time>
      </trkpt>
      <trkpt lat="45.37054" lon="4.51579">
        <ele>1099</ele>
        <time>2014-09-14T06:02:58Z</time>
      </trkpt>
      <trkpt lat="45.37054" lon="4.5159">
        <ele>1099</ele>
        <time>2014-09-14T06:03:01Z</time>
      </trkpt>
      <trkpt lat="45.37053" lon="4.51603">
        <ele>1097</ele>
        <time>2014-09-14T06:03:04Z</time>
      </trkpt>
      <trkpt lat="45.37053" lon="4.51621">
        <ele>1096</ele>
        <time>2014-09-14T06:03:06Z</time>
      </trkpt>
      <trkpt lat="45.37052" lon="4.51634">
        <ele>1096</ele>
        <time>2014-09-14T06:03:09Z</time>
      </trkpt>
      <trkpt lat="45.3705" lon="4.51646">
        <ele>1094</ele>
        <time>2014-09-14T06:03:11Z</time>
      </trkpt>
      <trkpt lat="45.37048" lon="4.51666">
        <ele>1093</ele>
        <time>2014-09-14T06:03:14Z</time>
      </trkpt>
      <trkpt lat="45.37046" lon="4.51684">
        <ele>1091</ele>
        <time>2014-09-14T06:03:16Z</time>
      </trkpt>
      <trkpt lat="45.37045" lon="4.51701">
        <ele>1089</ele>
        <time>2014-09-14T06:03:20Z</time>
      </trkpt>
      <trkpt lat="45.37045" lon="4.51716">
        <ele>1087</ele>
        <time>2014-09-14T06:03:22Z</time>
      </trkpt>
      <trkpt lat="45.37045" lon="4.51728">
        <ele>1085</ele>
        <time>2014-09-14T06:03:25Z</time>
      </trkpt>
      <trkpt lat="45.37045" lon="4.51742">
        <ele>1084</ele>
        <time>2014-09-14T06:03:27Z</time>
      </trkpt>
      <trkpt lat="45.37045" lon="4.51758">
        <ele>1081</ele>
        <time>2014-09-14T06:03:30Z</time>
      </trkpt>
      <trkpt lat="45.37042" lon="4.51769">
        <ele>1080</ele>
        <time>2014-09-14T06:03:32Z</time>
      </trkpt>
      <trkpt lat="45.3704" lon="4.51779">
        <ele>1079</ele>
        <time>2014-09-14T06:03:34Z</time>
      </trkpt>
      <trkpt lat="45.37039" lon="4.51788">
        <ele>1079</ele>
        <time>2014-09-14T06:03:37Z</time>
      </trkpt>
      <trkpt lat="45.37038" lon="4.51797">
        <ele>1078</ele>
        <time>2014-09-14T06:03:39Z</time>
      </trkpt>
      <trkpt lat="45.37035" lon="4.51806">
        <ele>1077</ele>
        <time>2014-09-14T06:03:41Z</time>
      </trkpt>
      <trkpt lat="45.37032" lon="4.51816">
        <ele>1076</ele>
        <time>2014-09-14T06:03:43Z</time>
      </trkpt>
      <trkpt lat="45.37031" lon="4.51822">
        <ele>1075</ele>
        <time>2014-09-14T06:03:46Z</time>
      </trkpt>
      <trkpt lat="45.37027" lon="4.51833">
        <ele>1074</ele>
        <time>2014-09-14T06:03:48Z</time>
      </trkpt>
      <trkpt lat="45.37027" lon="4.51844">
        <ele>1073</ele>
        <time>2014-09-14T06:03:51Z</time>
      </trkpt>
      <trkpt lat="45.37028" lon="4.51848">
        <ele>1072</ele>
        <time>2014-09-14T06:03:53Z</time>
      </trkpt>
      <trkpt lat="45.37031" lon="4.51854">
        <ele>1071</ele>
        <time>2014-09-14T06:03:56Z</time>
      </trkpt>
      <trkpt lat="45.37037" lon="4.51865">
        <ele>1070</ele>
        <time>2014-09-14T06:03:58Z</time>
      </trkpt>
      <trkpt lat="45.37042" lon="4.51872">
        <ele>1069</ele>
        <time>2014-09-14T06:04:00Z</time>
      </trkpt>
      <trkpt lat="45.37047" lon="4.5188">
        <ele>1068</ele>
        <time>2014-09-14T06:04:02Z</time>
      </trkpt>
      <trkpt lat="45.37054" lon="4.5189">
        <ele>1067</ele>
        <time>2014-09-14T06:04:05Z</time>
      </trkpt>
      <trkpt lat="45.37059" lon="4.51897">
        <ele>1066</ele>
        <time>2014-09-14T06:04:07Z</time>
      </trkpt>
      <trkpt lat="45.37063" lon="4.51903">
        <ele>1066</ele>
        <time>2014-09-14T06:04:10Z</time>
      </trkpt>
      <trkpt lat="45.3707" lon="4.51916">
        <ele>1065</ele>
        <time>2014-09-14T06:04:13Z</time>
      </trkpt>
      <trkpt lat="45.37077" lon="4.51926">
        <ele>1063</ele>
        <time>2014-09-14T06:04:15Z</time>
      </trkpt>
      <trkpt lat="45.37088" lon="4.51933">
        <ele>1062</ele>
        <time>2014-09-14T06:04:19Z</time>
      </trkpt>
      <trkpt lat="45.37098" lon="4.5194">
        <ele>1062</ele>
        <time>2014-09-14T06:04:21Z</time>
      </trkpt>
      <trkpt lat="45.37104" lon="4.51945">
        <ele>1062</ele>
        <time>2014-09-14T06:04:23Z</time>
      </trkpt>
      <trkpt lat="45.3711" lon="4.51953">
        <ele>1061</ele>
        <time>2014-09-14T06:04:25Z</time>
      </trkpt>
      <trkpt lat="45.37117" lon="4.51964">
        <ele>1060</ele>
        <time>2014-09-14T06:04:28Z</time>
      </trkpt>
      <trkpt lat="45.37126" lon="4.51975">
        <ele>1059</ele>
        <time>2014-09-14T06:04:32Z</time>
      </trkpt>
      <trkpt lat="45.37135" lon="4.51985">
        <ele>1059</ele>
        <time>2014-09-14T06:04:34Z</time>
      </trkpt>
      <trkpt lat="45.37143" lon="4.51995">
        <ele>1058</ele>
        <time>2014-09-14T06:04:37Z</time>
      </trkpt>
      <trkpt lat="45.37152" lon="4.52002">
        <ele>1057</ele>
        <time>2014-09-14T06:04:40Z</time>
      </trkpt>
      <trkpt lat="45.37162" lon="4.52012">
        <ele>1056</ele>
        <time>2014-09-14T06:04:43Z</time>
      </trkpt>
      <trkpt lat="45.37167" lon="4.5202">
        <ele>1055</ele>
        <time>2014-09-14T06:04:45Z</time>
      </trkpt>
      <trkpt lat="45.37176" lon="4.5203">
        <ele>1053</ele>
        <time>2014-09-14T06:04:48Z</time>
      </trkpt>
      <trkpt lat="45.37182" lon="4.52039">
        <ele>1052</ele>
        <time>2014-09-14T06:04:50Z</time>
      </trkpt>
      <trkpt lat="45.37188" lon="4.52053">
        <ele>1052</ele>
        <time>2014-09-14T06:04:53Z</time>
      </trkpt>
      <trkpt lat="45.37192" lon="4.52063">
        <ele>1051</ele>
        <time>2014-09-14T06:04:55Z</time>
      </trkpt>
      <trkpt lat="45.37194" lon="4.52073">
        <ele>1051</ele>
        <time>2014-09-14T06:04:58Z</time>
      </trkpt>
      <trkpt lat="45.37196" lon="4.52088">
        <ele>1051</ele>
        <time>2014-09-14T06:05:00Z</time>
      </trkpt>
      <trkpt lat="45.37197" lon="4.52097">
        <ele>1050</ele>
        <time>2014-09-14T06:05:02Z</time>
      </trkpt>
      <trkpt lat="45.37199" lon="4.52108">
        <ele>1048</ele>
        <time>2014-09-14T06:05:05Z</time>
      </trkpt>
      <trkpt lat="45.37199" lon="4.52117">
        <ele>1048</ele>
        <time>2014-09-14T06:05:07Z</time>
      </trkpt>
      <trkpt lat="45.37201" lon="4.52124">
        <ele>1047</ele>
        <time>2014-09-14T06:05:10Z</time>
      </trkpt>
      <trkpt lat="45.37203" lon="4.52137">
        <ele>1045</ele>
        <time>2014-09-14T06:05:13Z</time>
      </trkpt>
      <trkpt lat="45.37207" lon="4.52146">
        <ele>1044</ele>
        <time>2014-09-14T06:05:16Z</time>
      </trkpt>
      <trkpt lat="45.3721" lon="4.52154">
        <ele>1043</ele>
        <time>2014-09-14T06:05:18Z</time>
      </trkpt>
      <trkpt lat="45.37212" lon="4.52166">
        <ele>1041</ele>
        <time>2014-09-14T06:05:20Z</time>
      </trkpt>
      <trkpt lat="45.37212" lon="4.52178">
        <ele>1039</ele>
        <time>2014-09-14T06:05:23Z</time>
      </trkpt>
      <trkpt lat="45.37212" lon="4.52186">
        <ele>1038</ele>
        <time>2014-09-14T06:05:25Z</time>
      </trkpt>
      <trkpt lat="45.37211" lon="4.52195">
        <ele>1037</ele>
        <time>2014-09-14T06:05:28Z</time>
      </trkpt>
      <trkpt lat="45.37209" lon="4.52209">
        <ele>1036</ele>
        <time>2014-09-14T06:05:30Z</time>
      </trkpt>
      <trkpt lat="45.37206" lon="4.52223">
        <ele>1035</ele>
        <time>2014-09-14T06:05:33Z</time>
      </trkpt>
      <trkpt lat="45.37206" lon="4.52233">
        <ele>1034</ele>
        <time>2014-09-14T06:05:36Z</time>
      </trkpt>
      <trkpt lat="45.37206" lon="4.52247">
        <ele>1033</ele>
        <time>2014-09-14T06:05:38Z</time>
      </trkpt>
      <trkpt lat="45.37204" lon="4.52256">
        <ele>1032</ele>
        <time>2014-09-14T06:05:40Z</time>
      </trkpt>
      <trkpt lat="45.37202" lon="4.52265">
        <ele>1031</ele>
        <time>2014-09-14T06:05:42Z</time>
      </trkpt>
      <trkpt lat="45.37202" lon="4.52281">
        <ele>1029</ele>
        <time>2014-09-14T06:05:45Z</time>
      </trkpt>
      <trkpt lat="45.37201" lon="4.52291">
        <ele>1029</ele>
        <time>2014-09-14T06:05:48Z</time>
      </trkpt>
      <trkpt lat="45.37201" lon="4.52304">
        <ele>1028</ele>
        <time>2014-09-14T06:05:51Z</time>
      </trkpt>
      <trkpt lat="45.37199" lon="4.52316">
        <ele>1027</ele>
        <time>2014-09-14T06:05:53Z</time>
      </trkpt>
      <trkpt lat="45.37199" lon="4.52325">
        <ele>1026</ele>
        <time>2014-09-14T06:05:56Z</time>
      </trkpt>
      <trkpt lat="45.37198" lon="4.52336">
        <ele>1025</ele>
        <time>2014-09-14T06:05:58Z</time>
      </trkpt>
      <trkpt lat="45.37202" lon="4.52345">
        <ele>1025</ele>
        <time>2014-09-14T06:06:00Z</time>
      </trkpt>
      <trkpt lat="45.37207" lon="4.52351">
        <ele>1024</ele>
        <time>2014-09-14T06:06:03Z</time>
      </trkpt>
      <trkpt lat="45.37212" lon="4.52352">
        <ele>1023</ele>
        <time>2014-09-14T06:06:05Z</time>
      </trkpt>
      <trkpt lat="45.37222" lon="4.52352">
        <ele>1023</ele>
        <time>2014-09-14T06:06:08Z</time>
      </trkpt>
      <trkpt lat="45.37229" lon="4.52351">
        <ele>1022</ele>
        <time>2014-09-14T06:06:10Z</time>
      </trkpt>
      <trkpt lat="45.37234" lon="4.5235">
        <ele>1021</ele>
        <time>2014-09-14T06:06:12Z</time>
      </trkpt>
      <trkpt lat="45.3724" lon="4.52347">
        <ele>1020</ele>
        <time>2014-09-14T06:06:16Z</time>
      </trkpt>
      <trkpt lat="45.37243" lon="4.52346">
        <ele>1019</ele>
        <time>2014-09-14T06:06:18Z</time>
      </trkpt>
      <trkpt lat="45.3725" lon="4.52346">
        <ele>1018</ele>
        <time>2014-09-14T06:06:21Z</time>
      </trkpt>
      <trkpt lat="45.37258" lon="4.52343">
        <ele>1017</ele>
        <time>2014-09-14T06:06:23Z</time>
      </trkpt>
      <trkpt lat="45.37263" lon="4.52341">
        <ele>1016</ele>
        <time>2014-09-14T06:06:25Z</time>
      </trkpt>
      <trkpt lat="45.37272" lon="4.52338">
        <ele>1014</ele>
        <time>2014-09-14T06:06:28Z</time>
      </trkpt>
      <trkpt lat="45.37276" lon="4.52337">
        <ele>1013</ele>
        <time>2014-09-14T06:06:30Z</time>
      </trkpt>
      <trkpt lat="45.37285" lon="4.52332">
        <ele>1012</ele>
        <time>2014-09-14T06:06:33Z</time>
      </trkpt>
      <trkpt lat="45.37291" lon="4.5233">
        <ele>1011</ele>
        <time>2014-09-14T06:06:35Z</time>
      </trkpt>
      <trkpt lat="45.37297" lon="4.52328">
        <ele>1010</ele>
        <time>2014-09-14T06:06:37Z</time>
      </trkpt>
      <trkpt lat="45.37303" lon="4.52327">
        <ele>1009</ele>
        <time>2014-09-14T06:06:39Z</time>
      </trkpt>
      <trkpt lat="45.37313" lon="4.52321">
        <ele>1008</ele>
        <time>2014-09-14T06:06:42Z</time>
      </trkpt>
      <trkpt lat="45.3732" lon="4.52318">
        <ele>1008</ele>
        <time>2014-09-14T06:06:44Z</time>
      </trkpt>
      <trkpt lat="45.37326" lon="4.52318">
        <ele>1007</ele>
        <time>2014-09-14T06:06:46Z</time>
      </trkpt>
      <trkpt lat="45.37337" lon="4.52317">
        <ele>1006</ele>
        <time>2014-09-14T06:06:49Z</time>
      </trkpt>
      <trkpt lat="45.37345" lon="4.52317">
        <ele>1005</ele>
        <time>2014-09-14T06:06:51Z</time>
      </trkpt>
      <trkpt lat="45.37352" lon="4.52319">
        <ele>1004</ele>
        <time>2014-09-14T06:06:53Z</time>
      </trkpt>
      <trkpt lat="45.3736" lon="4.52321">
        <ele>1004</ele>
        <time>2014-09-14T06:06:55Z</time>
      </trkpt>
      <trkpt lat="45.37371" lon="4.52322">
        <ele>1003</ele>
        <time>2014-09-14T06:06:58Z</time>
      </trkpt>
      <trkpt lat="45.37379" lon="4.52321">
        <ele>1003</ele>
        <time>2014-09-14T06:07:01Z</time>
      </trkpt>
      <trkpt lat="45.37387" lon="4.52322">
        <ele>1002</ele>
        <time>2014-09-14T06:07:03Z</time>
      </trkpt>
      <trkpt lat="45.37398" lon="4.52325">
        <ele>1002</ele>
        <time>2014-09-14T06:07:05Z</time>
      </trkpt>
      <trkpt lat="45.37406" lon="4.52327">
        <ele>1001</ele>
        <time>2014-09-14T06:07:07Z</time>
      </trkpt>
      <trkpt lat="45.37417" lon="4.5233">
        <ele>1000</ele>
        <time>2014-09-14T06:07:10Z</time>
      </trkpt>
      <trkpt lat="45.37426" lon="4.52329">
        <ele>1000</ele>
        <time>2014-09-14T06:07:13Z</time>
      </trkpt>
      <trkpt lat="45.37438" lon="4.52329">
        <ele>999</ele>
        <time>2014-09-14T06:07:15Z</time>
      </trkpt>
      <trkpt lat="45.37449" lon="4.52329">
        <ele>998</ele>
        <time>2014-09-14T06:07:18Z</time>
      </trkpt>
      <trkpt lat="45.37456" lon="4.5233">
        <ele>997</ele>
        <time>2014-09-14T06:07:20Z</time>
      </trkpt>
      <trkpt lat="45.37467" lon="4.52333">
        <ele>997</ele>
        <time>2014-09-14T06:07:23Z</time>
      </trkpt>
      <trkpt lat="45.37478" lon="4.52336">
        <ele>996</ele>
        <time>2014-09-14T06:07:26Z</time>
      </trkpt>
      <trkpt lat="45.37484" lon="4.52339">
        <ele>996</ele>
        <time>2014-09-14T06:07:28Z</time>
      </trkpt>
      <trkpt lat="45.3749" lon="4.5234">
        <ele>996</ele>
        <time>2014-09-14T06:07:30Z</time>
      </trkpt>
      <trkpt lat="45.37499" lon="4.52342">
        <ele>995</ele>
        <time>2014-09-14T06:07:33Z</time>
      </trkpt>
      <trkpt lat="45.37506" lon="4.52344">
        <ele>995</ele>
        <time>2014-09-14T06:07:35Z</time>
      </trkpt>
      <trkpt lat="45.37515" lon="4.52344">
        <ele>995</ele>
        <time>2014-09-14T06:07:38Z</time>
      </trkpt>
      <trkpt lat="45.37525" lon="4.52346">
        <ele>993</ele>
        <time>2014-09-14T06:07:41Z</time>
      </trkpt>
      <trkpt lat="45.37536" lon="4.52347">
        <ele>992</ele>
        <time>2014-09-14T06:07:44Z</time>
      </trkpt>
      <trkpt lat="45.37547" lon="4.52348">
        <ele>992</ele>
        <time>2014-09-14T06:07:47Z</time>
      </trkpt>
      <trkpt lat="45.37555" lon="4.52349">
        <ele>992</ele>
        <time>2014-09-14T06:07:49Z</time>
      </trkpt>
      <trkpt lat="45.37561" lon="4.52349">
        <ele>992</ele>
        <time>2014-09-14T06:07:51Z</time>
      </trkpt>
      <trkpt lat="45.3757" lon="4.52347">
        <ele>991</ele>
        <time>2014-09-14T06:07:54Z</time>
      </trkpt>
      <trkpt lat="45.37582" lon="4.52345">
        <ele>990</ele>
        <time>2014-09-14T06:07:57Z</time>
      </trkpt>
      <trkpt lat="45.37589" lon="4.52344">
        <ele>990</ele>
        <time>2014-09-14T06:08:00Z</time>
      </trkpt>
      <trkpt lat="45.37603" lon="4.52341">
        <ele>989</ele>
        <time>2014-09-14T06:08:02Z</time>
      </trkpt>
      <trkpt lat="45.37615" lon="4.52335">
        <ele>988</ele>
        <time>2014-09-14T06:08:05Z</time>
      </trkpt>
      <trkpt lat="45.37627" lon="4.52332">
        <ele>987</ele>
        <time>2014-09-14T06:08:08Z</time>
      </trkpt>
      <trkpt lat="45.37637" lon="4.5233">
        <ele>987</ele>
        <time>2014-09-14T06:08:12Z</time>
      </trkpt>
      <trkpt lat="45.37645" lon="4.5233">
        <ele>987</ele>
        <time>2014-09-14T06:08:14Z</time>
      </trkpt>
      <trkpt lat="45.37651" lon="4.52331">
        <ele>988</ele>
        <time>2014-09-14T06:08:16Z</time>
      </trkpt>
      <trkpt lat="45.37658" lon="4.52333">
        <ele>989</ele>
        <time>2014-09-14T06:08:19Z</time>
      </trkpt>
      <trkpt lat="45.37665" lon="4.52336">
        <ele>990</ele>
        <time>2014-09-14T06:08:22Z</time>
      </trkpt>
      <trkpt lat="45.3767" lon="4.5234">
        <ele>991</ele>
        <time>2014-09-14T06:08:24Z</time>
      </trkpt>
      <trkpt lat="45.37675" lon="4.52344">
        <ele>992</ele>
        <time>2014-09-14T06:08:26Z</time>
      </trkpt>
      <trkpt lat="45.37681" lon="4.52349">
        <ele>993</ele>
        <time>2014-09-14T06:08:29Z</time>
      </trkpt>
      <trkpt lat="45.37685" lon="4.52351">
        <ele>994</ele>
        <time>2014-09-14T06:08:31Z</time>
      </trkpt>
      <trkpt lat="45.3769" lon="4.52352">
        <ele>994</ele>
        <time>2014-09-14T06:08:34Z</time>
      </trkpt>
      <trkpt lat="45.37696" lon="4.52356">
        <ele>995</ele>
        <time>2014-09-14T06:08:36Z</time>
      </trkpt>
      <trkpt lat="45.37701" lon="4.52361">
        <ele>996</ele>
        <time>2014-09-14T06:08:40Z</time>
      </trkpt>
      <trkpt lat="45.37705" lon="4.52367">
        <ele>997</ele>
        <time>2014-09-14T06:08:43Z</time>
      </trkpt>
      <trkpt lat="45.3771" lon="4.52373">
        <ele>998</ele>
        <time>2014-09-14T06:08:45Z</time>
      </trkpt>
      <trkpt lat="45.37714" lon="4.52377">
        <ele>999</ele>
        <time>2014-09-14T06:08:47Z</time>
      </trkpt>
      <trkpt lat="45.37719" lon="4.52384">
        <ele>1000</ele>
        <time>2014-09-14T06:08:50Z</time>
      </trkpt>
      <trkpt lat="45.37721" lon="4.52388">
        <ele>1001</ele>
        <time>2014-09-14T06:08:52Z</time>
      </trkpt>
      <trkpt lat="45.37724" lon="4.52394">
        <ele>1002</ele>
        <time>2014-09-14T06:08:54Z</time>
      </trkpt>
      <trkpt lat="45.37729" lon="4.52402">
        <ele>1002</ele>
        <time>2014-09-14T06:08:57Z</time>
      </trkpt>
      <trkpt lat="45.37734" lon="4.52408">
        <ele>1002</ele>
        <time>2014-09-14T06:08:59Z</time>
      </trkpt>
      <trkpt lat="45.3774" lon="4.52418">
        <ele>1002</ele>
        <time>2014-09-14T06:09:02Z</time>
      </trkpt>
      <trkpt lat="45.37746" lon="4.52428">
        <ele>1003</ele>
        <time>2014-09-14T06:09:05Z</time>
      </trkpt>
      <trkpt lat="45.3775" lon="4.52435">
        <ele>1003</ele>
        <time>2014-09-14T06:09:07Z</time>
      </trkpt>
      <trkpt lat="45.37754" lon="4.52443">
        <ele>1003</ele>
        <time>2014-09-14T06:09:10Z</time>
      </trkpt>
      <trkpt lat="45.37762" lon="4.52455">
        <ele>1003</ele>
        <time>2014-09-14T06:09:12Z</time>
      </trkpt>
      <trkpt lat="45.37766" lon="4.52462">
        <ele>1004</ele>
        <time>2014-09-14T06:09:14Z</time>
      </trkpt>
      <trkpt lat="45.3777" lon="4.52473">
        <ele>1002</ele>
        <time>2014-09-14T06:09:17Z</time>
      </trkpt>
      <trkpt lat="45.37774" lon="4.52485">
        <ele>1001</ele>
        <time>2014-09-14T06:09:20Z</time>
      </trkpt>
      <trkpt lat="45.37776" lon="4.52492">
        <ele>1000</ele>
        <time>2014-09-14T06:09:22Z</time>
      </trkpt>
      <trkpt lat="45.37778" lon="4.52504">
        <ele>1000</ele>
        <time>2014-09-14T06:09:25Z</time>
      </trkpt>
      <trkpt lat="45.37781" lon="4.52511">
        <ele>1000</ele>
        <time>2014-09-14T06:09:27Z</time>
      </trkpt>
      <trkpt lat="45.37785" lon="4.52521">
        <ele>999</ele>
        <time>2014-09-14T06:09:30Z</time>
      </trkpt>
      <trkpt lat="45.37787" lon="4.52528">
        <ele>1000</ele>
        <time>2014-09-14T06:09:32Z</time>
      </trkpt>
      <trkpt lat="45.37791" lon="4.52539">
        <ele>1000</ele>
        <time>2014-09-14T06:09:35Z</time>
      </trkpt>
      <trkpt lat="45.37794" lon="4.5255">
        <ele>999</ele>
        <time>2014-09-14T06:09:38Z</time>
      </trkpt>
      <trkpt lat="45.37796" lon="4.52556">
        <ele>999</ele>
        <time>2014-09-14T06:09:40Z</time>
      </trkpt>
      <trkpt lat="45.37801" lon="4.52563">
        <ele>999</ele>
        <time>2014-09-14T06:09:43Z</time>
      </trkpt>
      <trkpt lat="45.37805" lon="4.52571">
        <ele>1000</ele>
        <time>2014-09-14T06:09:46Z</time>
      </trkpt>
      <trkpt lat="45.37809" lon="4.52576">
        <ele>1001</ele>
        <time>2014-09-14T06:09:48Z</time>
      </trkpt>
      <trkpt lat="45.37814" lon="4.52581">
        <ele>1002</ele>
        <time>2014-09-14T06:09:51Z</time>
      </trkpt>
      <trkpt lat="45.3782" lon="4.52588">
        <ele>1003</ele>
        <time>2014-09-14T06:09:54Z</time>
      </trkpt>
      <trkpt lat="45.37823" lon="4.52592">
        <ele>1004</ele>
        <time>2014-09-14T06:09:56Z</time>
      </trkpt>
      <trkpt lat="45.37827" lon="4.52595">
        <ele>1004</ele>
        <time>2014-09-14T06:09:58Z</time>
      </trkpt>
      <trkpt lat="45.37831" lon="4.526">
        <ele>1005</ele>
        <time>2014-09-14T06:10:01Z</time>
      </trkpt>
      <trkpt lat="45.37834" lon="4.52603">
        <ele>1005</ele>
        <time>2014-09-14T06:10:03Z</time>
      </trkpt>
      <trkpt lat="45.37838" lon="4.52607">
        <ele>1005</ele>
        <time>2014-09-14T06:10:06Z</time>
      </trkpt>
      <trkpt lat="45.37842" lon="4.52611">
        <ele>1006</ele>
        <time>2014-09-14T06:10:09Z</time>
      </trkpt>
      <trkpt lat="45.37845" lon="4.52613">
        <ele>1007</ele>
        <time>2014-09-14T06:10:11Z</time>
      </trkpt>
      <trkpt lat="45.3785" lon="4.52618">
        <ele>1008</ele>
        <time>2014-09-14T06:10:14Z</time>
      </trkpt>
      <trkpt lat="45.37854" lon="4.52621">
        <ele>1009</ele>
        <time>2014-09-14T06:10:16Z</time>
      </trkpt>
      <trkpt lat="45.3786" lon="4.52624">
        <ele>1010</ele>
        <time>2014-09-14T06:10:19Z</time>
      </trkpt>
      <trkpt lat="45.37865" lon="4.52627">
        <ele>1011</ele>
        <time>2014-09-14T06:10:22Z</time>
      </trkpt>
      <trkpt lat="45.37872" lon="4.5263">
        <ele>1012</ele>
        <time>2014-09-14T06:10:25Z</time>
      </trkpt>
      <trkpt lat="45.37876" lon="4.52632">
        <ele>1012</ele>
        <time>2014-09-14T06:10:27Z</time>
      </trkpt>
      <trkpt lat="45.37881" lon="4.52635">
        <ele>1012</ele>
        <time>2014-09-14T06:10:30Z</time>
      </trkpt>
      <trkpt lat="45.37888" lon="4.52639">
        <ele>1013</ele>
        <time>2014-09-14T06:10:33Z</time>
      </trkpt>
      <trkpt lat="45.37892" lon="4.52641">
        <ele>1013</ele>
        <time>2014-09-14T06:10:35Z</time>
      </trkpt>
      <trkpt lat="45.37899" lon="4.52643">
        <ele>1014</ele>
        <time>2014-09-14T06:10:38Z</time>
      </trkpt>
      <trkpt lat="45.37904" lon="4.52647">
        <ele>1015</ele>
        <time>2014-09-14T06:10:41Z</time>
      </trkpt>
      <trkpt lat="45.3791" lon="4.5265">
        <ele>1015</ele>
        <time>2014-09-14T06:10:44Z</time>
      </trkpt>
      <trkpt lat="45.37916" lon="4.52654">
        <ele>1016</ele>
        <time>2014-09-14T06:10:48Z</time>
      </trkpt>
      <trkpt lat="45.37921" lon="4.52657">
        <ele>1017</ele>
        <time>2014-09-14T06:10:50Z</time>
      </trkpt>
      <trkpt lat="45.37924" lon="4.52659">
        <ele>1017</ele>
        <time>2014-09-14T06:10:52Z</time>
      </trkpt>
      <trkpt lat="45.37928" lon="4.52661">
        <ele>1018</ele>
        <time>2014-09-14T06:10:54Z</time>
      </trkpt>
      <trkpt lat="45.37931" lon="4.52664">
        <ele>1018</ele>
        <time>2014-09-14T06:10:57Z</time>
      </trkpt>
      <trkpt lat="45.37934" lon="4.52666">
        <ele>1019</ele>
        <time>2014-09-14T06:10:59Z</time>
      </trkpt>
      <trkpt lat="45.37937" lon="4.52669">
        <ele>1019</ele>
        <time>2014-09-14T06:11:02Z</time>
      </trkpt>
      <trkpt lat="45.37939" lon="4.5267">
        <ele>1020</ele>
        <time>2014-09-14T06:11:04Z</time>
      </trkpt>
      <trkpt lat="45.37942" lon="4.52672">
        <ele>1021</ele>
        <time>2014-09-14T06:11:08Z</time>
      </trkpt>
      <trkpt lat="45.37946" lon="4.52674">
        <ele>1021</ele>
        <time>2014-09-14T06:11:10Z</time>
      </trkpt>
      <trkpt lat="45.37948" lon="4.52676">
        <ele>1022</ele>
        <time>2014-09-14T06:11:12Z</time>
      </trkpt>
      <trkpt lat="45.37951" lon="4.52679">
        <ele>1023</ele>
        <time>2014-09-14T06:11:16Z</time>
      </trkpt>
      <trkpt lat="45.37954" lon="4.52683">
        <ele>1023</ele>
        <time>2014-09-14T06:11:18Z</time>
      </trkpt>
      <trkpt lat="45.37956" lon="4.52685">
        <ele>1024</ele>
        <time>2014-09-14T06:11:20Z</time>
      </trkpt>
      <trkpt lat="45.37958" lon="4.52687">
        <ele>1024</ele>
        <time>2014-09-14T06:11:22Z</time>
      </trkpt>
      <trkpt lat="45.3796" lon="4.52689">
        <ele>1025</ele>
        <time>2014-09-14T06:11:25Z</time>
      </trkpt>
      <trkpt lat="45.37962" lon="4.5269">
        <ele>1025</ele>
        <time>2014-09-14T06:11:27Z</time>
      </trkpt>
      <trkpt lat="45.37965" lon="4.52692">
        <ele>1026</ele>
        <time>2014-09-14T06:11:30Z</time>
      </trkpt>
      <trkpt lat="45.37967" lon="4.52693">
        <ele>1026</ele>
        <time>2014-09-14T06:11:32Z</time>
      </trkpt>
      <trkpt lat="45.37969" lon="4.52694">
        <ele>1027</ele>
        <time>2014-09-14T06:11:34Z</time>
      </trkpt>
      <trkpt lat="45.37971" lon="4.52696">
        <ele>1027</ele>
        <time>2014-09-14T06:11:36Z</time>
      </trkpt>
      <trkpt lat="45.37974" lon="4.52698">
        <ele>1028</ele>
        <time>2014-09-14T06:11:39Z</time>
      </trkpt>
      <trkpt lat="45.37976" lon="4.527">
        <ele>1028</ele>
        <time>2014-09-14T06:11:42Z</time>
      </trkpt>
      <trkpt lat="45.37979" lon="4.52701">
        <ele>1029</ele>
        <time>2014-09-14T06:11:44Z</time>
      </trkpt>
      <trkpt lat="45.37981" lon="4.52701">
        <ele>1029</ele>
        <time>2014-09-14T06:11:46Z</time>
      </trkpt>
      <trkpt lat="45.37984" lon="4.52704">
        <ele>1030</ele>
        <time>2014-09-14T06:11:49Z</time>
      </trkpt>
      <trkpt lat="45.37987" lon="4.52706">
        <ele>1031</ele>
        <time>2014-09-14T06:11:52Z</time>
      </trkpt>
      <trkpt lat="45.37988" lon="4.52707">
        <ele>1031</ele>
        <time>2014-09-14T06:11:54Z</time>
      </trkpt>
      <trkpt lat="45.3799" lon="4.52708">
        <ele>1031</ele>
        <time>2014-09-14T06:11:56Z</time>
      </trkpt>
      <trkpt lat="45.37992" lon="4.5271">
        <ele>1032</ele>
        <time>2014-09-14T06:12:00Z</time>
      </trkpt>
      <trkpt lat="45.37993" lon="4.52712">
        <ele>1033</ele>
        <time>2014-09-14T06:12:02Z</time>
      </trkpt>
      <trkpt lat="45.37995" lon="4.52714">
        <ele>1034</ele>
        <time>2014-09-14T06:12:05Z</time>
      </trkpt>
      <trkpt lat="45.37997" lon="4.52717">
        <ele>1034</ele>
        <time>2014-09-14T06:12:08Z</time>
      </trkpt>
      <trkpt lat="45.37999" lon="4.5272">
        <ele>1035</ele>
        <time>2014-09-14T06:12:11Z</time>
      </trkpt>
      <trkpt lat="45.38001" lon="4.52722">
        <ele>1036</ele>
        <time>2014-09-14T06:12:14Z</time>
      </trkpt>
      <trkpt lat="45.38003" lon="4.52722">
        <ele>1037</ele>
        <time>2014-09-14T06:12:16Z</time>
      </trkpt>
      <trkpt lat="45.38006" lon="4.52725">
        <ele>1038</ele>
        <time>2014-09-14T06:12:19Z</time>
      </trkpt>
      <trkpt lat="45.38009" lon="4.52726">
        <ele>1038</ele>
        <time>2014-09-14T06:12:22Z</time>
      </trkpt>
      <trkpt lat="45.3801" lon="4.52726">
        <ele>1039</ele>
        <time>2014-09-14T06:12:24Z</time>
      </trkpt>
      <trkpt lat="45.38013" lon="4.52727">
        <ele>1040</ele>
        <time>2014-09-14T06:12:27Z</time>
      </trkpt>
      <trkpt lat="45.38015" lon="4.52728">
        <ele>1040</ele>
        <time>2014-09-14T06:12:30Z</time>
      </trkpt>
      <trkpt lat="45.38017" lon="4.52727">
        <ele>1041</ele>
        <time>2014-09-14T06:12:32Z</time>
      </trkpt>
      <trkpt lat="45.38019" lon="4.52727">
        <ele>1042</ele>
        <time>2014-09-14T06:12:34Z</time>
      </trkpt>
      <trkpt lat="45.38022" lon="4.52726">
        <ele>1042</ele>
        <time>2014-09-14T06:12:37Z</time>
      </trkpt>
      <trkpt lat="45.38024" lon="4.52726">
        <ele>1043</ele>
        <time>2014-09-14T06:12:39Z</time>
      </trkpt>
      <trkpt lat="45.38027" lon="4.52726">
        <ele>1044</ele>
        <time>2014-09-14T06:12:42Z</time>
      </trkpt>
      <trkpt lat="45.38029" lon="4.52726">
        <ele>1044</ele>
        <time>2014-09-14T06:12:45Z</time>
      </trkpt>
      <trkpt lat="45.38031" lon="4.52726">
        <ele>1045</ele>
        <time>2014-09-14T06:12:47Z</time>
      </trkpt>
      <trkpt lat="45.38033" lon="4.52727">
        <ele>1045</ele>
        <time>2014-09-14T06:12:49Z</time>
      </trkpt>
      <trkpt lat="45.38035" lon="4.52728">
        <ele>1046</ele>
        <time>2014-09-14T06:12:52Z</time>
      </trkpt>
      <trkpt lat="45.38037" lon="4.52729">
        <ele>1046</ele>
        <time>2014-09-14T06:12:54Z</time>
      </trkpt>
      <trkpt lat="45.38039" lon="4.52731">
        <ele>1047</ele>
        <time>2014-09-14T06:12:57Z</time>
      </trkpt>
      <trkpt lat="45.38041" lon="4.52733">
        <ele>1048</ele>
        <time>2014-09-14T06:13:00Z</time>
      </trkpt>
      <trkpt lat="45.38042" lon="4.52735">
        <ele>1049</ele>
        <time>2014-09-14T06:13:03Z</time>
      </trkpt>
      <trkpt lat="45.38044" lon="4.52738">
        <ele>1050</ele>
        <time>2014-09-14T06:13:06Z</time>
      </trkpt>
      <trkpt lat="45.38044" lon="4.5274">
        <ele>1051</ele>
        <time>2014-09-14T06:13:08Z</time>
      </trkpt>
      <trkpt lat="45.38046" lon="4.52742">
        <ele>1051</ele>
        <time>2014-09-14T06:13:10Z</time>
      </trkpt>
      <trkpt lat="45.38048" lon="4.52746">
        <ele>1052</ele>
        <time>2014-09-14T06:13:13Z</time>
      </trkpt>
      <trkpt lat="45.38049" lon="4.52752">
        <ele>1052</ele>
        <time>2014-09-14T06:13:15Z</time>
      </trkpt>
      <trkpt lat="45.3805" lon="4.52758">
        <ele>1053</ele>
        <time>2014-09-14T06:13:18Z</time>
      </trkpt>
      <trkpt lat="45.38051" lon="4.52766">
        <ele>1053</ele>
        <time>2014-09-14T06:13:21Z</time>
      </trkpt>
      <trkpt lat="45.38052" lon="4.52775">
        <ele>1054</ele>
        <time>2014-09-14T06:13:24Z</time>
      </trkpt>
      <trkpt lat="45.38052" lon="4.52779">
        <ele>1055</ele>
        <time>2014-09-14T06:13:26Z</time>
      </trkpt>
      <trkpt lat="45.38051" lon="4.52785">
        <ele>1055</ele>
        <time>2014-09-14T06:13:28Z</time>
      </trkpt>
      <trkpt lat="45.3805" lon="4.52793">
        <ele>1056</ele>
        <time>2014-09-14T06:13:31Z</time>
      </trkpt>
      <trkpt lat="45.38051" lon="4.52802">
        <ele>1056</ele>
        <time>2014-09-14T06:13:34Z</time>
      </trkpt>
      <trkpt lat="45.38052" lon="4.52809">
        <ele>1057</ele>
        <time>2014-09-14T06:13:37Z</time>
      </trkpt>
      <trkpt lat="45.38052" lon="4.52819">
        <ele>1057</ele>
        <time>2014-09-14T06:13:39Z</time>
      </trkpt>
      <trkpt lat="45.3805" lon="4.52828">
        <ele>1057</ele>
        <time>2014-09-14T06:13:42Z</time>
      </trkpt>
      <trkpt lat="45.38048" lon="4.52838">
        <ele>1057</ele>
        <time>2014-09-14T06:13:45Z</time>
      </trkpt>
      <trkpt lat="45.38045" lon="4.52844">
        <ele>1057</ele>
        <time>2014-09-14T06:13:47Z</time>
      </trkpt>
      <trkpt lat="45.38045" lon="4.52851">
        <ele>1057</ele>
        <time>2014-09-14T06:13:50Z</time>
      </trkpt>
      <trkpt lat="45.38049" lon="4.52852">
        <ele>1057</ele>
        <time>2014-09-14T06:13:52Z</time>
      </trkpt>
      <trkpt lat="45.38052" lon="4.52852">
        <ele>1057</ele>
        <time>2014-09-14T06:13:54Z</time>
      </trkpt>
      <trkpt lat="45.38057" lon="4.52853">
        <ele>1056</ele>
        <time>2014-09-14T06:13:56Z</time>
      </trkpt>
      <trkpt lat="45.38063" lon="4.52857">
        <ele>1055</ele>
        <time>2014-09-14T06:13:59Z</time>
      </trkpt>
      <trkpt lat="45.38066" lon="4.52864">
        <ele>1054</ele>
        <time>2014-09-14T06:14:02Z</time>
      </trkpt>
      <trkpt lat="45.38066" lon="4.52874">
        <ele>1052</ele>
        <time>2014-09-14T06:14:05Z</time>
      </trkpt>
      <trkpt lat="45.38066" lon="4.52882">
        <ele>1051</ele>
        <time>2014-09-14T06:14:08Z</time>
      </trkpt>
      <trkpt lat="45.38064" lon="4.52889">
        <ele>1049</ele>
        <time>2014-09-14T06:14:10Z</time>
      </trkpt>
      <trkpt lat="45.38063" lon="4.52895">
        <ele>1048</ele>
        <time>2014-09-14T06:14:12Z</time>
      </trkpt>
      <trkpt lat="45.38062" lon="4.52905">
        <ele>1047</ele>
        <time>2014-09-14T06:14:15Z</time>
      </trkpt>
      <trkpt lat="45.38061" lon="4.52913">
        <ele>1047</ele>
        <time>2014-09-14T06:14:17Z</time>
      </trkpt>
      <trkpt lat="45.38062" lon="4.52922">
        <ele>1047</ele>
        <time>2014-09-14T06:14:20Z</time>
      </trkpt>
      <trkpt lat="45.38061" lon="4.52933">
        <ele>1046</ele>
        <time>2014-09-14T06:14:23Z</time>
      </trkpt>
      <trkpt lat="45.3806" lon="4.52941">
        <ele>1046</ele>
        <time>2014-09-14T06:14:25Z</time>
      </trkpt>
      <trkpt lat="45.3806" lon="4.52948">
        <ele>1045</ele>
        <time>2014-09-14T06:14:27Z</time>
      </trkpt>
      <trkpt lat="45.38061" lon="4.52963">
        <ele>1044</ele>
        <time>2014-09-14T06:14:30Z</time>
      </trkpt>
      <trkpt lat="45.38062" lon="4.52972">
        <ele>1043</ele>
        <time>2014-09-14T06:14:32Z</time>
      </trkpt>
      <trkpt lat="45.38065" lon="4.52982">
        <ele>1042</ele>
        <time>2014-09-14T06:14:34Z</time>
      </trkpt>
      <trkpt lat="45.38067" lon="4.52994">
        <ele>1042</ele>
        <time>2014-09-14T06:14:37Z</time>
      </trkpt>
      <trkpt lat="45.38068" lon="4.53003">
        <ele>1040</ele>
        <time>2014-09-14T06:14:39Z</time>
      </trkpt>
      <trkpt lat="45.38068" lon="4.53016">
        <ele>1039</ele>
        <time>2014-09-14T06:14:42Z</time>
      </trkpt>
      <trkpt lat="45.38069" lon="4.53024">
        <ele>1039</ele>
        <time>2014-09-14T06:14:44Z</time>
      </trkpt>
      <trkpt lat="45.3807" lon="4.53032">
        <ele>1038</ele>
        <time>2014-09-14T06:14:46Z</time>
      </trkpt>
      <trkpt lat="45.3807" lon="4.5304">
        <ele>1038</ele>
        <time>2014-09-14T06:14:48Z</time>
      </trkpt>
      <trkpt lat="45.3807" lon="4.53051">
        <ele>1037</ele>
        <time>2014-09-14T06:14:51Z</time>
      </trkpt>
      <trkpt lat="45.38069" lon="4.53063">
        <ele>1036</ele>
        <time>2014-09-14T06:14:54Z</time>
      </trkpt>
      <trkpt lat="45.3807" lon="4.53072">
        <ele>1035</ele>
        <time>2014-09-14T06:14:56Z</time>
      </trkpt>
      <trkpt lat="45.3807" lon="4.5308">
        <ele>1034</ele>
        <time>2014-09-14T06:14:58Z</time>
      </trkpt>
      <trkpt lat="45.3807" lon="4.53089">
        <ele>1033</ele>
        <time>2014-09-14T06:15:00Z</time>
      </trkpt>
      <trkpt lat="45.38071" lon="4.53099">
        <ele>1033</ele>
        <time>2014-09-14T06:15:03Z</time>
      </trkpt>
      <trkpt lat="45.38071" lon="4.53106">
        <ele>1032</ele>
        <time>2014-09-14T06:15:05Z</time>
      </trkpt>
      <trkpt lat="45.38073" lon="4.53112">
        <ele>1031</ele>
        <time>2014-09-14T06:15:07Z</time>
      </trkpt>
      <trkpt lat="45.38078" lon="4.5312">
        <ele>1029</ele>
        <time>2014-09-14T06:15:10Z</time>
      </trkpt>
      <trkpt lat="45.38079" lon="4.53125">
        <ele>1028</ele>
        <time>2014-09-14T06:15:12Z</time>
      </trkpt>
      <trkpt lat="45.38081" lon="4.53135">
        <ele>1027</ele>
        <time>2014-09-14T06:15:15Z</time>
      </trkpt>
      <trkpt lat="45.38083" lon="4.53141">
        <ele>1026</ele>
        <time>2014-09-14T06:15:17Z</time>
      </trkpt>
      <trkpt lat="45.38085" lon="4.53151">
        <ele>1025</ele>
        <time>2014-09-14T06:15:20Z</time>
      </trkpt>
      <trkpt lat="45.38088" lon="4.5316">
        <ele>1023</ele>
        <time>2014-09-14T06:15:23Z</time>
      </trkpt>
      <trkpt lat="45.38092" lon="4.53166">
        <ele>1022</ele>
        <time>2014-09-14T06:15:26Z</time>
      </trkpt>
      <trkpt lat="45.38096" lon="4.53172">
        <ele>1021</ele>
        <time>2014-09-14T06:15:29Z</time>
      </trkpt>
      <trkpt lat="45.38098" lon="4.53176">
        <ele>1020</ele>
        <time>2014-09-14T06:15:31Z</time>
      </trkpt>
      <trkpt lat="45.381" lon="4.53175">
        <ele>1019</ele>
        <time>2014-09-14T06:15:33Z</time>
      </trkpt>
      <trkpt lat="45.38103" lon="4.53174">
        <ele>1018</ele>
        <time>2014-09-14T06:15:35Z</time>
      </trkpt>
      <trkpt lat="45.38107" lon="4.5317">
        <ele>1017</ele>
        <time>2014-09-14T06:15:38Z</time>
      </trkpt>
      <trkpt lat="45.38107" lon="4.53166">
        <ele>1016</ele>
        <time>2014-09-14T06:15:40Z</time>
      </trkpt>
      <trkpt lat="45.38108" lon="4.53161">
        <ele>1015</ele>
        <time>2014-09-14T06:15:42Z</time>
      </trkpt>
      <trkpt lat="45.3811" lon="4.53152">
        <ele>1014</ele>
        <time>2014-09-14T06:15:45Z</time>
      </trkpt>
      <trkpt lat="45.3811" lon="4.53148">
        <ele>1013</ele>
        <time>2014-09-14T06:15:47Z</time>
      </trkpt>
      <trkpt lat="45.3811" lon="4.5314">
        <ele>1011</ele>
        <time>2014-09-14T06:15:50Z</time>
      </trkpt>
      <trkpt lat="45.38111" lon="4.53133">
        <ele>1010</ele>
        <time>2014-09-14T06:15:53Z</time>
      </trkpt>
      <trkpt lat="45.38113" lon="4.53129">
        <ele>1009</ele>
        <time>2014-09-14T06:15:55Z</time>
      </trkpt>
      <trkpt lat="45.38115" lon="4.53125">
        <ele>1007</ele>
        <time>2014-09-14T06:15:57Z</time>
      </trkpt>
      <trkpt lat="45.38118" lon="4.5312">
        <ele>1006</ele>
        <time>2014-09-14T06:16:00Z</time>
      </trkpt>
      <trkpt lat="45.3812" lon="4.53116">
        <ele>1004</ele>
        <time>2014-09-14T06:16:02Z</time>
      </trkpt>
      <trkpt lat="45.38123" lon="4.53112">
        <ele>1002</ele>
        <time>2014-09-14T06:16:04Z</time>
      </trkpt>
      <trkpt lat="45.38125" lon="4.53107">
        <ele>1001</ele>
        <time>2014-09-14T06:16:06Z</time>
      </trkpt>
      <trkpt lat="45.3813" lon="4.53099">
        <ele>1000</ele>
        <time>2014-09-14T06:16:09Z</time>
      </trkpt>
      <trkpt lat="45.38134" lon="4.5309">
        <ele>999</ele>
        <time>2014-09-14T06:16:12Z</time>
      </trkpt>
      <trkpt lat="45.38137" lon="4.53084">
        <ele>997</ele>
        <time>2014-09-14T06:16:14Z</time>
      </trkpt>
      <trkpt lat="45.38141" lon="4.53076">
        <ele>995</ele>
        <time>2014-09-14T06:16:17Z</time>
      </trkpt>
      <trkpt lat="45.38145" lon="4.53066">
        <ele>993</ele>
        <time>2014-09-14T06:16:20Z</time>
      </trkpt>
      <trkpt lat="45.3815" lon="4.53057">
        <ele>992</ele>
        <time>2014-09-14T06:16:23Z</time>
      </trkpt>
      <trkpt lat="45.38157" lon="4.53051">
        <ele>991</ele>
        <time>2014-09-14T06:16:26Z</time>
      </trkpt>
      <trkpt lat="45.38162" lon="4.53047">
        <ele>990</ele>
        <time>2014-09-14T06:16:28Z</time>
      </trkpt>
      <trkpt lat="45.38167" lon="4.53044">
        <ele>989</ele>
        <time>2014-09-14T06:16:30Z</time>
      </trkpt>
      <trkpt lat="45.38174" lon="4.5304">
        <ele>987</ele>
        <time>2014-09-14T06:16:33Z</time>
      </trkpt>
      <trkpt lat="45.38176" lon="4.53046">
        <ele>985</ele>
        <time>2014-09-14T06:16:36Z</time>
      </trkpt>
      <trkpt lat="45.38176" lon="4.5305">
        <ele>984</ele>
        <time>2014-09-14T06:16:38Z</time>
      </trkpt>
      <trkpt lat="45.38176" lon="4.53056">
        <ele>983</ele>
        <time>2014-09-14T06:16:41Z</time>
      </trkpt>
      <trkpt lat="45.38178" lon="4.53064">
        <ele>981</ele>
        <time>2014-09-14T06:16:43Z</time>
      </trkpt>
      <trkpt lat="45.38183" lon="4.5307">
        <ele>979</ele>
        <time>2014-09-14T06:16:46Z</time>
      </trkpt>
      <trkpt lat="45.38186" lon="4.53074">
        <ele>978</ele>
        <time>2014-09-14T06:16:48Z</time>
      </trkpt>
      <trkpt lat="45.3819" lon="4.53077">
        <ele>977</ele>
        <time>2014-09-14T06:16:50Z</time>
      </trkpt>
      <trkpt lat="45.38195" lon="4.53082">
        <ele>975</ele>
        <time>2014-09-14T06:16:53Z</time>
      </trkpt>
      <trkpt lat="45.382" lon="4.53085">
        <ele>974</ele>
        <time>2014-09-14T06:16:55Z</time>
      </trkpt>
      <trkpt lat="45.38205" lon="4.53089">
        <ele>973</ele>
        <time>2014-09-14T06:16:58Z</time>
      </trkpt>
      <trkpt lat="45.38212" lon="4.53097">
        <ele>972</ele>
        <time>2014-09-14T06:17:00Z</time>
      </trkpt>
      <trkpt lat="45.38217" lon="4.53101">
        <ele>970</ele>
        <time>2014-09-14T06:17:03Z</time>
      </trkpt>
      <trkpt lat="45.38221" lon="4.53106">
        <ele>969</ele>
        <time>2014-09-14T06:17:05Z</time>
      </trkpt>
      <trkpt lat="45.38228" lon="4.53113">
        <ele>967</ele>
        <time>2014-09-14T06:17:08Z</time>
      </trkpt>
      <trkpt lat="45.38234" lon="4.53117">
        <ele>966</ele>
        <time>2014-09-14T06:17:10Z</time>
      </trkpt>
      <trkpt lat="45.38244" lon="4.53122">
        <ele>965</ele>
        <time>2014-09-14T06:17:13Z</time>
      </trkpt>
      <trkpt lat="45.38251" lon="4.5313">
        <ele>964</ele>
        <time>2014-09-14T06:17:16Z</time>
      </trkpt>
      <trkpt lat="45.38257" lon="4.53143">
        <ele>963</ele>
        <time>2014-09-14T06:17:19Z</time>
      </trkpt>
      <trkpt lat="45.38264" lon="4.53154">
        <ele>962</ele>
        <time>2014-09-14T06:17:22Z</time>
      </trkpt>
      <trkpt lat="45.38268" lon="4.53161">
        <ele>960</ele>
        <time>2014-09-14T06:17:24Z</time>
      </trkpt>
      <trkpt lat="45.38276" lon="4.53171">
        <ele>959</ele>
        <time>2014-09-14T06:17:27Z</time>
      </trkpt>
      <trkpt lat="45.38279" lon="4.53178">
        <ele>958</ele>
        <time>2014-09-14T06:17:29Z</time>
      </trkpt>
      <trkpt lat="45.38284" lon="4.53183">
        <ele>957</ele>
        <time>2014-09-14T06:17:31Z</time>
      </trkpt>
      <trkpt lat="45.38287" lon="4.53194">
        <ele>956</ele>
        <time>2014-09-14T06:17:34Z</time>
      </trkpt>
      <trkpt lat="45.3829" lon="4.53201">
        <ele>955</ele>
        <time>2014-09-14T06:17:36Z</time>
      </trkpt>
      <trkpt lat="45.38294" lon="4.53214">
        <ele>955</ele>
        <time>2014-09-14T06:17:39Z</time>
      </trkpt>
      <trkpt lat="45.38296" lon="4.53226">
        <ele>954</ele>
        <time>2014-09-14T06:17:43Z</time>
      </trkpt>
      <trkpt lat="45.38302" lon="4.53238">
        <ele>953</ele>
        <time>2014-09-14T06:17:45Z</time>
      </trkpt>
      <trkpt lat="45.38308" lon="4.53252">
        <ele>952</ele>
        <time>2014-09-14T06:17:48Z</time>
      </trkpt>
      <trkpt lat="45.38314" lon="4.53264">
        <ele>951</ele>
        <time>2014-09-14T06:17:51Z</time>
      </trkpt>
      <trkpt lat="45.3832" lon="4.53276">
        <ele>949</ele>
        <time>2014-09-14T06:17:54Z</time>
      </trkpt>
      <trkpt lat="45.38325" lon="4.53286">
        <ele>947</ele>
        <time>2014-09-14T06:17:57Z</time>
      </trkpt>
      <trkpt lat="45.3833" lon="4.53296">
        <ele>945</ele>
        <time>2014-09-14T06:18:00Z</time>
      </trkpt>
      <trkpt lat="45.38335" lon="4.53305">
        <ele>943</ele>
        <time>2014-09-14T06:18:03Z</time>
      </trkpt>
      <trkpt lat="45.38341" lon="4.53314">
        <ele>942</ele>
        <time>2014-09-14T06:18:06Z</time>
      </trkpt>
      <trkpt lat="45.38345" lon="4.53321">
        <ele>940</ele>
        <time>2014-09-14T06:18:08Z</time>
      </trkpt>
      <trkpt lat="45.38347" lon="4.53327">
        <ele>939</ele>
        <time>2014-09-14T06:18:10Z</time>
      </trkpt>
      <trkpt lat="45.38352" lon="4.53336">
        <ele>938</ele>
        <time>2014-09-14T06:18:13Z</time>
      </trkpt>
      <trkpt lat="45.38355" lon="4.5334">
        <ele>936</ele>
        <time>2014-09-14T06:18:15Z</time>
      </trkpt>
      <trkpt lat="45.38359" lon="4.53348">
        <ele>935</ele>
        <time>2014-09-14T06:18:17Z</time>
      </trkpt>
      <trkpt lat="45.38366" lon="4.53359">
        <ele>934</ele>
        <time>2014-09-14T06:18:20Z</time>
      </trkpt>
      <trkpt lat="45.38369" lon="4.53366">
        <ele>933</ele>
        <time>2014-09-14T06:18:22Z</time>
      </trkpt>
      <trkpt lat="45.38373" lon="4.53378">
        <ele>931</ele>
        <time>2014-09-14T06:18:25Z</time>
      </trkpt>
      <trkpt lat="45.38376" lon="4.53385">
        <ele>929</ele>
        <time>2014-09-14T06:18:27Z</time>
      </trkpt>
      <trkpt lat="45.3838" lon="4.53399">
        <ele>929</ele>
        <time>2014-09-14T06:18:30Z</time>
      </trkpt>
      <trkpt lat="45.38382" lon="4.53413">
        <ele>927</ele>
        <time>2014-09-14T06:18:33Z</time>
      </trkpt>
      <trkpt lat="45.38385" lon="4.53427">
        <ele>926</ele>
        <time>2014-09-14T06:18:36Z</time>
      </trkpt>
      <trkpt lat="45.38386" lon="4.53437">
        <ele>925</ele>
        <time>2014-09-14T06:18:38Z</time>
      </trkpt>
      <trkpt lat="45.38388" lon="4.53446">
        <ele>924</ele>
        <time>2014-09-14T06:18:40Z</time>
      </trkpt>
      <trkpt lat="45.38391" lon="4.53459">
        <ele>923</ele>
        <time>2014-09-14T06:18:43Z</time>
      </trkpt>
      <trkpt lat="45.38395" lon="4.53466">
        <ele>922</ele>
        <time>2014-09-14T06:18:45Z</time>
      </trkpt>
      <trkpt lat="45.384" lon="4.53474">
        <ele>921</ele>
        <time>2014-09-14T06:18:48Z</time>
      </trkpt>
      <trkpt lat="45.38405" lon="4.53484">
        <ele>919</ele>
        <time>2014-09-14T06:18:51Z</time>
      </trkpt>
      <trkpt lat="45.38408" lon="4.5349">
        <ele>918</ele>
        <time>2014-09-14T06:18:53Z</time>
      </trkpt>
      <trkpt lat="45.38411" lon="4.53501">
        <ele>917</ele>
        <time>2014-09-14T06:18:56Z</time>
      </trkpt>
      <trkpt lat="45.38414" lon="4.53515">
        <ele>915</ele>
        <time>2014-09-14T06:18:59Z</time>
      </trkpt>
      <trkpt lat="45.38416" lon="4.53528">
        <ele>914</ele>
        <time>2014-09-14T06:19:02Z</time>
      </trkpt>
      <trkpt lat="45.38417" lon="4.53536">
        <ele>913</ele>
        <time>2014-09-14T06:19:04Z</time>
      </trkpt>
      <trkpt lat="45.38417" lon="4.53547">
        <ele>911</ele>
        <time>2014-09-14T06:19:07Z</time>
      </trkpt>
      <trkpt lat="45.38417" lon="4.53555">
        <ele>910</ele>
        <time>2014-09-14T06:19:09Z</time>
      </trkpt>
      <trkpt lat="45.38419" lon="4.53565">
        <ele>909</ele>
        <time>2014-09-14T06:19:12Z</time>
      </trkpt>
      <trkpt lat="45.38418" lon="4.53571">
        <ele>907</ele>
        <time>2014-09-14T06:19:14Z</time>
      </trkpt>
      <trkpt lat="45.38418" lon="4.5358">
        <ele>906</ele>
        <time>2014-09-14T06:19:17Z</time>
      </trkpt>
      <trkpt lat="45.38419" lon="4.53587">
        <ele>904</ele>
        <time>2014-09-14T06:19:20Z</time>
      </trkpt>
      <trkpt lat="45.3842" lon="4.53596">
        <ele>902</ele>
        <time>2014-09-14T06:19:23Z</time>
      </trkpt>
      <trkpt lat="45.3842" lon="4.53602">
        <ele>901</ele>
        <time>2014-09-14T06:19:25Z</time>
      </trkpt>
      <trkpt lat="45.38419" lon="4.53611">
        <ele>901</ele>
        <time>2014-09-14T06:19:28Z</time>
      </trkpt>
      <trkpt lat="45.38417" lon="4.53618">
        <ele>899</ele>
        <time>2014-09-14T06:19:31Z</time>
      </trkpt>
      <trkpt lat="45.38415" lon="4.53626">
        <ele>898</ele>
        <time>2014-09-14T06:19:33Z</time>
      </trkpt>
      <trkpt lat="45.38411" lon="4.53634">
        <ele>897</ele>
        <time>2014-09-14T06:19:35Z</time>
      </trkpt>
      <trkpt lat="45.38407" lon="4.53643">
        <ele>896</ele>
        <time>2014-09-14T06:19:37Z</time>
      </trkpt>
      <trkpt lat="45.38399" lon="4.53654">
        <ele>895</ele>
        <time>2014-09-14T06:19:40Z</time>
      </trkpt>
      <trkpt lat="45.38392" lon="4.53663">
        <ele>895</ele>
        <time>2014-09-14T06:19:43Z</time>
      </trkpt>
      <trkpt lat="45.38386" lon="4.53675">
        <ele>894</ele>
        <time>2014-09-14T06:19:46Z</time>
      </trkpt>
      <trkpt lat="45.3838" lon="4.53688">
        <ele>894</ele>
        <time>2014-09-14T06:19:49Z</time>
      </trkpt>
      <trkpt lat="45.38376" lon="4.53697">
        <ele>893</ele>
        <time>2014-09-14T06:19:51Z</time>
      </trkpt>
      <trkpt lat="45.3837" lon="4.53711">
        <ele>892</ele>
        <time>2014-09-14T06:19:54Z</time>
      </trkpt>
      <trkpt lat="45.38367" lon="4.53721">
        <ele>892</ele>
        <time>2014-09-14T06:19:56Z</time>
      </trkpt>
      <trkpt lat="45.38363" lon="4.5373">
        <ele>891</ele>
        <time>2014-09-14T06:19:58Z</time>
      </trkpt>
      <trkpt lat="45.38359" lon="4.53738">
        <ele>890</ele>
        <time>2014-09-14T06:20:00Z</time>
      </trkpt>
      <trkpt lat="45.38353" lon="4.53749">
        <ele>890</ele>
        <time>2014-09-14T06:20:03Z</time>
      </trkpt>
      <trkpt lat="45.38349" lon="4.53757">
        <ele>890</ele>
        <time>2014-09-14T06:20:05Z</time>
      </trkpt>
      <trkpt lat="45.38343" lon="4.53767">
        <ele>890</ele>
        <time>2014-09-14T06:20:08Z</time>
      </trkpt>
      <trkpt lat="45.38337" lon="4.53779">
        <ele>890</ele>
        <time>2014-09-14T06:20:11Z</time>
      </trkpt>
      <trkpt lat="45.38331" lon="4.53789">
        <ele>890</ele>
        <time>2014-09-14T06:20:14Z</time>
      </trkpt>
      <trkpt lat="45.38328" lon="4.53797">
        <ele>890</ele>
        <time>2014-09-14T06:20:16Z</time>
      </trkpt>
      <trkpt lat="45.38324" lon="4.53803">
        <ele>891</ele>
        <time>2014-09-14T06:20:18Z</time>
      </trkpt>
      <trkpt lat="45.38316" lon="4.53809">
        <ele>891</ele>
        <time>2014-09-14T06:20:21Z</time>
      </trkpt>
      <trkpt lat="45.38309" lon="4.53816">
        <ele>891</ele>
        <time>2014-09-14T06:20:24Z</time>
      </trkpt>
      <trkpt lat="45.38302" lon="4.53822">
        <ele>891</ele>
        <time>2014-09-14T06:20:27Z</time>
      </trkpt>
      <trkpt lat="45.38296" lon="4.53825">
        <ele>891</ele>
        <time>2014-09-14T06:20:29Z</time>
      </trkpt>
      <trkpt lat="45.38289" lon="4.53829">
        <ele>892</ele>
        <time>2014-09-14T06:20:32Z</time>
      </trkpt>
      <trkpt lat="45.38284" lon="4.53833">
        <ele>892</ele>
        <time>2014-09-14T06:20:34Z</time>
      </trkpt>
      <trkpt lat="45.38277" lon="4.53839">
        <ele>893</ele>
        <time>2014-09-14T06:20:37Z</time>
      </trkpt>
      <trkpt lat="45.38269" lon="4.53843">
        <ele>893</ele>
        <time>2014-09-14T06:20:40Z</time>
      </trkpt>
      <trkpt lat="45.38264" lon="4.53846">
        <ele>893</ele>
        <time>2014-09-14T06:20:42Z</time>
      </trkpt>
      <trkpt lat="45.38258" lon="4.53851">
        <ele>893</ele>
        <time>2014-09-14T06:20:45Z</time>
      </trkpt>
      <trkpt lat="45.38253" lon="4.53856">
        <ele>895</ele>
        <time>2014-09-14T06:20:48Z</time>
      </trkpt>
      <trkpt lat="45.38246" lon="4.53863">
        <ele>895</ele>
        <time>2014-09-14T06:20:51Z</time>
      </trkpt>
      <trkpt lat="45.38241" lon="4.53867">
        <ele>896</ele>
        <time>2014-09-14T06:20:53Z</time>
      </trkpt>
      <trkpt lat="45.38234" lon="4.53874">
        <ele>896</ele>
        <time>2014-09-14T06:20:56Z</time>
      </trkpt>
      <trkpt lat="45.38225" lon="4.53881">
        <ele>897</ele>
        <time>2014-09-14T06:20:59Z</time>
      </trkpt>
      <trkpt lat="45.38219" lon="4.53886">
        <ele>898</ele>
        <time>2014-09-14T06:21:01Z</time>
      </trkpt>
      <trkpt lat="45.38211" lon="4.53894">
        <ele>898</ele>
        <time>2014-09-14T06:21:04Z</time>
      </trkpt>
      <trkpt lat="45.38205" lon="4.53905">
        <ele>899</ele>
        <time>2014-09-14T06:21:07Z</time>
      </trkpt>
      <trkpt lat="45.38203" lon="4.53913">
        <ele>899</ele>
        <time>2014-09-14T06:21:09Z</time>
      </trkpt>
      <trkpt lat="45.38199" lon="4.53924">
        <ele>898</ele>
        <time>2014-09-14T06:21:12Z</time>
      </trkpt>
      <trkpt lat="45.38196" lon="4.53931">
        <ele>897</ele>
        <time>2014-09-14T06:21:14Z</time>
      </trkpt>
      <trkpt lat="45.38192" lon="4.5394">
        <ele>896</ele>
        <time>2014-09-14T06:21:17Z</time>
      </trkpt>
      <trkpt lat="45.38188" lon="4.53948">
        <ele>895</ele>
        <time>2014-09-14T06:21:20Z</time>
      </trkpt>
      <trkpt lat="45.38187" lon="4.53957">
        <ele>894</ele>
        <time>2014-09-14T06:21:23Z</time>
      </trkpt>
      <trkpt lat="45.38186" lon="4.53963">
        <ele>893</ele>
        <time>2014-09-14T06:21:25Z</time>
      </trkpt>
      <trkpt lat="45.38186" lon="4.53973">
        <ele>890</ele>
        <time>2014-09-14T06:21:28Z</time>
      </trkpt>
      <trkpt lat="45.38188" lon="4.53981">
        <ele>889</ele>
        <time>2014-09-14T06:21:30Z</time>
      </trkpt>
      <trkpt lat="45.38191" lon="4.53994">
        <ele>888</ele>
        <time>2014-09-14T06:21:33Z</time>
      </trkpt>
      <trkpt lat="45.38199" lon="4.54">
        <ele>886</ele>
        <time>2014-09-14T06:21:36Z</time>
      </trkpt>
      <trkpt lat="45.38205" lon="4.54">
        <ele>886</ele>
        <time>2014-09-14T06:21:38Z</time>
      </trkpt>
      <trkpt lat="45.38212" lon="4.54">
        <ele>885</ele>
        <time>2014-09-14T06:21:41Z</time>
      </trkpt>
      <trkpt lat="45.38217" lon="4.53998">
        <ele>885</ele>
        <time>2014-09-14T06:21:43Z</time>
      </trkpt>
      <trkpt lat="45.38226" lon="4.53996">
        <ele>885</ele>
        <time>2014-09-14T06:21:46Z</time>
      </trkpt>
      <trkpt lat="45.38233" lon="4.53993">
        <ele>885</ele>
        <time>2014-09-14T06:21:49Z</time>
      </trkpt>
      <trkpt lat="45.38238" lon="4.5399">
        <ele>884</ele>
        <time>2014-09-14T06:21:51Z</time>
      </trkpt>
      <trkpt lat="45.38245" lon="4.53988">
        <ele>884</ele>
        <time>2014-09-14T06:21:54Z</time>
      </trkpt>
      <trkpt lat="45.3825" lon="4.53985">
        <ele>884</ele>
        <time>2014-09-14T06:21:56Z</time>
      </trkpt>
      <trkpt lat="45.38257" lon="4.5398">
        <ele>884</ele>
        <time>2014-09-14T06:21:59Z</time>
      </trkpt>
      <trkpt lat="45.38262" lon="4.53976">
        <ele>884</ele>
        <time>2014-09-14T06:22:01Z</time>
      </trkpt>
      <trkpt lat="45.38266" lon="4.53971">
        <ele>884</ele>
        <time>2014-09-14T06:22:03Z</time>
      </trkpt>
      <trkpt lat="45.38273" lon="4.53968">
        <ele>884</ele>
        <time>2014-09-14T06:22:06Z</time>
      </trkpt>
      <trkpt lat="45.3828" lon="4.53965">
        <ele>884</ele>
        <time>2014-09-14T06:22:09Z</time>
      </trkpt>
      <trkpt lat="45.38287" lon="4.53963">
        <ele>883</ele>
        <time>2014-09-14T06:22:12Z</time>
      </trkpt>
      <trkpt lat="45.38295" lon="4.53958">
        <ele>884</ele>
        <time>2014-09-14T06:22:15Z</time>
      </trkpt>
      <trkpt lat="45.38304" lon="4.53956">
        <ele>883</ele>
        <time>2014-09-14T06:22:18Z</time>
      </trkpt>
      <trkpt lat="45.38309" lon="4.53953">
        <ele>883</ele>
        <time>2014-09-14T06:22:20Z</time>
      </trkpt>
      <trkpt lat="45.38316" lon="4.5395">
        <ele>882</ele>
        <time>2014-09-14T06:22:23Z</time>
      </trkpt>
      <trkpt lat="45.38324" lon="4.53946">
        <ele>882</ele>
        <time>2014-09-14T06:22:26Z</time>
      </trkpt>
      <trkpt lat="45.3833" lon="4.53943">
        <ele>882</ele>
        <time>2014-09-14T06:22:28Z</time>
      </trkpt>
      <trkpt lat="45.38335" lon="4.5394">
        <ele>882</ele>
        <time>2014-09-14T06:22:30Z</time>
      </trkpt>
      <trkpt lat="45.38343" lon="4.53938">
        <ele>882</ele>
        <time>2014-09-14T06:22:33Z</time>
      </trkpt>
      <trkpt lat="45.38353" lon="4.53935">
        <ele>881</ele>
        <time>2014-09-14T06:22:36Z</time>
      </trkpt>
      <trkpt lat="45.38364" lon="4.53933">
        <ele>881</ele>
        <time>2014-09-14T06:22:39Z</time>
      </trkpt>
      <trkpt lat="45.38369" lon="4.53933">
        <ele>880</ele>
        <time>2014-09-14T06:22:41Z</time>
      </trkpt>
      <trkpt lat="45.3838" lon="4.53932">
        <ele>880</ele>
        <time>2014-09-14T06:22:44Z</time>
      </trkpt>
      <trkpt lat="45.38386" lon="4.53931">
        <ele>879</ele>
        <time>2014-09-14T06:22:46Z</time>
      </trkpt>
      <trkpt lat="45.38395" lon="4.53929">
        <ele>878</ele>
        <time>2014-09-14T06:22:49Z</time>
      </trkpt>
      <trkpt lat="45.38405" lon="4.5393">
        <ele>876</ele>
        <time>2014-09-14T06:22:52Z</time>
      </trkpt>
      <trkpt lat="45.38411" lon="4.5393">
        <ele>876</ele>
        <time>2014-09-14T06:22:54Z</time>
      </trkpt>
      <trkpt lat="45.3842" lon="4.5393">
        <ele>876</ele>
        <time>2014-09-14T06:22:57Z</time>
      </trkpt>
      <trkpt lat="45.38429" lon="4.53929">
        <ele>876</ele>
        <time>2014-09-14T06:23:00Z</time>
      </trkpt>
      <trkpt lat="45.38439" lon="4.53929">
        <ele>876</ele>
        <time>2014-09-14T06:23:03Z</time>
      </trkpt>
      <trkpt lat="45.38445" lon="4.53929">
        <ele>876</ele>
        <time>2014-09-14T06:23:05Z</time>
      </trkpt>
      <trkpt lat="45.38456" lon="4.53931">
        <ele>876</ele>
        <time>2014-09-14T06:23:08Z</time>
      </trkpt>
      <trkpt lat="45.38466" lon="4.53933">
        <ele>875</ele>
        <time>2014-09-14T06:23:11Z</time>
      </trkpt>
      <trkpt lat="45.38477" lon="4.53934">
        <ele>875</ele>
        <time>2014-09-14T06:23:14Z</time>
      </trkpt>
      <trkpt lat="45.38489" lon="4.53936">
        <ele>874</ele>
        <time>2014-09-14T06:23:17Z</time>
      </trkpt>
      <trkpt lat="45.38495" lon="4.53937">
        <ele>873</ele>
        <time>2014-09-14T06:23:19Z</time>
      </trkpt>
      <trkpt lat="45.38508" lon="4.53939">
        <ele>872</ele>
        <time>2014-09-14T06:23:22Z</time>
      </trkpt>
      <trkpt lat="45.3852" lon="4.53942">
        <ele>871</ele>
        <time>2014-09-14T06:23:25Z</time>
      </trkpt>
      <trkpt lat="45.38528" lon="4.53945">
        <ele>869</ele>
        <time>2014-09-14T06:23:28Z</time>
      </trkpt>
      <trkpt lat="45.38534" lon="4.53947">
        <ele>868</ele>
        <time>2014-09-14T06:23:30Z</time>
      </trkpt>
      <trkpt lat="45.38543" lon="4.53953">
        <ele>866</ele>
        <time>2014-09-14T06:23:33Z</time>
      </trkpt>
      <trkpt lat="45.38549" lon="4.53957">
        <ele>865</ele>
        <time>2014-09-14T06:23:35Z</time>
      </trkpt>
      <trkpt lat="45.38557" lon="4.53962">
        <ele>864</ele>
        <time>2014-09-14T06:23:38Z</time>
      </trkpt>
      <trkpt lat="45.38567" lon="4.53968">
        <ele>862</ele>
        <time>2014-09-14T06:23:41Z</time>
      </trkpt>
      <trkpt lat="45.38575" lon="4.53973">
        <ele>860</ele>
        <time>2014-09-14T06:23:44Z</time>
      </trkpt>
      <trkpt lat="45.3858" lon="4.53977">
        <ele>859</ele>
        <time>2014-09-14T06:23:46Z</time>
      </trkpt>
      <trkpt lat="45.38586" lon="4.5398">
        <ele>858</ele>
        <time>2014-09-14T06:23:48Z</time>
      </trkpt>
      <trkpt lat="45.38592" lon="4.53984">
        <ele>857</ele>
        <time>2014-09-14T06:23:50Z</time>
      </trkpt>
      <trkpt lat="45.38601" lon="4.53992">
        <ele>857</ele>
        <time>2014-09-14T06:23:53Z</time>
      </trkpt>
      <trkpt lat="45.38607" lon="4.53998">
        <ele>857</ele>
        <time>2014-09-14T06:23:55Z</time>
      </trkpt>
      <trkpt lat="45.38615" lon="4.54006">
        <ele>856</ele>
        <time>2014-09-14T06:23:58Z</time>
      </trkpt>
      <trkpt lat="45.38622" lon="4.54015">
        <ele>855</ele>
        <time>2014-09-14T06:24:01Z</time>
      </trkpt>
      <trkpt lat="45.38626" lon="4.54021">
        <ele>854</ele>
        <time>2014-09-14T06:24:03Z</time>
      </trkpt>
      <trkpt lat="45.3863" lon="4.54028">
        <ele>853</ele>
        <time>2014-09-14T06:24:05Z</time>
      </trkpt>
      <trkpt lat="45.38633" lon="4.54035">
        <ele>852</ele>
        <time>2014-09-14T06:24:07Z</time>
      </trkpt>
      <trkpt lat="45.38638" lon="4.54047">
        <ele>851</ele>
        <time>2014-09-14T06:24:10Z</time>
      </trkpt>
      <trkpt lat="45.38642" lon="4.54061">
        <ele>849</ele>
        <time>2014-09-14T06:24:13Z</time>
      </trkpt>
      <trkpt lat="45.38644" lon="4.54075">
        <ele>847</ele>
        <time>2014-09-14T06:24:16Z</time>
      </trkpt>
      <trkpt lat="45.38647" lon="4.54085">
        <ele>846</ele>
        <time>2014-09-14T06:24:18Z</time>
      </trkpt>
      <trkpt lat="45.38648" lon="4.54098">
        <ele>843</ele>
        <time>2014-09-14T06:24:21Z</time>
      </trkpt>
      <trkpt lat="45.3865" lon="4.54111">
        <ele>842</ele>
        <time>2014-09-14T06:24:24Z</time>
      </trkpt>
      <trkpt lat="45.3865" lon="4.54119">
        <ele>840</ele>
        <time>2014-09-14T06:24:26Z</time>
      </trkpt>
      <trkpt lat="45.38651" lon="4.54132">
        <ele>839</ele>
        <time>2014-09-14T06:24:29Z</time>
      </trkpt>
      <trkpt lat="45.38653" lon="4.54143">
        <ele>837</ele>
        <time>2014-09-14T06:24:32Z</time>
      </trkpt>
      <trkpt lat="45.38655" lon="4.54153">
        <ele>836</ele>
        <time>2014-09-14T06:24:35Z</time>
      </trkpt>
      <trkpt lat="45.38658" lon="4.54164">
        <ele>834</ele>
        <time>2014-09-14T06:24:38Z</time>
      </trkpt>
      <trkpt lat="45.3866" lon="4.54172">
        <ele>833</ele>
        <time>2014-09-14T06:24:40Z</time>
      </trkpt>
      <trkpt lat="45.38662" lon="4.5418">
        <ele>832</ele>
        <time>2014-09-14T06:24:42Z</time>
      </trkpt>
      <trkpt lat="45.38665" lon="4.54193">
        <ele>832</ele>
        <time>2014-09-14T06:24:45Z</time>
      </trkpt>
      <trkpt lat="45.38669" lon="4.54205">
        <ele>832</ele>
        <time>2014-09-14T06:24:48Z</time>
      </trkpt>
      <trkpt lat="45.38671" lon="4.54212">
        <ele>831</ele>
        <time>2014-09-14T06:24:50Z</time>
      </trkpt>
      <trkpt lat="45.38675" lon="4.54224">
        <ele>831</ele>
        <time>2014-09-14T06:24:53Z</time>
      </trkpt>
      <trkpt lat="45.38679" lon="4.54237">
        <ele>831</ele>
        <time>2014-09-14T06:24:56Z</time>
      </trkpt>
      <trkpt lat="45.38683" lon="4.54245">
        <ele>831</ele>
        <time>2014-09-14T06:24:58Z</time>
      </trkpt>
      <trkpt lat="45.38691" lon="4.54254">
        <ele>831</ele>
        <time>2014-09-14T06:25:01Z</time>
      </trkpt>
      <trkpt lat="45.38698" lon="4.54267">
        <ele>831</ele>
        <time>2014-09-14T06:25:04Z</time>
      </trkpt>
      <trkpt lat="45.38701" lon="4.54275">
        <ele>831</ele>
        <time>2014-09-14T06:25:06Z</time>
      </trkpt>
      <trkpt lat="45.38705" lon="4.54288">
        <ele>831</ele>
        <time>2014-09-14T06:25:09Z</time>
      </trkpt>
      <trkpt lat="45.38708" lon="4.54296">
        <ele>831</ele>
        <time>2014-09-14T06:25:11Z</time>
      </trkpt>
      <trkpt lat="45.38712" lon="4.54304">
        <ele>831</ele>
        <time>2014-09-14T06:25:13Z</time>
      </trkpt>
      <trkpt lat="45.38715" lon="4.54311">
        <ele>832</ele>
        <time>2014-09-14T06:25:15Z</time>
      </trkpt>
      <trkpt lat="45.38718" lon="4.54319">
        <ele>832</ele>
        <time>2014-09-14T06:25:17Z</time>
      </trkpt>
      <trkpt lat="45.38723" lon="4.54329">
        <ele>832</ele>
        <time>2014-09-14T06:25:20Z</time>
      </trkpt>
      <trkpt lat="45.38727" lon="4.54335">
        <ele>832</ele>
        <time>2014-09-14T06:25:22Z</time>
      </trkpt>
      <trkpt lat="45.38732" lon="4.54342">
        <ele>832</ele>
        <time>2014-09-14T06:25:24Z</time>
      </trkpt>
      <trkpt lat="45.38736" lon="4.5435">
        <ele>832</ele>
        <time>2014-09-14T06:25:26Z</time>
      </trkpt>
      <trkpt lat="45.38742" lon="4.5436">
        <ele>831</ele>
        <time>2014-09-14T06:25:29Z</time>
      </trkpt>
      <trkpt lat="45.38746" lon="4.54367">
        <ele>831</ele>
        <time>2014-09-14T06:25:31Z</time>
      </trkpt>
      <trkpt lat="45.38751" lon="4.54374">
        <ele>831</ele>
        <time>2014-09-14T06:25:34Z</time>
      </trkpt>
      <trkpt lat="45.38755" lon="4.54382">
        <ele>829</ele>
        <time>2014-09-14T06:25:37Z</time>
      </trkpt>
      <trkpt lat="45.38761" lon="4.54391">
        <ele>828</ele>
        <time>2014-09-14T06:25:40Z</time>
      </trkpt>
      <trkpt lat="45.38765" lon="4.54397">
        <ele>828</ele>
        <time>2014-09-14T06:25:42Z</time>
      </trkpt>
      <trkpt lat="45.3877" lon="4.54407">
        <ele>827</ele>
        <time>2014-09-14T06:25:45Z</time>
      </trkpt>
      <trkpt lat="45.38772" lon="4.54413">
        <ele>827</ele>
        <time>2014-09-14T06:25:47Z</time>
      </trkpt>
      <trkpt lat="45.38777" lon="4.54423">
        <ele>826</ele>
        <time>2014-09-14T06:25:50Z</time>
      </trkpt>
      <trkpt lat="45.38781" lon="4.5443">
        <ele>826</ele>
        <time>2014-09-14T06:25:52Z</time>
      </trkpt>
      <trkpt lat="45.38784" lon="4.54438">
        <ele>826</ele>
        <time>2014-09-14T06:25:54Z</time>
      </trkpt>
      <trkpt lat="45.38785" lon="4.54451">
        <ele>826</ele>
        <time>2014-09-14T06:25:57Z</time>
      </trkpt>
      <trkpt lat="45.38786" lon="4.54466">
        <ele>825</ele>
        <time>2014-09-14T06:26:00Z</time>
      </trkpt>
      <trkpt lat="45.38788" lon="4.54481">
        <ele>825</ele>
        <time>2014-09-14T06:26:03Z</time>
      </trkpt>
      <trkpt lat="45.38789" lon="4.5449">
        <ele>825</ele>
        <time>2014-09-14T06:26:05Z</time>
      </trkpt>
      <trkpt lat="45.38788" lon="4.54503">
        <ele>824</ele>
        <time>2014-09-14T06:26:08Z</time>
      </trkpt>
      <trkpt lat="45.38786" lon="4.54512">
        <ele>823</ele>
        <time>2014-09-14T06:26:10Z</time>
      </trkpt>
      <trkpt lat="45.38784" lon="4.54526">
        <ele>823</ele>
        <time>2014-09-14T06:26:13Z</time>
      </trkpt>
      <trkpt lat="45.38782" lon="4.54538">
        <ele>823</ele>
        <time>2014-09-14T06:26:16Z</time>
      </trkpt>
      <trkpt lat="45.38781" lon="4.54552">
        <ele>822</ele>
        <time>2014-09-14T06:26:19Z</time>
      </trkpt>
      <trkpt lat="45.3878" lon="4.5456">
        <ele>822</ele>
        <time>2014-09-14T06:26:21Z</time>
      </trkpt>
      <trkpt lat="45.38779" lon="4.54574">
        <ele>822</ele>
        <time>2014-09-14T06:26:24Z</time>
      </trkpt>
      <trkpt lat="45.38777" lon="4.54588">
        <ele>821</ele>
        <time>2014-09-14T06:26:27Z</time>
      </trkpt>
      <trkpt lat="45.38775" lon="4.54597">
        <ele>821</ele>
        <time>2014-09-14T06:26:29Z</time>
      </trkpt>
      <trkpt lat="45.38774" lon="4.54609">
        <ele>822</ele>
        <time>2014-09-14T06:26:32Z</time>
      </trkpt>
      <trkpt lat="45.38773" lon="4.54618">
        <ele>822</ele>
        <time>2014-09-14T06:26:34Z</time>
      </trkpt>
      <trkpt lat="45.38772" lon="4.54625">
        <ele>822</ele>
        <time>2014-09-14T06:26:36Z</time>
      </trkpt>
      <trkpt lat="45.3877" lon="4.54636">
        <ele>822</ele>
        <time>2014-09-14T06:26:39Z</time>
      </trkpt>
      <trkpt lat="45.38769" lon="4.54648">
        <ele>823</ele>
        <time>2014-09-14T06:26:42Z</time>
      </trkpt>
      <trkpt lat="45.38769" lon="4.54656">
        <ele>823</ele>
        <time>2014-09-14T06:26:44Z</time>
      </trkpt>
      <trkpt lat="45.38767" lon="4.54662">
        <ele>822</ele>
        <time>2014-09-14T06:26:46Z</time>
      </trkpt>
      <trkpt lat="45.38767" lon="4.54673">
        <ele>822</ele>
        <time>2014-09-14T06:26:49Z</time>
      </trkpt>
      <trkpt lat="45.38768" lon="4.54686">
        <ele>822</ele>
        <time>2014-09-14T06:26:52Z</time>
      </trkpt>
      <trkpt lat="45.38767" lon="4.54698">
        <ele>822</ele>
        <time>2014-09-14T06:26:55Z</time>
      </trkpt>
      <trkpt lat="45.38766" lon="4.5471">
        <ele>823</ele>
        <time>2014-09-14T06:26:58Z</time>
      </trkpt>
      <trkpt lat="45.38767" lon="4.54717">
        <ele>823</ele>
        <time>2014-09-14T06:27:00Z</time>
      </trkpt>
      <trkpt lat="45.38769" lon="4.54728">
        <ele>823</ele>
        <time>2014-09-14T06:27:03Z</time>
      </trkpt>
      <trkpt lat="45.38768" lon="4.54736">
        <ele>822</ele>
        <time>2014-09-14T06:27:06Z</time>
      </trkpt>
      <trkpt lat="45.3877" lon="4.54738">
        <ele>821</ele>
        <time>2014-09-14T06:27:08Z</time>
      </trkpt>
      <trkpt lat="45.38772" lon="4.54738">
        <ele>820</ele>
        <time>2014-09-14T06:27:10Z</time>
      </trkpt>
      <trkpt lat="45.38778" lon="4.54741">
        <ele>819</ele>
        <time>2014-09-14T06:27:13Z</time>
      </trkpt>
      <trkpt lat="45.38786" lon="4.54744">
        <ele>817</ele>
        <time>2014-09-14T06:27:16Z</time>
      </trkpt>
      <trkpt lat="45.38793" lon="4.54745">
        <ele>816</ele>
        <time>2014-09-14T06:27:19Z</time>
      </trkpt>
      <trkpt lat="45.38797" lon="4.54745">
        <ele>815</ele>
        <time>2014-09-14T06:27:21Z</time>
      </trkpt>
      <trkpt lat="45.38802" lon="4.54742">
        <ele>814</ele>
        <time>2014-09-14T06:27:23Z</time>
      </trkpt>
      <trkpt lat="45.38809" lon="4.54738">
        <ele>815</ele>
        <time>2014-09-14T06:27:26Z</time>
      </trkpt>
      <trkpt lat="45.38816" lon="4.54734">
        <ele>814</ele>
        <time>2014-09-14T06:27:29Z</time>
      </trkpt>
      <trkpt lat="45.38824" lon="4.5473">
        <ele>814</ele>
        <time>2014-09-14T06:27:32Z</time>
      </trkpt>
      <trkpt lat="45.38828" lon="4.54728">
        <ele>814</ele>
        <time>2014-09-14T06:27:34Z</time>
      </trkpt>
      <trkpt lat="45.38833" lon="4.54724">
        <ele>813</ele>
        <time>2014-09-14T06:27:36Z</time>
      </trkpt>
      <trkpt lat="45.3884" lon="4.54719">
        <ele>813</ele>
        <time>2014-09-14T06:27:39Z</time>
      </trkpt>
      <trkpt lat="45.38847" lon="4.54715">
        <ele>813</ele>
        <time>2014-09-14T06:27:42Z</time>
      </trkpt>
      <trkpt lat="45.38852" lon="4.54713">
        <ele>814</ele>
        <time>2014-09-14T06:27:44Z</time>
      </trkpt>
      <trkpt lat="45.38859" lon="4.54709">
        <ele>813</ele>
        <time>2014-09-14T06:27:47Z</time>
      </trkpt>
      <trkpt lat="45.38863" lon="4.54707">
        <ele>813</ele>
        <time>2014-09-14T06:27:49Z</time>
      </trkpt>
      <trkpt lat="45.38869" lon="4.54703">
        <ele>814</ele>
        <time>2014-09-14T06:27:52Z</time>
      </trkpt>
      <trkpt lat="45.38874" lon="4.547">
        <ele>815</ele>
        <time>2014-09-14T06:27:54Z</time>
      </trkpt>
      <trkpt lat="45.3888" lon="4.54695">
        <ele>815</ele>
        <time>2014-09-14T06:27:57Z</time>
      </trkpt>
      <trkpt lat="45.38887" lon="4.54692">
        <ele>816</ele>
        <time>2014-09-14T06:28:00Z</time>
      </trkpt>
      <trkpt lat="45.38891" lon="4.54689">
        <ele>816</ele>
        <time>2014-09-14T06:28:02Z</time>
      </trkpt>
      <trkpt lat="45.38898" lon="4.54687">
        <ele>817</ele>
        <time>2014-09-14T06:28:05Z</time>
      </trkpt>
      <trkpt lat="45.38904" lon="4.54683">
        <ele>818</ele>
        <time>2014-09-14T06:28:08Z</time>
      </trkpt>
      <trkpt lat="45.3891" lon="4.5468">
        <ele>818</ele>
        <time>2014-09-14T06:28:11Z</time>
      </trkpt>
      <trkpt lat="45.38914" lon="4.54678">
        <ele>819</ele>
        <time>2014-09-14T06:28:13Z</time>
      </trkpt>
      <trkpt lat="45.38921" lon="4.54676">
        <ele>819</ele>
        <time>2014-09-14T06:28:16Z</time>
      </trkpt>
      <trkpt lat="45.38926" lon="4.54676">
        <ele>819</ele>
        <time>2014-09-14T06:28:18Z</time>
      </trkpt>
      <trkpt lat="45.38932" lon="4.54676">
        <ele>820</ele>
        <time>2014-09-14T06:28:20Z</time>
      </trkpt>
      <trkpt lat="45.38937" lon="4.54675">
        <ele>820</ele>
        <time>2014-09-14T06:28:22Z</time>
      </trkpt>
      <trkpt lat="45.38944" lon="4.54674">
        <ele>820</ele>
        <time>2014-09-14T06:28:25Z</time>
      </trkpt>
      <trkpt lat="45.3895" lon="4.54675">
        <ele>820</ele>
        <time>2014-09-14T06:28:27Z</time>
      </trkpt>
      <trkpt lat="45.38955" lon="4.54676">
        <ele>820</ele>
        <time>2014-09-14T06:28:29Z</time>
      </trkpt>
      <trkpt lat="45.3896" lon="4.54677">
        <ele>819</ele>
        <time>2014-09-14T06:28:31Z</time>
      </trkpt>
      <trkpt lat="45.38967" lon="4.5468">
        <ele>819</ele>
        <time>2014-09-14T06:28:34Z</time>
      </trkpt>
      <trkpt lat="45.38974" lon="4.54683">
        <ele>819</ele>
        <time>2014-09-14T06:28:37Z</time>
      </trkpt>
      <trkpt lat="45.38982" lon="4.54688">
        <ele>819</ele>
        <time>2014-09-14T06:28:40Z</time>
      </trkpt>
      <trkpt lat="45.38987" lon="4.54692">
        <ele>819</ele>
        <time>2014-09-14T06:28:42Z</time>
      </trkpt>
      <trkpt lat="45.38992" lon="4.54699">
        <ele>819</ele>
        <time>2014-09-14T06:28:45Z</time>
      </trkpt>
      <trkpt lat="45.38997" lon="4.54704">
        <ele>819</ele>
        <time>2014-09-14T06:28:47Z</time>
      </trkpt>
      <trkpt lat="45.39" lon="4.54709">
        <ele>819</ele>
        <time>2014-09-14T06:28:49Z</time>
      </trkpt>
      <trkpt lat="45.39003" lon="4.54714">
        <ele>819</ele>
        <time>2014-09-14T06:28:51Z</time>
      </trkpt>
      <trkpt lat="45.39006" lon="4.54724">
        <ele>820</ele>
        <time>2014-09-14T06:28:54Z</time>
      </trkpt>
      <trkpt lat="45.39008" lon="4.5473">
        <ele>820</ele>
        <time>2014-09-14T06:28:56Z</time>
      </trkpt>
      <trkpt lat="45.39012" lon="4.54739">
        <ele>820</ele>
        <time>2014-09-14T06:28:59Z</time>
      </trkpt>
      <trkpt lat="45.39016" lon="4.54749">
        <ele>821</ele>
        <time>2014-09-14T06:29:02Z</time>
      </trkpt>
      <trkpt lat="45.39019" lon="4.54758">
        <ele>821</ele>
        <time>2014-09-14T06:29:05Z</time>
      </trkpt>
      <trkpt lat="45.39023" lon="4.54763">
        <ele>822</ele>
        <time>2014-09-14T06:29:07Z</time>
      </trkpt>
      <trkpt lat="45.39027" lon="4.54769">
        <ele>822</ele>
        <time>2014-09-14T06:29:09Z</time>
      </trkpt>
      <trkpt lat="45.39032" lon="4.54774">
        <ele>822</ele>
        <time>2014-09-14T06:29:11Z</time>
      </trkpt>
      <trkpt lat="45.39037" lon="4.54779">
        <ele>823</ele>
        <time>2014-09-14T06:29:13Z</time>
      </trkpt>
      <trkpt lat="45.39042" lon="4.54784">
        <ele>822</ele>
        <time>2014-09-14T06:29:15Z</time>
      </trkpt>
      <trkpt lat="45.39051" lon="4.5479">
        <ele>822</ele>
        <time>2014-09-14T06:29:18Z</time>
      </trkpt>
      <trkpt lat="45.39058" lon="4.54794">
        <ele>822</ele>
        <time>2014-09-14T06:29:21Z</time>
      </trkpt>
      <trkpt lat="45.39063" lon="4.54797">
        <ele>821</ele>
        <time>2014-09-14T06:29:23Z</time>
      </trkpt>
      <trkpt lat="45.39066" lon="4.548">
        <ele>821</ele>
        <time>2014-09-14T06:29:25Z</time>
      </trkpt>
      <trkpt lat="45.39071" lon="4.54804">
        <ele>821</ele>
        <time>2014-09-14T06:29:28Z</time>
      </trkpt>
      <trkpt lat="45.39079" lon="4.54808">
        <ele>822</ele>
        <time>2014-09-14T06:29:31Z</time>
      </trkpt>
      <trkpt lat="45.39085" lon="4.54811">
        <ele>821</ele>
        <time>2014-09-14T06:29:34Z</time>
      </trkpt>
      <trkpt lat="45.39091" lon="4.54813">
        <ele>821</ele>
        <time>2014-09-14T06:29:36Z</time>
      </trkpt>
      <trkpt lat="45.39101" lon="4.54815">
        <ele>820</ele>
        <time>2014-09-14T06:29:39Z</time>
      </trkpt>
      <trkpt lat="45.39106" lon="4.54816">
        <ele>820</ele>
        <time>2014-09-14T06:29:41Z</time>
      </trkpt>
      <trkpt lat="45.39116" lon="4.54819">
        <ele>821</ele>
        <time>2014-09-14T06:29:44Z</time>
      </trkpt>
      <trkpt lat="45.39122" lon="4.54821">
        <ele>820</ele>
        <time>2014-09-14T06:29:46Z</time>
      </trkpt>
      <trkpt lat="45.39132" lon="4.54821">
        <ele>820</ele>
        <time>2014-09-14T06:29:49Z</time>
      </trkpt>
      <trkpt lat="45.39141" lon="4.54822">
        <ele>820</ele>
        <time>2014-09-14T06:29:52Z</time>
      </trkpt>
      <trkpt lat="45.39149" lon="4.54824">
        <ele>820</ele>
        <time>2014-09-14T06:29:54Z</time>
      </trkpt>
      <trkpt lat="45.39159" lon="4.54827">
        <ele>820</ele>
        <time>2014-09-14T06:29:57Z</time>
      </trkpt>
      <trkpt lat="45.39168" lon="4.54832">
        <ele>820</ele>
        <time>2014-09-14T06:30:00Z</time>
      </trkpt>
      <trkpt lat="45.39174" lon="4.54836">
        <ele>820</ele>
        <time>2014-09-14T06:30:02Z</time>
      </trkpt>
      <trkpt lat="45.39182" lon="4.54842">
        <ele>819</ele>
        <time>2014-09-14T06:30:05Z</time>
      </trkpt>
      <trkpt lat="45.39188" lon="4.54846">
        <ele>819</ele>
        <time>2014-09-14T06:30:07Z</time>
      </trkpt>
      <trkpt lat="45.39197" lon="4.54853">
        <ele>818</ele>
        <time>2014-09-14T06:30:10Z</time>
      </trkpt>
      <trkpt lat="45.39206" lon="4.5486">
        <ele>817</ele>
        <time>2014-09-14T06:30:13Z</time>
      </trkpt>
      <trkpt lat="45.39215" lon="4.54865">
        <ele>816</ele>
        <time>2014-09-14T06:30:16Z</time>
      </trkpt>
      <trkpt lat="45.39221" lon="4.54868">
        <ele>815</ele>
        <time>2014-09-14T06:30:18Z</time>
      </trkpt>
      <trkpt lat="45.3923" lon="4.54871">
        <ele>814</ele>
        <time>2014-09-14T06:30:21Z</time>
      </trkpt>
      <trkpt lat="45.39236" lon="4.54872">
        <ele>814</ele>
        <time>2014-09-14T06:30:23Z</time>
      </trkpt>
      <trkpt lat="45.39243" lon="4.54872">
        <ele>813</ele>
        <time>2014-09-14T06:30:25Z</time>
      </trkpt>
      <trkpt lat="45.39253" lon="4.54874">
        <ele>813</ele>
        <time>2014-09-14T06:30:28Z</time>
      </trkpt>
      <trkpt lat="45.3926" lon="4.54874">
        <ele>812</ele>
        <time>2014-09-14T06:30:30Z</time>
      </trkpt>
      <trkpt lat="45.3927" lon="4.54876">
        <ele>810</ele>
        <time>2014-09-14T06:30:33Z</time>
      </trkpt>
      <trkpt lat="45.39279" lon="4.54877">
        <ele>808</ele>
        <time>2014-09-14T06:30:36Z</time>
      </trkpt>
      <trkpt lat="45.39289" lon="4.54881">
        <ele>807</ele>
        <time>2014-09-14T06:30:39Z</time>
      </trkpt>
      <trkpt lat="45.39299" lon="4.54885">
        <ele>806</ele>
        <time>2014-09-14T06:30:42Z</time>
      </trkpt>
      <trkpt lat="45.39305" lon="4.54887">
        <ele>805</ele>
        <time>2014-09-14T06:30:44Z</time>
      </trkpt>
      <trkpt lat="45.39315" lon="4.54891">
        <ele>804</ele>
        <time>2014-09-14T06:30:47Z</time>
      </trkpt>
      <trkpt lat="45.39325" lon="4.54896">
        <ele>804</ele>
        <time>2014-09-14T06:30:50Z</time>
      </trkpt>
      <trkpt lat="45.39334" lon="4.549">
        <ele>803</ele>
        <time>2014-09-14T06:30:53Z</time>
      </trkpt>
      <trkpt lat="45.3934" lon="4.54902">
        <ele>801</ele>
        <time>2014-09-14T06:30:55Z</time>
      </trkpt>
      <trkpt lat="45.39346" lon="4.54904">
        <ele>800</ele>
        <time>2014-09-14T06:30:57Z</time>
      </trkpt>
      <trkpt lat="45.39354" lon="4.54906">
        <ele>799</ele>
        <time>2014-09-14T06:31:00Z</time>
      </trkpt>
      <trkpt lat="45.39363" lon="4.54906">
        <ele>798</ele>
        <time>2014-09-14T06:31:03Z</time>
      </trkpt>
      <trkpt lat="45.39371" lon="4.54906">
        <ele>796</ele>
        <time>2014-09-14T06:31:06Z</time>
      </trkpt>
      <trkpt lat="45.39379" lon="4.54906">
        <ele>794</ele>
        <time>2014-09-14T06:31:09Z</time>
      </trkpt>
      <trkpt lat="45.39388" lon="4.54909">
        <ele>791</ele>
        <time>2014-09-14T06:31:12Z</time>
      </trkpt>
      <trkpt lat="45.39397" lon="4.54913">
        <ele>789</ele>
        <time>2014-09-14T06:31:15Z</time>
      </trkpt>
      <trkpt lat="45.39402" lon="4.54916">
        <ele>788</ele>
        <time>2014-09-14T06:31:17Z</time>
      </trkpt>
      <trkpt lat="45.39408" lon="4.54919">
        <ele>787</ele>
        <time>2014-09-14T06:31:19Z</time>
      </trkpt>
      <trkpt lat="45.39416" lon="4.54926">
        <ele>786</ele>
        <time>2014-09-14T06:31:22Z</time>
      </trkpt>
      <trkpt lat="45.39424" lon="4.54936">
        <ele>785</ele>
        <time>2014-09-14T06:31:25Z</time>
      </trkpt>
      <trkpt lat="45.39429" lon="4.54943">
        <ele>785</ele>
        <time>2014-09-14T06:31:27Z</time>
      </trkpt>
      <trkpt lat="45.39434" lon="4.54956">
        <ele>784</ele>
        <time>2014-09-14T06:31:30Z</time>
      </trkpt>
      <trkpt lat="45.39439" lon="4.54967">
        <ele>782</ele>
        <time>2014-09-14T06:31:33Z</time>
      </trkpt>
      <trkpt lat="45.39446" lon="4.54979">
        <ele>782</ele>
        <time>2014-09-14T06:31:36Z</time>
      </trkpt>
      <trkpt lat="45.3945" lon="4.54987">
        <ele>781</ele>
        <time>2014-09-14T06:31:38Z</time>
      </trkpt>
      <trkpt lat="45.39455" lon="4.55">
        <ele>781</ele>
        <time>2014-09-14T06:31:41Z</time>
      </trkpt>
      <trkpt lat="45.39459" lon="4.55014">
        <ele>780</ele>
        <time>2014-09-14T06:31:44Z</time>
      </trkpt>
      <trkpt lat="45.3946" lon="4.55023">
        <ele>780</ele>
        <time>2014-09-14T06:31:46Z</time>
      </trkpt>
      <trkpt lat="45.39459" lon="4.55037">
        <ele>778</ele>
        <time>2014-09-14T06:31:49Z</time>
      </trkpt>
      <trkpt lat="45.39458" lon="4.55047">
        <ele>778</ele>
        <time>2014-09-14T06:31:51Z</time>
      </trkpt>
      <trkpt lat="45.39456" lon="4.55056">
        <ele>777</ele>
        <time>2014-09-14T06:31:53Z</time>
      </trkpt>
      <trkpt lat="45.39452" lon="4.55069">
        <ele>776</ele>
        <time>2014-09-14T06:31:56Z</time>
      </trkpt>
      <trkpt lat="45.39448" lon="4.55078">
        <ele>775</ele>
        <time>2014-09-14T06:31:58Z</time>
      </trkpt>
      <trkpt lat="45.39443" lon="4.5509">
        <ele>774</ele>
        <time>2014-09-14T06:32:01Z</time>
      </trkpt>
      <trkpt lat="45.39436" lon="4.55102">
        <ele>773</ele>
        <time>2014-09-14T06:32:04Z</time>
      </trkpt>
      <trkpt lat="45.39431" lon="4.55109">
        <ele>772</ele>
        <time>2014-09-14T06:32:06Z</time>
      </trkpt>
      <trkpt lat="45.39424" lon="4.55119">
        <ele>772</ele>
        <time>2014-09-14T06:32:09Z</time>
      </trkpt>
      <trkpt lat="45.39419" lon="4.55125">
        <ele>771</ele>
        <time>2014-09-14T06:32:11Z</time>
      </trkpt>
      <trkpt lat="45.39411" lon="4.55134">
        <ele>771</ele>
        <time>2014-09-14T06:32:14Z</time>
      </trkpt>
      <trkpt lat="45.39405" lon="4.55139">
        <ele>771</ele>
        <time>2014-09-14T06:32:16Z</time>
      </trkpt>
      <trkpt lat="45.39397" lon="4.55146">
        <ele>771</ele>
        <time>2014-09-14T06:32:19Z</time>
      </trkpt>
      <trkpt lat="45.39391" lon="4.5515">
        <ele>771</ele>
        <time>2014-09-14T06:32:21Z</time>
      </trkpt>
      <trkpt lat="45.39387" lon="4.55154">
        <ele>770</ele>
        <time>2014-09-14T06:32:23Z</time>
      </trkpt>
      <trkpt lat="45.39379" lon="4.5516">
        <ele>769</ele>
        <time>2014-09-14T06:32:26Z</time>
      </trkpt>
      <trkpt lat="45.39373" lon="4.55163">
        <ele>770</ele>
        <time>2014-09-14T06:32:28Z</time>
      </trkpt>
      <trkpt lat="45.39367" lon="4.55168">
        <ele>770</ele>
        <time>2014-09-14T06:32:31Z</time>
      </trkpt>
      <trkpt lat="45.39359" lon="4.55174">
        <ele>771</ele>
        <time>2014-09-14T06:32:34Z</time>
      </trkpt>
      <trkpt lat="45.39354" lon="4.55176">
        <ele>771</ele>
        <time>2014-09-14T06:32:36Z</time>
      </trkpt>
      <trkpt lat="45.39351" lon="4.55179">
        <ele>771</ele>
        <time>2014-09-14T06:32:38Z</time>
      </trkpt>
      <trkpt lat="45.39349" lon="4.55181">
        <ele>771</ele>
        <time>2014-09-14T06:32:41Z</time>
      </trkpt>
      <trkpt lat="45.39348" lon="4.55181">
        <ele>771</ele>
        <time>2014-09-14T06:32:43Z</time>
      </trkpt>
      <trkpt lat="45.39347" lon="4.55183">
        <ele>771</ele>
        <time>2014-09-14T06:32:46Z</time>
      </trkpt>
      <trkpt lat="45.39346" lon="4.55184">
        <ele>771</ele>
        <time>2014-09-14T06:32:48Z</time>
      </trkpt>
      <trkpt lat="45.39345" lon="4.55185">
        <ele>771</ele>
        <time>2014-09-14T06:32:51Z</time>
      </trkpt>
      <trkpt lat="45.39345" lon="4.55185">
        <ele>772</ele>
        <time>2014-09-14T06:32:53Z</time>
      </trkpt>
      <trkpt lat="45.39344" lon="4.55185">
        <ele>771</ele>
        <time>2014-09-14T06:32:56Z</time>
      </trkpt>
      <trkpt lat="45.39344" lon="4.55186">
        <ele>771</ele>
        <time>2014-09-14T06:32:59Z</time>
      </trkpt>
      <trkpt lat="45.39344" lon="4.55185">
        <ele>771</ele>
        <time>2014-09-14T06:33:02Z</time>
      </trkpt>
      <trkpt lat="45.39344" lon="4.55185">
        <ele>772</ele>
        <time>2014-09-14T06:33:05Z</time>
      </trkpt>
      <trkpt lat="45.39344" lon="4.55186">
        <ele>771</ele>
        <time>2014-09-14T06:33:07Z</time>
      </trkpt>
      <trkpt lat="45.39344" lon="4.55186">
        <ele>771</ele>
        <time>2014-09-14T06:33:10Z</time>
      </trkpt>
      <trkpt lat="45.39343" lon="4.55187">
        <ele>771</ele>
        <time>2014-09-14T06:33:12Z</time>
      </trkpt>
      <trkpt lat="45.3934" lon="4.5519">
        <ele>771</ele>
        <time>2014-09-14T06:33:15Z</time>
      </trkpt>
      <trkpt lat="45.39336" lon="4.55193">
        <ele>771</ele>
        <time>2014-09-14T06:33:17Z</time>
      </trkpt>
      <trkpt lat="45.39331" lon="4.55197">
        <ele>772</ele>
        <time>2014-09-14T06:33:20Z</time>
      </trkpt>
      <trkpt lat="45.39329" lon="4.55201">
        <ele>773</ele>
        <time>2014-09-14T06:33:22Z</time>
      </trkpt>
      <trkpt lat="45.39326" lon="4.55206">
        <ele>774</ele>
        <time>2014-09-14T06:33:25Z</time>
      </trkpt>
      <trkpt lat="45.39322" lon="4.55213">
        <ele>775</ele>
        <time>2014-09-14T06:33:28Z</time>
      </trkpt>
      <trkpt lat="45.3932" lon="4.55218">
        <ele>776</ele>
        <time>2014-09-14T06:33:30Z</time>
      </trkpt>
      <trkpt lat="45.39316" lon="4.55225">
        <ele>777</ele>
        <time>2014-09-14T06:33:33Z</time>
      </trkpt>
      <trkpt lat="45.39314" lon="4.55231">
        <ele>777</ele>
        <time>2014-09-14T06:33:35Z</time>
      </trkpt>
      <trkpt lat="45.39311" lon="4.55239">
        <ele>778</ele>
        <time>2014-09-14T06:33:38Z</time>
      </trkpt>
      <trkpt lat="45.39309" lon="4.55244">
        <ele>778</ele>
        <time>2014-09-14T06:33:40Z</time>
      </trkpt>
      <trkpt lat="45.39308" lon="4.5525">
        <ele>779</ele>
        <time>2014-09-14T06:33:42Z</time>
      </trkpt>
      <trkpt lat="45.39305" lon="4.55256">
        <ele>780</ele>
        <time>2014-09-14T06:33:45Z</time>
      </trkpt>
      <trkpt lat="45.39302" lon="4.55263">
        <ele>781</ele>
        <time>2014-09-14T06:33:48Z</time>
      </trkpt>
      <trkpt lat="45.39301" lon="4.55268">
        <ele>781</ele>
        <time>2014-09-14T06:33:50Z</time>
      </trkpt>
      <trkpt lat="45.39297" lon="4.55274">
        <ele>782</ele>
        <time>2014-09-14T06:33:53Z</time>
      </trkpt>
      <trkpt lat="45.39296" lon="4.55278">
        <ele>783</ele>
        <time>2014-09-14T06:33:55Z</time>
      </trkpt>
      <trkpt lat="45.39294" lon="4.55285">
        <ele>784</ele>
        <time>2014-09-14T06:33:58Z</time>
      </trkpt>
      <trkpt lat="45.39293" lon="4.55289">
        <ele>785</ele>
        <time>2014-09-14T06:34:01Z</time>
      </trkpt>
      <trkpt lat="45.39291" lon="4.55293">
        <ele>786</ele>
        <time>2014-09-14T06:34:04Z</time>
      </trkpt>
      <trkpt lat="45.3929" lon="4.55296">
        <ele>787</ele>
        <time>2014-09-14T06:34:07Z</time>
      </trkpt>
      <trkpt lat="45.3929" lon="4.55298">
        <ele>788</ele>
        <time>2014-09-14T06:34:09Z</time>
      </trkpt>
      <trkpt lat="45.3929" lon="4.553">
        <ele>788</ele>
        <time>2014-09-14T06:34:12Z</time>
      </trkpt>
      <trkpt lat="45.39289" lon="4.55303">
        <ele>789</ele>
        <time>2014-09-14T06:34:15Z</time>
      </trkpt>
      <trkpt lat="45.39288" lon="4.55305">
        <ele>790</ele>
        <time>2014-09-14T06:34:17Z</time>
      </trkpt>
      <trkpt lat="45.39288" lon="4.55308">
        <ele>790</ele>
        <time>2014-09-14T06:34:20Z</time>
      </trkpt>
      <trkpt lat="45.39288" lon="4.55311">
        <ele>791</ele>
        <time>2014-09-14T06:34:22Z</time>
      </trkpt>
      <trkpt lat="45.39288" lon="4.55314">
        <ele>791</ele>
        <time>2014-09-14T06:34:24Z</time>
      </trkpt>
      <trkpt lat="45.39287" lon="4.55316">
        <ele>791</ele>
        <time>2014-09-14T06:34:26Z</time>
      </trkpt>
      <trkpt lat="45.39287" lon="4.55319">
        <ele>792</ele>
        <time>2014-09-14T06:34:29Z</time>
      </trkpt>
      <trkpt lat="45.39286" lon="4.55322">
        <ele>792</ele>
        <time>2014-09-14T06:34:31Z</time>
      </trkpt>
      <trkpt lat="45.39286" lon="4.55325">
        <ele>793</ele>
        <time>2014-09-14T06:34:33Z</time>
      </trkpt>
      <trkpt lat="45.39286" lon="4.55327">
        <ele>793</ele>
        <time>2014-09-14T06:34:35Z</time>
      </trkpt>
      <trkpt lat="45.39284" lon="4.55332">
        <ele>794</ele>
        <time>2014-09-14T06:34:38Z</time>
      </trkpt>
      <trkpt lat="45.39284" lon="4.55334">
        <ele>794</ele>
        <time>2014-09-14T06:34:40Z</time>
      </trkpt>
      <trkpt lat="45.39282" lon="4.55338">
        <ele>795</ele>
        <time>2014-09-14T06:34:43Z</time>
      </trkpt>
      <trkpt lat="45.39281" lon="4.5534">
        <ele>795</ele>
        <time>2014-09-14T06:34:45Z</time>
      </trkpt>
      <trkpt lat="45.39279" lon="4.55342">
        <ele>796</ele>
        <time>2014-09-14T06:34:48Z</time>
      </trkpt>
      <trkpt lat="45.39278" lon="4.55343">
        <ele>797</ele>
        <time>2014-09-14T06:34:50Z</time>
      </trkpt>
      <trkpt lat="45.39277" lon="4.55344">
        <ele>797</ele>
        <time>2014-09-14T06:34:52Z</time>
      </trkpt>
      <trkpt lat="45.39276" lon="4.55346">
        <ele>798</ele>
        <time>2014-09-14T06:34:54Z</time>
      </trkpt>
      <trkpt lat="45.39275" lon="4.55348">
        <ele>799</ele>
        <time>2014-09-14T06:34:57Z</time>
      </trkpt>
      <trkpt lat="45.39274" lon="4.5535">
        <ele>799</ele>
        <time>2014-09-14T06:34:59Z</time>
      </trkpt>
      <trkpt lat="45.39272" lon="4.55352">
        <ele>800</ele>
        <time>2014-09-14T06:35:02Z</time>
      </trkpt>
      <trkpt lat="45.39271" lon="4.55355">
        <ele>800</ele>
        <time>2014-09-14T06:35:04Z</time>
      </trkpt>
      <trkpt lat="45.39268" lon="4.55358">
        <ele>800</ele>
        <time>2014-09-14T06:35:07Z</time>
      </trkpt>
      <trkpt lat="45.39266" lon="4.55359">
        <ele>801</ele>
        <time>2014-09-14T06:35:09Z</time>
      </trkpt>
      <trkpt lat="45.39265" lon="4.5536">
        <ele>802</ele>
        <time>2014-09-14T06:35:11Z</time>
      </trkpt>
      <trkpt lat="45.39264" lon="4.55361">
        <ele>802</ele>
        <time>2014-09-14T06:35:14Z</time>
      </trkpt>
      <trkpt lat="45.39262" lon="4.55363">
        <ele>803</ele>
        <time>2014-09-14T06:35:17Z</time>
      </trkpt>
      <trkpt lat="45.3926" lon="4.55365">
        <ele>803</ele>
        <time>2014-09-14T06:35:19Z</time>
      </trkpt>
      <trkpt lat="45.39259" lon="4.55366">
        <ele>804</ele>
        <time>2014-09-14T06:35:21Z</time>
      </trkpt>
      <trkpt lat="45.39257" lon="4.55368">
        <ele>805</ele>
        <time>2014-09-14T06:35:24Z</time>
      </trkpt>
      <trkpt lat="45.39255" lon="4.5537">
        <ele>805</ele>
        <time>2014-09-14T06:35:26Z</time>
      </trkpt>
      <trkpt lat="45.39254" lon="4.55372">
        <ele>806</ele>
        <time>2014-09-14T06:35:29Z</time>
      </trkpt>
      <trkpt lat="45.39252" lon="4.55373">
        <ele>806</ele>
        <time>2014-09-14T06:35:31Z</time>
      </trkpt>
      <trkpt lat="45.39252" lon="4.55375">
        <ele>807</ele>
        <time>2014-09-14T06:35:34Z</time>
      </trkpt>
      <trkpt lat="45.3925" lon="4.55377">
        <ele>808</ele>
        <time>2014-09-14T06:35:37Z</time>
      </trkpt>
      <trkpt lat="45.39249" lon="4.55379">
        <ele>808</ele>
        <time>2014-09-14T06:35:39Z</time>
      </trkpt>
      <trkpt lat="45.39249" lon="4.55381">
        <ele>809</ele>
        <time>2014-09-14T06:35:41Z</time>
      </trkpt>
      <trkpt lat="45.3925" lon="4.55382">
        <ele>809</ele>
        <time>2014-09-14T06:35:43Z</time>
      </trkpt>
      <trkpt lat="45.3925" lon="4.55385">
        <ele>810</ele>
        <time>2014-09-14T06:35:46Z</time>
      </trkpt>
      <trkpt lat="45.3925" lon="4.55389">
        <ele>810</ele>
        <time>2014-09-14T06:35:48Z</time>
      </trkpt>
      <trkpt lat="45.39249" lon="4.55391">
        <ele>811</ele>
        <time>2014-09-14T06:35:51Z</time>
      </trkpt>
      <trkpt lat="45.39246" lon="4.55393">
        <ele>812</ele>
        <time>2014-09-14T06:35:54Z</time>
      </trkpt>
      <trkpt lat="45.39244" lon="4.55395">
        <ele>812</ele>
        <time>2014-09-14T06:35:57Z</time>
      </trkpt>
      <trkpt lat="45.39242" lon="4.55395">
        <ele>813</ele>
        <time>2014-09-14T06:35:59Z</time>
      </trkpt>
      <trkpt lat="45.3924" lon="4.55396">
        <ele>813</ele>
        <time>2014-09-14T06:36:01Z</time>
      </trkpt>
      <trkpt lat="45.39237" lon="4.55397">
        <ele>814</ele>
        <time>2014-09-14T06:36:04Z</time>
      </trkpt>
      <trkpt lat="45.39233" lon="4.55398">
        <ele>814</ele>
        <time>2014-09-14T06:36:07Z</time>
      </trkpt>
      <trkpt lat="45.39231" lon="4.55399">
        <ele>815</ele>
        <time>2014-09-14T06:36:10Z</time>
      </trkpt>
      <trkpt lat="45.39228" lon="4.55401">
        <ele>816</ele>
        <time>2014-09-14T06:36:13Z</time>
      </trkpt>
      <trkpt lat="45.39226" lon="4.55402">
        <ele>817</ele>
        <time>2014-09-14T06:36:16Z</time>
      </trkpt>
      <trkpt lat="45.39225" lon="4.55403">
        <ele>817</ele>
        <time>2014-09-14T06:36:18Z</time>
      </trkpt>
      <trkpt lat="45.39223" lon="4.55404">
        <ele>817</ele>
        <time>2014-09-14T06:36:20Z</time>
      </trkpt>
      <trkpt lat="45.39222" lon="4.55405">
        <ele>818</ele>
        <time>2014-09-14T06:36:22Z</time>
      </trkpt>
      <trkpt lat="45.39218" lon="4.55406">
        <ele>818</ele>
        <time>2014-09-14T06:36:25Z</time>
      </trkpt>
      <trkpt lat="45.39217" lon="4.55407">
        <ele>818</ele>
        <time>2014-09-14T06:36:27Z</time>
      </trkpt>
      <trkpt lat="45.39214" lon="4.55408">
        <ele>819</ele>
        <time>2014-09-14T06:36:30Z</time>
      </trkpt>
      <trkpt lat="45.39212" lon="4.55409">
        <ele>820</ele>
        <time>2014-09-14T06:36:32Z</time>
      </trkpt>
      <trkpt lat="45.39211" lon="4.55409">
        <ele>821</ele>
        <time>2014-09-14T06:36:34Z</time>
      </trkpt>
      <trkpt lat="45.39208" lon="4.5541">
        <ele>821</ele>
        <time>2014-09-14T06:36:36Z</time>
      </trkpt>
      <trkpt lat="45.39206" lon="4.55412">
        <ele>822</ele>
        <time>2014-09-14T06:36:39Z</time>
      </trkpt>
      <trkpt lat="45.39204" lon="4.55413">
        <ele>822</ele>
        <time>2014-09-14T06:36:41Z</time>
      </trkpt>
      <trkpt lat="45.39202" lon="4.55413">
        <ele>823</ele>
        <time>2014-09-14T06:36:44Z</time>
      </trkpt>
      <trkpt lat="45.39201" lon="4.55413">
        <ele>823</ele>
        <time>2014-09-14T06:36:47Z</time>
      </trkpt>
      <trkpt lat="45.39198" lon="4.55415">
        <ele>824</ele>
        <time>2014-09-14T06:36:50Z</time>
      </trkpt>
      <trkpt lat="45.39194" lon="4.55415">
        <ele>825</ele>
        <time>2014-09-14T06:36:53Z</time>
      </trkpt>
      <trkpt lat="45.39193" lon="4.55416">
        <ele>825</ele>
        <time>2014-09-14T06:36:55Z</time>
      </trkpt>
      <trkpt lat="45.39191" lon="4.55417">
        <ele>826</ele>
        <time>2014-09-14T06:36:57Z</time>
      </trkpt>
      <trkpt lat="45.3919" lon="4.55417">
        <ele>826</ele>
        <time>2014-09-14T06:36:59Z</time>
      </trkpt>
      <trkpt lat="45.39188" lon="4.55418">
        <ele>827</ele>
        <time>2014-09-14T06:37:02Z</time>
      </trkpt>
      <trkpt lat="45.39186" lon="4.55419">
        <ele>827</ele>
        <time>2014-09-14T06:37:04Z</time>
      </trkpt>
      <trkpt lat="45.39185" lon="4.5542">
        <ele>828</ele>
        <time>2014-09-14T06:37:06Z</time>
      </trkpt>
      <trkpt lat="45.39184" lon="4.55422">
        <ele>828</ele>
        <time>2014-09-14T06:37:08Z</time>
      </trkpt>
      <trkpt lat="45.39182" lon="4.55423">
        <ele>828</ele>
        <time>2014-09-14T06:37:10Z</time>
      </trkpt>
      <trkpt lat="45.3918" lon="4.55424">
        <ele>829</ele>
        <time>2014-09-14T06:37:13Z</time>
      </trkpt>
      <trkpt lat="45.39178" lon="4.55425">
        <ele>829</ele>
        <time>2014-09-14T06:37:15Z</time>
      </trkpt>
      <trkpt lat="45.39175" lon="4.55426">
        <ele>830</ele>
        <time>2014-09-14T06:37:18Z</time>
      </trkpt>
      <trkpt lat="45.39174" lon="4.55428">
        <ele>830</ele>
        <time>2014-09-14T06:37:20Z</time>
      </trkpt>
      <trkpt lat="45.39172" lon="4.5543">
        <ele>831</ele>
        <time>2014-09-14T06:37:23Z</time>
      </trkpt>
      <trkpt lat="45.3917" lon="4.55431">
        <ele>832</ele>
        <time>2014-09-14T06:37:26Z</time>
      </trkpt>
      <trkpt lat="45.39169" lon="4.55432">
        <ele>832</ele>
        <time>2014-09-14T06:37:28Z</time>
      </trkpt>
      <trkpt lat="45.39167" lon="4.55432">
        <ele>833</ele>
        <time>2014-09-14T06:37:30Z</time>
      </trkpt>
      <trkpt lat="45.39165" lon="4.55433">
        <ele>833</ele>
        <time>2014-09-14T06:37:33Z</time>
      </trkpt>
      <trkpt lat="45.39162" lon="4.55435">
        <ele>833</ele>
        <time>2014-09-14T06:37:36Z</time>
      </trkpt>
      <trkpt lat="45.39161" lon="4.55436">
        <ele>834</ele>
        <time>2014-09-14T06:37:38Z</time>
      </trkpt>
      <trkpt lat="45.39159" lon="4.55436">
        <ele>834</ele>
        <time>2014-09-14T06:37:40Z</time>
      </trkpt>
      <trkpt lat="45.39158" lon="4.55437">
        <ele>835</ele>
        <time>2014-09-14T06:37:42Z</time>
      </trkpt>
      <trkpt lat="45.39157" lon="4.55437">
        <ele>835</ele>
        <time>2014-09-14T06:37:44Z</time>
      </trkpt>
      <trkpt lat="45.39155" lon="4.55438">
        <ele>836</ele>
        <time>2014-09-14T06:37:46Z</time>
      </trkpt>
      <trkpt lat="45.39152" lon="4.55439">
        <ele>837</ele>
        <time>2014-09-14T06:37:49Z</time>
      </trkpt>
      <trkpt lat="45.3915" lon="4.55439">
        <ele>837</ele>
        <time>2014-09-14T06:37:52Z</time>
      </trkpt>
      <trkpt lat="45.39148" lon="4.5544">
        <ele>838</ele>
        <time>2014-09-14T06:37:54Z</time>
      </trkpt>
      <trkpt lat="45.39147" lon="4.55441">
        <ele>838</ele>
        <time>2014-09-14T06:37:56Z</time>
      </trkpt>
      <trkpt lat="45.39144" lon="4.55442">
        <ele>838</ele>
        <time>2014-09-14T06:37:59Z</time>
      </trkpt>
      <trkpt lat="45.39142" lon="4.55443">
        <ele>839</ele>
        <time>2014-09-14T06:38:01Z</time>
      </trkpt>
      <trkpt lat="45.3914" lon="4.55446">
        <ele>839</ele>
        <time>2014-09-14T06:38:04Z</time>
      </trkpt>
      <trkpt lat="45.39138" lon="4.55447">
        <ele>839</ele>
        <time>2014-09-14T06:38:06Z</time>
      </trkpt>
      <trkpt lat="45.39137" lon="4.55447">
        <ele>840</ele>
        <time>2014-09-14T06:38:08Z</time>
      </trkpt>
      <trkpt lat="45.39136" lon="4.55448">
        <ele>841</ele>
        <time>2014-09-14T06:38:11Z</time>
      </trkpt>
      <trkpt lat="45.39135" lon="4.55449">
        <ele>841</ele>
        <time>2014-09-14T06:38:13Z</time>
      </trkpt>
      <trkpt lat="45.39132" lon="4.55449">
        <ele>842</ele>
        <time>2014-09-14T06:38:16Z</time>
      </trkpt>
      <trkpt lat="45.3913" lon="4.5545">
        <ele>843</ele>
        <time>2014-09-14T06:38:19Z</time>
      </trkpt>
      <trkpt lat="45.39128" lon="4.5545">
        <ele>843</ele>
        <time>2014-09-14T06:38:22Z</time>
      </trkpt>
      <trkpt lat="45.39125" lon="4.55451">
        <ele>844</ele>
        <time>2014-09-14T06:38:25Z</time>
      </trkpt>
      <trkpt lat="45.39125" lon="4.55452">
        <ele>845</ele>
        <time>2014-09-14T06:38:27Z</time>
      </trkpt>
      <trkpt lat="45.39123" lon="4.55453">
        <ele>845</ele>
        <time>2014-09-14T06:38:29Z</time>
      </trkpt>
      <trkpt lat="45.39121" lon="4.55453">
        <ele>846</ele>
        <time>2014-09-14T06:38:32Z</time>
      </trkpt>
      <trkpt lat="45.3912" lon="4.55453">
        <ele>846</ele>
        <time>2014-09-14T06:38:34Z</time>
      </trkpt>
      <trkpt lat="45.39118" lon="4.55454">
        <ele>846</ele>
        <time>2014-09-14T06:38:36Z</time>
      </trkpt>
      <trkpt lat="45.39114" lon="4.55455">
        <ele>847</ele>
        <time>2014-09-14T06:38:39Z</time>
      </trkpt>
      <trkpt lat="45.39113" lon="4.55456">
        <ele>847</ele>
        <time>2014-09-14T06:38:41Z</time>
      </trkpt>
      <trkpt lat="45.39111" lon="4.55455">
        <ele>848</ele>
        <time>2014-09-14T06:38:43Z</time>
      </trkpt>
      <trkpt lat="45.39109" lon="4.55455">
        <ele>848</ele>
        <time>2014-09-14T06:38:45Z</time>
      </trkpt>
      <trkpt lat="45.39106" lon="4.55455">
        <ele>849</ele>
        <time>2014-09-14T06:38:48Z</time>
      </trkpt>
      <trkpt lat="45.39106" lon="4.55456">
        <ele>849</ele>
        <time>2014-09-14T06:38:50Z</time>
      </trkpt>
      <trkpt lat="45.39105" lon="4.55456">
        <ele>850</ele>
        <time>2014-09-14T06:38:52Z</time>
      </trkpt>
      <trkpt lat="45.39103" lon="4.55455">
        <ele>850</ele>
        <time>2014-09-14T06:38:54Z</time>
      </trkpt>
      <trkpt lat="45.391" lon="4.55455">
        <ele>851</ele>
        <time>2014-09-14T06:38:57Z</time>
      </trkpt>
      <trkpt lat="45.39096" lon="4.55456">
        <ele>852</ele>
        <time>2014-09-14T06:39:00Z</time>
      </trkpt>
      <trkpt lat="45.39095" lon="4.55456">
        <ele>852</ele>
        <time>2014-09-14T06:39:02Z</time>
      </trkpt>
      <trkpt lat="45.39092" lon="4.55456">
        <ele>853</ele>
        <time>2014-09-14T06:39:05Z</time>
      </trkpt>
      <trkpt lat="45.39089" lon="4.55457">
        <ele>853</ele>
        <time>2014-09-14T06:39:08Z</time>
      </trkpt>
      <trkpt lat="45.39085" lon="4.55457">
        <ele>854</ele>
        <time>2014-09-14T06:39:11Z</time>
      </trkpt>
      <trkpt lat="45.39082" lon="4.55458">
        <ele>855</ele>
        <time>2014-09-14T06:39:14Z</time>
      </trkpt>
      <trkpt lat="45.3908" lon="4.5546">
        <ele>856</ele>
        <time>2014-09-14T06:39:16Z</time>
      </trkpt>
      <trkpt lat="45.39076" lon="4.55462">
        <ele>856</ele>
        <time>2014-09-14T06:39:19Z</time>
      </trkpt>
      <trkpt lat="45.39073" lon="4.55463">
        <ele>857</ele>
        <time>2014-09-14T06:39:22Z</time>
      </trkpt>
      <trkpt lat="45.39072" lon="4.55465">
        <ele>857</ele>
        <time>2014-09-14T06:39:24Z</time>
      </trkpt>
      <trkpt lat="45.39071" lon="4.55466">
        <ele>858</ele>
        <time>2014-09-14T06:39:26Z</time>
      </trkpt>
      <trkpt lat="45.39069" lon="4.55467">
        <ele>858</ele>
        <time>2014-09-14T06:39:28Z</time>
      </trkpt>
      <trkpt lat="45.39068" lon="4.55469">
        <ele>858</ele>
        <time>2014-09-14T06:39:31Z</time>
      </trkpt>
      <trkpt lat="45.39067" lon="4.55471">
        <ele>859</ele>
        <time>2014-09-14T06:39:33Z</time>
      </trkpt>
      <trkpt lat="45.39066" lon="4.55473">
        <ele>859</ele>
        <time>2014-09-14T06:39:35Z</time>
      </trkpt>
      <trkpt lat="45.39066" lon="4.55474">
        <ele>859</ele>
        <time>2014-09-14T06:39:37Z</time>
      </trkpt>
      <trkpt lat="45.39064" lon="4.55478">
        <ele>860</ele>
        <time>2014-09-14T06:39:40Z</time>
      </trkpt>
      <trkpt lat="45.39064" lon="4.5548">
        <ele>861</ele>
        <time>2014-09-14T06:39:42Z</time>
      </trkpt>
      <trkpt lat="45.39064" lon="4.55482">
        <ele>861</ele>
        <time>2014-09-14T06:39:44Z</time>
      </trkpt>
      <trkpt lat="45.39064" lon="4.55484">
        <ele>861</ele>
        <time>2014-09-14T06:39:46Z</time>
      </trkpt>
      <trkpt lat="45.39063" lon="4.55485">
        <ele>862</ele>
        <time>2014-09-14T06:39:48Z</time>
      </trkpt>
      <trkpt lat="45.39062" lon="4.5549">
        <ele>862</ele>
        <time>2014-09-14T06:39:51Z</time>
      </trkpt>
      <trkpt lat="45.39062" lon="4.55492">
        <ele>863</ele>
        <time>2014-09-14T06:39:53Z</time>
      </trkpt>
      <trkpt lat="45.39061" lon="4.55496">
        <ele>864</ele>
        <time>2014-09-14T06:39:56Z</time>
      </trkpt>
      <trkpt lat="45.3906" lon="4.555">
        <ele>864</ele>
        <time>2014-09-14T06:39:59Z</time>
      </trkpt>
      <trkpt lat="45.39059" lon="4.55502">
        <ele>865</ele>
        <time>2014-09-14T06:40:01Z</time>
      </trkpt>
      <trkpt lat="45.39059" lon="4.55505">
        <ele>865</ele>
        <time>2014-09-14T06:40:03Z</time>
      </trkpt>
      <trkpt lat="45.3906" lon="4.55509">
        <ele>865</ele>
        <time>2014-09-14T06:40:06Z</time>
      </trkpt>
      <trkpt lat="45.39061" lon="4.55511">
        <ele>865</ele>
        <time>2014-09-14T06:40:08Z</time>
      </trkpt>
      <trkpt lat="45.39061" lon="4.55514">
        <ele>865</ele>
        <time>2014-09-14T06:40:10Z</time>
      </trkpt>
      <trkpt lat="45.39063" lon="4.5552">
        <ele>866</ele>
        <time>2014-09-14T06:40:13Z</time>
      </trkpt>
      <trkpt lat="45.39064" lon="4.55526">
        <ele>866</ele>
        <time>2014-09-14T06:40:15Z</time>
      </trkpt>
      <trkpt lat="45.39066" lon="4.55535">
        <ele>866</ele>
        <time>2014-09-14T06:40:18Z</time>
      </trkpt>
      <trkpt lat="45.39066" lon="4.5554">
        <ele>866</ele>
        <time>2014-09-14T06:40:20Z</time>
      </trkpt>
      <trkpt lat="45.39066" lon="4.55548">
        <ele>866</ele>
        <time>2014-09-14T06:40:23Z</time>
      </trkpt>
      <trkpt lat="45.39065" lon="4.55555">
        <ele>867</ele>
        <time>2014-09-14T06:40:25Z</time>
      </trkpt>
      <trkpt lat="45.39063" lon="4.55564">
        <ele>867</ele>
        <time>2014-09-14T06:40:28Z</time>
      </trkpt>
      <trkpt lat="45.39061" lon="4.55572">
        <ele>867</ele>
        <time>2014-09-14T06:40:31Z</time>
      </trkpt>
      <trkpt lat="45.39061" lon="4.55577">
        <ele>867</ele>
        <time>2014-09-14T06:40:33Z</time>
      </trkpt>
      <trkpt lat="45.39061" lon="4.55581">
        <ele>868</ele>
        <time>2014-09-14T06:40:35Z</time>
      </trkpt>
      <trkpt lat="45.39062" lon="4.55588">
        <ele>869</ele>
        <time>2014-09-14T06:40:38Z</time>
      </trkpt>
      <trkpt lat="45.39062" lon="4.55595">
        <ele>869</ele>
        <time>2014-09-14T06:40:41Z</time>
      </trkpt>
      <trkpt lat="45.39063" lon="4.55603">
        <ele>869</ele>
        <time>2014-09-14T06:40:44Z</time>
      </trkpt>
      <trkpt lat="45.39062" lon="4.55608">
        <ele>870</ele>
        <time>2014-09-14T06:40:46Z</time>
      </trkpt>
      <trkpt lat="45.39061" lon="4.55614">
        <ele>870</ele>
        <time>2014-09-14T06:40:48Z</time>
      </trkpt>
      <trkpt lat="45.39061" lon="4.55622">
        <ele>871</ele>
        <time>2014-09-14T06:40:51Z</time>
      </trkpt>
      <trkpt lat="45.39059" lon="4.55628">
        <ele>872</ele>
        <time>2014-09-14T06:40:53Z</time>
      </trkpt>
      <trkpt lat="45.39056" lon="4.55637">
        <ele>873</ele>
        <time>2014-09-14T06:40:56Z</time>
      </trkpt>
      <trkpt lat="45.39053" lon="4.55643">
        <ele>872</ele>
        <time>2014-09-14T06:40:59Z</time>
      </trkpt>
      <trkpt lat="45.39051" lon="4.55647">
        <ele>872</ele>
        <time>2014-09-14T06:41:01Z</time>
      </trkpt>
      <trkpt lat="45.39049" lon="4.55652">
        <ele>873</ele>
        <time>2014-09-14T06:41:04Z</time>
      </trkpt>
      <trkpt lat="45.39048" lon="4.55656">
        <ele>873</ele>
        <time>2014-09-14T06:41:07Z</time>
      </trkpt>
      <trkpt lat="45.39045" lon="4.5566">
        <ele>873</ele>
        <time>2014-09-14T06:41:10Z</time>
      </trkpt>
      <trkpt lat="45.39043" lon="4.55664">
        <ele>873</ele>
        <time>2014-09-14T06:41:13Z</time>
      </trkpt>
      <trkpt lat="45.39041" lon="4.55666">
        <ele>873</ele>
        <time>2014-09-14T06:41:15Z</time>
      </trkpt>
      <trkpt lat="45.39038" lon="4.55669">
        <ele>874</ele>
        <time>2014-09-14T06:41:18Z</time>
      </trkpt>
      <trkpt lat="45.39036" lon="4.5567">
        <ele>874</ele>
        <time>2014-09-14T06:41:20Z</time>
      </trkpt>
      <trkpt lat="45.39034" lon="4.55673">
        <ele>875</ele>
        <time>2014-09-14T06:41:23Z</time>
      </trkpt>
      <trkpt lat="45.39032" lon="4.55676">
        <ele>875</ele>
        <time>2014-09-14T06:41:26Z</time>
      </trkpt>
      <trkpt lat="45.3903" lon="4.55679">
        <ele>875</ele>
        <time>2014-09-14T06:41:29Z</time>
      </trkpt>
      <trkpt lat="45.39029" lon="4.5568">
        <ele>875</ele>
        <time>2014-09-14T06:41:31Z</time>
      </trkpt>
      <trkpt lat="45.39027" lon="4.55682">
        <ele>876</ele>
        <time>2014-09-14T06:41:34Z</time>
      </trkpt>
      <trkpt lat="45.39027" lon="4.55684">
        <ele>876</ele>
        <time>2014-09-14T06:41:36Z</time>
      </trkpt>
      <trkpt lat="45.39025" lon="4.55687">
        <ele>877</ele>
        <time>2014-09-14T06:41:39Z</time>
      </trkpt>
      <trkpt lat="45.39023" lon="4.55689">
        <ele>878</ele>
        <time>2014-09-14T06:41:41Z</time>
      </trkpt>
      <trkpt lat="45.3902" lon="4.55692">
        <ele>878</ele>
        <time>2014-09-14T06:41:44Z</time>
      </trkpt>
      <trkpt lat="45.39019" lon="4.55694">
        <ele>879</ele>
        <time>2014-09-14T06:41:46Z</time>
      </trkpt>
      <trkpt lat="45.39018" lon="4.55696">
        <ele>879</ele>
        <time>2014-09-14T06:41:48Z</time>
      </trkpt>
      <trkpt lat="45.39018" lon="4.55699">
        <ele>880</ele>
        <time>2014-09-14T06:41:51Z</time>
      </trkpt>
      <trkpt lat="45.39017" lon="4.55703">
        <ele>880</ele>
        <time>2014-09-14T06:41:54Z</time>
      </trkpt>
      <trkpt lat="45.39019" lon="4.55707">
        <ele>881</ele>
        <time>2014-09-14T06:41:57Z</time>
      </trkpt>
      <trkpt lat="45.3902" lon="4.5571">
        <ele>881</ele>
        <time>2014-09-14T06:42:00Z</time>
      </trkpt>
      <trkpt lat="45.3902" lon="4.55712">
        <ele>882</ele>
        <time>2014-09-14T06:42:02Z</time>
      </trkpt>
      <trkpt lat="45.39021" lon="4.55714">
        <ele>882</ele>
        <time>2014-09-14T06:42:04Z</time>
      </trkpt>
      <trkpt lat="45.39024" lon="4.55716">
        <ele>883</ele>
        <time>2014-09-14T06:42:07Z</time>
      </trkpt>
      <trkpt lat="45.39025" lon="4.55717">
        <ele>884</ele>
        <time>2014-09-14T06:42:09Z</time>
      </trkpt>
      <trkpt lat="45.39027" lon="4.55719">
        <ele>884</ele>
        <time>2014-09-14T06:42:11Z</time>
      </trkpt>
      <trkpt lat="45.3903" lon="4.55721">
        <ele>885</ele>
        <time>2014-09-14T06:42:14Z</time>
      </trkpt>
      <trkpt lat="45.39031" lon="4.55722">
        <ele>885</ele>
        <time>2014-09-14T06:42:16Z</time>
      </trkpt>
      <trkpt lat="45.39034" lon="4.55722">
        <ele>886</ele>
        <time>2014-09-14T06:42:19Z</time>
      </trkpt>
      <trkpt lat="45.39036" lon="4.55723">
        <ele>886</ele>
        <time>2014-09-14T06:42:22Z</time>
      </trkpt>
      <trkpt lat="45.39038" lon="4.55724">
        <ele>886</ele>
        <time>2014-09-14T06:42:24Z</time>
      </trkpt>
      <trkpt lat="45.39042" lon="4.55725">
        <ele>887</ele>
        <time>2014-09-14T06:42:27Z</time>
      </trkpt>
      <trkpt lat="45.39044" lon="4.55726">
        <ele>888</ele>
        <time>2014-09-14T06:42:30Z</time>
      </trkpt>
      <trkpt lat="45.39046" lon="4.55726">
        <ele>888</ele>
        <time>2014-09-14T06:42:32Z</time>
      </trkpt>
      <trkpt lat="45.39049" lon="4.55725">
        <ele>888</ele>
        <time>2014-09-14T06:42:35Z</time>
      </trkpt>
      <trkpt lat="45.3905" lon="4.55726">
        <ele>889</ele>
        <time>2014-09-14T06:42:38Z</time>
      </trkpt>
      <trkpt lat="45.39051" lon="4.55726">
        <ele>889</ele>
        <time>2014-09-14T06:42:40Z</time>
      </trkpt>
      <trkpt lat="45.39053" lon="4.55728">
        <ele>889</ele>
        <time>2014-09-14T06:42:42Z</time>
      </trkpt>
      <trkpt lat="45.39055" lon="4.55728">
        <ele>890</ele>
        <time>2014-09-14T06:42:45Z</time>
      </trkpt>
      <trkpt lat="45.39057" lon="4.55728">
        <ele>891</ele>
        <time>2014-09-14T06:42:48Z</time>
      </trkpt>
      <trkpt lat="45.39059" lon="4.55729">
        <ele>891</ele>
        <time>2014-09-14T06:42:50Z</time>
      </trkpt>
      <trkpt lat="45.39061" lon="4.55729">
        <ele>892</ele>
        <time>2014-09-14T06:42:53Z</time>
      </trkpt>
      <trkpt lat="45.39064" lon="4.55729">
        <ele>892</ele>
        <time>2014-09-14T06:42:56Z</time>
      </trkpt>
      <trkpt lat="45.39066" lon="4.5573">
        <ele>893</ele>
        <time>2014-09-14T06:42:58Z</time>
      </trkpt>
      <trkpt lat="45.39069" lon="4.55732">
        <ele>893</ele>
        <time>2014-09-14T06:43:01Z</time>
      </trkpt>
      <trkpt lat="45.39071" lon="4.55732">
        <ele>893</ele>
        <time>2014-09-14T06:43:04Z</time>
      </trkpt>
      <trkpt lat="45.39074" lon="4.55733">
        <ele>894</ele>
        <time>2014-09-14T06:43:06Z</time>
      </trkpt>
      <trkpt lat="45.39075" lon="4.55732">
        <ele>894</ele>
        <time>2014-09-14T06:43:08Z</time>
      </trkpt>
      <trkpt lat="45.39078" lon="4.55731">
        <ele>895</ele>
        <time>2014-09-14T06:43:11Z</time>
      </trkpt>
      <trkpt lat="45.3908" lon="4.5573">
        <ele>895</ele>
        <time>2014-09-14T06:43:13Z</time>
      </trkpt>
      <trkpt lat="45.39084" lon="4.55729">
        <ele>896</ele>
        <time>2014-09-14T06:43:16Z</time>
      </trkpt>
      <trkpt lat="45.39087" lon="4.55726">
        <ele>896</ele>
        <time>2014-09-14T06:43:19Z</time>
      </trkpt>
      <trkpt lat="45.3909" lon="4.55725">
        <ele>897</ele>
        <time>2014-09-14T06:43:21Z</time>
      </trkpt>
      <trkpt lat="45.39093" lon="4.55723">
        <ele>897</ele>
        <time>2014-09-14T06:43:24Z</time>
      </trkpt>
      <trkpt lat="45.39097" lon="4.55723">
        <ele>897</ele>
        <time>2014-09-14T06:43:27Z</time>
      </trkpt>
      <trkpt lat="45.39101" lon="4.55721">
        <ele>898</ele>
        <time>2014-09-14T06:43:30Z</time>
      </trkpt>
      <trkpt lat="45.39103" lon="4.5572">
        <ele>898</ele>
        <time>2014-09-14T06:43:33Z</time>
      </trkpt>
      <trkpt lat="45.39106" lon="4.55719">
        <ele>899</ele>
        <time>2014-09-14T06:43:36Z</time>
      </trkpt>
      <trkpt lat="45.39108" lon="4.55719">
        <ele>899</ele>
        <time>2014-09-14T06:43:38Z</time>
      </trkpt>
      <trkpt lat="45.39111" lon="4.5572">
        <ele>900</ele>
        <time>2014-09-14T06:43:41Z</time>
      </trkpt>
      <trkpt lat="45.39114" lon="4.55719">
        <ele>901</ele>
        <time>2014-09-14T06:43:43Z</time>
      </trkpt>
      <trkpt lat="45.39116" lon="4.55718">
        <ele>901</ele>
        <time>2014-09-14T06:43:45Z</time>
      </trkpt>
      <trkpt lat="45.39119" lon="4.55718">
        <ele>902</ele>
        <time>2014-09-14T06:43:48Z</time>
      </trkpt>
      <trkpt lat="45.3912" lon="4.55719">
        <ele>902</ele>
        <time>2014-09-14T06:43:50Z</time>
      </trkpt>
      <trkpt lat="45.39122" lon="4.55718">
        <ele>903</ele>
        <time>2014-09-14T06:43:53Z</time>
      </trkpt>
      <trkpt lat="45.39125" lon="4.55718">
        <ele>904</ele>
        <time>2014-09-14T06:43:56Z</time>
      </trkpt>
      <trkpt lat="45.39126" lon="4.55716">
        <ele>905</ele>
        <time>2014-09-14T06:43:59Z</time>
      </trkpt>
      <trkpt lat="45.39128" lon="4.55716">
        <ele>905</ele>
        <time>2014-09-14T06:44:02Z</time>
      </trkpt>
      <trkpt lat="45.39131" lon="4.55714">
        <ele>905</ele>
        <time>2014-09-14T06:44:05Z</time>
      </trkpt>
      <trkpt lat="45.39133" lon="4.55713">
        <ele>906</ele>
        <time>2014-09-14T06:44:07Z</time>
      </trkpt>
      <trkpt lat="45.39135" lon="4.55711">
        <ele>906</ele>
        <time>2014-09-14T06:44:09Z</time>
      </trkpt>
      <trkpt lat="45.39138" lon="4.5571">
        <ele>907</ele>
        <time>2014-09-14T06:44:11Z</time>
      </trkpt>
      <trkpt lat="45.3914" lon="4.55708">
        <ele>907</ele>
        <time>2014-09-14T06:44:13Z</time>
      </trkpt>
      <trkpt lat="45.39144" lon="4.55706">
        <ele>907</ele>
        <time>2014-09-14T06:44:16Z</time>
      </trkpt>
      <trkpt lat="45.39146" lon="4.55706">
        <ele>908</ele>
        <time>2014-09-14T06:44:18Z</time>
      </trkpt>
      <trkpt lat="45.3915" lon="4.55705">
        <ele>908</ele>
        <time>2014-09-14T06:44:21Z</time>
      </trkpt>
      <trkpt lat="45.39153" lon="4.55705">
        <ele>908</ele>
        <time>2014-09-14T06:44:24Z</time>
      </trkpt>
      <trkpt lat="45.39157" lon="4.55705">
        <ele>909</ele>
        <time>2014-09-14T06:44:27Z</time>
      </trkpt>
      <trkpt lat="45.3916" lon="4.55706">
        <ele>910</ele>
        <time>2014-09-14T06:44:29Z</time>
      </trkpt>
      <trkpt lat="45.39163" lon="4.55707">
        <ele>911</ele>
        <time>2014-09-14T06:44:32Z</time>
      </trkpt>
      <trkpt lat="45.39165" lon="4.55707">
        <ele>911</ele>
        <time>2014-09-14T06:44:34Z</time>
      </trkpt>
      <trkpt lat="45.39167" lon="4.55706">
        <ele>911</ele>
        <time>2014-09-14T06:44:36Z</time>
      </trkpt>
      <trkpt lat="45.39171" lon="4.55706">
        <ele>911</ele>
        <time>2014-09-14T06:44:39Z</time>
      </trkpt>
      <trkpt lat="45.39174" lon="4.55706">
        <ele>912</ele>
        <time>2014-09-14T06:44:41Z</time>
      </trkpt>
      <trkpt lat="45.39176" lon="4.55706">
        <ele>912</ele>
        <time>2014-09-14T06:44:43Z</time>
      </trkpt>
      <trkpt lat="45.39179" lon="4.55707">
        <ele>912</ele>
        <time>2014-09-14T06:44:45Z</time>
      </trkpt>
      <trkpt lat="45.39181" lon="4.55708">
        <ele>913</ele>
        <time>2014-09-14T06:44:47Z</time>
      </trkpt>
      <trkpt lat="45.39184" lon="4.5571">
        <ele>913</ele>
        <time>2014-09-14T06:44:50Z</time>
      </trkpt>
      <trkpt lat="45.39185" lon="4.55711">
        <ele>914</ele>
        <time>2014-09-14T06:44:52Z</time>
      </trkpt>
      <trkpt lat="45.39187" lon="4.55711">
        <ele>914</ele>
        <time>2014-09-14T06:44:54Z</time>
      </trkpt>
      <trkpt lat="45.3919" lon="4.55711">
        <ele>915</ele>
        <time>2014-09-14T06:44:57Z</time>
      </trkpt>
      <trkpt lat="45.39192" lon="4.55712">
        <ele>916</ele>
        <time>2014-09-14T06:45:00Z</time>
      </trkpt>
      <trkpt lat="45.39194" lon="4.55714">
        <ele>917</ele>
        <time>2014-09-14T06:45:02Z</time>
      </trkpt>
      <trkpt lat="45.39197" lon="4.55717">
        <ele>917</ele>
        <time>2014-09-14T06:45:05Z</time>
      </trkpt>
      <trkpt lat="45.392" lon="4.55718">
        <ele>917</ele>
        <time>2014-09-14T06:45:08Z</time>
      </trkpt>
      <trkpt lat="45.39202" lon="4.5572">
        <ele>918</ele>
        <time>2014-09-14T06:45:11Z</time>
      </trkpt>
      <trkpt lat="45.39204" lon="4.5572">
        <ele>918</ele>
        <time>2014-09-14T06:45:13Z</time>
      </trkpt>
      <trkpt lat="45.39207" lon="4.55723">
        <ele>919</ele>
        <time>2014-09-14T06:45:16Z</time>
      </trkpt>
      <trkpt lat="45.39208" lon="4.55723">
        <ele>920</ele>
        <time>2014-09-14T06:45:18Z</time>
      </trkpt>
      <trkpt lat="45.39209" lon="4.55723">
        <ele>920</ele>
        <time>2014-09-14T06:45:20Z</time>
      </trkpt>
      <trkpt lat="45.39211" lon="4.55724">
        <ele>920</ele>
        <time>2014-09-14T06:45:22Z</time>
      </trkpt>
      <trkpt lat="45.39213" lon="4.55726">
        <ele>920</ele>
        <time>2014-09-14T06:45:25Z</time>
      </trkpt>
      <trkpt lat="45.39214" lon="4.55727">
        <ele>921</ele>
        <time>2014-09-14T06:45:27Z</time>
      </trkpt>
      <trkpt lat="45.39216" lon="4.55728">
        <ele>921</ele>
        <time>2014-09-14T06:45:29Z</time>
      </trkpt>
      <trkpt lat="45.39217" lon="4.55729">
        <ele>921</ele>
        <time>2014-09-14T06:45:31Z</time>
      </trkpt>
      <trkpt lat="45.3922" lon="4.55732">
        <ele>922</ele>
        <time>2014-09-14T06:45:34Z</time>
      </trkpt>
      <trkpt lat="45.39222" lon="4.55735">
        <ele>922</ele>
        <time>2014-09-14T06:45:36Z</time>
      </trkpt>
      <trkpt lat="45.39223" lon="4.55738">
        <ele>923</ele>
        <time>2014-09-14T06:45:39Z</time>
      </trkpt>
      <trkpt lat="45.39225" lon="4.55739">
        <ele>924</ele>
        <time>2014-09-14T06:45:42Z</time>
      </trkpt>
      <trkpt lat="45.39225" lon="4.55741">
        <ele>924</ele>
        <time>2014-09-14T06:45:44Z</time>
      </trkpt>
      <trkpt lat="45.39227" lon="4.55744">
        <ele>925</ele>
        <time>2014-09-14T06:45:46Z</time>
      </trkpt>
      <trkpt lat="45.39228" lon="4.55747">
        <ele>926</ele>
        <time>2014-09-14T06:45:49Z</time>
      </trkpt>
      <trkpt lat="45.3923" lon="4.5575">
        <ele>926</ele>
        <time>2014-09-14T06:45:51Z</time>
      </trkpt>
      <trkpt lat="45.39231" lon="4.55754">
        <ele>926</ele>
        <time>2014-09-14T06:45:54Z</time>
      </trkpt>
      <trkpt lat="45.39234" lon="4.55754">
        <ele>927</ele>
        <time>2014-09-14T06:45:56Z</time>
      </trkpt>
      <trkpt lat="45.39237" lon="4.55757">
        <ele>928</ele>
        <time>2014-09-14T06:45:59Z</time>
      </trkpt>
      <trkpt lat="45.39238" lon="4.55759">
        <ele>928</ele>
        <time>2014-09-14T06:46:01Z</time>
      </trkpt>
      <trkpt lat="45.39239" lon="4.5576">
        <ele>929</ele>
        <time>2014-09-14T06:46:04Z</time>
      </trkpt>
      <trkpt lat="45.39241" lon="4.55763">
        <ele>930</ele>
        <time>2014-09-14T06:46:07Z</time>
      </trkpt>
      <trkpt lat="45.39243" lon="4.55765">
        <ele>930</ele>
        <time>2014-09-14T06:46:10Z</time>
      </trkpt>
      <trkpt lat="45.39244" lon="4.55767">
        <ele>931</ele>
        <time>2014-09-14T06:46:13Z</time>
      </trkpt>
      <trkpt lat="45.39246" lon="4.55767">
        <ele>932</ele>
        <time>2014-09-14T06:46:15Z</time>
      </trkpt>
      <trkpt lat="45.39247" lon="4.55769">
        <ele>932</ele>
        <time>2014-09-14T06:46:18Z</time>
      </trkpt>
      <trkpt lat="45.39248" lon="4.5577">
        <ele>932</ele>
        <time>2014-09-14T06:46:20Z</time>
      </trkpt>
      <trkpt lat="45.3925" lon="4.55772">
        <ele>933</ele>
        <time>2014-09-14T06:46:23Z</time>
      </trkpt>
      <trkpt lat="45.39251" lon="4.55772">
        <ele>933</ele>
        <time>2014-09-14T06:46:25Z</time>
      </trkpt>
      <trkpt lat="45.39253" lon="4.55773">
        <ele>934</ele>
        <time>2014-09-14T06:46:28Z</time>
      </trkpt>
      <trkpt lat="45.39255" lon="4.55774">
        <ele>935</ele>
        <time>2014-09-14T06:46:30Z</time>
      </trkpt>
      <trkpt lat="45.39257" lon="4.55777">
        <ele>935</ele>
        <time>2014-09-14T06:46:33Z</time>
      </trkpt>
      <trkpt lat="45.39257" lon="4.55778">
        <ele>936</ele>
        <time>2014-09-14T06:46:35Z</time>
      </trkpt>
      <trkpt lat="45.39259" lon="4.55781">
        <ele>936</ele>
        <time>2014-09-14T06:46:38Z</time>
      </trkpt>
      <trkpt lat="45.39262" lon="4.55782">
        <ele>937</ele>
        <time>2014-09-14T06:46:41Z</time>
      </trkpt>
      <trkpt lat="45.39263" lon="4.55783">
        <ele>938</ele>
        <time>2014-09-14T06:46:44Z</time>
      </trkpt>
      <trkpt lat="45.39265" lon="4.55783">
        <ele>938</ele>
        <time>2014-09-14T06:46:46Z</time>
      </trkpt>
      <trkpt lat="45.39267" lon="4.55785">
        <ele>939</ele>
        <time>2014-09-14T06:46:49Z</time>
      </trkpt>
      <trkpt lat="45.39267" lon="4.55789">
        <ele>939</ele>
        <time>2014-09-14T06:46:52Z</time>
      </trkpt>
      <trkpt lat="45.39268" lon="4.55793">
        <ele>940</ele>
        <time>2014-09-14T06:46:55Z</time>
      </trkpt>
      <trkpt lat="45.3927" lon="4.55796">
        <ele>941</ele>
        <time>2014-09-14T06:46:57Z</time>
      </trkpt>
      <trkpt lat="45.3927" lon="4.55801">
        <ele>942</ele>
        <time>2014-09-14T06:47:00Z</time>
      </trkpt>
      <trkpt lat="45.39271" lon="4.55805">
        <ele>942</ele>
        <time>2014-09-14T06:47:03Z</time>
      </trkpt>
      <trkpt lat="45.39272" lon="4.55809">
        <ele>942</ele>
        <time>2014-09-14T06:47:06Z</time>
      </trkpt>
      <trkpt lat="45.39272" lon="4.55813">
        <ele>943</ele>
        <time>2014-09-14T06:47:09Z</time>
      </trkpt>
      <trkpt lat="45.39272" lon="4.55815">
        <ele>944</ele>
        <time>2014-09-14T06:47:11Z</time>
      </trkpt>
      <trkpt lat="45.39271" lon="4.55817">
        <ele>944</ele>
        <time>2014-09-14T06:47:13Z</time>
      </trkpt>
      <trkpt lat="45.39272" lon="4.55819">
        <ele>945</ele>
        <time>2014-09-14T06:47:15Z</time>
      </trkpt>
      <trkpt lat="45.3927" lon="4.55823">
        <ele>945</ele>
        <time>2014-09-14T06:47:18Z</time>
      </trkpt>
      <trkpt lat="45.39268" lon="4.55827">
        <ele>946</ele>
        <time>2014-09-14T06:47:21Z</time>
      </trkpt>
      <trkpt lat="45.39267" lon="4.5583">
        <ele>946</ele>
        <time>2014-09-14T06:47:23Z</time>
      </trkpt>
      <trkpt lat="45.39265" lon="4.55833">
        <ele>947</ele>
        <time>2014-09-14T06:47:26Z</time>
      </trkpt>
      <trkpt lat="45.39264" lon="4.55835">
        <ele>947</ele>
        <time>2014-09-14T06:47:29Z</time>
      </trkpt>
      <trkpt lat="45.39263" lon="4.55838">
        <ele>948</ele>
        <time>2014-09-14T06:47:32Z</time>
      </trkpt>
      <trkpt lat="45.39262" lon="4.5584">
        <ele>949</ele>
        <time>2014-09-14T06:47:34Z</time>
      </trkpt>
      <trkpt lat="45.39262" lon="4.55841">
        <ele>950</ele>
        <time>2014-09-14T06:47:36Z</time>
      </trkpt>
      <trkpt lat="45.39259" lon="4.55845">
        <ele>950</ele>
        <time>2014-09-14T06:47:39Z</time>
      </trkpt>
      <trkpt lat="45.39256" lon="4.55849">
        <ele>950</ele>
        <time>2014-09-14T06:47:42Z</time>
      </trkpt>
      <trkpt lat="45.39254" lon="4.55851">
        <ele>951</ele>
        <time>2014-09-14T06:47:44Z</time>
      </trkpt>
      <trkpt lat="45.39252" lon="4.55853">
        <ele>952</ele>
        <time>2014-09-14T06:47:47Z</time>
      </trkpt>
      <trkpt lat="45.39251" lon="4.55854">
        <ele>952</ele>
        <time>2014-09-14T06:47:49Z</time>
      </trkpt>
      <trkpt lat="45.39249" lon="4.55856">
        <ele>952</ele>
        <time>2014-09-14T06:47:52Z</time>
      </trkpt>
      <trkpt lat="45.39248" lon="4.55857">
        <ele>953</ele>
        <time>2014-09-14T06:47:54Z</time>
      </trkpt>
      <trkpt lat="45.39245" lon="4.55861">
        <ele>953</ele>
        <time>2014-09-14T06:47:57Z</time>
      </trkpt>
      <trkpt lat="45.39243" lon="4.55862">
        <ele>953</ele>
        <time>2014-09-14T06:47:59Z</time>
      </trkpt>
      <trkpt lat="45.39241" lon="4.55864">
        <ele>954</ele>
        <time>2014-09-14T06:48:01Z</time>
      </trkpt>
      <trkpt lat="45.39241" lon="4.55864">
        <ele>954</ele>
        <time>2014-09-14T06:48:03Z</time>
      </trkpt>
      <trkpt lat="45.39239" lon="4.55867">
        <ele>955</ele>
        <time>2014-09-14T06:48:06Z</time>
      </trkpt>
      <trkpt lat="45.39238" lon="4.55868">
        <ele>956</ele>
        <time>2014-09-14T06:48:08Z</time>
      </trkpt>
      <trkpt lat="45.39236" lon="4.55869">
        <ele>956</ele>
        <time>2014-09-14T06:48:11Z</time>
      </trkpt>
      <trkpt lat="45.39235" lon="4.55869">
        <ele>956</ele>
        <time>2014-09-14T06:48:13Z</time>
      </trkpt>
      <trkpt lat="45.39234" lon="4.55871">
        <ele>957</ele>
        <time>2014-09-14T06:48:16Z</time>
      </trkpt>
      <trkpt lat="45.39231" lon="4.55872">
        <ele>957</ele>
        <time>2014-09-14T06:48:19Z</time>
      </trkpt>
      <trkpt lat="45.39229" lon="4.55873">
        <ele>958</ele>
        <time>2014-09-14T06:48:21Z</time>
      </trkpt>
      <trkpt lat="45.39228" lon="4.55874">
        <ele>958</ele>
        <time>2014-09-14T06:48:23Z</time>
      </trkpt>
      <trkpt lat="45.39226" lon="4.55875">
        <ele>959</ele>
        <time>2014-09-14T06:48:25Z</time>
      </trkpt>
      <trkpt lat="45.39224" lon="4.55877">
        <ele>959</ele>
        <time>2014-09-14T06:48:28Z</time>
      </trkpt>
      <trkpt lat="45.39222" lon="4.55879">
        <ele>960</ele>
        <time>2014-09-14T06:48:31Z</time>
      </trkpt>
      <trkpt lat="45.39221" lon="4.5588">
        <ele>961</ele>
        <time>2014-09-14T06:48:33Z</time>
      </trkpt>
      <trkpt lat="45.39218" lon="4.55882">
        <ele>961</ele>
        <time>2014-09-14T06:48:36Z</time>
      </trkpt>
      <trkpt lat="45.39217" lon="4.55884">
        <ele>962</ele>
        <time>2014-09-14T06:48:39Z</time>
      </trkpt>
      <trkpt lat="45.39216" lon="4.55885">
        <ele>962</ele>
        <time>2014-09-14T06:48:41Z</time>
      </trkpt>
      <trkpt lat="45.39214" lon="4.55887">
        <ele>963</ele>
        <time>2014-09-14T06:48:44Z</time>
      </trkpt>
      <trkpt lat="45.39211" lon="4.55889">
        <ele>964</ele>
        <time>2014-09-14T06:48:47Z</time>
      </trkpt>
      <trkpt lat="45.39209" lon="4.5589">
        <ele>964</ele>
        <time>2014-09-14T06:48:49Z</time>
      </trkpt>
      <trkpt lat="45.39207" lon="4.55892">
        <ele>965</ele>
        <time>2014-09-14T06:48:52Z</time>
      </trkpt>
      <trkpt lat="45.39206" lon="4.55893">
        <ele>965</ele>
        <time>2014-09-14T06:48:54Z</time>
      </trkpt>
      <trkpt lat="45.39204" lon="4.55895">
        <ele>965</ele>
        <time>2014-09-14T06:48:57Z</time>
      </trkpt>
      <trkpt lat="45.39203" lon="4.55896">
        <ele>966</ele>
        <time>2014-09-14T06:48:59Z</time>
      </trkpt>
      <trkpt lat="45.39201" lon="4.55897">
        <ele>966</ele>
        <time>2014-09-14T06:49:02Z</time>
      </trkpt>
      <trkpt lat="45.39199" lon="4.55898">
        <ele>967</ele>
        <time>2014-09-14T06:49:04Z</time>
      </trkpt>
      <trkpt lat="45.39196" lon="4.559">
        <ele>968</ele>
        <time>2014-09-14T06:49:07Z</time>
      </trkpt>
      <trkpt lat="45.39194" lon="4.55901">
        <ele>968</ele>
        <time>2014-09-14T06:49:09Z</time>
      </trkpt>
      <trkpt lat="45.39193" lon="4.55902">
        <ele>969</ele>
        <time>2014-09-14T06:49:12Z</time>
      </trkpt>
      <trkpt lat="45.39193" lon="4.55904">
        <ele>969</ele>
        <time>2014-09-14T06:49:14Z</time>
      </trkpt>
      <trkpt lat="45.39192" lon="4.55906">
        <ele>969</ele>
        <time>2014-09-14T06:49:16Z</time>
      </trkpt>
      <trkpt lat="45.39191" lon="4.55908">
        <ele>970</ele>
        <time>2014-09-14T06:49:19Z</time>
      </trkpt>
      <trkpt lat="45.39191" lon="4.5591">
        <ele>971</ele>
        <time>2014-09-14T06:49:21Z</time>
      </trkpt>
      <trkpt lat="45.39191" lon="4.55911">
        <ele>971</ele>
        <time>2014-09-14T06:49:23Z</time>
      </trkpt>
      <trkpt lat="45.39191" lon="4.55912">
        <ele>972</ele>
        <time>2014-09-14T06:49:25Z</time>
      </trkpt>
      <trkpt lat="45.39191" lon="4.55913">
        <ele>972</ele>
        <time>2014-09-14T06:49:27Z</time>
      </trkpt>
      <trkpt lat="45.39191" lon="4.55915">
        <ele>973</ele>
        <time>2014-09-14T06:49:30Z</time>
      </trkpt>
      <trkpt lat="45.39191" lon="4.55918">
        <ele>974</ele>
        <time>2014-09-14T06:49:33Z</time>
      </trkpt>
      <trkpt lat="45.39191" lon="4.5592">
        <ele>975</ele>
        <time>2014-09-14T06:49:36Z</time>
      </trkpt>
      <trkpt lat="45.3919" lon="4.55922">
        <ele>975</ele>
        <time>2014-09-14T06:49:39Z</time>
      </trkpt>
      <trkpt lat="45.39189" lon="4.55924">
        <ele>976</ele>
        <time>2014-09-14T06:49:42Z</time>
      </trkpt>
      <trkpt lat="45.39188" lon="4.55926">
        <ele>976</ele>
        <time>2014-09-14T06:49:45Z</time>
      </trkpt>
      <trkpt lat="45.39185" lon="4.55928">
        <ele>977</ele>
        <time>2014-09-14T06:49:48Z</time>
      </trkpt>
      <trkpt lat="45.39184" lon="4.55929">
        <ele>978</ele>
        <time>2014-09-14T06:49:50Z</time>
      </trkpt>
      <trkpt lat="45.39183" lon="4.55931">
        <ele>979</ele>
        <time>2014-09-14T06:49:53Z</time>
      </trkpt>
      <trkpt lat="45.39181" lon="4.55932">
        <ele>979</ele>
        <time>2014-09-14T06:49:55Z</time>
      </trkpt>
      <trkpt lat="45.39179" lon="4.55933">
        <ele>980</ele>
        <time>2014-09-14T06:49:58Z</time>
      </trkpt>
      <trkpt lat="45.39177" lon="4.55934">
        <ele>980</ele>
        <time>2014-09-14T06:50:00Z</time>
      </trkpt>
      <trkpt lat="45.39174" lon="4.55934">
        <ele>980</ele>
        <time>2014-09-14T06:50:03Z</time>
      </trkpt>
      <trkpt lat="45.39172" lon="4.55934">
        <ele>980</ele>
        <time>2014-09-14T06:50:05Z</time>
      </trkpt>
      <trkpt lat="45.39169" lon="4.55935">
        <ele>981</ele>
        <time>2014-09-14T06:50:08Z</time>
      </trkpt>
      <trkpt lat="45.39166" lon="4.55936">
        <ele>981</ele>
        <time>2014-09-14T06:50:10Z</time>
      </trkpt>
      <trkpt lat="45.39164" lon="4.55938">
        <ele>982</ele>
        <time>2014-09-14T06:50:12Z</time>
      </trkpt>
      <trkpt lat="45.39161" lon="4.55938">
        <ele>982</ele>
        <time>2014-09-14T06:50:14Z</time>
      </trkpt>
      <trkpt lat="45.39159" lon="4.5594">
        <ele>982</ele>
        <time>2014-09-14T06:50:16Z</time>
      </trkpt>
      <trkpt lat="45.39157" lon="4.55941">
        <ele>982</ele>
        <time>2014-09-14T06:50:18Z</time>
      </trkpt>
      <trkpt lat="45.39153" lon="4.55944">
        <ele>983</ele>
        <time>2014-09-14T06:50:21Z</time>
      </trkpt>
      <trkpt lat="45.39152" lon="4.55945">
        <ele>983</ele>
        <time>2014-09-14T06:50:23Z</time>
      </trkpt>
      <trkpt lat="45.39151" lon="4.55946">
        <ele>983</ele>
        <time>2014-09-14T06:50:25Z</time>
      </trkpt>
      <trkpt lat="45.3915" lon="4.55947">
        <ele>983</ele>
        <time>2014-09-14T06:50:27Z</time>
      </trkpt>
      <trkpt lat="45.39148" lon="4.55951">
        <ele>984</ele>
        <time>2014-09-14T06:50:30Z</time>
      </trkpt>
      <trkpt lat="45.39147" lon="4.55953">
        <ele>984</ele>
        <time>2014-09-14T06:50:32Z</time>
      </trkpt>
      <trkpt lat="45.39145" lon="4.55955">
        <ele>985</ele>
        <time>2014-09-14T06:50:34Z</time>
      </trkpt>
      <trkpt lat="45.39143" lon="4.55956">
        <ele>985</ele>
        <time>2014-09-14T06:50:37Z</time>
      </trkpt>
      <trkpt lat="45.39142" lon="4.55957">
        <ele>986</ele>
        <time>2014-09-14T06:50:40Z</time>
      </trkpt>
      <trkpt lat="45.3914" lon="4.55958">
        <ele>986</ele>
        <time>2014-09-14T06:50:42Z</time>
      </trkpt>
      <trkpt lat="45.3914" lon="4.55959">
        <ele>986</ele>
        <time>2014-09-14T06:50:44Z</time>
      </trkpt>
      <trkpt lat="45.39138" lon="4.55961">
        <ele>987</ele>
        <time>2014-09-14T06:50:47Z</time>
      </trkpt>
      <trkpt lat="45.39136" lon="4.55963">
        <ele>987</ele>
        <time>2014-09-14T06:50:49Z</time>
      </trkpt>
      <trkpt lat="45.39133" lon="4.55966">
        <ele>988</ele>
        <time>2014-09-14T06:50:52Z</time>
      </trkpt>
      <trkpt lat="45.39131" lon="4.55966">
        <ele>988</ele>
        <time>2014-09-14T06:50:54Z</time>
      </trkpt>
      <trkpt lat="45.39128" lon="4.55967">
        <ele>988</ele>
        <time>2014-09-14T06:50:56Z</time>
      </trkpt>
      <trkpt lat="45.39124" lon="4.55971">
        <ele>988</ele>
        <time>2014-09-14T06:50:58Z</time>
      </trkpt>
      <trkpt lat="45.39122" lon="4.55974">
        <ele>988</ele>
        <time>2014-09-14T06:51:00Z</time>
      </trkpt>
      <trkpt lat="45.3912" lon="4.55975">
        <ele>989</ele>
        <time>2014-09-14T06:51:02Z</time>
      </trkpt>
      <trkpt lat="45.39116" lon="4.55977">
        <ele>989</ele>
        <time>2014-09-14T06:51:04Z</time>
      </trkpt>
      <trkpt lat="45.39113" lon="4.55977">
        <ele>990</ele>
        <time>2014-09-14T06:51:06Z</time>
      </trkpt>
      <trkpt lat="45.39109" lon="4.55981">
        <ele>990</ele>
        <time>2014-09-14T06:51:09Z</time>
      </trkpt>
      <trkpt lat="45.39104" lon="4.55985">
        <ele>991</ele>
        <time>2014-09-14T06:51:12Z</time>
      </trkpt>
      <trkpt lat="45.391" lon="4.55992">
        <ele>992</ele>
        <time>2014-09-14T06:51:15Z</time>
      </trkpt>
      <trkpt lat="45.39097" lon="4.55995">
        <ele>992</ele>
        <time>2014-09-14T06:51:17Z</time>
      </trkpt>
      <trkpt lat="45.39093" lon="4.56001">
        <ele>993</ele>
        <time>2014-09-14T06:51:20Z</time>
      </trkpt>
      <trkpt lat="45.39091" lon="4.56004">
        <ele>993</ele>
        <time>2014-09-14T06:51:22Z</time>
      </trkpt>
      <trkpt lat="45.39088" lon="4.56006">
        <ele>994</ele>
        <time>2014-09-14T06:51:24Z</time>
      </trkpt>
      <trkpt lat="45.39084" lon="4.56012">
        <ele>994</ele>
        <time>2014-09-14T06:51:27Z</time>
      </trkpt>
      <trkpt lat="45.39081" lon="4.56017">
        <ele>995</ele>
        <time>2014-09-14T06:51:30Z</time>
      </trkpt>
      <trkpt lat="45.39077" lon="4.56021">
        <ele>996</ele>
        <time>2014-09-14T06:51:33Z</time>
      </trkpt>
      <trkpt lat="45.39074" lon="4.56023">
        <ele>996</ele>
        <time>2014-09-14T06:51:36Z</time>
      </trkpt>
      <trkpt lat="45.39073" lon="4.56024">
        <ele>997</ele>
        <time>2014-09-14T06:51:38Z</time>
      </trkpt>
      <trkpt lat="45.3907" lon="4.56026">
        <ele>997</ele>
        <time>2014-09-14T06:51:41Z</time>
      </trkpt>
      <trkpt lat="45.39067" lon="4.56028">
        <ele>997</ele>
        <time>2014-09-14T06:51:44Z</time>
      </trkpt>
      <trkpt lat="45.39064" lon="4.5603">
        <ele>998</ele>
        <time>2014-09-14T06:51:47Z</time>
      </trkpt>
      <trkpt lat="45.39062" lon="4.56032">
        <ele>998</ele>
        <time>2014-09-14T06:51:49Z</time>
      </trkpt>
      <trkpt lat="45.39058" lon="4.56035">
        <ele>998</ele>
        <time>2014-09-14T06:51:52Z</time>
      </trkpt>
      <trkpt lat="45.39056" lon="4.56036">
        <ele>999</ele>
        <time>2014-09-14T06:51:54Z</time>
      </trkpt>
      <trkpt lat="45.39053" lon="4.56037">
        <ele>999</ele>
        <time>2014-09-14T06:51:57Z</time>
      </trkpt>
      <trkpt lat="45.3905" lon="4.5604">
        <ele>1000</ele>
        <time>2014-09-14T06:51:59Z</time>
      </trkpt>
      <trkpt lat="45.39048" lon="4.56042">
        <ele>1000</ele>
        <time>2014-09-14T06:52:01Z</time>
      </trkpt>
      <trkpt lat="45.39047" lon="4.56044">
        <ele>1000</ele>
        <time>2014-09-14T06:52:03Z</time>
      </trkpt>
      <trkpt lat="45.39045" lon="4.56046">
        <ele>1001</ele>
        <time>2014-09-14T06:52:05Z</time>
      </trkpt>
      <trkpt lat="45.39041" lon="4.5605">
        <ele>1002</ele>
        <time>2014-09-14T06:52:08Z</time>
      </trkpt>
      <trkpt lat="45.3904" lon="4.56052">
        <ele>1002</ele>
        <time>2014-09-14T06:52:10Z</time>
      </trkpt>
      <trkpt lat="45.39037" lon="4.56055">
        <ele>1003</ele>
        <time>2014-09-14T06:52:13Z</time>
      </trkpt>
      <trkpt lat="45.39034" lon="4.56058">
        <ele>1003</ele>
        <time>2014-09-14T06:52:15Z</time>
      </trkpt>
      <trkpt lat="45.39032" lon="4.5606">
        <ele>1004</ele>
        <time>2014-09-14T06:52:18Z</time>
      </trkpt>
      <trkpt lat="45.3903" lon="4.56062">
        <ele>1004</ele>
        <time>2014-09-14T06:52:21Z</time>
      </trkpt>
      <trkpt lat="45.39027" lon="4.56063">
        <ele>1005</ele>
        <time>2014-09-14T06:52:24Z</time>
      </trkpt>
      <trkpt lat="45.39027" lon="4.56065">
        <ele>1005</ele>
        <time>2014-09-14T06:52:27Z</time>
      </trkpt>
      <trkpt lat="45.39027" lon="4.56067">
        <ele>1006</ele>
        <time>2014-09-14T06:52:30Z</time>
      </trkpt>
      <trkpt lat="45.39026" lon="4.56069">
        <ele>1006</ele>
        <time>2014-09-14T06:52:32Z</time>
      </trkpt>
      <trkpt lat="45.39024" lon="4.5607">
        <ele>1007</ele>
        <time>2014-09-14T06:52:34Z</time>
      </trkpt>
      <trkpt lat="45.39022" lon="4.56072">
        <ele>1007</ele>
        <time>2014-09-14T06:52:37Z</time>
      </trkpt>
      <trkpt lat="45.39021" lon="4.56074">
        <ele>1008</ele>
        <time>2014-09-14T06:52:39Z</time>
      </trkpt>
      <trkpt lat="45.39018" lon="4.56075">
        <ele>1008</ele>
        <time>2014-09-14T06:52:42Z</time>
      </trkpt>
      <trkpt lat="45.39016" lon="4.56076">
        <ele>1009</ele>
        <time>2014-09-14T06:52:44Z</time>
      </trkpt>
      <trkpt lat="45.39015" lon="4.56077">
        <ele>1010</ele>
        <time>2014-09-14T06:52:46Z</time>
      </trkpt>
      <trkpt lat="45.39013" lon="4.56078">
        <ele>1010</ele>
        <time>2014-09-14T06:52:48Z</time>
      </trkpt>
      <trkpt lat="45.39012" lon="4.56079">
        <ele>1010</ele>
        <time>2014-09-14T06:52:51Z</time>
      </trkpt>
      <trkpt lat="45.3901" lon="4.5608">
        <ele>1010</ele>
        <time>2014-09-14T06:52:53Z</time>
      </trkpt>
      <trkpt lat="45.39009" lon="4.5608">
        <ele>1010</ele>
        <time>2014-09-14T06:52:55Z</time>
      </trkpt>
      <trkpt lat="45.39006" lon="4.56082">
        <ele>1011</ele>
        <time>2014-09-14T06:52:58Z</time>
      </trkpt>
      <trkpt lat="45.39005" lon="4.56083">
        <ele>1011</ele>
        <time>2014-09-14T06:53:00Z</time>
      </trkpt>
      <trkpt lat="45.39002" lon="4.56086">
        <ele>1012</ele>
        <time>2014-09-14T06:53:03Z</time>
      </trkpt>
      <trkpt lat="45.39" lon="4.56089">
        <ele>1012</ele>
        <time>2014-09-14T06:53:06Z</time>
      </trkpt>
      <trkpt lat="45.38997" lon="4.56091">
        <ele>1012</ele>
        <time>2014-09-14T06:53:08Z</time>
      </trkpt>
      <trkpt lat="45.38995" lon="4.56093">
        <ele>1012</ele>
        <time>2014-09-14T06:53:10Z</time>
      </trkpt>
      <trkpt lat="45.38993" lon="4.56095">
        <ele>1013</ele>
        <time>2014-09-14T06:53:13Z</time>
      </trkpt>
      <trkpt lat="45.38992" lon="4.56097">
        <ele>1013</ele>
        <time>2014-09-14T06:53:15Z</time>
      </trkpt>
      <trkpt lat="45.38989" lon="4.561">
        <ele>1014</ele>
        <time>2014-09-14T06:53:18Z</time>
      </trkpt>
      <trkpt lat="45.38986" lon="4.56101">
        <ele>1014</ele>
        <time>2014-09-14T06:53:21Z</time>
      </trkpt>
      <trkpt lat="45.38985" lon="4.56104">
        <ele>1015</ele>
        <time>2014-09-14T06:53:24Z</time>
      </trkpt>
      <trkpt lat="45.38984" lon="4.56106">
        <ele>1015</ele>
        <time>2014-09-14T06:53:26Z</time>
      </trkpt>
      <trkpt lat="45.38982" lon="4.56108">
        <ele>1016</ele>
        <time>2014-09-14T06:53:29Z</time>
      </trkpt>
      <trkpt lat="45.3898" lon="4.5611">
        <ele>1016</ele>
        <time>2014-09-14T06:53:32Z</time>
      </trkpt>
      <trkpt lat="45.38978" lon="4.56114">
        <ele>1017</ele>
        <time>2014-09-14T06:53:35Z</time>
      </trkpt>
      <trkpt lat="45.38977" lon="4.56114">
        <ele>1018</ele>
        <time>2014-09-14T06:53:37Z</time>
      </trkpt>
      <trkpt lat="45.38976" lon="4.56115">
        <ele>1019</ele>
        <time>2014-09-14T06:53:40Z</time>
      </trkpt>
      <trkpt lat="45.38976" lon="4.56117">
        <ele>1020</ele>
        <time>2014-09-14T06:53:43Z</time>
      </trkpt>
      <trkpt lat="45.38976" lon="4.5612">
        <ele>1020</ele>
        <time>2014-09-14T06:53:46Z</time>
      </trkpt>
      <trkpt lat="45.38974" lon="4.56122">
        <ele>1021</ele>
        <time>2014-09-14T06:53:49Z</time>
      </trkpt>
      <trkpt lat="45.38974" lon="4.56124">
        <ele>1021</ele>
        <time>2014-09-14T06:53:51Z</time>
      </trkpt>
      <trkpt lat="45.38974" lon="4.56126">
        <ele>1022</ele>
        <time>2014-09-14T06:53:53Z</time>
      </trkpt>
      <trkpt lat="45.38974" lon="4.56128">
        <ele>1022</ele>
        <time>2014-09-14T06:53:55Z</time>
      </trkpt>
      <trkpt lat="45.38974" lon="4.56131">
        <ele>1023</ele>
        <time>2014-09-14T06:53:58Z</time>
      </trkpt>
      <trkpt lat="45.38974" lon="4.56133">
        <ele>1023</ele>
        <time>2014-09-14T06:54:01Z</time>
      </trkpt>
      <trkpt lat="45.38975" lon="4.56135">
        <ele>1024</ele>
        <time>2014-09-14T06:54:03Z</time>
      </trkpt>
      <trkpt lat="45.38974" lon="4.56138">
        <ele>1024</ele>
        <time>2014-09-14T06:54:06Z</time>
      </trkpt>
      <trkpt lat="45.38975" lon="4.56139">
        <ele>1025</ele>
        <time>2014-09-14T06:54:08Z</time>
      </trkpt>
      <trkpt lat="45.38976" lon="4.56142">
        <ele>1026</ele>
        <time>2014-09-14T06:54:11Z</time>
      </trkpt>
      <trkpt lat="45.38977" lon="4.56144">
        <ele>1026</ele>
        <time>2014-09-14T06:54:13Z</time>
      </trkpt>
      <trkpt lat="45.38978" lon="4.56144">
        <ele>1027</ele>
        <time>2014-09-14T06:54:16Z</time>
      </trkpt>
      <trkpt lat="45.38979" lon="4.56146">
        <ele>1028</ele>
        <time>2014-09-14T06:54:19Z</time>
      </trkpt>
      <trkpt lat="45.3898" lon="4.56147">
        <ele>1029</ele>
        <time>2014-09-14T06:54:22Z</time>
      </trkpt>
      <trkpt lat="45.38981" lon="4.56147">
        <ele>1029</ele>
        <time>2014-09-14T06:54:24Z</time>
      </trkpt>
      <trkpt lat="45.38982" lon="4.56148">
        <ele>1029</ele>
        <time>2014-09-14T06:54:26Z</time>
      </trkpt>
      <trkpt lat="45.38984" lon="4.56147">
        <ele>1030</ele>
        <time>2014-09-14T06:54:29Z</time>
      </trkpt>
      <trkpt lat="45.38985" lon="4.56147">
        <ele>1031</ele>
        <time>2014-09-14T06:54:31Z</time>
      </trkpt>
      <trkpt lat="45.38986" lon="4.56148">
        <ele>1031</ele>
        <time>2014-09-14T06:54:34Z</time>
      </trkpt>
      <trkpt lat="45.38987" lon="4.56149">
        <ele>1031</ele>
        <time>2014-09-14T06:54:36Z</time>
      </trkpt>
      <trkpt lat="45.38988" lon="4.56151">
        <ele>1031</ele>
        <time>2014-09-14T06:54:38Z</time>
      </trkpt>
      <trkpt lat="45.3899" lon="4.56152">
        <ele>1032</ele>
        <time>2014-09-14T06:54:41Z</time>
      </trkpt>
      <trkpt lat="45.38991" lon="4.56153">
        <ele>1033</ele>
        <time>2014-09-14T06:54:44Z</time>
      </trkpt>
      <trkpt lat="45.38992" lon="4.56154">
        <ele>1034</ele>
        <time>2014-09-14T06:54:46Z</time>
      </trkpt>
      <trkpt lat="45.38993" lon="4.56154">
        <ele>1035</ele>
        <time>2014-09-14T06:54:49Z</time>
      </trkpt>
      <trkpt lat="45.38993" lon="4.56155">
        <ele>1035</ele>
        <time>2014-09-14T06:54:51Z</time>
      </trkpt>
      <trkpt lat="45.38994" lon="4.56155">
        <ele>1035</ele>
        <time>2014-09-14T06:54:53Z</time>
      </trkpt>
      <trkpt lat="45.38995" lon="4.56155">
        <ele>1036</ele>
        <time>2014-09-14T06:54:55Z</time>
      </trkpt>
      <trkpt lat="45.38996" lon="4.56156">
        <ele>1036</ele>
        <time>2014-09-14T06:54:58Z</time>
      </trkpt>
      <trkpt lat="45.38997" lon="4.56157">
        <ele>1037</ele>
        <time>2014-09-14T06:55:01Z</time>
      </trkpt>
      <trkpt lat="45.38998" lon="4.56158">
        <ele>1037</ele>
        <time>2014-09-14T06:55:04Z</time>
      </trkpt>
      <trkpt lat="45.39" lon="4.5616">
        <ele>1038</ele>
        <time>2014-09-14T06:55:07Z</time>
      </trkpt>
      <trkpt lat="45.39001" lon="4.56162">
        <ele>1039</ele>
        <time>2014-09-14T06:55:10Z</time>
      </trkpt>
      <trkpt lat="45.39003" lon="4.56163">
        <ele>1039</ele>
        <time>2014-09-14T06:55:12Z</time>
      </trkpt>
      <trkpt lat="45.39005" lon="4.56164">
        <ele>1040</ele>
        <time>2014-09-14T06:55:15Z</time>
      </trkpt>
      <trkpt lat="45.39007" lon="4.56165">
        <ele>1040</ele>
        <time>2014-09-14T06:55:18Z</time>
      </trkpt>
      <trkpt lat="45.39009" lon="4.56166">
        <ele>1041</ele>
        <time>2014-09-14T06:55:21Z</time>
      </trkpt>
      <trkpt lat="45.39011" lon="4.56167">
        <ele>1041</ele>
        <time>2014-09-14T06:55:23Z</time>
      </trkpt>
      <trkpt lat="45.39012" lon="4.56167">
        <ele>1042</ele>
        <time>2014-09-14T06:55:25Z</time>
      </trkpt>
      <trkpt lat="45.39014" lon="4.56167">
        <ele>1042</ele>
        <time>2014-09-14T06:55:27Z</time>
      </trkpt>
      <trkpt lat="45.39016" lon="4.56168">
        <ele>1042</ele>
        <time>2014-09-14T06:55:30Z</time>
      </trkpt>
      <trkpt lat="45.39018" lon="4.5617">
        <ele>1043</ele>
        <time>2014-09-14T06:55:33Z</time>
      </trkpt>
      <trkpt lat="45.3902" lon="4.56171">
        <ele>1044</ele>
        <time>2014-09-14T06:55:35Z</time>
      </trkpt>
      <trkpt lat="45.39022" lon="4.56173">
        <ele>1044</ele>
        <time>2014-09-14T06:55:38Z</time>
      </trkpt>
      <trkpt lat="45.39024" lon="4.56172">
        <ele>1045</ele>
        <time>2014-09-14T06:55:41Z</time>
      </trkpt>
      <trkpt lat="45.39025" lon="4.56172">
        <ele>1045</ele>
        <time>2014-09-14T06:55:44Z</time>
      </trkpt>
      <trkpt lat="45.39027" lon="4.56171">
        <ele>1046</ele>
        <time>2014-09-14T06:55:46Z</time>
      </trkpt>
      <trkpt lat="45.39028" lon="4.56171">
        <ele>1046</ele>
        <time>2014-09-14T06:55:48Z</time>
      </trkpt>
      <trkpt lat="45.39029" lon="4.56171">
        <ele>1046</ele>
        <time>2014-09-14T06:55:51Z</time>
      </trkpt>
      <trkpt lat="45.39029" lon="4.56171">
        <ele>1047</ele>
        <time>2014-09-14T06:55:53Z</time>
      </trkpt>
      <trkpt lat="45.39032" lon="4.56172">
        <ele>1048</ele>
        <time>2014-09-14T06:55:56Z</time>
      </trkpt>
      <trkpt lat="45.39033" lon="4.56172">
        <ele>1049</ele>
        <time>2014-09-14T06:55:59Z</time>
      </trkpt>
      <trkpt lat="45.39035" lon="4.56172">
        <ele>1049</ele>
        <time>2014-09-14T06:56:01Z</time>
      </trkpt>
      <trkpt lat="45.39036" lon="4.56172">
        <ele>1050</ele>
        <time>2014-09-14T06:56:03Z</time>
      </trkpt>
      <trkpt lat="45.39037" lon="4.56173">
        <ele>1050</ele>
        <time>2014-09-14T06:56:05Z</time>
      </trkpt>
      <trkpt lat="45.3904" lon="4.56175">
        <ele>1051</ele>
        <time>2014-09-14T06:56:08Z</time>
      </trkpt>
      <trkpt lat="45.39041" lon="4.56176">
        <ele>1051</ele>
        <time>2014-09-14T06:56:10Z</time>
      </trkpt>
      <trkpt lat="45.39043" lon="4.56177">
        <ele>1052</ele>
        <time>2014-09-14T06:56:12Z</time>
      </trkpt>
      <trkpt lat="45.39045" lon="4.56179">
        <ele>1052</ele>
        <time>2014-09-14T06:56:15Z</time>
      </trkpt>
      <trkpt lat="45.39048" lon="4.56181">
        <ele>1052</ele>
        <time>2014-09-14T06:56:18Z</time>
      </trkpt>
      <trkpt lat="45.3905" lon="4.56182">
        <ele>1053</ele>
        <time>2014-09-14T06:56:20Z</time>
      </trkpt>
      <trkpt lat="45.39053" lon="4.56183">
        <ele>1053</ele>
        <time>2014-09-14T06:56:23Z</time>
      </trkpt>
      <trkpt lat="45.39056" lon="4.56185">
        <ele>1054</ele>
        <time>2014-09-14T06:56:26Z</time>
      </trkpt>
      <trkpt lat="45.39058" lon="4.56187">
        <ele>1054</ele>
        <time>2014-09-14T06:56:28Z</time>
      </trkpt>
      <trkpt lat="45.39061" lon="4.56188">
        <ele>1055</ele>
        <time>2014-09-14T06:56:31Z</time>
      </trkpt>
      <trkpt lat="45.39064" lon="4.56188">
        <ele>1055</ele>
        <time>2014-09-14T06:56:33Z</time>
      </trkpt>
      <trkpt lat="45.39067" lon="4.56189">
        <ele>1055</ele>
        <time>2014-09-14T06:56:36Z</time>
      </trkpt>
      <trkpt lat="45.3907" lon="4.5619">
        <ele>1056</ele>
        <time>2014-09-14T06:56:38Z</time>
      </trkpt>
      <trkpt lat="45.39073" lon="4.5619">
        <ele>1056</ele>
        <time>2014-09-14T06:56:41Z</time>
      </trkpt>
      <trkpt lat="45.39076" lon="4.56192">
        <ele>1056</ele>
        <time>2014-09-14T06:56:43Z</time>
      </trkpt>
      <trkpt lat="45.39078" lon="4.56192">
        <ele>1057</ele>
        <time>2014-09-14T06:56:45Z</time>
      </trkpt>
      <trkpt lat="45.39081" lon="4.56194">
        <ele>1057</ele>
        <time>2014-09-14T06:56:48Z</time>
      </trkpt>
      <trkpt lat="45.39082" lon="4.56194">
        <ele>1057</ele>
        <time>2014-09-14T06:56:50Z</time>
      </trkpt>
      <trkpt lat="45.39088" lon="4.56193">
        <ele>1058</ele>
        <time>2014-09-14T06:56:53Z</time>
      </trkpt>
      <trkpt lat="45.3909" lon="4.56195">
        <ele>1058</ele>
        <time>2014-09-14T06:56:55Z</time>
      </trkpt>
      <trkpt lat="45.39093" lon="4.56196">
        <ele>1058</ele>
        <time>2014-09-14T06:56:57Z</time>
      </trkpt>
      <trkpt lat="45.39095" lon="4.56196">
        <ele>1059</ele>
        <time>2014-09-14T06:56:59Z</time>
      </trkpt>
      <trkpt lat="45.39097" lon="4.56197">
        <ele>1059</ele>
        <time>2014-09-14T06:57:01Z</time>
      </trkpt>
      <trkpt lat="45.39103" lon="4.56197">
        <ele>1059</ele>
        <time>2014-09-14T06:57:04Z</time>
      </trkpt>
      <trkpt lat="45.39106" lon="4.56197">
        <ele>1059</ele>
        <time>2014-09-14T06:57:06Z</time>
      </trkpt>
      <trkpt lat="45.39112" lon="4.56198">
        <ele>1060</ele>
        <time>2014-09-14T06:57:09Z</time>
      </trkpt>
      <trkpt lat="45.39115" lon="4.56197">
        <ele>1060</ele>
        <time>2014-09-14T06:57:11Z</time>
      </trkpt>
      <trkpt lat="45.39118" lon="4.56196">
        <ele>1060</ele>
        <time>2014-09-14T06:57:13Z</time>
      </trkpt>
      <trkpt lat="45.39121" lon="4.56196">
        <ele>1060</ele>
        <time>2014-09-14T06:57:15Z</time>
      </trkpt>
      <trkpt lat="45.39125" lon="4.56197">
        <ele>1061</ele>
        <time>2014-09-14T06:57:17Z</time>
      </trkpt>
      <trkpt lat="45.39129" lon="4.56196">
        <ele>1061</ele>
        <time>2014-09-14T06:57:19Z</time>
      </trkpt>
      <trkpt lat="45.39133" lon="4.56195">
        <ele>1062</ele>
        <time>2014-09-14T06:57:22Z</time>
      </trkpt>
      <trkpt lat="45.39137" lon="4.56195">
        <ele>1062</ele>
        <time>2014-09-14T06:57:24Z</time>
      </trkpt>
      <trkpt lat="45.39141" lon="4.56195">
        <ele>1062</ele>
        <time>2014-09-14T06:57:26Z</time>
      </trkpt>
      <trkpt lat="45.39144" lon="4.56195">
        <ele>1063</ele>
        <time>2014-09-14T06:57:28Z</time>
      </trkpt>
      <trkpt lat="45.39149" lon="4.56195">
        <ele>1064</ele>
        <time>2014-09-14T06:57:31Z</time>
      </trkpt>
      <trkpt lat="45.39153" lon="4.56195">
        <ele>1065</ele>
        <time>2014-09-14T06:57:33Z</time>
      </trkpt>
      <trkpt lat="45.39158" lon="4.56194">
        <ele>1065</ele>
        <time>2014-09-14T06:57:36Z</time>
      </trkpt>
      <trkpt lat="45.39162" lon="4.56192">
        <ele>1065</ele>
        <time>2014-09-14T06:57:38Z</time>
      </trkpt>
      <trkpt lat="45.39167" lon="4.5619">
        <ele>1066</ele>
        <time>2014-09-14T06:57:41Z</time>
      </trkpt>
      <trkpt lat="45.39172" lon="4.56188">
        <ele>1066</ele>
        <time>2014-09-14T06:57:44Z</time>
      </trkpt>
      <trkpt lat="45.39175" lon="4.56187">
        <ele>1067</ele>
        <time>2014-09-14T06:57:46Z</time>
      </trkpt>
      <trkpt lat="45.39177" lon="4.56186">
        <ele>1067</ele>
        <time>2014-09-14T06:57:48Z</time>
      </trkpt>
      <trkpt lat="45.39181" lon="4.56186">
        <ele>1067</ele>
        <time>2014-09-14T06:57:50Z</time>
      </trkpt>
      <trkpt lat="45.39186" lon="4.56186">
        <ele>1068</ele>
        <time>2014-09-14T06:57:53Z</time>
      </trkpt>
      <trkpt lat="45.3919" lon="4.56187">
        <ele>1068</ele>
        <time>2014-09-14T06:57:55Z</time>
      </trkpt>
      <trkpt lat="45.39195" lon="4.56186">
        <ele>1069</ele>
        <time>2014-09-14T06:57:58Z</time>
      </trkpt>
      <trkpt lat="45.392" lon="4.56185">
        <ele>1069</ele>
        <time>2014-09-14T06:58:00Z</time>
      </trkpt>
      <trkpt lat="45.39206" lon="4.56184">
        <ele>1070</ele>
        <time>2014-09-14T06:58:03Z</time>
      </trkpt>
      <trkpt lat="45.39211" lon="4.56183">
        <ele>1070</ele>
        <time>2014-09-14T06:58:05Z</time>
      </trkpt>
      <trkpt lat="45.39214" lon="4.56183">
        <ele>1070</ele>
        <time>2014-09-14T06:58:07Z</time>
      </trkpt>
      <trkpt lat="45.39218" lon="4.56183">
        <ele>1070</ele>
        <time>2014-09-14T06:58:10Z</time>
      </trkpt>
      <trkpt lat="45.39222" lon="4.56184">
        <ele>1070</ele>
        <time>2014-09-14T06:58:12Z</time>
      </trkpt>
      <trkpt lat="45.39225" lon="4.56185">
        <ele>1071</ele>
        <time>2014-09-14T06:58:14Z</time>
      </trkpt>
      <trkpt lat="45.3923" lon="4.56186">
        <ele>1071</ele>
        <time>2014-09-14T06:58:16Z</time>
      </trkpt>
      <trkpt lat="45.39235" lon="4.56187">
        <ele>1071</ele>
        <time>2014-09-14T06:58:19Z</time>
      </trkpt>
      <trkpt lat="45.39239" lon="4.56187">
        <ele>1072</ele>
        <time>2014-09-14T06:58:21Z</time>
      </trkpt>
      <trkpt lat="45.39243" lon="4.56188">
        <ele>1072</ele>
        <time>2014-09-14T06:58:23Z</time>
      </trkpt>
      <trkpt lat="45.39249" lon="4.56188">
        <ele>1073</ele>
        <time>2014-09-14T06:58:26Z</time>
      </trkpt>
      <trkpt lat="45.39254" lon="4.56187">
        <ele>1073</ele>
        <time>2014-09-14T06:58:28Z</time>
      </trkpt>
      <trkpt lat="45.39258" lon="4.56187">
        <ele>1073</ele>
        <time>2014-09-14T06:58:30Z</time>
      </trkpt>
      <trkpt lat="45.39262" lon="4.56187">
        <ele>1073</ele>
        <time>2014-09-14T06:58:32Z</time>
      </trkpt>
      <trkpt lat="45.39267" lon="4.56187">
        <ele>1073</ele>
        <time>2014-09-14T06:58:35Z</time>
      </trkpt>
      <trkpt lat="45.39271" lon="4.56189">
        <ele>1073</ele>
        <time>2014-09-14T06:58:37Z</time>
      </trkpt>
      <trkpt lat="45.39277" lon="4.56189">
        <ele>1073</ele>
        <time>2014-09-14T06:58:40Z</time>
      </trkpt>
      <trkpt lat="45.3928" lon="4.56189">
        <ele>1072</ele>
        <time>2014-09-14T06:58:42Z</time>
      </trkpt>
      <trkpt lat="45.39283" lon="4.5619">
        <ele>1073</ele>
        <time>2014-09-14T06:58:44Z</time>
      </trkpt>
      <trkpt lat="45.39288" lon="4.5619">
        <ele>1072</ele>
        <time>2014-09-14T06:58:46Z</time>
      </trkpt>
      <trkpt lat="45.39292" lon="4.56189">
        <ele>1072</ele>
        <time>2014-09-14T06:58:48Z</time>
      </trkpt>
      <trkpt lat="45.39299" lon="4.56188">
        <ele>1073</ele>
        <time>2014-09-14T06:58:51Z</time>
      </trkpt>
      <trkpt lat="45.39303" lon="4.56189">
        <ele>1073</ele>
        <time>2014-09-14T06:58:53Z</time>
      </trkpt>
      <trkpt lat="45.39309" lon="4.5619">
        <ele>1074</ele>
        <time>2014-09-14T06:58:56Z</time>
      </trkpt>
      <trkpt lat="45.39314" lon="4.56191">
        <ele>1074</ele>
        <time>2014-09-14T06:58:58Z</time>
      </trkpt>
      <trkpt lat="45.3932" lon="4.56193">
        <ele>1074</ele>
        <time>2014-09-14T06:59:01Z</time>
      </trkpt>
      <trkpt lat="45.39326" lon="4.56193">
        <ele>1074</ele>
        <time>2014-09-14T06:59:03Z</time>
      </trkpt>
      <trkpt lat="45.39331" lon="4.56194">
        <ele>1074</ele>
        <time>2014-09-14T06:59:05Z</time>
      </trkpt>
      <trkpt lat="45.39335" lon="4.56195">
        <ele>1074</ele>
        <time>2014-09-14T06:59:07Z</time>
      </trkpt>
      <trkpt lat="45.39342" lon="4.56196">
        <ele>1074</ele>
        <time>2014-09-14T06:59:10Z</time>
      </trkpt>
      <trkpt lat="45.39349" lon="4.56197">
        <ele>1074</ele>
        <time>2014-09-14T06:59:13Z</time>
      </trkpt>
      <trkpt lat="45.39354" lon="4.56197">
        <ele>1075</ele>
        <time>2014-09-14T06:59:15Z</time>
      </trkpt>
      <trkpt lat="45.39359" lon="4.56198">
        <ele>1075</ele>
        <time>2014-09-14T06:59:17Z</time>
      </trkpt>
      <trkpt lat="45.39363" lon="4.56198">
        <ele>1075</ele>
        <time>2014-09-14T06:59:19Z</time>
      </trkpt>
      <trkpt lat="45.39368" lon="4.562">
        <ele>1076</ele>
        <time>2014-09-14T06:59:22Z</time>
      </trkpt>
      <trkpt lat="45.39371" lon="4.56201">
        <ele>1076</ele>
        <time>2014-09-14T06:59:24Z</time>
      </trkpt>
      <trkpt lat="45.39373" lon="4.56202">
        <ele>1077</ele>
        <time>2014-09-14T06:59:26Z</time>
      </trkpt>
      <trkpt lat="45.39376" lon="4.56204">
        <ele>1077</ele>
        <time>2014-09-14T06:59:28Z</time>
      </trkpt>
      <trkpt lat="45.3938" lon="4.56205">
        <ele>1077</ele>
        <time>2014-09-14T06:59:30Z</time>
      </trkpt>
      <trkpt lat="45.39382" lon="4.56207">
        <ele>1078</ele>
        <time>2014-09-14T06:59:32Z</time>
      </trkpt>
      <trkpt lat="45.39386" lon="4.5621">
        <ele>1078</ele>
        <time>2014-09-14T06:59:35Z</time>
      </trkpt>
      <trkpt lat="45.39388" lon="4.56213">
        <ele>1079</ele>
        <time>2014-09-14T06:59:38Z</time>
      </trkpt>
      <trkpt lat="45.39389" lon="4.56215">
        <ele>1079</ele>
        <time>2014-09-14T06:59:40Z</time>
      </trkpt>
      <trkpt lat="45.3939" lon="4.56218">
        <ele>1080</ele>
        <time>2014-09-14T06:59:42Z</time>
      </trkpt>
      <trkpt lat="45.39391" lon="4.5622">
        <ele>1080</ele>
        <time>2014-09-14T06:59:44Z</time>
      </trkpt>
      <trkpt lat="45.39392" lon="4.56224">
        <ele>1081</ele>
        <time>2014-09-14T06:59:47Z</time>
      </trkpt>
      <trkpt lat="45.39393" lon="4.56229">
        <ele>1082</ele>
        <time>2014-09-14T06:59:50Z</time>
      </trkpt>
      <trkpt lat="45.39394" lon="4.56232">
        <ele>1082</ele>
        <time>2014-09-14T06:59:52Z</time>
      </trkpt>
      <trkpt lat="45.39395" lon="4.56236">
        <ele>1083</ele>
        <time>2014-09-14T06:59:55Z</time>
      </trkpt>
      <trkpt lat="45.39396" lon="4.5624">
        <ele>1084</ele>
        <time>2014-09-14T06:59:58Z</time>
      </trkpt>
      <trkpt lat="45.39397" lon="4.56242">
        <ele>1084</ele>
        <time>2014-09-14T07:00:00Z</time>
      </trkpt>
      <trkpt lat="45.39397" lon="4.56245">
        <ele>1085</ele>
        <time>2014-09-14T07:00:03Z</time>
      </trkpt>
      <trkpt lat="45.39398" lon="4.56248">
        <ele>1086</ele>
        <time>2014-09-14T07:00:06Z</time>
      </trkpt>
      <trkpt lat="45.39399" lon="4.5625">
        <ele>1086</ele>
        <time>2014-09-14T07:00:08Z</time>
      </trkpt>
      <trkpt lat="45.39399" lon="4.56252">
        <ele>1087</ele>
        <time>2014-09-14T07:00:11Z</time>
      </trkpt>
      <trkpt lat="45.394" lon="4.56254">
        <ele>1088</ele>
        <time>2014-09-14T07:00:13Z</time>
      </trkpt>
      <trkpt lat="45.39399" lon="4.56257">
        <ele>1088</ele>
        <time>2014-09-14T07:00:16Z</time>
      </trkpt>
      <trkpt lat="45.39399" lon="4.5626">
        <ele>1089</ele>
        <time>2014-09-14T07:00:19Z</time>
      </trkpt>
      <trkpt lat="45.39399" lon="4.56264">
        <ele>1089</ele>
        <time>2014-09-14T07:00:22Z</time>
      </trkpt>
      <trkpt lat="45.39399" lon="4.56266">
        <ele>1090</ele>
        <time>2014-09-14T07:00:25Z</time>
      </trkpt>
      <trkpt lat="45.39399" lon="4.56268">
        <ele>1090</ele>
        <time>2014-09-14T07:00:27Z</time>
      </trkpt>
      <trkpt lat="45.39399" lon="4.5627">
        <ele>1091</ele>
        <time>2014-09-14T07:00:29Z</time>
      </trkpt>
      <trkpt lat="45.39399" lon="4.56273">
        <ele>1091</ele>
        <time>2014-09-14T07:00:32Z</time>
      </trkpt>
      <trkpt lat="45.394" lon="4.56275">
        <ele>1092</ele>
        <time>2014-09-14T07:00:34Z</time>
      </trkpt>
      <trkpt lat="45.39399" lon="4.56277">
        <ele>1092</ele>
        <time>2014-09-14T07:00:36Z</time>
      </trkpt>
      <trkpt lat="45.39399" lon="4.56279">
        <ele>1093</ele>
        <time>2014-09-14T07:00:39Z</time>
      </trkpt>
      <trkpt lat="45.39398" lon="4.56281">
        <ele>1094</ele>
        <time>2014-09-14T07:00:41Z</time>
      </trkpt>
      <trkpt lat="45.39398" lon="4.56282">
        <ele>1094</ele>
        <time>2014-09-14T07:00:43Z</time>
      </trkpt>
      <trkpt lat="45.39399" lon="4.56285">
        <ele>1095</ele>
        <time>2014-09-14T07:00:46Z</time>
      </trkpt>
      <trkpt lat="45.39399" lon="4.56286">
        <ele>1095</ele>
        <time>2014-09-14T07:00:48Z</time>
      </trkpt>
      <trkpt lat="45.39398" lon="4.56287">
        <ele>1096</ele>
        <time>2014-09-14T07:00:50Z</time>
      </trkpt>
      <trkpt lat="45.39399" lon="4.56289">
        <ele>1096</ele>
        <time>2014-09-14T07:00:53Z</time>
      </trkpt>
      <trkpt lat="45.39399" lon="4.56291">
        <ele>1097</ele>
        <time>2014-09-14T07:00:55Z</time>
      </trkpt>
      <trkpt lat="45.39399" lon="4.56293">
        <ele>1097</ele>
        <time>2014-09-14T07:00:57Z</time>
      </trkpt>
      <trkpt lat="45.394" lon="4.56294">
        <ele>1098</ele>
        <time>2014-09-14T07:01:00Z</time>
      </trkpt>
      <trkpt lat="45.394" lon="4.56297">
        <ele>1098</ele>
        <time>2014-09-14T07:01:03Z</time>
      </trkpt>
      <trkpt lat="45.39401" lon="4.56299">
        <ele>1099</ele>
        <time>2014-09-14T07:01:05Z</time>
      </trkpt>
      <trkpt lat="45.39401" lon="4.56301">
        <ele>1099</ele>
        <time>2014-09-14T07:01:08Z</time>
      </trkpt>
      <trkpt lat="45.39401" lon="4.56304">
        <ele>1100</ele>
        <time>2014-09-14T07:01:11Z</time>
      </trkpt>
      <trkpt lat="45.39401" lon="4.56306">
        <ele>1101</ele>
        <time>2014-09-14T07:01:14Z</time>
      </trkpt>
      <trkpt lat="45.39401" lon="4.56307">
        <ele>1102</ele>
        <time>2014-09-14T07:01:17Z</time>
      </trkpt>
      <trkpt lat="45.39402" lon="4.5631">
        <ele>1102</ele>
        <time>2014-09-14T07:01:20Z</time>
      </trkpt>
      <trkpt lat="45.39403" lon="4.56312">
        <ele>1103</ele>
        <time>2014-09-14T07:01:22Z</time>
      </trkpt>
      <trkpt lat="45.39403" lon="4.56313">
        <ele>1103</ele>
        <time>2014-09-14T07:01:24Z</time>
      </trkpt>
      <trkpt lat="45.39403" lon="4.56315">
        <ele>1104</ele>
        <time>2014-09-14T07:01:26Z</time>
      </trkpt>
      <trkpt lat="45.39403" lon="4.56317">
        <ele>1104</ele>
        <time>2014-09-14T07:01:29Z</time>
      </trkpt>
      <trkpt lat="45.39404" lon="4.56319">
        <ele>1105</ele>
        <time>2014-09-14T07:01:31Z</time>
      </trkpt>
      <trkpt lat="45.39404" lon="4.56321">
        <ele>1105</ele>
        <time>2014-09-14T07:01:34Z</time>
      </trkpt>
      <trkpt lat="45.39405" lon="4.56322">
        <ele>1105</ele>
        <time>2014-09-14T07:01:36Z</time>
      </trkpt>
      <trkpt lat="45.39405" lon="4.56323">
        <ele>1106</ele>
        <time>2014-09-14T07:01:38Z</time>
      </trkpt>
      <trkpt lat="45.39405" lon="4.56324">
        <ele>1106</ele>
        <time>2014-09-14T07:01:40Z</time>
      </trkpt>
      <trkpt lat="45.39405" lon="4.56327">
        <ele>1107</ele>
        <time>2014-09-14T07:01:43Z</time>
      </trkpt>
      <trkpt lat="45.39405" lon="4.56328">
        <ele>1107</ele>
        <time>2014-09-14T07:01:45Z</time>
      </trkpt>
      <trkpt lat="45.39405" lon="4.5633">
        <ele>1108</ele>
        <time>2014-09-14T07:01:47Z</time>
      </trkpt>
      <trkpt lat="45.39405" lon="4.56332">
        <ele>1109</ele>
        <time>2014-09-14T07:01:50Z</time>
      </trkpt>
      <trkpt lat="45.39405" lon="4.56333">
        <ele>1109</ele>
        <time>2014-09-14T07:01:52Z</time>
      </trkpt>
      <trkpt lat="45.39405" lon="4.56336">
        <ele>1110</ele>
        <time>2014-09-14T07:01:55Z</time>
      </trkpt>
      <trkpt lat="45.39404" lon="4.56337">
        <ele>1110</ele>
        <time>2014-09-14T07:01:57Z</time>
      </trkpt>
      <trkpt lat="45.39403" lon="4.5634">
        <ele>1110</ele>
        <time>2014-09-14T07:01:59Z</time>
      </trkpt>
      <trkpt lat="45.39403" lon="4.56342">
        <ele>1111</ele>
        <time>2014-09-14T07:02:01Z</time>
      </trkpt>
      <trkpt lat="45.39402" lon="4.56345">
        <ele>1111</ele>
        <time>2014-09-14T07:02:04Z</time>
      </trkpt>
      <trkpt lat="45.39402" lon="4.56346">
        <ele>1111</ele>
        <time>2014-09-14T07:02:06Z</time>
      </trkpt>
      <trkpt lat="45.39402" lon="4.56347">
        <ele>1112</ele>
        <time>2014-09-14T07:02:09Z</time>
      </trkpt>
      <trkpt lat="45.39402" lon="4.56348">
        <ele>1112</ele>
        <time>2014-09-14T07:02:11Z</time>
      </trkpt>
      <trkpt lat="45.39402" lon="4.5635">
        <ele>1113</ele>
        <time>2014-09-14T07:02:13Z</time>
      </trkpt>
      <trkpt lat="45.39402" lon="4.56352">
        <ele>1113</ele>
        <time>2014-09-14T07:02:15Z</time>
      </trkpt>
      <trkpt lat="45.39401" lon="4.56355">
        <ele>1113</ele>
        <time>2014-09-14T07:02:18Z</time>
      </trkpt>
      <trkpt lat="45.39401" lon="4.56357">
        <ele>1114</ele>
        <time>2014-09-14T07:02:20Z</time>
      </trkpt>
      <trkpt lat="45.39401" lon="4.56358">
        <ele>1114</ele>
        <time>2014-09-14T07:02:22Z</time>
      </trkpt>
      <trkpt lat="45.39401" lon="4.56361">
        <ele>1115</ele>
        <time>2014-09-14T07:02:25Z</time>
      </trkpt>
      <trkpt lat="45.39401" lon="4.56363">
        <ele>1115</ele>
        <time>2014-09-14T07:02:27Z</time>
      </trkpt>
      <trkpt lat="45.394" lon="4.56366">
        <ele>1116</ele>
        <time>2014-09-14T07:02:30Z</time>
      </trkpt>
      <trkpt lat="45.39399" lon="4.56369">
        <ele>1116</ele>
        <time>2014-09-14T07:02:33Z</time>
      </trkpt>
      <trkpt lat="45.39398" lon="4.56371">
        <ele>1117</ele>
        <time>2014-09-14T07:02:35Z</time>
      </trkpt>
      <trkpt lat="45.39398" lon="4.56373">
        <ele>1117</ele>
        <time>2014-09-14T07:02:38Z</time>
      </trkpt>
      <trkpt lat="45.39397" lon="4.56375">
        <ele>1118</ele>
        <time>2014-09-14T07:02:40Z</time>
      </trkpt>
      <trkpt lat="45.39397" lon="4.56376">
        <ele>1118</ele>
        <time>2014-09-14T07:02:42Z</time>
      </trkpt>
      <trkpt lat="45.39396" lon="4.56379">
        <ele>1119</ele>
        <time>2014-09-14T07:02:45Z</time>
      </trkpt>
      <trkpt lat="45.39394" lon="4.5638">
        <ele>1119</ele>
        <time>2014-09-14T07:02:47Z</time>
      </trkpt>
      <trkpt lat="45.39392" lon="4.56381">
        <ele>1120</ele>
        <time>2014-09-14T07:02:50Z</time>
      </trkpt>
      <trkpt lat="45.39391" lon="4.56382">
        <ele>1120</ele>
        <time>2014-09-14T07:02:52Z</time>
      </trkpt>
      <trkpt lat="45.3939" lon="4.56383">
        <ele>1121</ele>
        <time>2014-09-14T07:02:54Z</time>
      </trkpt>
      <trkpt lat="45.39389" lon="4.56385">
        <ele>1121</ele>
        <time>2014-09-14T07:02:56Z</time>
      </trkpt>
      <trkpt lat="45.39388" lon="4.56386">
        <ele>1121</ele>
        <time>2014-09-14T07:02:58Z</time>
      </trkpt>
      <trkpt lat="45.39388" lon="4.56387">
        <ele>1122</ele>
        <time>2014-09-14T07:03:00Z</time>
      </trkpt>
      <trkpt lat="45.39387" lon="4.56388">
        <ele>1122</ele>
        <time>2014-09-14T07:03:02Z</time>
      </trkpt>
      <trkpt lat="45.39386" lon="4.5639">
        <ele>1123</ele>
        <time>2014-09-14T07:03:05Z</time>
      </trkpt>
      <trkpt lat="45.39384" lon="4.56392">
        <ele>1123</ele>
        <time>2014-09-14T07:03:08Z</time>
      </trkpt>
      <trkpt lat="45.39383" lon="4.56394">
        <ele>1124</ele>
        <time>2014-09-14T07:03:10Z</time>
      </trkpt>
      <trkpt lat="45.39381" lon="4.56396">
        <ele>1124</ele>
        <time>2014-09-14T07:03:12Z</time>
      </trkpt>
      <trkpt lat="45.3938" lon="4.56399">
        <ele>1125</ele>
        <time>2014-09-14T07:03:15Z</time>
      </trkpt>
      <trkpt lat="45.3938" lon="4.564">
        <ele>1125</ele>
        <time>2014-09-14T07:03:17Z</time>
      </trkpt>
      <trkpt lat="45.39379" lon="4.56401">
        <ele>1125</ele>
        <time>2014-09-14T07:03:19Z</time>
      </trkpt>
      <trkpt lat="45.39378" lon="4.56403">
        <ele>1126</ele>
        <time>2014-09-14T07:03:21Z</time>
      </trkpt>
      <trkpt lat="45.39377" lon="4.56404">
        <ele>1126</ele>
        <time>2014-09-14T07:03:24Z</time>
      </trkpt>
      <trkpt lat="45.39376" lon="4.56406">
        <ele>1127</ele>
        <time>2014-09-14T07:03:26Z</time>
      </trkpt>
      <trkpt lat="45.39375" lon="4.56408">
        <ele>1127</ele>
        <time>2014-09-14T07:03:28Z</time>
      </trkpt>
      <trkpt lat="45.39374" lon="4.56409">
        <ele>1127</ele>
        <time>2014-09-14T07:03:31Z</time>
      </trkpt>
      <trkpt lat="45.39373" lon="4.5641">
        <ele>1128</ele>
        <time>2014-09-14T07:03:33Z</time>
      </trkpt>
      <trkpt lat="45.39373" lon="4.56412">
        <ele>1129</ele>
        <time>2014-09-14T07:03:35Z</time>
      </trkpt>
      <trkpt lat="45.39372" lon="4.56413">
        <ele>1129</ele>
        <time>2014-09-14T07:03:38Z</time>
      </trkpt>
      <trkpt lat="45.39372" lon="4.56416">
        <ele>1130</ele>
        <time>2014-09-14T07:03:41Z</time>
      </trkpt>
      <trkpt lat="45.39371" lon="4.56417">
        <ele>1130</ele>
        <time>2014-09-14T07:03:43Z</time>
      </trkpt>
      <trkpt lat="45.3937" lon="4.56419">
        <ele>1131</ele>
        <time>2014-09-14T07:03:46Z</time>
      </trkpt>
      <trkpt lat="45.3937" lon="4.56419">
        <ele>1131</ele>
        <time>2014-09-14T07:03:48Z</time>
      </trkpt>
      <trkpt lat="45.39369" lon="4.56421">
        <ele>1132</ele>
        <time>2014-09-14T07:03:50Z</time>
      </trkpt>
      <trkpt lat="45.39367" lon="4.56424">
        <ele>1132</ele>
        <time>2014-09-14T07:03:53Z</time>
      </trkpt>
      <trkpt lat="45.39366" lon="4.56426">
        <ele>1132</ele>
        <time>2014-09-14T07:03:56Z</time>
      </trkpt>
      <trkpt lat="45.39364" lon="4.56427">
        <ele>1133</ele>
        <time>2014-09-14T07:03:59Z</time>
      </trkpt>
      <trkpt lat="45.39362" lon="4.5643">
        <ele>1134</ele>
        <time>2014-09-14T07:04:02Z</time>
      </trkpt>
      <trkpt lat="45.39361" lon="4.56431">
        <ele>1135</ele>
        <time>2014-09-14T07:04:04Z</time>
      </trkpt>
      <trkpt lat="45.3936" lon="4.56432">
        <ele>1136</ele>
        <time>2014-09-14T07:04:06Z</time>
      </trkpt>
      <trkpt lat="45.39359" lon="4.56433">
        <ele>1136</ele>
        <time>2014-09-14T07:04:08Z</time>
      </trkpt>
      <trkpt lat="45.39358" lon="4.56434">
        <ele>1137</ele>
        <time>2014-09-14T07:04:11Z</time>
      </trkpt>
      <trkpt lat="45.39357" lon="4.56435">
        <ele>1137</ele>
        <time>2014-09-14T07:04:13Z</time>
      </trkpt>
      <trkpt lat="45.39355" lon="4.56434">
        <ele>1137</ele>
        <time>2014-09-14T07:04:15Z</time>
      </trkpt>
      <trkpt lat="45.39352" lon="4.56434">
        <ele>1137</ele>
        <time>2014-09-14T07:04:18Z</time>
      </trkpt>
      <trkpt lat="45.3935" lon="4.56434">
        <ele>1138</ele>
        <time>2014-09-14T07:04:21Z</time>
      </trkpt>
      <trkpt lat="45.39349" lon="4.56434">
        <ele>1139</ele>
        <time>2014-09-14T07:04:23Z</time>
      </trkpt>
      <trkpt lat="45.39347" lon="4.56435">
        <ele>1140</ele>
        <time>2014-09-14T07:04:26Z</time>
      </trkpt>
      <trkpt lat="45.39347" lon="4.56436">
        <ele>1140</ele>
        <time>2014-09-14T07:04:28Z</time>
      </trkpt>
      <trkpt lat="45.39347" lon="4.56438">
        <ele>1140</ele>
        <time>2014-09-14T07:04:30Z</time>
      </trkpt>
      <trkpt lat="45.39349" lon="4.56442">
        <ele>1141</ele>
        <time>2014-09-14T07:04:33Z</time>
      </trkpt>
      <trkpt lat="45.39352" lon="4.56445">
        <ele>1141</ele>
        <time>2014-09-14T07:04:35Z</time>
      </trkpt>
      <trkpt lat="45.39355" lon="4.5645">
        <ele>1142</ele>
        <time>2014-09-14T07:04:38Z</time>
      </trkpt>
      <trkpt lat="45.39358" lon="4.56457">
        <ele>1142</ele>
        <time>2014-09-14T07:04:41Z</time>
      </trkpt>
      <trkpt lat="45.39361" lon="4.56462">
        <ele>1142</ele>
        <time>2014-09-14T07:04:43Z</time>
      </trkpt>
      <trkpt lat="45.39364" lon="4.56466">
        <ele>1142</ele>
        <time>2014-09-14T07:04:45Z</time>
      </trkpt>
      <trkpt lat="45.39366" lon="4.56472">
        <ele>1142</ele>
        <time>2014-09-14T07:04:47Z</time>
      </trkpt>
      <trkpt lat="45.39368" lon="4.56482">
        <ele>1142</ele>
        <time>2014-09-14T07:04:50Z</time>
      </trkpt>
      <trkpt lat="45.39368" lon="4.56493">
        <ele>1142</ele>
        <time>2014-09-14T07:04:53Z</time>
      </trkpt>
      <trkpt lat="45.39369" lon="4.56503">
        <ele>1142</ele>
        <time>2014-09-14T07:04:56Z</time>
      </trkpt>
      <trkpt lat="45.39369" lon="4.56511">
        <ele>1142</ele>
        <time>2014-09-14T07:04:58Z</time>
      </trkpt>
      <trkpt lat="45.39368" lon="4.56521">
        <ele>1142</ele>
        <time>2014-09-14T07:05:01Z</time>
      </trkpt>
      <trkpt lat="45.39367" lon="4.56531">
        <ele>1142</ele>
        <time>2014-09-14T07:05:04Z</time>
      </trkpt>
      <trkpt lat="45.39367" lon="4.56538">
        <ele>1142</ele>
        <time>2014-09-14T07:05:06Z</time>
      </trkpt>
      <trkpt lat="45.39367" lon="4.56545">
        <ele>1142</ele>
        <time>2014-09-14T07:05:08Z</time>
      </trkpt>
      <trkpt lat="45.39367" lon="4.56553">
        <ele>1142</ele>
        <time>2014-09-14T07:05:10Z</time>
      </trkpt>
      <trkpt lat="45.39368" lon="4.56564">
        <ele>1142</ele>
        <time>2014-09-14T07:05:13Z</time>
      </trkpt>
      <trkpt lat="45.39368" lon="4.56571">
        <ele>1142</ele>
        <time>2014-09-14T07:05:15Z</time>
      </trkpt>
      <trkpt lat="45.39368" lon="4.56582">
        <ele>1141</ele>
        <time>2014-09-14T07:05:18Z</time>
      </trkpt>
      <trkpt lat="45.39367" lon="4.56589">
        <ele>1142</ele>
        <time>2014-09-14T07:05:20Z</time>
      </trkpt>
      <trkpt lat="45.39366" lon="4.56599">
        <ele>1142</ele>
        <time>2014-09-14T07:05:23Z</time>
      </trkpt>
      <trkpt lat="45.39365" lon="4.56605">
        <ele>1142</ele>
        <time>2014-09-14T07:05:25Z</time>
      </trkpt>
      <trkpt lat="45.39363" lon="4.56612">
        <ele>1142</ele>
        <time>2014-09-14T07:05:27Z</time>
      </trkpt>
      <trkpt lat="45.39362" lon="4.56622">
        <ele>1142</ele>
        <time>2014-09-14T07:05:30Z</time>
      </trkpt>
      <trkpt lat="45.39361" lon="4.56629">
        <ele>1142</ele>
        <time>2014-09-14T07:05:32Z</time>
      </trkpt>
      <trkpt lat="45.39359" lon="4.5664">
        <ele>1142</ele>
        <time>2014-09-14T07:05:35Z</time>
      </trkpt>
      <trkpt lat="45.39357" lon="4.56651">
        <ele>1142</ele>
        <time>2014-09-14T07:05:38Z</time>
      </trkpt>
      <trkpt lat="45.39355" lon="4.56658">
        <ele>1142</ele>
        <time>2014-09-14T07:05:40Z</time>
      </trkpt>
      <trkpt lat="45.39354" lon="4.56667">
        <ele>1142</ele>
        <time>2014-09-14T07:05:43Z</time>
      </trkpt>
      <trkpt lat="45.39352" lon="4.56673">
        <ele>1142</ele>
        <time>2014-09-14T07:05:45Z</time>
      </trkpt>
      <trkpt lat="45.3935" lon="4.56683">
        <ele>1142</ele>
        <time>2014-09-14T07:05:48Z</time>
      </trkpt>
      <trkpt lat="45.39347" lon="4.56689">
        <ele>1142</ele>
        <time>2014-09-14T07:05:50Z</time>
      </trkpt>
      <trkpt lat="45.39344" lon="4.56695">
        <ele>1142</ele>
        <time>2014-09-14T07:05:52Z</time>
      </trkpt>
      <trkpt lat="45.39341" lon="4.56701">
        <ele>1142</ele>
        <time>2014-09-14T07:05:54Z</time>
      </trkpt>
      <trkpt lat="45.39338" lon="4.5671">
        <ele>1143</ele>
        <time>2014-09-14T07:05:57Z</time>
      </trkpt>
      <trkpt lat="45.39334" lon="4.56718">
        <ele>1144</ele>
        <time>2014-09-14T07:06:00Z</time>
      </trkpt>
      <trkpt lat="45.39332" lon="4.56723">
        <ele>1144</ele>
        <time>2014-09-14T07:06:02Z</time>
      </trkpt>
      <trkpt lat="45.39329" lon="4.56732">
        <ele>1144</ele>
        <time>2014-09-14T07:06:05Z</time>
      </trkpt>
      <trkpt lat="45.39327" lon="4.56736">
        <ele>1144</ele>
        <time>2014-09-14T07:06:07Z</time>
      </trkpt>
      <trkpt lat="45.39325" lon="4.56741">
        <ele>1144</ele>
        <time>2014-09-14T07:06:09Z</time>
      </trkpt>
      <trkpt lat="45.39323" lon="4.56745">
        <ele>1145</ele>
        <time>2014-09-14T07:06:11Z</time>
      </trkpt>
      <trkpt lat="45.3932" lon="4.56754">
        <ele>1145</ele>
        <time>2014-09-14T07:06:14Z</time>
      </trkpt>
      <trkpt lat="45.3932" lon="4.56762">
        <ele>1146</ele>
        <time>2014-09-14T07:06:17Z</time>
      </trkpt>
      <trkpt lat="45.39321" lon="4.5677">
        <ele>1146</ele>
        <time>2014-09-14T07:06:20Z</time>
      </trkpt>
      <trkpt lat="45.39326" lon="4.56776">
        <ele>1146</ele>
        <time>2014-09-14T07:06:23Z</time>
      </trkpt>
      <trkpt lat="45.39329" lon="4.56778">
        <ele>1146</ele>
        <time>2014-09-14T07:06:25Z</time>
      </trkpt>
      <trkpt lat="45.39334" lon="4.56779">
        <ele>1147</ele>
        <time>2014-09-14T07:06:28Z</time>
      </trkpt>
      <trkpt lat="45.39338" lon="4.56779">
        <ele>1148</ele>
        <time>2014-09-14T07:06:30Z</time>
      </trkpt>
      <trkpt lat="45.39342" lon="4.56779">
        <ele>1148</ele>
        <time>2014-09-14T07:06:32Z</time>
      </trkpt>
      <trkpt lat="45.39346" lon="4.56779">
        <ele>1149</ele>
        <time>2014-09-14T07:06:34Z</time>
      </trkpt>
      <trkpt lat="45.39351" lon="4.56779">
        <ele>1149</ele>
        <time>2014-09-14T07:06:37Z</time>
      </trkpt>
      <trkpt lat="45.39355" lon="4.56779">
        <ele>1149</ele>
        <time>2014-09-14T07:06:39Z</time>
      </trkpt>
      <trkpt lat="45.39359" lon="4.56779">
        <ele>1150</ele>
        <time>2014-09-14T07:06:41Z</time>
      </trkpt>
      <trkpt lat="45.39363" lon="4.56779">
        <ele>1150</ele>
        <time>2014-09-14T07:06:43Z</time>
      </trkpt>
      <trkpt lat="45.39366" lon="4.56779">
        <ele>1150</ele>
        <time>2014-09-14T07:06:45Z</time>
      </trkpt>
      <trkpt lat="45.3937" lon="4.56779">
        <ele>1150</ele>
        <time>2014-09-14T07:06:47Z</time>
      </trkpt>
      <trkpt lat="45.39376" lon="4.56778">
        <ele>1150</ele>
        <time>2014-09-14T07:06:50Z</time>
      </trkpt>
      <trkpt lat="45.39383" lon="4.56777">
        <ele>1151</ele>
        <time>2014-09-14T07:06:53Z</time>
      </trkpt>
      <trkpt lat="45.39387" lon="4.56777">
        <ele>1151</ele>
        <time>2014-09-14T07:06:55Z</time>
      </trkpt>
      <trkpt lat="45.39391" lon="4.56776">
        <ele>1151</ele>
        <time>2014-09-14T07:06:57Z</time>
      </trkpt>
      <trkpt lat="45.39399" lon="4.56775">
        <ele>1151</ele>
        <time>2014-09-14T07:07:00Z</time>
      </trkpt>
      <trkpt lat="45.39403" lon="4.56775">
        <ele>1152</ele>
        <time>2014-09-14T07:07:02Z</time>
      </trkpt>
      <trkpt lat="45.39407" lon="4.56775">
        <ele>1152</ele>
        <time>2014-09-14T07:07:04Z</time>
      </trkpt>
      <trkpt lat="45.39412" lon="4.56774">
        <ele>1152</ele>
        <time>2014-09-14T07:07:06Z</time>
      </trkpt>
      <trkpt lat="45.39419" lon="4.5677">
        <ele>1152</ele>
        <time>2014-09-14T07:07:09Z</time>
      </trkpt>
      <trkpt lat="45.39426" lon="4.56768">
        <ele>1152</ele>
        <time>2014-09-14T07:07:12Z</time>
      </trkpt>
      <trkpt lat="45.3943" lon="4.56766">
        <ele>1152</ele>
        <time>2014-09-14T07:07:14Z</time>
      </trkpt>
      <trkpt lat="45.39431" lon="4.56765">
        <ele>1152</ele>
        <time>2014-09-14T07:07:16Z</time>
      </trkpt>
      <trkpt lat="45.39435" lon="4.56761">
        <ele>1151</ele>
        <time>2014-09-14T07:07:19Z</time>
      </trkpt>
      <trkpt lat="45.39437" lon="4.56756">
        <ele>1150</ele>
        <time>2014-09-14T07:07:21Z</time>
      </trkpt>
      <trkpt lat="45.39441" lon="4.56749">
        <ele>1150</ele>
        <time>2014-09-14T07:07:24Z</time>
      </trkpt>
      <trkpt lat="45.39447" lon="4.56741">
        <ele>1149</ele>
        <time>2014-09-14T07:07:27Z</time>
      </trkpt>
      <trkpt lat="45.39454" lon="4.56734">
        <ele>1148</ele>
        <time>2014-09-14T07:07:30Z</time>
      </trkpt>
      <trkpt lat="45.39458" lon="4.5673">
        <ele>1147</ele>
        <time>2014-09-14T07:07:33Z</time>
      </trkpt>
      <trkpt lat="45.39461" lon="4.56727">
        <ele>1146</ele>
        <time>2014-09-14T07:07:35Z</time>
      </trkpt>
      <trkpt lat="45.39466" lon="4.5672">
        <ele>1146</ele>
        <time>2014-09-14T07:07:38Z</time>
      </trkpt>
      <trkpt lat="45.3947" lon="4.56715">
        <ele>1145</ele>
        <time>2014-09-14T07:07:40Z</time>
      </trkpt>
      <trkpt lat="45.39477" lon="4.56706">
        <ele>1144</ele>
        <time>2014-09-14T07:07:43Z</time>
      </trkpt>
      <trkpt lat="45.39483" lon="4.567">
        <ele>1143</ele>
        <time>2014-09-14T07:07:46Z</time>
      </trkpt>
      <trkpt lat="45.39489" lon="4.56693">
        <ele>1143</ele>
        <time>2014-09-14T07:07:49Z</time>
      </trkpt>
      <trkpt lat="45.39492" lon="4.56688">
        <ele>1143</ele>
        <time>2014-09-14T07:07:51Z</time>
      </trkpt>
      <trkpt lat="45.39496" lon="4.56681">
        <ele>1143</ele>
        <time>2014-09-14T07:07:53Z</time>
      </trkpt>
      <trkpt lat="45.39499" lon="4.56676">
        <ele>1143</ele>
        <time>2014-09-14T07:07:55Z</time>
      </trkpt>
      <trkpt lat="45.39501" lon="4.56669">
        <ele>1142</ele>
        <time>2014-09-14T07:07:58Z</time>
      </trkpt>
      <trkpt lat="45.39502" lon="4.56663">
        <ele>1142</ele>
        <time>2014-09-14T07:08:00Z</time>
      </trkpt>
      <trkpt lat="45.39503" lon="4.56658">
        <ele>1142</ele>
        <time>2014-09-14T07:08:02Z</time>
      </trkpt>
      <trkpt lat="45.39503" lon="4.56648">
        <ele>1141</ele>
        <time>2014-09-14T07:08:05Z</time>
      </trkpt>
      <trkpt lat="45.39504" lon="4.56642">
        <ele>1141</ele>
        <time>2014-09-14T07:08:07Z</time>
      </trkpt>
      <trkpt lat="45.39507" lon="4.56632">
        <ele>1140</ele>
        <time>2014-09-14T07:08:10Z</time>
      </trkpt>
      <trkpt lat="45.39511" lon="4.56624">
        <ele>1140</ele>
        <time>2014-09-14T07:08:13Z</time>
      </trkpt>
      <trkpt lat="45.39515" lon="4.56617">
        <ele>1139</ele>
        <time>2014-09-14T07:08:15Z</time>
      </trkpt>
      <trkpt lat="45.3952" lon="4.56607">
        <ele>1139</ele>
        <time>2014-09-14T07:08:18Z</time>
      </trkpt>
      <trkpt lat="45.39526" lon="4.56599">
        <ele>1139</ele>
        <time>2014-09-14T07:08:21Z</time>
      </trkpt>
      <trkpt lat="45.39531" lon="4.56592">
        <ele>1139</ele>
        <time>2014-09-14T07:08:23Z</time>
      </trkpt>
      <trkpt lat="45.39537" lon="4.56582">
        <ele>1139</ele>
        <time>2014-09-14T07:08:26Z</time>
      </trkpt>
      <trkpt lat="45.39542" lon="4.56577">
        <ele>1139</ele>
        <time>2014-09-14T07:08:28Z</time>
      </trkpt>
      <trkpt lat="45.39549" lon="4.56569">
        <ele>1139</ele>
        <time>2014-09-14T07:08:31Z</time>
      </trkpt>
      <trkpt lat="45.39554" lon="4.56566">
        <ele>1139</ele>
        <time>2014-09-14T07:08:33Z</time>
      </trkpt>
      <trkpt lat="45.39559" lon="4.56561">
        <ele>1139</ele>
        <time>2014-09-14T07:08:36Z</time>
      </trkpt>
      <trkpt lat="45.39563" lon="4.56555">
        <ele>1139</ele>
        <time>2014-09-14T07:08:39Z</time>
      </trkpt>
      <trkpt lat="45.39569" lon="4.56547">
        <ele>1139</ele>
        <time>2014-09-14T07:08:42Z</time>
      </trkpt>
      <trkpt lat="45.39575" lon="4.56539">
        <ele>1139</ele>
        <time>2014-09-14T07:08:45Z</time>
      </trkpt>
      <trkpt lat="45.39579" lon="4.56534">
        <ele>1139</ele>
        <time>2014-09-14T07:08:47Z</time>
      </trkpt>
      <trkpt lat="45.39584" lon="4.5653">
        <ele>1139</ele>
        <time>2014-09-14T07:08:49Z</time>
      </trkpt>
      <trkpt lat="45.39589" lon="4.56522">
        <ele>1139</ele>
        <time>2014-09-14T07:08:52Z</time>
      </trkpt>
      <trkpt lat="45.39593" lon="4.56516">
        <ele>1138</ele>
        <time>2014-09-14T07:08:54Z</time>
      </trkpt>
      <trkpt lat="45.39597" lon="4.56511">
        <ele>1138</ele>
        <time>2014-09-14T07:08:56Z</time>
      </trkpt>
      <trkpt lat="45.39602" lon="4.56505">
        <ele>1138</ele>
        <time>2014-09-14T07:08:59Z</time>
      </trkpt>
      <trkpt lat="45.39606" lon="4.565">
        <ele>1138</ele>
        <time>2014-09-14T07:09:01Z</time>
      </trkpt>
      <trkpt lat="45.3961" lon="4.56493">
        <ele>1139</ele>
        <time>2014-09-14T07:09:04Z</time>
      </trkpt>
      <trkpt lat="45.39612" lon="4.56488">
        <ele>1139</ele>
        <time>2014-09-14T07:09:06Z</time>
      </trkpt>
      <trkpt lat="45.39616" lon="4.56483">
        <ele>1140</ele>
        <time>2014-09-14T07:09:09Z</time>
      </trkpt>
      <trkpt lat="45.39621" lon="4.56479">
        <ele>1140</ele>
        <time>2014-09-14T07:09:11Z</time>
      </trkpt>
      <trkpt lat="45.39626" lon="4.56474">
        <ele>1140</ele>
        <time>2014-09-14T07:09:13Z</time>
      </trkpt>
      <trkpt lat="45.39635" lon="4.56467">
        <ele>1140</ele>
        <time>2014-09-14T07:09:16Z</time>
      </trkpt>
      <trkpt lat="45.3964" lon="4.56463">
        <ele>1140</ele>
        <time>2014-09-14T07:09:18Z</time>
      </trkpt>
      <trkpt lat="45.39646" lon="4.56459">
        <ele>1139</ele>
        <time>2014-09-14T07:09:20Z</time>
      </trkpt>
      <trkpt lat="45.39654" lon="4.56453">
        <ele>1139</ele>
        <time>2014-09-14T07:09:23Z</time>
      </trkpt>
      <trkpt lat="45.39661" lon="4.56447">
        <ele>1138</ele>
        <time>2014-09-14T07:09:26Z</time>
      </trkpt>
      <trkpt lat="45.39666" lon="4.56443">
        <ele>1137</ele>
        <time>2014-09-14T07:09:28Z</time>
      </trkpt>
      <trkpt lat="45.39671" lon="4.56441">
        <ele>1138</ele>
        <time>2014-09-14T07:09:30Z</time>
      </trkpt>
      <trkpt lat="45.39679" lon="4.56437">
        <ele>1139</ele>
        <time>2014-09-14T07:09:33Z</time>
      </trkpt>
      <trkpt lat="45.39685" lon="4.56435">
        <ele>1139</ele>
        <time>2014-09-14T07:09:35Z</time>
      </trkpt>
      <trkpt lat="45.39689" lon="4.56433">
        <ele>1139</ele>
        <time>2014-09-14T07:09:37Z</time>
      </trkpt>
      <trkpt lat="45.39696" lon="4.5643">
        <ele>1139</ele>
        <time>2014-09-14T07:09:40Z</time>
      </trkpt>
      <trkpt lat="45.39701" lon="4.56426">
        <ele>1139</ele>
        <time>2014-09-14T07:09:42Z</time>
      </trkpt>
      <trkpt lat="45.39706" lon="4.56424">
        <ele>1139</ele>
        <time>2014-09-14T07:09:44Z</time>
      </trkpt>
      <trkpt lat="45.39711" lon="4.5642">
        <ele>1139</ele>
        <time>2014-09-14T07:09:46Z</time>
      </trkpt>
      <trkpt lat="45.39717" lon="4.56417">
        <ele>1139</ele>
        <time>2014-09-14T07:09:49Z</time>
      </trkpt>
      <trkpt lat="45.39723" lon="4.56416">
        <ele>1139</ele>
        <time>2014-09-14T07:09:52Z</time>
      </trkpt>
      <trkpt lat="45.39728" lon="4.56417">
        <ele>1140</ele>
        <time>2014-09-14T07:09:55Z</time>
      </trkpt>
      <trkpt lat="45.39732" lon="4.56419">
        <ele>1141</ele>
        <time>2014-09-14T07:09:58Z</time>
      </trkpt>
      <trkpt lat="45.39736" lon="4.56421">
        <ele>1141</ele>
        <time>2014-09-14T07:10:01Z</time>
      </trkpt>
      <trkpt lat="45.3974" lon="4.56422">
        <ele>1141</ele>
        <time>2014-09-14T07:10:04Z</time>
      </trkpt>
      <trkpt lat="45.39742" lon="4.56423">
        <ele>1141</ele>
        <time>2014-09-14T07:10:06Z</time>
      </trkpt>
      <trkpt lat="45.39747" lon="4.56424">
        <ele>1142</ele>
        <time>2014-09-14T07:10:09Z</time>
      </trkpt>
      <trkpt lat="45.3975" lon="4.56425">
        <ele>1142</ele>
        <time>2014-09-14T07:10:11Z</time>
      </trkpt>
      <trkpt lat="45.39755" lon="4.56426">
        <ele>1142</ele>
        <time>2014-09-14T07:10:14Z</time>
      </trkpt>
      <trkpt lat="45.3976" lon="4.56424">
        <ele>1143</ele>
        <time>2014-09-14T07:10:16Z</time>
      </trkpt>
      <trkpt lat="45.39764" lon="4.56424">
        <ele>1143</ele>
        <time>2014-09-14T07:10:18Z</time>
      </trkpt>
      <trkpt lat="45.3977" lon="4.56427">
        <ele>1144</ele>
        <time>2014-09-14T07:10:21Z</time>
      </trkpt>
      <trkpt lat="45.39776" lon="4.56431">
        <ele>1144</ele>
        <time>2014-09-14T07:10:24Z</time>
      </trkpt>
      <trkpt lat="45.3978" lon="4.56433">
        <ele>1144</ele>
        <time>2014-09-14T07:10:26Z</time>
      </trkpt>
      <trkpt lat="45.39783" lon="4.56435">
        <ele>1144</ele>
        <time>2014-09-14T07:10:28Z</time>
      </trkpt>
      <trkpt lat="45.39788" lon="4.56436">
        <ele>1143</ele>
        <time>2014-09-14T07:10:31Z</time>
      </trkpt>
      <trkpt lat="45.39793" lon="4.56437">
        <ele>1143</ele>
        <time>2014-09-14T07:10:34Z</time>
      </trkpt>
      <trkpt lat="45.39797" lon="4.56439">
        <ele>1144</ele>
        <time>2014-09-14T07:10:37Z</time>
      </trkpt>
      <trkpt lat="45.39802" lon="4.56441">
        <ele>1144</ele>
        <time>2014-09-14T07:10:40Z</time>
      </trkpt>
      <trkpt lat="45.39806" lon="4.56445">
        <ele>1145</ele>
        <time>2014-09-14T07:10:42Z</time>
      </trkpt>
      <trkpt lat="45.39809" lon="4.56445">
        <ele>1145</ele>
        <time>2014-09-14T07:10:44Z</time>
      </trkpt>
      <trkpt lat="45.39814" lon="4.56444">
        <ele>1145</ele>
        <time>2014-09-14T07:10:47Z</time>
      </trkpt>
      <trkpt lat="45.39817" lon="4.56444">
        <ele>1145</ele>
        <time>2014-09-14T07:10:49Z</time>
      </trkpt>
      <trkpt lat="45.39823" lon="4.56446">
        <ele>1145</ele>
        <time>2014-09-14T07:10:52Z</time>
      </trkpt>
      <trkpt lat="45.39829" lon="4.56449">
        <ele>1146</ele>
        <time>2014-09-14T07:10:55Z</time>
      </trkpt>
      <trkpt lat="45.39833" lon="4.56452">
        <ele>1146</ele>
        <time>2014-09-14T07:10:57Z</time>
      </trkpt>
      <trkpt lat="45.39835" lon="4.56453">
        <ele>1147</ele>
        <time>2014-09-14T07:10:59Z</time>
      </trkpt>
      <trkpt lat="45.39842" lon="4.56455">
        <ele>1147</ele>
        <time>2014-09-14T07:11:02Z</time>
      </trkpt>
      <trkpt lat="45.39845" lon="4.56458">
        <ele>1147</ele>
        <time>2014-09-14T07:11:04Z</time>
      </trkpt>
      <trkpt lat="45.39851" lon="4.56461">
        <ele>1148</ele>
        <time>2014-09-14T07:11:07Z</time>
      </trkpt>
      <trkpt lat="45.39855" lon="4.56462">
        <ele>1148</ele>
        <time>2014-09-14T07:11:09Z</time>
      </trkpt>
      <trkpt lat="45.39861" lon="4.56464">
        <ele>1149</ele>
        <time>2014-09-14T07:11:12Z</time>
      </trkpt>
      <trkpt lat="45.39864" lon="4.56466">
        <ele>1149</ele>
        <time>2014-09-14T07:11:15Z</time>
      </trkpt>
      <trkpt lat="45.39866" lon="4.56469">
        <ele>1149</ele>
        <time>2014-09-14T07:11:17Z</time>
      </trkpt>
      <trkpt lat="45.3987" lon="4.56473">
        <ele>1149</ele>
        <time>2014-09-14T07:11:20Z</time>
      </trkpt>
      <trkpt lat="45.39873" lon="4.56475">
        <ele>1149</ele>
        <time>2014-09-14T07:11:22Z</time>
      </trkpt>
      <trkpt lat="45.39876" lon="4.56477">
        <ele>1150</ele>
        <time>2014-09-14T07:11:24Z</time>
      </trkpt>
      <trkpt lat="45.3988" lon="4.56483">
        <ele>1150</ele>
        <time>2014-09-14T07:11:27Z</time>
      </trkpt>
      <trkpt lat="45.39885" lon="4.56488">
        <ele>1151</ele>
        <time>2014-09-14T07:11:30Z</time>
      </trkpt>
      <trkpt lat="45.39888" lon="4.5649">
        <ele>1151</ele>
        <time>2014-09-14T07:11:32Z</time>
      </trkpt>
      <trkpt lat="45.39891" lon="4.56493">
        <ele>1151</ele>
        <time>2014-09-14T07:11:34Z</time>
      </trkpt>
      <trkpt lat="45.39897" lon="4.56498">
        <ele>1151</ele>
        <time>2014-09-14T07:11:37Z</time>
      </trkpt>
      <trkpt lat="45.39901" lon="4.56501">
        <ele>1152</ele>
        <time>2014-09-14T07:11:39Z</time>
      </trkpt>
      <trkpt lat="45.39907" lon="4.56507">
        <ele>1152</ele>
        <time>2014-09-14T07:11:42Z</time>
      </trkpt>
      <trkpt lat="45.3991" lon="4.56512">
        <ele>1153</ele>
        <time>2014-09-14T07:11:45Z</time>
      </trkpt>
      <trkpt lat="45.39915" lon="4.56516">
        <ele>1153</ele>
        <time>2014-09-14T07:11:48Z</time>
      </trkpt>
      <trkpt lat="45.39918" lon="4.56518">
        <ele>1153</ele>
        <time>2014-09-14T07:11:50Z</time>
      </trkpt>
      <trkpt lat="45.39921" lon="4.56521">
        <ele>1153</ele>
        <time>2014-09-14T07:11:53Z</time>
      </trkpt>
      <trkpt lat="45.39923" lon="4.56523">
        <ele>1153</ele>
        <time>2014-09-14T07:11:55Z</time>
      </trkpt>
      <trkpt lat="45.39926" lon="4.56525">
        <ele>1153</ele>
        <time>2014-09-14T07:11:57Z</time>
      </trkpt>
      <trkpt lat="45.39928" lon="4.56529">
        <ele>1153</ele>
        <time>2014-09-14T07:11:59Z</time>
      </trkpt>
      <trkpt lat="45.39933" lon="4.56533">
        <ele>1153</ele>
        <time>2014-09-14T07:12:02Z</time>
      </trkpt>
      <trkpt lat="45.39936" lon="4.56536">
        <ele>1154</ele>
        <time>2014-09-14T07:12:04Z</time>
      </trkpt>
      <trkpt lat="45.39939" lon="4.56537">
        <ele>1154</ele>
        <time>2014-09-14T07:12:06Z</time>
      </trkpt>
      <trkpt lat="45.39943" lon="4.56541">
        <ele>1154</ele>
        <time>2014-09-14T07:12:08Z</time>
      </trkpt>
      <trkpt lat="45.39949" lon="4.56546">
        <ele>1154</ele>
        <time>2014-09-14T07:12:11Z</time>
      </trkpt>
      <trkpt lat="45.39954" lon="4.5655">
        <ele>1154</ele>
        <time>2014-09-14T07:12:14Z</time>
      </trkpt>
      <trkpt lat="45.3996" lon="4.56554">
        <ele>1153</ele>
        <time>2014-09-14T07:12:17Z</time>
      </trkpt>
      <trkpt lat="45.39966" lon="4.5656">
        <ele>1153</ele>
        <time>2014-09-14T07:12:20Z</time>
      </trkpt>
      <trkpt lat="45.39972" lon="4.56564">
        <ele>1153</ele>
        <time>2014-09-14T07:12:22Z</time>
      </trkpt>
      <trkpt lat="45.39978" lon="4.5657">
        <ele>1153</ele>
        <time>2014-09-14T07:12:25Z</time>
      </trkpt>
      <trkpt lat="45.39983" lon="4.56579">
        <ele>1154</ele>
        <time>2014-09-14T07:12:28Z</time>
      </trkpt>
      <trkpt lat="45.39987" lon="4.56588">
        <ele>1154</ele>
        <time>2014-09-14T07:12:31Z</time>
      </trkpt>
      <trkpt lat="45.3999" lon="4.56593">
        <ele>1155</ele>
        <time>2014-09-14T07:12:33Z</time>
      </trkpt>
      <trkpt lat="45.39993" lon="4.566">
        <ele>1155</ele>
        <time>2014-09-14T07:12:35Z</time>
      </trkpt>
      <trkpt lat="45.39997" lon="4.56609">
        <ele>1156</ele>
        <time>2014-09-14T07:12:38Z</time>
      </trkpt>
      <trkpt lat="45.40001" lon="4.56617">
        <ele>1156</ele>
        <time>2014-09-14T07:12:41Z</time>
      </trkpt>
      <trkpt lat="45.40004" lon="4.56624">
        <ele>1156</ele>
        <time>2014-09-14T07:12:43Z</time>
      </trkpt>
      <trkpt lat="45.40006" lon="4.56629">
        <ele>1156</ele>
        <time>2014-09-14T07:12:45Z</time>
      </trkpt>
      <trkpt lat="45.4001" lon="4.56637">
        <ele>1156</ele>
        <time>2014-09-14T07:12:48Z</time>
      </trkpt>
      <trkpt lat="45.40012" lon="4.56643">
        <ele>1156</ele>
        <time>2014-09-14T07:12:50Z</time>
      </trkpt>
      <trkpt lat="45.40016" lon="4.56651">
        <ele>1156</ele>
        <time>2014-09-14T07:12:53Z</time>
      </trkpt>
      <trkpt lat="45.4002" lon="4.56659">
        <ele>1157</ele>
        <time>2014-09-14T07:12:56Z</time>
      </trkpt>
      <trkpt lat="45.40023" lon="4.56664">
        <ele>1157</ele>
        <time>2014-09-14T07:12:58Z</time>
      </trkpt>
      <trkpt lat="45.40026" lon="4.56668">
        <ele>1157</ele>
        <time>2014-09-14T07:13:00Z</time>
      </trkpt>
      <trkpt lat="45.40031" lon="4.56676">
        <ele>1157</ele>
        <time>2014-09-14T07:13:03Z</time>
      </trkpt>
      <trkpt lat="45.40035" lon="4.56683">
        <ele>1157</ele>
        <time>2014-09-14T07:13:06Z</time>
      </trkpt>
      <trkpt lat="45.40039" lon="4.56692">
        <ele>1157</ele>
        <time>2014-09-14T07:13:09Z</time>
      </trkpt>
      <trkpt lat="45.40042" lon="4.567">
        <ele>1157</ele>
        <time>2014-09-14T07:13:12Z</time>
      </trkpt>
      <trkpt lat="45.40044" lon="4.56705">
        <ele>1157</ele>
        <time>2014-09-14T07:13:14Z</time>
      </trkpt>
      <trkpt lat="45.40049" lon="4.56713">
        <ele>1158</ele>
        <time>2014-09-14T07:13:17Z</time>
      </trkpt>
      <trkpt lat="45.40052" lon="4.56719">
        <ele>1157</ele>
        <time>2014-09-14T07:13:19Z</time>
      </trkpt>
      <trkpt lat="45.40056" lon="4.56727">
        <ele>1157</ele>
        <time>2014-09-14T07:13:22Z</time>
      </trkpt>
      <trkpt lat="45.40057" lon="4.56732">
        <ele>1157</ele>
        <time>2014-09-14T07:13:24Z</time>
      </trkpt>
      <trkpt lat="45.40061" lon="4.56739">
        <ele>1157</ele>
        <time>2014-09-14T07:13:27Z</time>
      </trkpt>
      <trkpt lat="45.40064" lon="4.56746">
        <ele>1157</ele>
        <time>2014-09-14T07:13:30Z</time>
      </trkpt>
      <trkpt lat="45.40067" lon="4.5675">
        <ele>1157</ele>
        <time>2014-09-14T07:13:32Z</time>
      </trkpt>
      <trkpt lat="45.40069" lon="4.56756">
        <ele>1158</ele>
        <time>2014-09-14T07:13:34Z</time>
      </trkpt>
      <trkpt lat="45.40072" lon="4.56766">
        <ele>1157</ele>
        <time>2014-09-14T07:13:37Z</time>
      </trkpt>
      <trkpt lat="45.40074" lon="4.56773">
        <ele>1157</ele>
        <time>2014-09-14T07:13:39Z</time>
      </trkpt>
      <trkpt lat="45.40076" lon="4.56783">
        <ele>1156</ele>
        <time>2014-09-14T07:13:42Z</time>
      </trkpt>
      <trkpt lat="45.40078" lon="4.56793">
        <ele>1156</ele>
        <time>2014-09-14T07:13:45Z</time>
      </trkpt>
      <trkpt lat="45.40079" lon="4.56799">
        <ele>1155</ele>
        <time>2014-09-14T07:13:47Z</time>
      </trkpt>
      <trkpt lat="45.40079" lon="4.56804">
        <ele>1156</ele>
        <time>2014-09-14T07:13:49Z</time>
      </trkpt>
      <trkpt lat="45.40079" lon="4.5681">
        <ele>1156</ele>
        <time>2014-09-14T07:13:51Z</time>
      </trkpt>
      <trkpt lat="45.4008" lon="4.56818">
        <ele>1156</ele>
        <time>2014-09-14T07:13:54Z</time>
      </trkpt>
      <trkpt lat="45.40084" lon="4.56826">
        <ele>1156</ele>
        <time>2014-09-14T07:13:57Z</time>
      </trkpt>
      <trkpt lat="45.40086" lon="4.56835">
        <ele>1155</ele>
        <time>2014-09-14T07:14:00Z</time>
      </trkpt>
      <trkpt lat="45.40088" lon="4.56841">
        <ele>1155</ele>
        <time>2014-09-14T07:14:02Z</time>
      </trkpt>
      <trkpt lat="45.40091" lon="4.56852">
        <ele>1155</ele>
        <time>2014-09-14T07:14:05Z</time>
      </trkpt>
      <trkpt lat="45.40094" lon="4.56863">
        <ele>1154</ele>
        <time>2014-09-14T07:14:08Z</time>
      </trkpt>
      <trkpt lat="45.40097" lon="4.56871">
        <ele>1153</ele>
        <time>2014-09-14T07:14:10Z</time>
      </trkpt>
      <trkpt lat="45.40102" lon="4.56878">
        <ele>1153</ele>
        <time>2014-09-14T07:14:12Z</time>
      </trkpt>
      <trkpt lat="45.40109" lon="4.5689">
        <ele>1152</ele>
        <time>2014-09-14T07:14:15Z</time>
      </trkpt>
      <trkpt lat="45.40115" lon="4.56902">
        <ele>1150</ele>
        <time>2014-09-14T07:14:18Z</time>
      </trkpt>
      <trkpt lat="45.4012" lon="4.56915">
        <ele>1150</ele>
        <time>2014-09-14T07:14:21Z</time>
      </trkpt>
      <trkpt lat="45.40123" lon="4.56927">
        <ele>1149</ele>
        <time>2014-09-14T07:14:24Z</time>
      </trkpt>
      <trkpt lat="45.40127" lon="4.56938">
        <ele>1149</ele>
        <time>2014-09-14T07:14:27Z</time>
      </trkpt>
      <trkpt lat="45.40131" lon="4.56948">
        <ele>1148</ele>
        <time>2014-09-14T07:14:30Z</time>
      </trkpt>
      <trkpt lat="45.40133" lon="4.56955">
        <ele>1147</ele>
        <time>2014-09-14T07:14:32Z</time>
      </trkpt>
      <trkpt lat="45.40134" lon="4.56962">
        <ele>1147</ele>
        <time>2014-09-14T07:14:34Z</time>
      </trkpt>
      <trkpt lat="45.40138" lon="4.56973">
        <ele>1146</ele>
        <time>2014-09-14T07:14:37Z</time>
      </trkpt>
      <trkpt lat="45.40142" lon="4.56985">
        <ele>1146</ele>
        <time>2014-09-14T07:14:40Z</time>
      </trkpt>
      <trkpt lat="45.40148" lon="4.56995">
        <ele>1145</ele>
        <time>2014-09-14T07:14:43Z</time>
      </trkpt>
      <trkpt lat="45.40153" lon="4.57003">
        <ele>1145</ele>
        <time>2014-09-14T07:14:46Z</time>
      </trkpt>
      <trkpt lat="45.40157" lon="4.5701">
        <ele>1144</ele>
        <time>2014-09-14T07:14:48Z</time>
      </trkpt>
      <trkpt lat="45.4016" lon="4.57014">
        <ele>1144</ele>
        <time>2014-09-14T07:14:50Z</time>
      </trkpt>
      <trkpt lat="45.40166" lon="4.57022">
        <ele>1144</ele>
        <time>2014-09-14T07:14:53Z</time>
      </trkpt>
      <trkpt lat="45.40171" lon="4.57029">
        <ele>1143</ele>
        <time>2014-09-14T07:14:56Z</time>
      </trkpt>
      <trkpt lat="45.40174" lon="4.57034">
        <ele>1143</ele>
        <time>2014-09-14T07:14:58Z</time>
      </trkpt>
      <trkpt lat="45.40178" lon="4.57041">
        <ele>1143</ele>
        <time>2014-09-14T07:15:01Z</time>
      </trkpt>
      <trkpt lat="45.40181" lon="4.57044">
        <ele>1143</ele>
        <time>2014-09-14T07:15:03Z</time>
      </trkpt>
      <trkpt lat="45.40186" lon="4.5705">
        <ele>1141</ele>
        <time>2014-09-14T07:15:06Z</time>
      </trkpt>
      <trkpt lat="45.40189" lon="4.57054">
        <ele>1140</ele>
        <time>2014-09-14T07:15:08Z</time>
      </trkpt>
      <trkpt lat="45.40193" lon="4.57059">
        <ele>1140</ele>
        <time>2014-09-14T07:15:11Z</time>
      </trkpt>
      <trkpt lat="45.40197" lon="4.57069">
        <ele>1140</ele>
        <time>2014-09-14T07:15:14Z</time>
      </trkpt>
      <trkpt lat="45.40197" lon="4.57074">
        <ele>1140</ele>
        <time>2014-09-14T07:15:16Z</time>
      </trkpt>
      <trkpt lat="45.40192" lon="4.57077">
        <ele>1140</ele>
        <time>2014-09-14T07:15:19Z</time>
      </trkpt>
      <trkpt lat="45.40191" lon="4.57078">
        <ele>1140</ele>
        <time>2014-09-14T07:15:22Z</time>
      </trkpt>
      <trkpt lat="45.40187" lon="4.5708">
        <ele>1141</ele>
        <time>2014-09-14T07:15:25Z</time>
      </trkpt>
      <trkpt lat="45.40183" lon="4.57082">
        <ele>1141</ele>
        <time>2014-09-14T07:15:28Z</time>
      </trkpt>
      <trkpt lat="45.40181" lon="4.57084">
        <ele>1142</ele>
        <time>2014-09-14T07:15:30Z</time>
      </trkpt>
      <trkpt lat="45.40177" lon="4.57085">
        <ele>1143</ele>
        <time>2014-09-14T07:15:33Z</time>
      </trkpt>
      <trkpt lat="45.40172" lon="4.57087">
        <ele>1144</ele>
        <time>2014-09-14T07:15:36Z</time>
      </trkpt>
      <trkpt lat="45.40168" lon="4.57089">
        <ele>1144</ele>
        <time>2014-09-14T07:15:39Z</time>
      </trkpt>
      <trkpt lat="45.40164" lon="4.57091">
        <ele>1145</ele>
        <time>2014-09-14T07:15:42Z</time>
      </trkpt>
      <trkpt lat="45.4016" lon="4.57092">
        <ele>1146</ele>
        <time>2014-09-14T07:15:45Z</time>
      </trkpt>
      <trkpt lat="45.4016" lon="4.57092">
        <ele>1146</ele>
        <time>2014-09-14T07:15:47Z</time>
      </trkpt>
      <trkpt lat="45.40158" lon="4.57092">
        <ele>1147</ele>
        <time>2014-09-14T07:15:50Z</time>
      </trkpt>
      <trkpt lat="45.40156" lon="4.57093">
        <ele>1147</ele>
        <time>2014-09-14T07:15:52Z</time>
      </trkpt>
      <trkpt lat="45.40155" lon="4.57093">
        <ele>1148</ele>
        <time>2014-09-14T07:15:54Z</time>
      </trkpt>
      <trkpt lat="45.40151" lon="4.57093">
        <ele>1149</ele>
        <time>2014-09-14T07:15:57Z</time>
      </trkpt>
      <trkpt lat="45.40149" lon="4.57093">
        <ele>1149</ele>
        <time>2014-09-14T07:15:59Z</time>
      </trkpt>
      <trkpt lat="45.40145" lon="4.57094">
        <ele>1150</ele>
        <time>2014-09-14T07:16:02Z</time>
      </trkpt>
      <trkpt lat="45.40143" lon="4.57094">
        <ele>1150</ele>
        <time>2014-09-14T07:16:04Z</time>
      </trkpt>
      <trkpt lat="45.40142" lon="4.57093">
        <ele>1151</ele>
        <time>2014-09-14T07:16:07Z</time>
      </trkpt>
      <trkpt lat="45.40141" lon="4.57094">
        <ele>1151</ele>
        <time>2014-09-14T07:16:10Z</time>
      </trkpt>
      <trkpt lat="45.4014" lon="4.57095">
        <ele>1152</ele>
        <time>2014-09-14T07:16:12Z</time>
      </trkpt>
      <trkpt lat="45.40137" lon="4.57096">
        <ele>1153</ele>
        <time>2014-09-14T07:16:15Z</time>
      </trkpt>
      <trkpt lat="45.40134" lon="4.57097">
        <ele>1153</ele>
        <time>2014-09-14T07:16:17Z</time>
      </trkpt>
      <trkpt lat="45.40133" lon="4.57097">
        <ele>1153</ele>
        <time>2014-09-14T07:16:19Z</time>
      </trkpt>
      <trkpt lat="45.4013" lon="4.57098">
        <ele>1153</ele>
        <time>2014-09-14T07:16:21Z</time>
      </trkpt>
      <trkpt lat="45.40127" lon="4.57098">
        <ele>1153</ele>
        <time>2014-09-14T07:16:24Z</time>
      </trkpt>
      <trkpt lat="45.40124" lon="4.57098">
        <ele>1154</ele>
        <time>2014-09-14T07:16:26Z</time>
      </trkpt>
      <trkpt lat="45.4012" lon="4.57099">
        <ele>1155</ele>
        <time>2014-09-14T07:16:29Z</time>
      </trkpt>
      <trkpt lat="45.40116" lon="4.571">
        <ele>1155</ele>
        <time>2014-09-14T07:16:32Z</time>
      </trkpt>
      <trkpt lat="45.40113" lon="4.571">
        <ele>1156</ele>
        <time>2014-09-14T07:16:34Z</time>
      </trkpt>
      <trkpt lat="45.4011" lon="4.571">
        <ele>1156</ele>
        <time>2014-09-14T07:16:37Z</time>
      </trkpt>
      <trkpt lat="45.40109" lon="4.57099">
        <ele>1157</ele>
        <time>2014-09-14T07:16:40Z</time>
      </trkpt>
      <trkpt lat="45.40108" lon="4.57099">
        <ele>1157</ele>
        <time>2014-09-14T07:16:43Z</time>
      </trkpt>
      <trkpt lat="45.40105" lon="4.57101">
        <ele>1158</ele>
        <time>2014-09-14T07:16:46Z</time>
      </trkpt>
      <trkpt lat="45.40103" lon="4.57101">
        <ele>1158</ele>
        <time>2014-09-14T07:16:48Z</time>
      </trkpt>
      <trkpt lat="45.40101" lon="4.57101">
        <ele>1159</ele>
        <time>2014-09-14T07:16:50Z</time>
      </trkpt>
      <trkpt lat="45.40097" lon="4.57101">
        <ele>1159</ele>
        <time>2014-09-14T07:16:53Z</time>
      </trkpt>
      <trkpt lat="45.40095" lon="4.57101">
        <ele>1160</ele>
        <time>2014-09-14T07:16:55Z</time>
      </trkpt>
      <trkpt lat="45.40093" lon="4.57101">
        <ele>1160</ele>
        <time>2014-09-14T07:16:57Z</time>
      </trkpt>
      <trkpt lat="45.4009" lon="4.57102">
        <ele>1161</ele>
        <time>2014-09-14T07:17:00Z</time>
      </trkpt>
      <trkpt lat="45.40088" lon="4.57103">
        <ele>1162</ele>
        <time>2014-09-14T07:17:02Z</time>
      </trkpt>
      <trkpt lat="45.40086" lon="4.57104">
        <ele>1162</ele>
        <time>2014-09-14T07:17:05Z</time>
      </trkpt>
      <trkpt lat="45.40083" lon="4.57104">
        <ele>1163</ele>
        <time>2014-09-14T07:17:07Z</time>
      </trkpt>
      <trkpt lat="45.4008" lon="4.57104">
        <ele>1163</ele>
        <time>2014-09-14T07:17:10Z</time>
      </trkpt>
      <trkpt lat="45.40078" lon="4.57104">
        <ele>1163</ele>
        <time>2014-09-14T07:17:12Z</time>
      </trkpt>
      <trkpt lat="45.40075" lon="4.57104">
        <ele>1164</ele>
        <time>2014-09-14T07:17:15Z</time>
      </trkpt>
      <trkpt lat="45.40075" lon="4.57105">
        <ele>1164</ele>
        <time>2014-09-14T07:17:17Z</time>
      </trkpt>
      <trkpt lat="45.40073" lon="4.57106">
        <ele>1165</ele>
        <time>2014-09-14T07:17:20Z</time>
      </trkpt>
      <trkpt lat="45.4007" lon="4.57106">
        <ele>1166</ele>
        <time>2014-09-14T07:17:23Z</time>
      </trkpt>
      <trkpt lat="45.40068" lon="4.57107">
        <ele>1166</ele>
        <time>2014-09-14T07:17:25Z</time>
      </trkpt>
      <trkpt lat="45.40066" lon="4.57107">
        <ele>1166</ele>
        <time>2014-09-14T07:17:27Z</time>
      </trkpt>
      <trkpt lat="45.40064" lon="4.57108">
        <ele>1167</ele>
        <time>2014-09-14T07:17:29Z</time>
      </trkpt>
      <trkpt lat="45.40061" lon="4.57107">
        <ele>1167</ele>
        <time>2014-09-14T07:17:32Z</time>
      </trkpt>
      <trkpt lat="45.40058" lon="4.57105">
        <ele>1168</ele>
        <time>2014-09-14T07:17:35Z</time>
      </trkpt>
      <trkpt lat="45.40054" lon="4.57103">
        <ele>1168</ele>
        <time>2014-09-14T07:17:38Z</time>
      </trkpt>
      <trkpt lat="45.40052" lon="4.57103">
        <ele>1169</ele>
        <time>2014-09-14T07:17:40Z</time>
      </trkpt>
      <trkpt lat="45.40049" lon="4.57103">
        <ele>1169</ele>
        <time>2014-09-14T07:17:42Z</time>
      </trkpt>
      <trkpt lat="45.40046" lon="4.57103">
        <ele>1170</ele>
        <time>2014-09-14T07:17:44Z</time>
      </trkpt>
      <trkpt lat="45.40043" lon="4.57103">
        <ele>1170</ele>
        <time>2014-09-14T07:17:46Z</time>
      </trkpt>
      <trkpt lat="45.4004" lon="4.57103">
        <ele>1171</ele>
        <time>2014-09-14T07:17:49Z</time>
      </trkpt>
      <trkpt lat="45.40037" lon="4.57104">
        <ele>1172</ele>
        <time>2014-09-14T07:17:51Z</time>
      </trkpt>
      <trkpt lat="45.40035" lon="4.57104">
        <ele>1172</ele>
        <time>2014-09-14T07:17:53Z</time>
      </trkpt>
      <trkpt lat="45.40033" lon="4.57104">
        <ele>1173</ele>
        <time>2014-09-14T07:17:55Z</time>
      </trkpt>
      <trkpt lat="45.40031" lon="4.57103">
        <ele>1173</ele>
        <time>2014-09-14T07:17:57Z</time>
      </trkpt>
      <trkpt lat="45.40026" lon="4.57102">
        <ele>1173</ele>
        <time>2014-09-14T07:18:00Z</time>
      </trkpt>
      <trkpt lat="45.40023" lon="4.57101">
        <ele>1174</ele>
        <time>2014-09-14T07:18:03Z</time>
      </trkpt>
      <trkpt lat="45.4002" lon="4.571">
        <ele>1174</ele>
        <time>2014-09-14T07:18:05Z</time>
      </trkpt>
      <trkpt lat="45.40016" lon="4.57098">
        <ele>1175</ele>
        <time>2014-09-14T07:18:08Z</time>
      </trkpt>
      <trkpt lat="45.40014" lon="4.57097">
        <ele>1175</ele>
        <time>2014-09-14T07:18:10Z</time>
      </trkpt>
      <trkpt lat="45.40011" lon="4.57096">
        <ele>1176</ele>
        <time>2014-09-14T07:18:13Z</time>
      </trkpt>
      <trkpt lat="45.40009" lon="4.57095">
        <ele>1176</ele>
        <time>2014-09-14T07:18:15Z</time>
      </trkpt>
      <trkpt lat="45.40007" lon="4.57095">
        <ele>1177</ele>
        <time>2014-09-14T07:18:17Z</time>
      </trkpt>
      <trkpt lat="45.40005" lon="4.57095">
        <ele>1177</ele>
        <time>2014-09-14T07:18:19Z</time>
      </trkpt>
      <trkpt lat="45.40002" lon="4.57095">
        <ele>1177</ele>
        <time>2014-09-14T07:18:21Z</time>
      </trkpt>
      <trkpt lat="45.4" lon="4.57094">
        <ele>1178</ele>
        <time>2014-09-14T07:18:24Z</time>
      </trkpt>
      <trkpt lat="45.39998" lon="4.57094">
        <ele>1178</ele>
        <time>2014-09-14T07:18:27Z</time>
      </trkpt>
      <trkpt lat="45.39996" lon="4.57094">
        <ele>1179</ele>
        <time>2014-09-14T07:18:29Z</time>
      </trkpt>
      <trkpt lat="45.39993" lon="4.57094">
        <ele>1180</ele>
        <time>2014-09-14T07:18:32Z</time>
      </trkpt>
      <trkpt lat="45.39991" lon="4.57094">
        <ele>1180</ele>
        <time>2014-09-14T07:18:34Z</time>
      </trkpt>
      <trkpt lat="45.39988" lon="4.57094">
        <ele>1180</ele>
        <time>2014-09-14T07:18:37Z</time>
      </trkpt>
      <trkpt lat="45.39987" lon="4.57095">
        <ele>1180</ele>
        <time>2014-09-14T07:18:39Z</time>
      </trkpt>
      <trkpt lat="45.39984" lon="4.57095">
        <ele>1181</ele>
        <time>2014-09-14T07:18:42Z</time>
      </trkpt>
      <trkpt lat="45.39981" lon="4.57094">
        <ele>1182</ele>
        <time>2014-09-14T07:18:45Z</time>
      </trkpt>
      <trkpt lat="45.3998" lon="4.57093">
        <ele>1182</ele>
        <time>2014-09-14T07:18:47Z</time>
      </trkpt>
      <trkpt lat="45.39977" lon="4.57093">
        <ele>1182</ele>
        <time>2014-09-14T07:18:50Z</time>
      </trkpt>
      <trkpt lat="45.39975" lon="4.57093">
        <ele>1183</ele>
        <time>2014-09-14T07:18:52Z</time>
      </trkpt>
      <trkpt lat="45.39972" lon="4.57093">
        <ele>1183</ele>
        <time>2014-09-14T07:18:55Z</time>
      </trkpt>
      <trkpt lat="45.39969" lon="4.57094">
        <ele>1184</ele>
        <time>2014-09-14T07:18:57Z</time>
      </trkpt>
      <trkpt lat="45.39966" lon="4.57094">
        <ele>1185</ele>
        <time>2014-09-14T07:19:00Z</time>
      </trkpt>
      <trkpt lat="45.39962" lon="4.57094">
        <ele>1185</ele>
        <time>2014-09-14T07:19:03Z</time>
      </trkpt>
      <trkpt lat="45.39958" lon="4.57096">
        <ele>1185</ele>
        <time>2014-09-14T07:19:06Z</time>
      </trkpt>
      <trkpt lat="45.39955" lon="4.57097">
        <ele>1186</ele>
        <time>2014-09-14T07:19:09Z</time>
      </trkpt>
      <trkpt lat="45.39953" lon="4.57098">
        <ele>1186</ele>
        <time>2014-09-14T07:19:11Z</time>
      </trkpt>
      <trkpt lat="45.39951" lon="4.57098">
        <ele>1187</ele>
        <time>2014-09-14T07:19:13Z</time>
      </trkpt>
      <trkpt lat="45.39949" lon="4.57098">
        <ele>1187</ele>
        <time>2014-09-14T07:19:15Z</time>
      </trkpt>
      <trkpt lat="45.39945" lon="4.571">
        <ele>1188</ele>
        <time>2014-09-14T07:19:18Z</time>
      </trkpt>
      <trkpt lat="45.39943" lon="4.57101">
        <ele>1188</ele>
        <time>2014-09-14T07:19:20Z</time>
      </trkpt>
      <trkpt lat="45.3994" lon="4.57102">
        <ele>1188</ele>
        <time>2014-09-14T07:19:23Z</time>
      </trkpt>
      <trkpt lat="45.39936" lon="4.57103">
        <ele>1188</ele>
        <time>2014-09-14T07:19:26Z</time>
      </trkpt>
      <trkpt lat="45.39935" lon="4.57103">
        <ele>1189</ele>
        <time>2014-09-14T07:19:28Z</time>
      </trkpt>
      <trkpt lat="45.39931" lon="4.57105">
        <ele>1189</ele>
        <time>2014-09-14T07:19:31Z</time>
      </trkpt>
      <trkpt lat="45.39928" lon="4.57107">
        <ele>1190</ele>
        <time>2014-09-14T07:19:33Z</time>
      </trkpt>
      <trkpt lat="45.39925" lon="4.57108">
        <ele>1190</ele>
        <time>2014-09-14T07:19:35Z</time>
      </trkpt>
      <trkpt lat="45.39922" lon="4.5711">
        <ele>1190</ele>
        <time>2014-09-14T07:19:37Z</time>
      </trkpt>
      <trkpt lat="45.3992" lon="4.57112">
        <ele>1190</ele>
        <time>2014-09-14T07:19:39Z</time>
      </trkpt>
      <trkpt lat="45.39916" lon="4.57114">
        <ele>1191</ele>
        <time>2014-09-14T07:19:41Z</time>
      </trkpt>
      <trkpt lat="45.39911" lon="4.57116">
        <ele>1191</ele>
        <time>2014-09-14T07:19:44Z</time>
      </trkpt>
      <trkpt lat="45.39908" lon="4.57117">
        <ele>1192</ele>
        <time>2014-09-14T07:19:46Z</time>
      </trkpt>
      <trkpt lat="45.39904" lon="4.57119">
        <ele>1192</ele>
        <time>2014-09-14T07:19:49Z</time>
      </trkpt>
      <trkpt lat="45.39901" lon="4.5712">
        <ele>1193</ele>
        <time>2014-09-14T07:19:51Z</time>
      </trkpt>
      <trkpt lat="45.39897" lon="4.57121">
        <ele>1194</ele>
        <time>2014-09-14T07:19:54Z</time>
      </trkpt>
      <trkpt lat="45.39894" lon="4.57122">
        <ele>1194</ele>
        <time>2014-09-14T07:19:56Z</time>
      </trkpt>
      <trkpt lat="45.39891" lon="4.57123">
        <ele>1195</ele>
        <time>2014-09-14T07:19:58Z</time>
      </trkpt>
      <trkpt lat="45.3989" lon="4.57123">
        <ele>1195</ele>
        <time>2014-09-14T07:20:00Z</time>
      </trkpt>
      <trkpt lat="45.39887" lon="4.57122">
        <ele>1196</ele>
        <time>2014-09-14T07:20:03Z</time>
      </trkpt>
      <trkpt lat="45.39885" lon="4.57121">
        <ele>1196</ele>
        <time>2014-09-14T07:20:05Z</time>
      </trkpt>
      <trkpt lat="45.39883" lon="4.57122">
        <ele>1197</ele>
        <time>2014-09-14T07:20:07Z</time>
      </trkpt>
      <trkpt lat="45.39881" lon="4.57122">
        <ele>1198</ele>
        <time>2014-09-14T07:20:09Z</time>
      </trkpt>
      <trkpt lat="45.39879" lon="4.57121">
        <ele>1198</ele>
        <time>2014-09-14T07:20:11Z</time>
      </trkpt>
      <trkpt lat="45.39876" lon="4.57121">
        <ele>1198</ele>
        <time>2014-09-14T07:20:13Z</time>
      </trkpt>
      <trkpt lat="45.39872" lon="4.57121">
        <ele>1198</ele>
        <time>2014-09-14T07:20:15Z</time>
      </trkpt>
      <trkpt lat="45.39868" lon="4.57122">
        <ele>1199</ele>
        <time>2014-09-14T07:20:18Z</time>
      </trkpt>
      <trkpt lat="45.39866" lon="4.57122">
        <ele>1199</ele>
        <time>2014-09-14T07:20:20Z</time>
      </trkpt>
      <trkpt lat="45.39863" lon="4.57122">
        <ele>1199</ele>
        <time>2014-09-14T07:20:23Z</time>
      </trkpt>
      <trkpt lat="45.39862" lon="4.57123">
        <ele>1200</ele>
        <time>2014-09-14T07:20:25Z</time>
      </trkpt>
      <trkpt lat="45.39859" lon="4.57123">
        <ele>1200</ele>
        <time>2014-09-14T07:20:28Z</time>
      </trkpt>
      <trkpt lat="45.39855" lon="4.57124">
        <ele>1201</ele>
        <time>2014-09-14T07:20:31Z</time>
      </trkpt>
      <trkpt lat="45.39853" lon="4.57124">
        <ele>1201</ele>
        <time>2014-09-14T07:20:33Z</time>
      </trkpt>
      <trkpt lat="45.39848" lon="4.57126">
        <ele>1202</ele>
        <time>2014-09-14T07:20:36Z</time>
      </trkpt>
      <trkpt lat="45.39846" lon="4.57126">
        <ele>1203</ele>
        <time>2014-09-14T07:20:38Z</time>
      </trkpt>
      <trkpt lat="45.39842" lon="4.57127">
        <ele>1203</ele>
        <time>2014-09-14T07:20:41Z</time>
      </trkpt>
      <trkpt lat="45.39841" lon="4.57128">
        <ele>1203</ele>
        <time>2014-09-14T07:20:43Z</time>
      </trkpt>
      <trkpt lat="45.39838" lon="4.57129">
        <ele>1203</ele>
        <time>2014-09-14T07:20:46Z</time>
      </trkpt>
      <trkpt lat="45.39835" lon="4.57129">
        <ele>1204</ele>
        <time>2014-09-14T07:20:48Z</time>
      </trkpt>
      <trkpt lat="45.39832" lon="4.57129">
        <ele>1204</ele>
        <time>2014-09-14T07:20:51Z</time>
      </trkpt>
      <trkpt lat="45.3983" lon="4.5713">
        <ele>1205</ele>
        <time>2014-09-14T07:20:53Z</time>
      </trkpt>
      <trkpt lat="45.39827" lon="4.5713">
        <ele>1205</ele>
        <time>2014-09-14T07:20:55Z</time>
      </trkpt>
      <trkpt lat="45.39824" lon="4.57133">
        <ele>1205</ele>
        <time>2014-09-14T07:20:58Z</time>
      </trkpt>
      <trkpt lat="45.39822" lon="4.57134">
        <ele>1206</ele>
        <time>2014-09-14T07:21:00Z</time>
      </trkpt>
      <trkpt lat="45.39821" lon="4.57134">
        <ele>1206</ele>
        <time>2014-09-14T07:21:02Z</time>
      </trkpt>
      <trkpt lat="45.39819" lon="4.57134">
        <ele>1207</ele>
        <time>2014-09-14T07:21:04Z</time>
      </trkpt>
      <trkpt lat="45.39816" lon="4.57134">
        <ele>1207</ele>
        <time>2014-09-14T07:21:07Z</time>
      </trkpt>
      <trkpt lat="45.39812" lon="4.57134">
        <ele>1207</ele>
        <time>2014-09-14T07:21:10Z</time>
      </trkpt>
      <trkpt lat="45.39809" lon="4.57134">
        <ele>1208</ele>
        <time>2014-09-14T07:21:12Z</time>
      </trkpt>
      <trkpt lat="45.39807" lon="4.57134">
        <ele>1208</ele>
        <time>2014-09-14T07:21:14Z</time>
      </trkpt>
      <trkpt lat="45.39804" lon="4.57135">
        <ele>1209</ele>
        <time>2014-09-14T07:21:17Z</time>
      </trkpt>
      <trkpt lat="45.39802" lon="4.57136">
        <ele>1209</ele>
        <time>2014-09-14T07:21:19Z</time>
      </trkpt>
      <trkpt lat="45.398" lon="4.57135">
        <ele>1210</ele>
        <time>2014-09-14T07:21:21Z</time>
      </trkpt>
      <trkpt lat="45.39796" lon="4.57135">
        <ele>1210</ele>
        <time>2014-09-14T07:21:24Z</time>
      </trkpt>
      <trkpt lat="45.39795" lon="4.57136">
        <ele>1210</ele>
        <time>2014-09-14T07:21:26Z</time>
      </trkpt>
      <trkpt lat="45.39792" lon="4.57135">
        <ele>1211</ele>
        <time>2014-09-14T07:21:29Z</time>
      </trkpt>
      <trkpt lat="45.3979" lon="4.57135">
        <ele>1211</ele>
        <time>2014-09-14T07:21:31Z</time>
      </trkpt>
      <trkpt lat="45.39787" lon="4.57135">
        <ele>1212</ele>
        <time>2014-09-14T07:21:33Z</time>
      </trkpt>
      <trkpt lat="45.39785" lon="4.57135">
        <ele>1213</ele>
        <time>2014-09-14T07:21:35Z</time>
      </trkpt>
      <trkpt lat="45.39783" lon="4.57136">
        <ele>1213</ele>
        <time>2014-09-14T07:21:37Z</time>
      </trkpt>
      <trkpt lat="45.3978" lon="4.57135">
        <ele>1214</ele>
        <time>2014-09-14T07:21:39Z</time>
      </trkpt>
      <trkpt lat="45.39777" lon="4.57135">
        <ele>1214</ele>
        <time>2014-09-14T07:21:42Z</time>
      </trkpt>
      <trkpt lat="45.39772" lon="4.57138">
        <ele>1214</ele>
        <time>2014-09-14T07:21:45Z</time>
      </trkpt>
      <trkpt lat="45.39769" lon="4.57139">
        <ele>1214</ele>
        <time>2014-09-14T07:21:47Z</time>
      </trkpt>
      <trkpt lat="45.39765" lon="4.57142">
        <ele>1215</ele>
        <time>2014-09-14T07:21:49Z</time>
      </trkpt>
      <trkpt lat="45.39761" lon="4.57144">
        <ele>1215</ele>
        <time>2014-09-14T07:21:51Z</time>
      </trkpt>
      <trkpt lat="45.39758" lon="4.57146">
        <ele>1215</ele>
        <time>2014-09-14T07:21:53Z</time>
      </trkpt>
      <trkpt lat="45.39753" lon="4.5715">
        <ele>1216</ele>
        <time>2014-09-14T07:21:56Z</time>
      </trkpt>
      <trkpt lat="45.3975" lon="4.57152">
        <ele>1216</ele>
        <time>2014-09-14T07:21:58Z</time>
      </trkpt>
      <trkpt lat="45.39745" lon="4.57156">
        <ele>1216</ele>
        <time>2014-09-14T07:22:01Z</time>
      </trkpt>
      <trkpt lat="45.39741" lon="4.5716">
        <ele>1217</ele>
        <time>2014-09-14T07:22:04Z</time>
      </trkpt>
      <trkpt lat="45.39737" lon="4.57163">
        <ele>1217</ele>
        <time>2014-09-14T07:22:06Z</time>
      </trkpt>
      <trkpt lat="45.39734" lon="4.57164">
        <ele>1218</ele>
        <time>2014-09-14T07:22:08Z</time>
      </trkpt>
      <trkpt lat="45.39732" lon="4.57165">
        <ele>1218</ele>
        <time>2014-09-14T07:22:10Z</time>
      </trkpt>
      <trkpt lat="45.39728" lon="4.57165">
        <ele>1219</ele>
        <time>2014-09-14T07:22:13Z</time>
      </trkpt>
      <trkpt lat="45.39723" lon="4.57166">
        <ele>1220</ele>
        <time>2014-09-14T07:22:16Z</time>
      </trkpt>
      <trkpt lat="45.3972" lon="4.57166">
        <ele>1220</ele>
        <time>2014-09-14T07:22:18Z</time>
      </trkpt>
      <trkpt lat="45.39717" lon="4.57165">
        <ele>1220</ele>
        <time>2014-09-14T07:22:20Z</time>
      </trkpt>
      <trkpt lat="45.39711" lon="4.57165">
        <ele>1221</ele>
        <time>2014-09-14T07:22:23Z</time>
      </trkpt>
      <trkpt lat="45.39705" lon="4.57164">
        <ele>1221</ele>
        <time>2014-09-14T07:22:26Z</time>
      </trkpt>
      <trkpt lat="45.397" lon="4.57161">
        <ele>1222</ele>
        <time>2014-09-14T07:22:29Z</time>
      </trkpt>
      <trkpt lat="45.39697" lon="4.5716">
        <ele>1222</ele>
        <time>2014-09-14T07:22:31Z</time>
      </trkpt>
      <trkpt lat="45.39693" lon="4.57158">
        <ele>1222</ele>
        <time>2014-09-14T07:22:33Z</time>
      </trkpt>
      <trkpt lat="45.39688" lon="4.57157">
        <ele>1222</ele>
        <time>2014-09-14T07:22:36Z</time>
      </trkpt>
      <trkpt lat="45.39682" lon="4.57155">
        <ele>1223</ele>
        <time>2014-09-14T07:22:39Z</time>
      </trkpt>
      <trkpt lat="45.39679" lon="4.57155">
        <ele>1223</ele>
        <time>2014-09-14T07:22:41Z</time>
      </trkpt>
      <trkpt lat="45.39676" lon="4.57154">
        <ele>1224</ele>
        <time>2014-09-14T07:22:43Z</time>
      </trkpt>
      <trkpt lat="45.39672" lon="4.57153">
        <ele>1224</ele>
        <time>2014-09-14T07:22:45Z</time>
      </trkpt>
      <trkpt lat="45.39669" lon="4.57153">
        <ele>1224</ele>
        <time>2014-09-14T07:22:47Z</time>
      </trkpt>
      <trkpt lat="45.39666" lon="4.57153">
        <ele>1224</ele>
        <time>2014-09-14T07:22:49Z</time>
      </trkpt>
      <trkpt lat="45.39661" lon="4.57152">
        <ele>1224</ele>
        <time>2014-09-14T07:22:52Z</time>
      </trkpt>
      <trkpt lat="45.39655" lon="4.57152">
        <ele>1225</ele>
        <time>2014-09-14T07:22:55Z</time>
      </trkpt>
      <trkpt lat="45.3965" lon="4.57152">
        <ele>1225</ele>
        <time>2014-09-14T07:22:57Z</time>
      </trkpt>
      <trkpt lat="45.39646" lon="4.57152">
        <ele>1225</ele>
        <time>2014-09-14T07:23:00Z</time>
      </trkpt>
      <trkpt lat="45.39643" lon="4.57152">
        <ele>1226</ele>
        <time>2014-09-14T07:23:02Z</time>
      </trkpt>
      <trkpt lat="45.39638" lon="4.5715">
        <ele>1226</ele>
        <time>2014-09-14T07:23:05Z</time>
      </trkpt>
      <trkpt lat="45.39634" lon="4.57149">
        <ele>1227</ele>
        <time>2014-09-14T07:23:08Z</time>
      </trkpt>
      <trkpt lat="45.39629" lon="4.57149">
        <ele>1227</ele>
        <time>2014-09-14T07:23:11Z</time>
      </trkpt>
      <trkpt lat="45.39624" lon="4.57148">
        <ele>1228</ele>
        <time>2014-09-14T07:23:13Z</time>
      </trkpt>
      <trkpt lat="45.39621" lon="4.57148">
        <ele>1228</ele>
        <time>2014-09-14T07:23:15Z</time>
      </trkpt>
      <trkpt lat="45.39617" lon="4.57148">
        <ele>1228</ele>
        <time>2014-09-14T07:23:17Z</time>
      </trkpt>
      <trkpt lat="45.3961" lon="4.57149">
        <ele>1228</ele>
        <time>2014-09-14T07:23:20Z</time>
      </trkpt>
      <trkpt lat="45.39606" lon="4.57149">
        <ele>1228</ele>
        <time>2014-09-14T07:23:22Z</time>
      </trkpt>
      <trkpt lat="45.39601" lon="4.57149">
        <ele>1228</ele>
        <time>2014-09-14T07:23:25Z</time>
      </trkpt>
      <trkpt lat="45.39598" lon="4.57149">
        <ele>1229</ele>
        <time>2014-09-14T07:23:27Z</time>
      </trkpt>
      <trkpt lat="45.39594" lon="4.57149">
        <ele>1229</ele>
        <time>2014-09-14T07:23:29Z</time>
      </trkpt>
      <trkpt lat="45.39588" lon="4.5715">
        <ele>1229</ele>
        <time>2014-09-14T07:23:32Z</time>
      </trkpt>
      <trkpt lat="45.39584" lon="4.57148">
        <ele>1229</ele>
        <time>2014-09-14T07:23:35Z</time>
      </trkpt>
      <trkpt lat="45.39582" lon="4.57147">
        <ele>1229</ele>
        <time>2014-09-14T07:23:37Z</time>
      </trkpt>
      <trkpt lat="45.39579" lon="4.57144">
        <ele>1230</ele>
        <time>2014-09-14T07:23:40Z</time>
      </trkpt>
      <trkpt lat="45.39574" lon="4.57145">
        <ele>1230</ele>
        <time>2014-09-14T07:23:43Z</time>
      </trkpt>
      <trkpt lat="45.3957" lon="4.57146">
        <ele>1230</ele>
        <time>2014-09-14T07:23:45Z</time>
      </trkpt>
      <trkpt lat="45.39568" lon="4.57147">
        <ele>1230</ele>
        <time>2014-09-14T07:23:47Z</time>
      </trkpt>
      <trkpt lat="45.39566" lon="4.57148">
        <ele>1231</ele>
        <time>2014-09-14T07:23:49Z</time>
      </trkpt>
      <trkpt lat="45.39561" lon="4.57149">
        <ele>1231</ele>
        <time>2014-09-14T07:23:52Z</time>
      </trkpt>
      <trkpt lat="45.39556" lon="4.5715">
        <ele>1231</ele>
        <time>2014-09-14T07:23:54Z</time>
      </trkpt>
      <trkpt lat="45.39552" lon="4.57152">
        <ele>1232</ele>
        <time>2014-09-14T07:23:56Z</time>
      </trkpt>
      <trkpt lat="45.39548" lon="4.57154">
        <ele>1232</ele>
        <time>2014-09-14T07:23:58Z</time>
      </trkpt>
      <trkpt lat="45.39542" lon="4.57154">
        <ele>1232</ele>
        <time>2014-09-14T07:24:01Z</time>
      </trkpt>
      <trkpt lat="45.39537" lon="4.57155">
        <ele>1232</ele>
        <time>2014-09-14T07:24:04Z</time>
      </trkpt>
      <trkpt lat="45.39532" lon="4.57157">
        <ele>1233</ele>
        <time>2014-09-14T07:24:06Z</time>
      </trkpt>
      <trkpt lat="45.39529" lon="4.57159">
        <ele>1233</ele>
        <time>2014-09-14T07:24:08Z</time>
      </trkpt>
      <trkpt lat="45.39527" lon="4.5716">
        <ele>1233</ele>
        <time>2014-09-14T07:24:10Z</time>
      </trkpt>
      <trkpt lat="45.39522" lon="4.57161">
        <ele>1234</ele>
        <time>2014-09-14T07:24:12Z</time>
      </trkpt>
      <trkpt lat="45.39516" lon="4.57164">
        <ele>1234</ele>
        <time>2014-09-14T07:24:15Z</time>
      </trkpt>
      <trkpt lat="45.39512" lon="4.57165">
        <ele>1234</ele>
        <time>2014-09-14T07:24:17Z</time>
      </trkpt>
      <trkpt lat="45.39508" lon="4.57166">
        <ele>1234</ele>
        <time>2014-09-14T07:24:20Z</time>
      </trkpt>
      <trkpt lat="45.39506" lon="4.57167">
        <ele>1235</ele>
        <time>2014-09-14T07:24:22Z</time>
      </trkpt>
      <trkpt lat="45.39503" lon="4.57167">
        <ele>1235</ele>
        <time>2014-09-14T07:24:24Z</time>
      </trkpt>
      <trkpt lat="45.39499" lon="4.57168">
        <ele>1236</ele>
        <time>2014-09-14T07:24:27Z</time>
      </trkpt>
      <trkpt lat="45.39495" lon="4.57169">
        <ele>1236</ele>
        <time>2014-09-14T07:24:29Z</time>
      </trkpt>
      <trkpt lat="45.39489" lon="4.57171">
        <ele>1236</ele>
        <time>2014-09-14T07:24:32Z</time>
      </trkpt>
      <trkpt lat="45.39485" lon="4.57172">
        <ele>1237</ele>
        <time>2014-09-14T07:24:34Z</time>
      </trkpt>
      <trkpt lat="45.39478" lon="4.57173">
        <ele>1237</ele>
        <time>2014-09-14T07:24:37Z</time>
      </trkpt>
      <trkpt lat="45.39475" lon="4.57174">
        <ele>1238</ele>
        <time>2014-09-14T07:24:39Z</time>
      </trkpt>
      <trkpt lat="45.39473" lon="4.57174">
        <ele>1238</ele>
        <time>2014-09-14T07:24:41Z</time>
      </trkpt>
      <trkpt lat="45.39467" lon="4.57174">
        <ele>1238</ele>
        <time>2014-09-14T07:24:44Z</time>
      </trkpt>
      <trkpt lat="45.39463" lon="4.57175">
        <ele>1239</ele>
        <time>2014-09-14T07:24:47Z</time>
      </trkpt>
      <trkpt lat="45.3946" lon="4.57175">
        <ele>1239</ele>
        <time>2014-09-14T07:24:49Z</time>
      </trkpt>
      <trkpt lat="45.39456" lon="4.57174">
        <ele>1240</ele>
        <time>2014-09-14T07:24:52Z</time>
      </trkpt>
      <trkpt lat="45.39453" lon="4.57174">
        <ele>1240</ele>
        <time>2014-09-14T07:24:55Z</time>
      </trkpt>
      <trkpt lat="45.39449" lon="4.57174">
        <ele>1240</ele>
        <time>2014-09-14T07:24:58Z</time>
      </trkpt>
      <trkpt lat="45.39445" lon="4.57174">
        <ele>1241</ele>
        <time>2014-09-14T07:25:01Z</time>
      </trkpt>
      <trkpt lat="45.39442" lon="4.57174">
        <ele>1241</ele>
        <time>2014-09-14T07:25:03Z</time>
      </trkpt>
      <trkpt lat="45.39438" lon="4.57175">
        <ele>1242</ele>
        <time>2014-09-14T07:25:06Z</time>
      </trkpt>
      <trkpt lat="45.39435" lon="4.57175">
        <ele>1242</ele>
        <time>2014-09-14T07:25:08Z</time>
      </trkpt>
      <trkpt lat="45.39431" lon="4.57176">
        <ele>1242</ele>
        <time>2014-09-14T07:25:11Z</time>
      </trkpt>
      <trkpt lat="45.39428" lon="4.57177">
        <ele>1242</ele>
        <time>2014-09-14T07:25:13Z</time>
      </trkpt>
      <trkpt lat="45.39424" lon="4.57179">
        <ele>1243</ele>
        <time>2014-09-14T07:25:16Z</time>
      </trkpt>
      <trkpt lat="45.3942" lon="4.5718">
        <ele>1243</ele>
        <time>2014-09-14T07:25:19Z</time>
      </trkpt>
      <trkpt lat="45.39418" lon="4.57182">
        <ele>1243</ele>
        <time>2014-09-14T07:25:21Z</time>
      </trkpt>
      <trkpt lat="45.39415" lon="4.57183">
        <ele>1243</ele>
        <time>2014-09-14T07:25:23Z</time>
      </trkpt>
      <trkpt lat="45.39412" lon="4.57184">
        <ele>1243</ele>
        <time>2014-09-14T07:25:26Z</time>
      </trkpt>
      <trkpt lat="45.3941" lon="4.57186">
        <ele>1243</ele>
        <time>2014-09-14T07:25:28Z</time>
      </trkpt>
      <trkpt lat="45.39409" lon="4.57187">
        <ele>1243</ele>
        <time>2014-09-14T07:25:30Z</time>
      </trkpt>
      <trkpt lat="45.39408" lon="4.57188">
        <ele>1244</ele>
        <time>2014-09-14T07:25:32Z</time>
      </trkpt>
      <trkpt lat="45.39406" lon="4.57189">
        <ele>1244</ele>
        <time>2014-09-14T07:25:34Z</time>
      </trkpt>
      <trkpt lat="45.39405" lon="4.57191">
        <ele>1245</ele>
        <time>2014-09-14T07:25:36Z</time>
      </trkpt>
      <trkpt lat="45.39402" lon="4.57194">
        <ele>1245</ele>
        <time>2014-09-14T07:25:39Z</time>
      </trkpt>
      <trkpt lat="45.394" lon="4.57196">
        <ele>1245</ele>
        <time>2014-09-14T07:25:41Z</time>
      </trkpt>
      <trkpt lat="45.39397" lon="4.57198">
        <ele>1245</ele>
        <time>2014-09-14T07:25:43Z</time>
      </trkpt>
      <trkpt lat="45.39394" lon="4.57201">
        <ele>1246</ele>
        <time>2014-09-14T07:25:46Z</time>
      </trkpt>
      <trkpt lat="45.39392" lon="4.57202">
        <ele>1246</ele>
        <time>2014-09-14T07:25:48Z</time>
      </trkpt>
      <trkpt lat="45.3939" lon="4.57204">
        <ele>1246</ele>
        <time>2014-09-14T07:25:50Z</time>
      </trkpt>
      <trkpt lat="45.39389" lon="4.57206">
        <ele>1247</ele>
        <time>2014-09-14T07:25:52Z</time>
      </trkpt>
      <trkpt lat="45.39386" lon="4.5721">
        <ele>1247</ele>
        <time>2014-09-14T07:25:55Z</time>
      </trkpt>
      <trkpt lat="45.39381" lon="4.57215">
        <ele>1248</ele>
        <time>2014-09-14T07:25:58Z</time>
      </trkpt>
      <trkpt lat="45.39374" lon="4.5722">
        <ele>1248</ele>
        <time>2014-09-14T07:26:01Z</time>
      </trkpt>
      <trkpt lat="45.39369" lon="4.57224">
        <ele>1249</ele>
        <time>2014-09-14T07:26:03Z</time>
      </trkpt>
      <trkpt lat="45.39365" lon="4.57227">
        <ele>1249</ele>
        <time>2014-09-14T07:26:05Z</time>
      </trkpt>
      <trkpt lat="45.39359" lon="4.57232">
        <ele>1249</ele>
        <time>2014-09-14T07:26:08Z</time>
      </trkpt>
      <trkpt lat="45.39354" lon="4.57234">
        <ele>1249</ele>
        <time>2014-09-14T07:26:10Z</time>
      </trkpt>
      <trkpt lat="45.39349" lon="4.57238">
        <ele>1250</ele>
        <time>2014-09-14T07:26:13Z</time>
      </trkpt>
      <trkpt lat="45.39342" lon="4.57243">
        <ele>1250</ele>
        <time>2014-09-14T07:26:16Z</time>
      </trkpt>
      <trkpt lat="45.39339" lon="4.57245">
        <ele>1251</ele>
        <time>2014-09-14T07:26:18Z</time>
      </trkpt>
      <trkpt lat="45.39332" lon="4.5725">
        <ele>1251</ele>
        <time>2014-09-14T07:26:21Z</time>
      </trkpt>
      <trkpt lat="45.39326" lon="4.57254">
        <ele>1252</ele>
        <time>2014-09-14T07:26:24Z</time>
      </trkpt>
      <trkpt lat="45.3932" lon="4.57258">
        <ele>1252</ele>
        <time>2014-09-14T07:26:27Z</time>
      </trkpt>
      <trkpt lat="45.39313" lon="4.57262">
        <ele>1252</ele>
        <time>2014-09-14T07:26:30Z</time>
      </trkpt>
      <trkpt lat="45.39309" lon="4.57264">
        <ele>1252</ele>
        <time>2014-09-14T07:26:32Z</time>
      </trkpt>
      <trkpt lat="45.39302" lon="4.57268">
        <ele>1253</ele>
        <time>2014-09-14T07:26:35Z</time>
      </trkpt>
      <trkpt lat="45.39296" lon="4.57272">
        <ele>1253</ele>
        <time>2014-09-14T07:26:38Z</time>
      </trkpt>
      <trkpt lat="45.39291" lon="4.57275">
        <ele>1253</ele>
        <time>2014-09-14T07:26:41Z</time>
      </trkpt>
      <trkpt lat="45.39285" lon="4.57279">
        <ele>1253</ele>
        <time>2014-09-14T07:26:44Z</time>
      </trkpt>
      <trkpt lat="45.39279" lon="4.57283">
        <ele>1254</ele>
        <time>2014-09-14T07:26:47Z</time>
      </trkpt>
      <trkpt lat="45.39275" lon="4.57286">
        <ele>1253</ele>
        <time>2014-09-14T07:26:49Z</time>
      </trkpt>
      <trkpt lat="45.39268" lon="4.5729">
        <ele>1254</ele>
        <time>2014-09-14T07:26:52Z</time>
      </trkpt>
      <trkpt lat="45.39265" lon="4.57292">
        <ele>1254</ele>
        <time>2014-09-14T07:26:54Z</time>
      </trkpt>
      <trkpt lat="45.3926" lon="4.57294">
        <ele>1254</ele>
        <time>2014-09-14T07:26:56Z</time>
      </trkpt>
      <trkpt lat="45.39254" lon="4.57297">
        <ele>1254</ele>
        <time>2014-09-14T07:26:59Z</time>
      </trkpt>
      <trkpt lat="45.39249" lon="4.57298">
        <ele>1254</ele>
        <time>2014-09-14T07:27:01Z</time>
      </trkpt>
      <trkpt lat="45.39245" lon="4.57301">
        <ele>1254</ele>
        <time>2014-09-14T07:27:03Z</time>
      </trkpt>
      <trkpt lat="45.39241" lon="4.57304">
        <ele>1254</ele>
        <time>2014-09-14T07:27:05Z</time>
      </trkpt>
      <trkpt lat="45.39237" lon="4.57306">
        <ele>1254</ele>
        <time>2014-09-14T07:27:07Z</time>
      </trkpt>
      <trkpt lat="45.39233" lon="4.57308">
        <ele>1254</ele>
        <time>2014-09-14T07:27:09Z</time>
      </trkpt>
      <trkpt lat="45.3923" lon="4.5731">
        <ele>1255</ele>
        <time>2014-09-14T07:27:11Z</time>
      </trkpt>
      <trkpt lat="45.39224" lon="4.57314">
        <ele>1255</ele>
        <time>2014-09-14T07:27:14Z</time>
      </trkpt>
      <trkpt lat="45.3922" lon="4.57317">
        <ele>1255</ele>
        <time>2014-09-14T07:27:16Z</time>
      </trkpt>
      <trkpt lat="45.39214" lon="4.57321">
        <ele>1255</ele>
        <time>2014-09-14T07:27:19Z</time>
      </trkpt>
      <trkpt lat="45.3921" lon="4.57323">
        <ele>1255</ele>
        <time>2014-09-14T07:27:21Z</time>
      </trkpt>
      <trkpt lat="45.39203" lon="4.57328">
        <ele>1255</ele>
        <time>2014-09-14T07:27:24Z</time>
      </trkpt>
      <trkpt lat="45.39199" lon="4.57331">
        <ele>1255</ele>
        <time>2014-09-14T07:27:26Z</time>
      </trkpt>
      <trkpt lat="45.39193" lon="4.57335">
        <ele>1255</ele>
        <time>2014-09-14T07:27:29Z</time>
      </trkpt>
      <trkpt lat="45.39187" lon="4.5734">
        <ele>1256</ele>
        <time>2014-09-14T07:27:32Z</time>
      </trkpt>
      <trkpt lat="45.39183" lon="4.57342">
        <ele>1256</ele>
        <time>2014-09-14T07:27:34Z</time>
      </trkpt>
      <trkpt lat="45.39176" lon="4.57346">
        <ele>1256</ele>
        <time>2014-09-14T07:27:37Z</time>
      </trkpt>
      <trkpt lat="45.39172" lon="4.57349">
        <ele>1256</ele>
        <time>2014-09-14T07:27:39Z</time>
      </trkpt>
      <trkpt lat="45.39169" lon="4.57351">
        <ele>1256</ele>
        <time>2014-09-14T07:27:41Z</time>
      </trkpt>
      <trkpt lat="45.39162" lon="4.57354">
        <ele>1257</ele>
        <time>2014-09-14T07:27:44Z</time>
      </trkpt>
      <trkpt lat="45.39158" lon="4.57357">
        <ele>1257</ele>
        <time>2014-09-14T07:27:46Z</time>
      </trkpt>
      <trkpt lat="45.39155" lon="4.57359">
        <ele>1257</ele>
        <time>2014-09-14T07:27:48Z</time>
      </trkpt>
      <trkpt lat="45.39151" lon="4.57362">
        <ele>1257</ele>
        <time>2014-09-14T07:27:50Z</time>
      </trkpt>
      <trkpt lat="45.39145" lon="4.57365">
        <ele>1257</ele>
        <time>2014-09-14T07:27:53Z</time>
      </trkpt>
      <trkpt lat="45.39141" lon="4.57367">
        <ele>1257</ele>
        <time>2014-09-14T07:27:55Z</time>
      </trkpt>
      <trkpt lat="45.39134" lon="4.5737">
        <ele>1257</ele>
        <time>2014-09-14T07:27:58Z</time>
      </trkpt>
      <trkpt lat="45.39127" lon="4.57373">
        <ele>1257</ele>
        <time>2014-09-14T07:28:01Z</time>
      </trkpt>
      <trkpt lat="45.3912" lon="4.57376">
        <ele>1257</ele>
        <time>2014-09-14T07:28:04Z</time>
      </trkpt>
      <trkpt lat="45.39115" lon="4.57378">
        <ele>1257</ele>
        <time>2014-09-14T07:28:06Z</time>
      </trkpt>
      <trkpt lat="45.39111" lon="4.5738">
        <ele>1257</ele>
        <time>2014-09-14T07:28:08Z</time>
      </trkpt>
      <trkpt lat="45.39108" lon="4.57383">
        <ele>1257</ele>
        <time>2014-09-14T07:28:10Z</time>
      </trkpt>
      <trkpt lat="45.39107" lon="4.57387">
        <ele>1257</ele>
        <time>2014-09-14T07:28:12Z</time>
      </trkpt>
      <trkpt lat="45.3911" lon="4.57388">
        <ele>1257</ele>
        <time>2014-09-14T07:28:15Z</time>
      </trkpt>
      <trkpt lat="45.39114" lon="4.57387">
        <ele>1257</ele>
        <time>2014-09-14T07:28:17Z</time>
      </trkpt>
      <trkpt lat="45.39119" lon="4.57387">
        <ele>1258</ele>
        <time>2014-09-14T07:28:20Z</time>
      </trkpt>
      <trkpt lat="45.39122" lon="4.57387">
        <ele>1258</ele>
        <time>2014-09-14T07:28:22Z</time>
      </trkpt>
      <trkpt lat="45.39124" lon="4.57388">
        <ele>1258</ele>
        <time>2014-09-14T07:28:24Z</time>
      </trkpt>
      <trkpt lat="45.39126" lon="4.57388">
        <ele>1258</ele>
        <time>2014-09-14T07:28:26Z</time>
      </trkpt>
      <trkpt lat="45.3913" lon="4.57388">
        <ele>1258</ele>
        <time>2014-09-14T07:28:28Z</time>
      </trkpt>
      <trkpt lat="45.39136" lon="4.57389">
        <ele>1258</ele>
        <time>2014-09-14T07:28:31Z</time>
      </trkpt>
      <trkpt lat="45.3914" lon="4.5739">
        <ele>1259</ele>
        <time>2014-09-14T07:28:33Z</time>
      </trkpt>
      <trkpt lat="45.39146" lon="4.57392">
        <ele>1259</ele>
        <time>2014-09-14T07:28:36Z</time>
      </trkpt>
      <trkpt lat="45.3915" lon="4.57393">
        <ele>1259</ele>
        <time>2014-09-14T07:28:38Z</time>
      </trkpt>
      <trkpt lat="45.39154" lon="4.57394">
        <ele>1260</ele>
        <time>2014-09-14T07:28:40Z</time>
      </trkpt>
      <trkpt lat="45.39159" lon="4.57394">
        <ele>1260</ele>
        <time>2014-09-14T07:28:43Z</time>
      </trkpt>
      <trkpt lat="45.39162" lon="4.57395">
        <ele>1260</ele>
        <time>2014-09-14T07:28:45Z</time>
      </trkpt>
      <trkpt lat="45.39166" lon="4.57397">
        <ele>1261</ele>
        <time>2014-09-14T07:28:48Z</time>
      </trkpt>
      <trkpt lat="45.39168" lon="4.57398">
        <ele>1261</ele>
        <time>2014-09-14T07:28:50Z</time>
      </trkpt>
      <trkpt lat="45.39172" lon="4.57399">
        <ele>1261</ele>
        <time>2014-09-14T07:28:53Z</time>
      </trkpt>
      <trkpt lat="45.39174" lon="4.574">
        <ele>1261</ele>
        <time>2014-09-14T07:28:55Z</time>
      </trkpt>
      <trkpt lat="45.39177" lon="4.57403">
        <ele>1261</ele>
        <time>2014-09-14T07:28:58Z</time>
      </trkpt>
      <trkpt lat="45.3918" lon="4.57404">
        <ele>1261</ele>
        <time>2014-09-14T07:29:00Z</time>
      </trkpt>
      <trkpt lat="45.39183" lon="4.57406">
        <ele>1261</ele>
        <time>2014-09-14T07:29:03Z</time>
      </trkpt>
      <trkpt lat="45.39185" lon="4.57408">
        <ele>1261</ele>
        <time>2014-09-14T07:29:05Z</time>
      </trkpt>
      <trkpt lat="45.39187" lon="4.5741">
        <ele>1262</ele>
        <time>2014-09-14T07:29:07Z</time>
      </trkpt>
      <trkpt lat="45.39191" lon="4.57413">
        <ele>1262</ele>
        <time>2014-09-14T07:29:10Z</time>
      </trkpt>
      <trkpt lat="45.39193" lon="4.57414">
        <ele>1262</ele>
        <time>2014-09-14T07:29:12Z</time>
      </trkpt>
      <trkpt lat="45.39197" lon="4.57417">
        <ele>1262</ele>
        <time>2014-09-14T07:29:15Z</time>
      </trkpt>
      <trkpt lat="45.392" lon="4.57419">
        <ele>1263</ele>
        <time>2014-09-14T07:29:18Z</time>
      </trkpt>
      <trkpt lat="45.39202" lon="4.57419">
        <ele>1263</ele>
        <time>2014-09-14T07:29:20Z</time>
      </trkpt>
      <trkpt lat="45.39202" lon="4.57419">
        <ele>1263</ele>
        <time>2014-09-14T07:29:22Z</time>
      </trkpt>
      <trkpt lat="45.39202" lon="4.5742">
        <ele>1263</ele>
        <time>2014-09-14T07:29:25Z</time>
      </trkpt>
      <trkpt lat="45.39202" lon="4.5742">
        <ele>1263</ele>
        <time>2014-09-14T07:29:29Z</time>
      </trkpt>
      <trkpt lat="45.39202" lon="4.5742">
        <ele>1263</ele>
        <time>2014-09-14T07:29:32Z</time>
      </trkpt>
      <trkpt lat="45.39201" lon="4.5742">
        <ele>1263</ele>
        <time>2014-09-14T07:29:35Z</time>
      </trkpt>
      <trkpt lat="45.39201" lon="4.57421">
        <ele>1263</ele>
        <time>2014-09-14T07:29:37Z</time>
      </trkpt>
      <trkpt lat="45.39202" lon="4.57421">
        <ele>1263</ele>
        <time>2014-09-14T07:29:39Z</time>
      </trkpt>
      <trkpt lat="45.39201" lon="4.57421">
        <ele>1263</ele>
        <time>2014-09-14T07:29:42Z</time>
      </trkpt>
      <trkpt lat="45.39201" lon="4.57421">
        <ele>1263</ele>
        <time>2014-09-14T07:29:47Z</time>
      </trkpt>
      <trkpt lat="45.39201" lon="4.57421">
        <ele>1263</ele>
        <time>2014-09-14T07:29:50Z</time>
      </trkpt>
      <trkpt lat="45.39202" lon="4.57421">
        <ele>1263</ele>
        <time>2014-09-14T07:29:56Z</time>
      </trkpt>
      <trkpt lat="45.39202" lon="4.57421">
        <ele>1263</ele>
        <time>2014-09-14T07:29:59Z</time>
      </trkpt>
      <trkpt lat="45.39202" lon="4.57422">
        <ele>1263</ele>
        <time>2014-09-14T07:30:01Z</time>
      </trkpt>
      <trkpt lat="45.39202" lon="4.57422">
        <ele>1263</ele>
        <time>2014-09-14T07:30:06Z</time>
      </trkpt>
      <trkpt lat="45.39202" lon="4.57422">
        <ele>1263</ele>
        <time>2014-09-14T07:30:08Z</time>
      </trkpt>
      <trkpt lat="45.39203" lon="4.57423">
        <ele>1263</ele>
        <time>2014-09-14T07:30:11Z</time>
      </trkpt>
      <trkpt lat="45.39203" lon="4.57427">
        <ele>1263</ele>
        <time>2014-09-14T07:30:14Z</time>
      </trkpt>
      <trkpt lat="45.39204" lon="4.57431">
        <ele>1263</ele>
        <time>2014-09-14T07:30:16Z</time>
      </trkpt>
      <trkpt lat="45.39205" lon="4.57436">
        <ele>1263</ele>
        <time>2014-09-14T07:30:19Z</time>
      </trkpt>
      <trkpt lat="45.39206" lon="4.57442">
        <ele>1263</ele>
        <time>2014-09-14T07:30:22Z</time>
      </trkpt>
      <trkpt lat="45.39207" lon="4.57448">
        <ele>1264</ele>
        <time>2014-09-14T07:30:24Z</time>
      </trkpt>
      <trkpt lat="45.39208" lon="4.57458">
        <ele>1264</ele>
        <time>2014-09-14T07:30:27Z</time>
      </trkpt>
      <trkpt lat="45.3921" lon="4.57467">
        <ele>1264</ele>
        <time>2014-09-14T07:30:30Z</time>
      </trkpt>
      <trkpt lat="45.39211" lon="4.57472">
        <ele>1264</ele>
        <time>2014-09-14T07:30:32Z</time>
      </trkpt>
      <trkpt lat="45.39213" lon="4.57481">
        <ele>1264</ele>
        <time>2014-09-14T07:30:35Z</time>
      </trkpt>
      <trkpt lat="45.39214" lon="4.57487">
        <ele>1265</ele>
        <time>2014-09-14T07:30:37Z</time>
      </trkpt>
      <trkpt lat="45.39214" lon="4.57495">
        <ele>1266</ele>
        <time>2014-09-14T07:30:40Z</time>
      </trkpt>
      <trkpt lat="45.39214" lon="4.57501">
        <ele>1266</ele>
        <time>2014-09-14T07:30:42Z</time>
      </trkpt>
      <trkpt lat="45.39213" lon="4.57509">
        <ele>1266</ele>
        <time>2014-09-14T07:30:45Z</time>
      </trkpt>
      <trkpt lat="45.39209" lon="4.57515">
        <ele>1266</ele>
        <time>2014-09-14T07:30:48Z</time>
      </trkpt>
      <trkpt lat="45.39205" lon="4.57518">
        <ele>1267</ele>
        <time>2014-09-14T07:30:50Z</time>
      </trkpt>
      <trkpt lat="45.39202" lon="4.5752">
        <ele>1268</ele>
        <time>2014-09-14T07:30:52Z</time>
      </trkpt>
      <trkpt lat="45.39198" lon="4.57524">
        <ele>1268</ele>
        <time>2014-09-14T07:30:55Z</time>
      </trkpt>
      <trkpt lat="45.39194" lon="4.57525">
        <ele>1269</ele>
        <time>2014-09-14T07:30:57Z</time>
      </trkpt>
      <trkpt lat="45.39189" lon="4.57527">
        <ele>1269</ele>
        <time>2014-09-14T07:31:00Z</time>
      </trkpt>
      <trkpt lat="45.39186" lon="4.57527">
        <ele>1270</ele>
        <time>2014-09-14T07:31:02Z</time>
      </trkpt>
      <trkpt lat="45.3918" lon="4.57527">
        <ele>1270</ele>
        <time>2014-09-14T07:31:05Z</time>
      </trkpt>
      <trkpt lat="45.39177" lon="4.57527">
        <ele>1271</ele>
        <time>2014-09-14T07:31:07Z</time>
      </trkpt>
      <trkpt lat="45.39172" lon="4.57527">
        <ele>1271</ele>
        <time>2014-09-14T07:31:10Z</time>
      </trkpt>
      <trkpt lat="45.39167" lon="4.57527">
        <ele>1272</ele>
        <time>2014-09-14T07:31:13Z</time>
      </trkpt>
      <trkpt lat="45.39163" lon="4.57528">
        <ele>1272</ele>
        <time>2014-09-14T07:31:15Z</time>
      </trkpt>
      <trkpt lat="45.39158" lon="4.5753">
        <ele>1272</ele>
        <time>2014-09-14T07:31:18Z</time>
      </trkpt>
      <trkpt lat="45.39154" lon="4.57531">
        <ele>1273</ele>
        <time>2014-09-14T07:31:20Z</time>
      </trkpt>
      <trkpt lat="45.39151" lon="4.57531">
        <ele>1273</ele>
        <time>2014-09-14T07:31:22Z</time>
      </trkpt>
      <trkpt lat="45.39146" lon="4.57535">
        <ele>1273</ele>
        <time>2014-09-14T07:31:25Z</time>
      </trkpt>
      <trkpt lat="45.39146" lon="4.57541">
        <ele>1273</ele>
        <time>2014-09-14T07:31:28Z</time>
      </trkpt>
      <trkpt lat="45.39151" lon="4.57545">
        <ele>1273</ele>
        <time>2014-09-14T07:31:31Z</time>
      </trkpt>
      <trkpt lat="45.39154" lon="4.57549">
        <ele>1273</ele>
        <time>2014-09-14T07:31:33Z</time>
      </trkpt>
      <trkpt lat="45.39157" lon="4.57555">
        <ele>1274</ele>
        <time>2014-09-14T07:31:36Z</time>
      </trkpt>
      <trkpt lat="45.39159" lon="4.5756">
        <ele>1274</ele>
        <time>2014-09-14T07:31:38Z</time>
      </trkpt>
      <trkpt lat="45.39162" lon="4.57567">
        <ele>1275</ele>
        <time>2014-09-14T07:31:41Z</time>
      </trkpt>
      <trkpt lat="45.39163" lon="4.57575">
        <ele>1275</ele>
        <time>2014-09-14T07:31:44Z</time>
      </trkpt>
      <trkpt lat="45.39164" lon="4.57579">
        <ele>1276</ele>
        <time>2014-09-14T07:31:46Z</time>
      </trkpt>
      <trkpt lat="45.39165" lon="4.57584">
        <ele>1276</ele>
        <time>2014-09-14T07:31:48Z</time>
      </trkpt>
      <trkpt lat="45.39167" lon="4.5759">
        <ele>1276</ele>
        <time>2014-09-14T07:31:51Z</time>
      </trkpt>
      <trkpt lat="45.39169" lon="4.57595">
        <ele>1277</ele>
        <time>2014-09-14T07:31:53Z</time>
      </trkpt>
      <trkpt lat="45.39172" lon="4.57602">
        <ele>1277</ele>
        <time>2014-09-14T07:31:56Z</time>
      </trkpt>
      <trkpt lat="45.39175" lon="4.57609">
        <ele>1277</ele>
        <time>2014-09-14T07:31:59Z</time>
      </trkpt>
      <trkpt lat="45.39177" lon="4.57613">
        <ele>1278</ele>
        <time>2014-09-14T07:32:01Z</time>
      </trkpt>
      <trkpt lat="45.39179" lon="4.5762">
        <ele>1278</ele>
        <time>2014-09-14T07:32:04Z</time>
      </trkpt>
      <trkpt lat="45.39181" lon="4.57625">
        <ele>1279</ele>
        <time>2014-09-14T07:32:06Z</time>
      </trkpt>
      <trkpt lat="45.39183" lon="4.57632">
        <ele>1279</ele>
        <time>2014-09-14T07:32:09Z</time>
      </trkpt>
      <trkpt lat="45.39184" lon="4.57638">
        <ele>1279</ele>
        <time>2014-09-14T07:32:11Z</time>
      </trkpt>
      <trkpt lat="45.39186" lon="4.57643">
        <ele>1279</ele>
        <time>2014-09-14T07:32:13Z</time>
      </trkpt>
      <trkpt lat="45.39188" lon="4.57651">
        <ele>1280</ele>
        <time>2014-09-14T07:32:16Z</time>
      </trkpt>
      <trkpt lat="45.3919" lon="4.57659">
        <ele>1280</ele>
        <time>2014-09-14T07:32:19Z</time>
      </trkpt>
      <trkpt lat="45.39191" lon="4.57664">
        <ele>1280</ele>
        <time>2014-09-14T07:32:21Z</time>
      </trkpt>
      <trkpt lat="45.39192" lon="4.57672">
        <ele>1280</ele>
        <time>2014-09-14T07:32:24Z</time>
      </trkpt>
      <trkpt lat="45.39193" lon="4.57677">
        <ele>1280</ele>
        <time>2014-09-14T07:32:26Z</time>
      </trkpt>
      <trkpt lat="45.39193" lon="4.57682">
        <ele>1280</ele>
        <time>2014-09-14T07:32:28Z</time>
      </trkpt>
      <trkpt lat="45.39194" lon="4.57688">
        <ele>1280</ele>
        <time>2014-09-14T07:32:30Z</time>
      </trkpt>
      <trkpt lat="45.39195" lon="4.57693">
        <ele>1280</ele>
        <time>2014-09-14T07:32:32Z</time>
      </trkpt>
      <trkpt lat="45.39196" lon="4.57699">
        <ele>1281</ele>
        <time>2014-09-14T07:32:34Z</time>
      </trkpt>
      <trkpt lat="45.39196" lon="4.57705">
        <ele>1281</ele>
        <time>2014-09-14T07:32:36Z</time>
      </trkpt>
      <trkpt lat="45.39197" lon="4.57711">
        <ele>1281</ele>
        <time>2014-09-14T07:32:38Z</time>
      </trkpt>
      <trkpt lat="45.39199" lon="4.5772">
        <ele>1280</ele>
        <time>2014-09-14T07:32:41Z</time>
      </trkpt>
      <trkpt lat="45.392" lon="4.57726">
        <ele>1280</ele>
        <time>2014-09-14T07:32:43Z</time>
      </trkpt>
      <trkpt lat="45.39202" lon="4.57736">
        <ele>1281</ele>
        <time>2014-09-14T07:32:46Z</time>
      </trkpt>
      <trkpt lat="45.39203" lon="4.57743">
        <ele>1281</ele>
        <time>2014-09-14T07:32:48Z</time>
      </trkpt>
      <trkpt lat="45.39205" lon="4.57753">
        <ele>1281</ele>
        <time>2014-09-14T07:32:51Z</time>
      </trkpt>
      <trkpt lat="45.39207" lon="4.57759">
        <ele>1281</ele>
        <time>2014-09-14T07:32:53Z</time>
      </trkpt>
      <trkpt lat="45.39209" lon="4.57769">
        <ele>1280</ele>
        <time>2014-09-14T07:32:56Z</time>
      </trkpt>
      <trkpt lat="45.39209" lon="4.57776">
        <ele>1280</ele>
        <time>2014-09-14T07:32:58Z</time>
      </trkpt>
      <trkpt lat="45.3921" lon="4.57782">
        <ele>1280</ele>
        <time>2014-09-14T07:33:00Z</time>
      </trkpt>
      <trkpt lat="45.39212" lon="4.57791">
        <ele>1279</ele>
        <time>2014-09-14T07:33:03Z</time>
      </trkpt>
      <trkpt lat="45.39215" lon="4.57797">
        <ele>1279</ele>
        <time>2014-09-14T07:33:05Z</time>
      </trkpt>
      <trkpt lat="45.39217" lon="4.57803">
        <ele>1279</ele>
        <time>2014-09-14T07:33:07Z</time>
      </trkpt>
      <trkpt lat="45.3922" lon="4.57812">
        <ele>1279</ele>
        <time>2014-09-14T07:33:10Z</time>
      </trkpt>
      <trkpt lat="45.39223" lon="4.57818">
        <ele>1279</ele>
        <time>2014-09-14T07:33:12Z</time>
      </trkpt>
      <trkpt lat="45.39225" lon="4.57825">
        <ele>1278</ele>
        <time>2014-09-14T07:33:14Z</time>
      </trkpt>
      <trkpt lat="45.39227" lon="4.5783">
        <ele>1278</ele>
        <time>2014-09-14T07:33:16Z</time>
      </trkpt>
      <trkpt lat="45.3923" lon="4.5784">
        <ele>1278</ele>
        <time>2014-09-14T07:33:19Z</time>
      </trkpt>
      <trkpt lat="45.39233" lon="4.57847">
        <ele>1278</ele>
        <time>2014-09-14T07:33:21Z</time>
      </trkpt>
      <trkpt lat="45.39236" lon="4.57858">
        <ele>1277</ele>
        <time>2014-09-14T07:33:24Z</time>
      </trkpt>
      <trkpt lat="45.39237" lon="4.57864">
        <ele>1276</ele>
        <time>2014-09-14T07:33:26Z</time>
      </trkpt>
      <trkpt lat="45.39239" lon="4.57875">
        <ele>1275</ele>
        <time>2014-09-14T07:33:29Z</time>
      </trkpt>
      <trkpt lat="45.3924" lon="4.57882">
        <ele>1275</ele>
        <time>2014-09-14T07:33:31Z</time>
      </trkpt>
      <trkpt lat="45.39242" lon="4.57889">
        <ele>1274</ele>
        <time>2014-09-14T07:33:33Z</time>
      </trkpt>
      <trkpt lat="45.39244" lon="4.57899">
        <ele>1274</ele>
        <time>2014-09-14T07:33:36Z</time>
      </trkpt>
      <trkpt lat="45.39246" lon="4.57909">
        <ele>1275</ele>
        <time>2014-09-14T07:33:39Z</time>
      </trkpt>
      <trkpt lat="45.39246" lon="4.57916">
        <ele>1275</ele>
        <time>2014-09-14T07:33:41Z</time>
      </trkpt>
      <trkpt lat="45.39248" lon="4.57922">
        <ele>1274</ele>
        <time>2014-09-14T07:33:43Z</time>
      </trkpt>
      <trkpt lat="45.3925" lon="4.57928">
        <ele>1274</ele>
        <time>2014-09-14T07:33:45Z</time>
      </trkpt>
      <trkpt lat="45.39251" lon="4.57935">
        <ele>1274</ele>
        <time>2014-09-14T07:33:47Z</time>
      </trkpt>
      <trkpt lat="45.39251" lon="4.57945">
        <ele>1274</ele>
        <time>2014-09-14T07:33:50Z</time>
      </trkpt>
      <trkpt lat="45.39252" lon="4.57953">
        <ele>1274</ele>
        <time>2014-09-14T07:33:52Z</time>
      </trkpt>
      <trkpt lat="45.39253" lon="4.57962">
        <ele>1275</ele>
        <time>2014-09-14T07:33:55Z</time>
      </trkpt>
      <trkpt lat="45.39253" lon="4.57969">
        <ele>1274</ele>
        <time>2014-09-14T07:33:57Z</time>
      </trkpt>
      <trkpt lat="45.39254" lon="4.57978">
        <ele>1274</ele>
        <time>2014-09-14T07:34:00Z</time>
      </trkpt>
      <trkpt lat="45.39255" lon="4.57985">
        <ele>1274</ele>
        <time>2014-09-14T07:34:02Z</time>
      </trkpt>
      <trkpt lat="45.39257" lon="4.57995">
        <ele>1274</ele>
        <time>2014-09-14T07:34:05Z</time>
      </trkpt>
      <trkpt lat="45.39259" lon="4.58005">
        <ele>1274</ele>
        <time>2014-09-14T07:34:08Z</time>
      </trkpt>
      <trkpt lat="45.39262" lon="4.58014">
        <ele>1274</ele>
        <time>2014-09-14T07:34:11Z</time>
      </trkpt>
      <trkpt lat="45.39262" lon="4.58021">
        <ele>1274</ele>
        <time>2014-09-14T07:34:13Z</time>
      </trkpt>
      <trkpt lat="45.39263" lon="4.58027">
        <ele>1274</ele>
        <time>2014-09-14T07:34:15Z</time>
      </trkpt>
      <trkpt lat="45.39263" lon="4.58037">
        <ele>1274</ele>
        <time>2014-09-14T07:34:18Z</time>
      </trkpt>
      <trkpt lat="45.39262" lon="4.58047">
        <ele>1274</ele>
        <time>2014-09-14T07:34:21Z</time>
      </trkpt>
      <trkpt lat="45.3926" lon="4.58054">
        <ele>1273</ele>
        <time>2014-09-14T07:34:23Z</time>
      </trkpt>
      <trkpt lat="45.39258" lon="4.58064">
        <ele>1273</ele>
        <time>2014-09-14T07:34:26Z</time>
      </trkpt>
      <trkpt lat="45.39256" lon="4.58071">
        <ele>1273</ele>
        <time>2014-09-14T07:34:28Z</time>
      </trkpt>
      <trkpt lat="45.39254" lon="4.58081">
        <ele>1273</ele>
        <time>2014-09-14T07:34:31Z</time>
      </trkpt>
      <trkpt lat="45.39251" lon="4.58087">
        <ele>1272</ele>
        <time>2014-09-14T07:34:33Z</time>
      </trkpt>
      <trkpt lat="45.39248" lon="4.58098">
        <ele>1272</ele>
        <time>2014-09-14T07:34:36Z</time>
      </trkpt>
      <trkpt lat="45.39246" lon="4.58107">
        <ele>1270</ele>
        <time>2014-09-14T07:34:39Z</time>
      </trkpt>
      <trkpt lat="45.39245" lon="4.58114">
        <ele>1270</ele>
        <time>2014-09-14T07:34:41Z</time>
      </trkpt>
      <trkpt lat="45.39244" lon="4.58124">
        <ele>1270</ele>
        <time>2014-09-14T07:34:44Z</time>
      </trkpt>
      <trkpt lat="45.39242" lon="4.58131">
        <ele>1270</ele>
        <time>2014-09-14T07:34:46Z</time>
      </trkpt>
      <trkpt lat="45.39238" lon="4.58136">
        <ele>1269</ele>
        <time>2014-09-14T07:34:48Z</time>
      </trkpt>
      <trkpt lat="45.39232" lon="4.58146">
        <ele>1268</ele>
        <time>2014-09-14T07:34:51Z</time>
      </trkpt>
      <trkpt lat="45.39228" lon="4.58152">
        <ele>1268</ele>
        <time>2014-09-14T07:34:53Z</time>
      </trkpt>
      <trkpt lat="45.39225" lon="4.58158">
        <ele>1268</ele>
        <time>2014-09-14T07:34:55Z</time>
      </trkpt>
      <trkpt lat="45.39221" lon="4.58167">
        <ele>1268</ele>
        <time>2014-09-14T07:34:58Z</time>
      </trkpt>
      <trkpt lat="45.39217" lon="4.58173">
        <ele>1267</ele>
        <time>2014-09-14T07:35:00Z</time>
      </trkpt>
      <trkpt lat="45.39214" lon="4.58179">
        <ele>1267</ele>
        <time>2014-09-14T07:35:02Z</time>
      </trkpt>
      <trkpt lat="45.3921" lon="4.58188">
        <ele>1266</ele>
        <time>2014-09-14T07:35:05Z</time>
      </trkpt>
      <trkpt lat="45.39208" lon="4.58194">
        <ele>1265</ele>
        <time>2014-09-14T07:35:07Z</time>
      </trkpt>
      <trkpt lat="45.39203" lon="4.58203">
        <ele>1265</ele>
        <time>2014-09-14T07:35:10Z</time>
      </trkpt>
      <trkpt lat="45.39199" lon="4.58213">
        <ele>1264</ele>
        <time>2014-09-14T07:35:13Z</time>
      </trkpt>
      <trkpt lat="45.39196" lon="4.58218">
        <ele>1263</ele>
        <time>2014-09-14T07:35:15Z</time>
      </trkpt>
      <trkpt lat="45.39192" lon="4.58226">
        <ele>1262</ele>
        <time>2014-09-14T07:35:18Z</time>
      </trkpt>
      <trkpt lat="45.39188" lon="4.58232">
        <ele>1262</ele>
        <time>2014-09-14T07:35:20Z</time>
      </trkpt>
      <trkpt lat="45.39183" lon="4.58242">
        <ele>1261</ele>
        <time>2014-09-14T07:35:23Z</time>
      </trkpt>
      <trkpt lat="45.3918" lon="4.58246">
        <ele>1260</ele>
        <time>2014-09-14T07:35:25Z</time>
      </trkpt>
      <trkpt lat="45.39176" lon="4.5825">
        <ele>1259</ele>
        <time>2014-09-14T07:35:27Z</time>
      </trkpt>
      <trkpt lat="45.39174" lon="4.58255">
        <ele>1259</ele>
        <time>2014-09-14T07:35:29Z</time>
      </trkpt>
      <trkpt lat="45.39169" lon="4.58264">
        <ele>1258</ele>
        <time>2014-09-14T07:35:32Z</time>
      </trkpt>
      <trkpt lat="45.39165" lon="4.5827">
        <ele>1257</ele>
        <time>2014-09-14T07:35:34Z</time>
      </trkpt>
      <trkpt lat="45.3916" lon="4.58278">
        <ele>1256</ele>
        <time>2014-09-14T07:35:37Z</time>
      </trkpt>
      <trkpt lat="45.39153" lon="4.58286">
        <ele>1254</ele>
        <time>2014-09-14T07:35:40Z</time>
      </trkpt>
      <trkpt lat="45.39149" lon="4.5829">
        <ele>1254</ele>
        <time>2014-09-14T07:35:42Z</time>
      </trkpt>
      <trkpt lat="45.39144" lon="4.58295">
        <ele>1253</ele>
        <time>2014-09-14T07:35:44Z</time>
      </trkpt>
      <trkpt lat="45.3914" lon="4.583">
        <ele>1252</ele>
        <time>2014-09-14T07:35:46Z</time>
      </trkpt>
      <trkpt lat="45.39137" lon="4.58305">
        <ele>1252</ele>
        <time>2014-09-14T07:35:48Z</time>
      </trkpt>
      <trkpt lat="45.3913" lon="4.5831">
        <ele>1251</ele>
        <time>2014-09-14T07:35:51Z</time>
      </trkpt>
      <trkpt lat="45.39127" lon="4.58313">
        <ele>1250</ele>
        <time>2014-09-14T07:35:53Z</time>
      </trkpt>
      <trkpt lat="45.39123" lon="4.58317">
        <ele>1249</ele>
        <time>2014-09-14T07:35:55Z</time>
      </trkpt>
      <trkpt lat="45.39116" lon="4.58322">
        <ele>1248</ele>
        <time>2014-09-14T07:35:58Z</time>
      </trkpt>
      <trkpt lat="45.3911" lon="4.5833">
        <ele>1247</ele>
        <time>2014-09-14T07:36:01Z</time>
      </trkpt>
      <trkpt lat="45.39104" lon="4.58338">
        <ele>1246</ele>
        <time>2014-09-14T07:36:04Z</time>
      </trkpt>
      <trkpt lat="45.391" lon="4.58346">
        <ele>1246</ele>
        <time>2014-09-14T07:36:07Z</time>
      </trkpt>
      <trkpt lat="45.39095" lon="4.58352">
        <ele>1246</ele>
        <time>2014-09-14T07:36:09Z</time>
      </trkpt>
      <trkpt lat="45.39089" lon="4.58358">
        <ele>1245</ele>
        <time>2014-09-14T07:36:12Z</time>
      </trkpt>
      <trkpt lat="45.39083" lon="4.58365">
        <ele>1245</ele>
        <time>2014-09-14T07:36:15Z</time>
      </trkpt>
      <trkpt lat="45.39079" lon="4.58369">
        <ele>1244</ele>
        <time>2014-09-14T07:36:17Z</time>
      </trkpt>
      <trkpt lat="45.39074" lon="4.58376">
        <ele>1244</ele>
        <time>2014-09-14T07:36:20Z</time>
      </trkpt>
      <trkpt lat="45.39068" lon="4.58382">
        <ele>1244</ele>
        <time>2014-09-14T07:36:23Z</time>
      </trkpt>
      <trkpt lat="45.39062" lon="4.5839">
        <ele>1245</ele>
        <time>2014-09-14T07:36:26Z</time>
      </trkpt>
      <trkpt lat="45.39058" lon="4.58395">
        <ele>1244</ele>
        <time>2014-09-14T07:36:28Z</time>
      </trkpt>
      <trkpt lat="45.39052" lon="4.58404">
        <ele>1244</ele>
        <time>2014-09-14T07:36:31Z</time>
      </trkpt>
      <trkpt lat="45.39045" lon="4.58413">
        <ele>1244</ele>
        <time>2014-09-14T07:36:34Z</time>
      </trkpt>
      <trkpt lat="45.39038" lon="4.5842">
        <ele>1244</ele>
        <time>2014-09-14T07:36:37Z</time>
      </trkpt>
      <trkpt lat="45.39033" lon="4.58424">
        <ele>1244</ele>
        <time>2014-09-14T07:36:39Z</time>
      </trkpt>
      <trkpt lat="45.39028" lon="4.58428">
        <ele>1244</ele>
        <time>2014-09-14T07:36:41Z</time>
      </trkpt>
      <trkpt lat="45.39023" lon="4.58433">
        <ele>1244</ele>
        <time>2014-09-14T07:36:43Z</time>
      </trkpt>
      <trkpt lat="45.39016" lon="4.58442">
        <ele>1243</ele>
        <time>2014-09-14T07:36:46Z</time>
      </trkpt>
      <trkpt lat="45.39009" lon="4.58452">
        <ele>1243</ele>
        <time>2014-09-14T07:36:49Z</time>
      </trkpt>
      <trkpt lat="45.39003" lon="4.5846">
        <ele>1242</ele>
        <time>2014-09-14T07:36:52Z</time>
      </trkpt>
      <trkpt lat="45.38999" lon="4.58465">
        <ele>1241</ele>
        <time>2014-09-14T07:36:54Z</time>
      </trkpt>
      <trkpt lat="45.38995" lon="4.5847">
        <ele>1241</ele>
        <time>2014-09-14T07:36:56Z</time>
      </trkpt>
      <trkpt lat="45.38988" lon="4.58474">
        <ele>1240</ele>
        <time>2014-09-14T07:36:59Z</time>
      </trkpt>
      <trkpt lat="45.38983" lon="4.58476">
        <ele>1240</ele>
        <time>2014-09-14T07:37:01Z</time>
      </trkpt>
      <trkpt lat="45.38978" lon="4.58478">
        <ele>1240</ele>
        <time>2014-09-14T07:37:03Z</time>
      </trkpt>
      <trkpt lat="45.38974" lon="4.58479">
        <ele>1240</ele>
        <time>2014-09-14T07:37:05Z</time>
      </trkpt>
      <trkpt lat="45.38968" lon="4.5848">
        <ele>1239</ele>
        <time>2014-09-14T07:37:07Z</time>
      </trkpt>
      <trkpt lat="45.38964" lon="4.58482">
        <ele>1239</ele>
        <time>2014-09-14T07:37:09Z</time>
      </trkpt>
      <trkpt lat="45.38958" lon="4.58484">
        <ele>1239</ele>
        <time>2014-09-14T07:37:12Z</time>
      </trkpt>
      <trkpt lat="45.38953" lon="4.58487">
        <ele>1239</ele>
        <time>2014-09-14T07:37:14Z</time>
      </trkpt>
      <trkpt lat="45.38945" lon="4.58491">
        <ele>1237</ele>
        <time>2014-09-14T07:37:17Z</time>
      </trkpt>
      <trkpt lat="45.38942" lon="4.58493">
        <ele>1237</ele>
        <time>2014-09-14T07:37:19Z</time>
      </trkpt>
      <trkpt lat="45.38937" lon="4.58494">
        <ele>1236</ele>
        <time>2014-09-14T07:37:21Z</time>
      </trkpt>
      <trkpt lat="45.3893" lon="4.58498">
        <ele>1236</ele>
        <time>2014-09-14T07:37:24Z</time>
      </trkpt>
      <trkpt lat="45.38925" lon="4.58499">
        <ele>1235</ele>
        <time>2014-09-14T07:37:26Z</time>
      </trkpt>
      <trkpt lat="45.38921" lon="4.58501">
        <ele>1234</ele>
        <time>2014-09-14T07:37:28Z</time>
      </trkpt>
      <trkpt lat="45.38917" lon="4.58504">
        <ele>1233</ele>
        <time>2014-09-14T07:37:31Z</time>
      </trkpt>
      <trkpt lat="45.38909" lon="4.58507">
        <ele>1232</ele>
        <time>2014-09-14T07:37:34Z</time>
      </trkpt>
      <trkpt lat="45.38901" lon="4.58509">
        <ele>1231</ele>
        <time>2014-09-14T07:37:37Z</time>
      </trkpt>
      <trkpt lat="45.38896" lon="4.58512">
        <ele>1230</ele>
        <time>2014-09-14T07:37:39Z</time>
      </trkpt>
      <trkpt lat="45.38889" lon="4.58516">
        <ele>1228</ele>
        <time>2014-09-14T07:37:42Z</time>
      </trkpt>
      <trkpt lat="45.38883" lon="4.58518">
        <ele>1228</ele>
        <time>2014-09-14T07:37:44Z</time>
      </trkpt>
      <trkpt lat="45.38876" lon="4.5852">
        <ele>1227</ele>
        <time>2014-09-14T07:37:47Z</time>
      </trkpt>
      <trkpt lat="45.38871" lon="4.58524">
        <ele>1226</ele>
        <time>2014-09-14T07:37:50Z</time>
      </trkpt>
      <trkpt lat="45.38867" lon="4.58524">
        <ele>1226</ele>
        <time>2014-09-14T07:37:52Z</time>
      </trkpt>
      <trkpt lat="45.38862" lon="4.58525">
        <ele>1225</ele>
        <time>2014-09-14T07:37:54Z</time>
      </trkpt>
      <trkpt lat="45.38856" lon="4.58525">
        <ele>1224</ele>
        <time>2014-09-14T07:37:56Z</time>
      </trkpt>
      <trkpt lat="45.38848" lon="4.58526">
        <ele>1224</ele>
        <time>2014-09-14T07:37:59Z</time>
      </trkpt>
      <trkpt lat="45.38843" lon="4.58527">
        <ele>1224</ele>
        <time>2014-09-14T07:38:01Z</time>
      </trkpt>
      <trkpt lat="45.38834" lon="4.5853">
        <ele>1224</ele>
        <time>2014-09-14T07:38:04Z</time>
      </trkpt>
      <trkpt lat="45.38829" lon="4.5853">
        <ele>1223</ele>
        <time>2014-09-14T07:38:06Z</time>
      </trkpt>
      <trkpt lat="45.38826" lon="4.5853">
        <ele>1223</ele>
        <time>2014-09-14T07:38:08Z</time>
      </trkpt>
      <trkpt lat="45.38819" lon="4.58532">
        <ele>1222</ele>
        <time>2014-09-14T07:38:10Z</time>
      </trkpt>
      <trkpt lat="45.3881" lon="4.58531">
        <ele>1222</ele>
        <time>2014-09-14T07:38:13Z</time>
      </trkpt>
      <trkpt lat="45.38804" lon="4.58531">
        <ele>1223</ele>
        <time>2014-09-14T07:38:15Z</time>
      </trkpt>
      <trkpt lat="45.38798" lon="4.58531">
        <ele>1222</ele>
        <time>2014-09-14T07:38:17Z</time>
      </trkpt>
      <trkpt lat="45.38789" lon="4.5853">
        <ele>1222</ele>
        <time>2014-09-14T07:38:20Z</time>
      </trkpt>
      <trkpt lat="45.38785" lon="4.58528">
        <ele>1222</ele>
        <time>2014-09-14T07:38:22Z</time>
      </trkpt>
      <trkpt lat="45.38781" lon="4.58525">
        <ele>1222</ele>
        <time>2014-09-14T07:38:25Z</time>
      </trkpt>
      <trkpt lat="45.38779" lon="4.58524">
        <ele>1222</ele>
        <time>2014-09-14T07:38:27Z</time>
      </trkpt>
      <trkpt lat="45.38773" lon="4.5852">
        <ele>1223</ele>
        <time>2014-09-14T07:38:30Z</time>
      </trkpt>
      <trkpt lat="45.38767" lon="4.58518">
        <ele>1223</ele>
        <time>2014-09-14T07:38:32Z</time>
      </trkpt>
      <trkpt lat="45.38763" lon="4.58516">
        <ele>1223</ele>
        <time>2014-09-14T07:38:34Z</time>
      </trkpt>
      <trkpt lat="45.38756" lon="4.58513">
        <ele>1223</ele>
        <time>2014-09-14T07:38:37Z</time>
      </trkpt>
      <trkpt lat="45.38752" lon="4.58512">
        <ele>1224</ele>
        <time>2014-09-14T07:38:39Z</time>
      </trkpt>
      <trkpt lat="45.38747" lon="4.58513">
        <ele>1224</ele>
        <time>2014-09-14T07:38:41Z</time>
      </trkpt>
      <trkpt lat="45.38744" lon="4.5852">
        <ele>1224</ele>
        <time>2014-09-14T07:38:44Z</time>
      </trkpt>
      <trkpt lat="45.38743" lon="4.58526">
        <ele>1224</ele>
        <time>2014-09-14T07:38:46Z</time>
      </trkpt>
      <trkpt lat="45.38741" lon="4.58534">
        <ele>1225</ele>
        <time>2014-09-14T07:38:48Z</time>
      </trkpt>
      <trkpt lat="45.38742" lon="4.5854">
        <ele>1225</ele>
        <time>2014-09-14T07:38:51Z</time>
      </trkpt>
      <trkpt lat="45.38743" lon="4.58546">
        <ele>1225</ele>
        <time>2014-09-14T07:38:53Z</time>
      </trkpt>
      <trkpt lat="45.38743" lon="4.58552">
        <ele>1225</ele>
        <time>2014-09-14T07:38:55Z</time>
      </trkpt>
      <trkpt lat="45.38743" lon="4.58558">
        <ele>1225</ele>
        <time>2014-09-14T07:38:57Z</time>
      </trkpt>
      <trkpt lat="45.38744" lon="4.58564">
        <ele>1226</ele>
        <time>2014-09-14T07:38:59Z</time>
      </trkpt>
      <trkpt lat="45.38745" lon="4.58569">
        <ele>1226</ele>
        <time>2014-09-14T07:39:01Z</time>
      </trkpt>
      <trkpt lat="45.38746" lon="4.58576">
        <ele>1226</ele>
        <time>2014-09-14T07:39:04Z</time>
      </trkpt>
      <trkpt lat="45.38747" lon="4.58586">
        <ele>1227</ele>
        <time>2014-09-14T07:39:06Z</time>
      </trkpt>
      <trkpt lat="45.38748" lon="4.58591">
        <ele>1228</ele>
        <time>2014-09-14T07:39:09Z</time>
      </trkpt>
      <trkpt lat="45.38749" lon="4.58597">
        <ele>1228</ele>
        <time>2014-09-14T07:39:11Z</time>
      </trkpt>
      <trkpt lat="45.38751" lon="4.58603">
        <ele>1229</ele>
        <time>2014-09-14T07:39:13Z</time>
      </trkpt>
      <trkpt lat="45.38753" lon="4.58612">
        <ele>1229</ele>
        <time>2014-09-14T07:39:16Z</time>
      </trkpt>
      <trkpt lat="45.38756" lon="4.58623">
        <ele>1229</ele>
        <time>2014-09-14T07:39:19Z</time>
      </trkpt>
      <trkpt lat="45.3876" lon="4.58632">
        <ele>1230</ele>
        <time>2014-09-14T07:39:22Z</time>
      </trkpt>
      <trkpt lat="45.38766" lon="4.58641">
        <ele>1230</ele>
        <time>2014-09-14T07:39:25Z</time>
      </trkpt>
      <trkpt lat="45.38769" lon="4.58646">
        <ele>1230</ele>
        <time>2014-09-14T07:39:27Z</time>
      </trkpt>
      <trkpt lat="45.38771" lon="4.58654">
        <ele>1230</ele>
        <time>2014-09-14T07:39:29Z</time>
      </trkpt>
      <trkpt lat="45.38774" lon="4.5866">
        <ele>1230</ele>
        <time>2014-09-14T07:39:31Z</time>
      </trkpt>
      <trkpt lat="45.38776" lon="4.58664">
        <ele>1230</ele>
        <time>2014-09-14T07:39:34Z</time>
      </trkpt>
      <trkpt lat="45.38776" lon="4.58669">
        <ele>1230</ele>
        <time>2014-09-14T07:39:36Z</time>
      </trkpt>
      <trkpt lat="45.38777" lon="4.58677">
        <ele>1230</ele>
        <time>2014-09-14T07:39:39Z</time>
      </trkpt>
      <trkpt lat="45.38777" lon="4.58684">
        <ele>1230</ele>
        <time>2014-09-14T07:39:41Z</time>
      </trkpt>
      <trkpt lat="45.38779" lon="4.58694">
        <ele>1229</ele>
        <time>2014-09-14T07:39:44Z</time>
      </trkpt>
      <trkpt lat="45.3878" lon="4.587">
        <ele>1230</ele>
        <time>2014-09-14T07:39:46Z</time>
      </trkpt>
      <trkpt lat="45.38781" lon="4.58708">
        <ele>1230</ele>
        <time>2014-09-14T07:39:49Z</time>
      </trkpt>
      <trkpt lat="45.38784" lon="4.58716">
        <ele>1231</ele>
        <time>2014-09-14T07:39:52Z</time>
      </trkpt>
      <trkpt lat="45.38786" lon="4.58726">
        <ele>1231</ele>
        <time>2014-09-14T07:39:54Z</time>
      </trkpt>
      <trkpt lat="45.38788" lon="4.58731">
        <ele>1231</ele>
        <time>2014-09-14T07:39:57Z</time>
      </trkpt>
      <trkpt lat="45.38791" lon="4.5874">
        <ele>1231</ele>
        <time>2014-09-14T07:40:00Z</time>
      </trkpt>
      <trkpt lat="45.38792" lon="4.58746">
        <ele>1232</ele>
        <time>2014-09-14T07:40:02Z</time>
      </trkpt>
      <trkpt lat="45.38793" lon="4.58753">
        <ele>1232</ele>
        <time>2014-09-14T07:40:05Z</time>
      </trkpt>
      <trkpt lat="45.38792" lon="4.58757">
        <ele>1233</ele>
        <time>2014-09-14T07:40:07Z</time>
      </trkpt>
      <trkpt lat="45.38792" lon="4.58762">
        <ele>1233</ele>
        <time>2014-09-14T07:40:10Z</time>
      </trkpt>
      <trkpt lat="45.38791" lon="4.58767">
        <ele>1234</ele>
        <time>2014-09-14T07:40:13Z</time>
      </trkpt>
      <trkpt lat="45.38791" lon="4.58769">
        <ele>1234</ele>
        <time>2014-09-14T07:40:15Z</time>
      </trkpt>
      <trkpt lat="45.38789" lon="4.58772">
        <ele>1234</ele>
        <time>2014-09-14T07:40:17Z</time>
      </trkpt>
      <trkpt lat="45.38788" lon="4.58775">
        <ele>1235</ele>
        <time>2014-09-14T07:40:19Z</time>
      </trkpt>
      <trkpt lat="45.38788" lon="4.58777">
        <ele>1235</ele>
        <time>2014-09-14T07:40:21Z</time>
      </trkpt>
      <trkpt lat="45.38788" lon="4.5878">
        <ele>1235</ele>
        <time>2014-09-14T07:40:23Z</time>
      </trkpt>
      <trkpt lat="45.38788" lon="4.58783">
        <ele>1235</ele>
        <time>2014-09-14T07:40:25Z</time>
      </trkpt>
      <trkpt lat="45.38787" lon="4.58786">
        <ele>1235</ele>
        <time>2014-09-14T07:40:28Z</time>
      </trkpt>
      <trkpt lat="45.38789" lon="4.58792">
        <ele>1235</ele>
        <time>2014-09-14T07:40:31Z</time>
      </trkpt>
      <trkpt lat="45.3879" lon="4.58797">
        <ele>1235</ele>
        <time>2014-09-14T07:40:34Z</time>
      </trkpt>
      <trkpt lat="45.38791" lon="4.58802">
        <ele>1235</ele>
        <time>2014-09-14T07:40:37Z</time>
      </trkpt>
      <trkpt lat="45.38791" lon="4.58807">
        <ele>1235</ele>
        <time>2014-09-14T07:40:39Z</time>
      </trkpt>
      <trkpt lat="45.38793" lon="4.58813">
        <ele>1235</ele>
        <time>2014-09-14T07:40:41Z</time>
      </trkpt>
      <trkpt lat="45.38798" lon="4.58824">
        <ele>1235</ele>
        <time>2014-09-14T07:40:44Z</time>
      </trkpt>
      <trkpt lat="45.38803" lon="4.58836">
        <ele>1235</ele>
        <time>2014-09-14T07:40:46Z</time>
      </trkpt>
      <trkpt lat="45.38805" lon="4.58843">
        <ele>1234</ele>
        <time>2014-09-14T07:40:48Z</time>
      </trkpt>
      <trkpt lat="45.38808" lon="4.58849">
        <ele>1235</ele>
        <time>2014-09-14T07:40:51Z</time>
      </trkpt>
      <trkpt lat="45.38813" lon="4.58859">
        <ele>1235</ele>
        <time>2014-09-14T07:40:54Z</time>
      </trkpt>
      <trkpt lat="45.38816" lon="4.58866">
        <ele>1236</ele>
        <time>2014-09-14T07:40:56Z</time>
      </trkpt>
      <trkpt lat="45.38822" lon="4.58878">
        <ele>1236</ele>
        <time>2014-09-14T07:40:59Z</time>
      </trkpt>
      <trkpt lat="45.38826" lon="4.58885">
        <ele>1236</ele>
        <time>2014-09-14T07:41:01Z</time>
      </trkpt>
      <trkpt lat="45.38831" lon="4.58895">
        <ele>1236</ele>
        <time>2014-09-14T07:41:04Z</time>
      </trkpt>
      <trkpt lat="45.38834" lon="4.58902">
        <ele>1236</ele>
        <time>2014-09-14T07:41:06Z</time>
      </trkpt>
      <trkpt lat="45.38836" lon="4.58912">
        <ele>1236</ele>
        <time>2014-09-14T07:41:09Z</time>
      </trkpt>
      <trkpt lat="45.38839" lon="4.58922">
        <ele>1235</ele>
        <time>2014-09-14T07:41:12Z</time>
      </trkpt>
      <trkpt lat="45.38842" lon="4.58931">
        <ele>1235</ele>
        <time>2014-09-14T07:41:15Z</time>
      </trkpt>
      <trkpt lat="45.38844" lon="4.58937">
        <ele>1235</ele>
        <time>2014-09-14T07:41:17Z</time>
      </trkpt>
      <trkpt lat="45.38845" lon="4.58943">
        <ele>1236</ele>
        <time>2014-09-14T07:41:19Z</time>
      </trkpt>
      <trkpt lat="45.38847" lon="4.58951">
        <ele>1237</ele>
        <time>2014-09-14T07:41:21Z</time>
      </trkpt>
      <trkpt lat="45.38847" lon="4.58956">
        <ele>1237</ele>
        <time>2014-09-14T07:41:24Z</time>
      </trkpt>
      <trkpt lat="45.38848" lon="4.5896">
        <ele>1238</ele>
        <time>2014-09-14T07:41:26Z</time>
      </trkpt>
      <trkpt lat="45.38848" lon="4.58965">
        <ele>1238</ele>
        <time>2014-09-14T07:41:28Z</time>
      </trkpt>
      <trkpt lat="45.38849" lon="4.58972">
        <ele>1238</ele>
        <time>2014-09-14T07:41:31Z</time>
      </trkpt>
      <trkpt lat="45.38849" lon="4.58979">
        <ele>1238</ele>
        <time>2014-09-14T07:41:33Z</time>
      </trkpt>
      <trkpt lat="45.38848" lon="4.58985">
        <ele>1238</ele>
        <time>2014-09-14T07:41:35Z</time>
      </trkpt>
      <trkpt lat="45.38847" lon="4.5899">
        <ele>1239</ele>
        <time>2014-09-14T07:41:38Z</time>
      </trkpt>
      <trkpt lat="45.38845" lon="4.58993">
        <ele>1239</ele>
        <time>2014-09-14T07:41:40Z</time>
      </trkpt>
      <trkpt lat="45.38844" lon="4.59">
        <ele>1239</ele>
        <time>2014-09-14T07:41:43Z</time>
      </trkpt>
      <trkpt lat="45.38842" lon="4.59006">
        <ele>1240</ele>
        <time>2014-09-14T07:41:45Z</time>
      </trkpt>
      <trkpt lat="45.38842" lon="4.59011">
        <ele>1239</ele>
        <time>2014-09-14T07:41:47Z</time>
      </trkpt>
      <trkpt lat="45.38841" lon="4.59017">
        <ele>1240</ele>
        <time>2014-09-14T07:41:49Z</time>
      </trkpt>
      <trkpt lat="45.38841" lon="4.59025">
        <ele>1239</ele>
        <time>2014-09-14T07:41:51Z</time>
      </trkpt>
      <trkpt lat="45.38839" lon="4.59031">
        <ele>1239</ele>
        <time>2014-09-14T07:41:54Z</time>
      </trkpt>
      <trkpt lat="45.38838" lon="4.59036">
        <ele>1239</ele>
        <time>2014-09-14T07:41:56Z</time>
      </trkpt>
      <trkpt lat="45.38839" lon="4.59042">
        <ele>1239</ele>
        <time>2014-09-14T07:41:58Z</time>
      </trkpt>
      <trkpt lat="45.38841" lon="4.59047">
        <ele>1240</ele>
        <time>2014-09-14T07:42:00Z</time>
      </trkpt>
      <trkpt lat="45.38846" lon="4.59056">
        <ele>1240</ele>
        <time>2014-09-14T07:42:03Z</time>
      </trkpt>
      <trkpt lat="45.38851" lon="4.59066">
        <ele>1240</ele>
        <time>2014-09-14T07:42:06Z</time>
      </trkpt>
      <trkpt lat="45.38853" lon="4.59071">
        <ele>1241</ele>
        <time>2014-09-14T07:42:08Z</time>
      </trkpt>
      <trkpt lat="45.38856" lon="4.59077">
        <ele>1241</ele>
        <time>2014-09-14T07:42:10Z</time>
      </trkpt>
      <trkpt lat="45.38861" lon="4.59087">
        <ele>1242</ele>
        <time>2014-09-14T07:42:12Z</time>
      </trkpt>
      <trkpt lat="45.38865" lon="4.59093">
        <ele>1242</ele>
        <time>2014-09-14T07:42:14Z</time>
      </trkpt>
      <trkpt lat="45.38871" lon="4.59099">
        <ele>1242</ele>
        <time>2014-09-14T07:42:16Z</time>
      </trkpt>
      <trkpt lat="45.38876" lon="4.59107">
        <ele>1243</ele>
        <time>2014-09-14T07:42:20Z</time>
      </trkpt>
      <trkpt lat="45.38883" lon="4.59115">
        <ele>1243</ele>
        <time>2014-09-14T07:42:23Z</time>
      </trkpt>
      <trkpt lat="45.38889" lon="4.59124">
        <ele>1244</ele>
        <time>2014-09-14T07:42:26Z</time>
      </trkpt>
      <trkpt lat="45.3889" lon="4.59129">
        <ele>1244</ele>
        <time>2014-09-14T07:42:28Z</time>
      </trkpt>
      <trkpt lat="45.38889" lon="4.59136">
        <ele>1244</ele>
        <time>2014-09-14T07:42:31Z</time>
      </trkpt>
      <trkpt lat="45.38887" lon="4.59142">
        <ele>1244</ele>
        <time>2014-09-14T07:42:33Z</time>
      </trkpt>
      <trkpt lat="45.38885" lon="4.59145">
        <ele>1245</ele>
        <time>2014-09-14T07:42:36Z</time>
      </trkpt>
      <trkpt lat="45.38884" lon="4.59148">
        <ele>1246</ele>
        <time>2014-09-14T07:42:39Z</time>
      </trkpt>
      <trkpt lat="45.38885" lon="4.59152">
        <ele>1247</ele>
        <time>2014-09-14T07:42:42Z</time>
      </trkpt>
      <trkpt lat="45.38885" lon="4.59156">
        <ele>1247</ele>
        <time>2014-09-14T07:42:44Z</time>
      </trkpt>
      <trkpt lat="45.38886" lon="4.59159">
        <ele>1247</ele>
        <time>2014-09-14T07:42:47Z</time>
      </trkpt>
      <trkpt lat="45.38886" lon="4.59163">
        <ele>1248</ele>
        <time>2014-09-14T07:42:49Z</time>
      </trkpt>
      <trkpt lat="45.38886" lon="4.59164">
        <ele>1248</ele>
        <time>2014-09-14T07:42:52Z</time>
      </trkpt>
      <trkpt lat="45.38888" lon="4.59168">
        <ele>1248</ele>
        <time>2014-09-14T07:42:55Z</time>
      </trkpt>
      <trkpt lat="45.3889" lon="4.59171">
        <ele>1248</ele>
        <time>2014-09-14T07:42:57Z</time>
      </trkpt>
      <trkpt lat="45.38892" lon="4.59173">
        <ele>1249</ele>
        <time>2014-09-14T07:42:59Z</time>
      </trkpt>
      <trkpt lat="45.38895" lon="4.59177">
        <ele>1249</ele>
        <time>2014-09-14T07:43:02Z</time>
      </trkpt>
      <trkpt lat="45.38898" lon="4.59182">
        <ele>1249</ele>
        <time>2014-09-14T07:43:04Z</time>
      </trkpt>
      <trkpt lat="45.389" lon="4.59185">
        <ele>1250</ele>
        <time>2014-09-14T07:43:07Z</time>
      </trkpt>
      <trkpt lat="45.38903" lon="4.59187">
        <ele>1250</ele>
        <time>2014-09-14T07:43:09Z</time>
      </trkpt>
      <trkpt lat="45.38906" lon="4.59192">
        <ele>1250</ele>
        <time>2014-09-14T07:43:11Z</time>
      </trkpt>
      <trkpt lat="45.38908" lon="4.59195">
        <ele>1250</ele>
        <time>2014-09-14T07:43:13Z</time>
      </trkpt>
      <trkpt lat="45.3891" lon="4.59198">
        <ele>1250</ele>
        <time>2014-09-14T07:43:15Z</time>
      </trkpt>
      <trkpt lat="45.38911" lon="4.592">
        <ele>1250</ele>
        <time>2014-09-14T07:43:18Z</time>
      </trkpt>
      <trkpt lat="45.38914" lon="4.59203">
        <ele>1251</ele>
        <time>2014-09-14T07:43:20Z</time>
      </trkpt>
      <trkpt lat="45.38916" lon="4.59205">
        <ele>1251</ele>
        <time>2014-09-14T07:43:22Z</time>
      </trkpt>
      <trkpt lat="45.38921" lon="4.59211">
        <ele>1251</ele>
        <time>2014-09-14T07:43:25Z</time>
      </trkpt>
      <trkpt lat="45.38925" lon="4.59215">
        <ele>1251</ele>
        <time>2014-09-14T07:43:27Z</time>
      </trkpt>
      <trkpt lat="45.38927" lon="4.5922">
        <ele>1251</ele>
        <time>2014-09-14T07:43:29Z</time>
      </trkpt>
      <trkpt lat="45.38928" lon="4.59226">
        <ele>1251</ele>
        <time>2014-09-14T07:43:32Z</time>
      </trkpt>
      <trkpt lat="45.3893" lon="4.59228">
        <ele>1251</ele>
        <time>2014-09-14T07:43:34Z</time>
      </trkpt>
      <trkpt lat="45.38934" lon="4.59232">
        <ele>1252</ele>
        <time>2014-09-14T07:43:37Z</time>
      </trkpt>
      <trkpt lat="45.38937" lon="4.59235">
        <ele>1252</ele>
        <time>2014-09-14T07:43:39Z</time>
      </trkpt>
      <trkpt lat="45.38939" lon="4.59238">
        <ele>1253</ele>
        <time>2014-09-14T07:43:41Z</time>
      </trkpt>
      <trkpt lat="45.38942" lon="4.59241">
        <ele>1253</ele>
        <time>2014-09-14T07:43:44Z</time>
      </trkpt>
      <trkpt lat="45.38945" lon="4.59245">
        <ele>1253</ele>
        <time>2014-09-14T07:43:46Z</time>
      </trkpt>
      <trkpt lat="45.38948" lon="4.59248">
        <ele>1254</ele>
        <time>2014-09-14T07:43:48Z</time>
      </trkpt>
      <trkpt lat="45.38951" lon="4.59254">
        <ele>1254</ele>
        <time>2014-09-14T07:43:51Z</time>
      </trkpt>
      <trkpt lat="45.38955" lon="4.59257">
        <ele>1254</ele>
        <time>2014-09-14T07:43:54Z</time>
      </trkpt>
      <trkpt lat="45.38958" lon="4.59261">
        <ele>1254</ele>
        <time>2014-09-14T07:43:57Z</time>
      </trkpt>
      <trkpt lat="45.38962" lon="4.59264">
        <ele>1255</ele>
        <time>2014-09-14T07:43:59Z</time>
      </trkpt>
      <trkpt lat="45.38966" lon="4.59267">
        <ele>1255</ele>
        <time>2014-09-14T07:44:01Z</time>
      </trkpt>
      <trkpt lat="45.38969" lon="4.59272">
        <ele>1256</ele>
        <time>2014-09-14T07:44:04Z</time>
      </trkpt>
      <trkpt lat="45.38973" lon="4.5928">
        <ele>1256</ele>
        <time>2014-09-14T07:44:07Z</time>
      </trkpt>
      <trkpt lat="45.38977" lon="4.59287">
        <ele>1256</ele>
        <time>2014-09-14T07:44:09Z</time>
      </trkpt>
      <trkpt lat="45.38979" lon="4.59291">
        <ele>1257</ele>
        <time>2014-09-14T07:44:11Z</time>
      </trkpt>
      <trkpt lat="45.38979" lon="4.59295">
        <ele>1257</ele>
        <time>2014-09-14T07:44:14Z</time>
      </trkpt>
      <trkpt lat="45.38979" lon="4.59299">
        <ele>1258</ele>
        <time>2014-09-14T07:44:16Z</time>
      </trkpt>
      <trkpt lat="45.38979" lon="4.59302">
        <ele>1258</ele>
        <time>2014-09-14T07:44:18Z</time>
      </trkpt>
      <trkpt lat="45.3898" lon="4.59308">
        <ele>1259</ele>
        <time>2014-09-14T07:44:20Z</time>
      </trkpt>
      <trkpt lat="45.38979" lon="4.59311">
        <ele>1259</ele>
        <time>2014-09-14T07:44:22Z</time>
      </trkpt>
      <trkpt lat="45.38979" lon="4.59315">
        <ele>1260</ele>
        <time>2014-09-14T07:44:24Z</time>
      </trkpt>
      <trkpt lat="45.38979" lon="4.59318">
        <ele>1260</ele>
        <time>2014-09-14T07:44:26Z</time>
      </trkpt>
      <trkpt lat="45.38978" lon="4.59322">
        <ele>1260</ele>
        <time>2014-09-14T07:44:28Z</time>
      </trkpt>
      <trkpt lat="45.38978" lon="4.59326">
        <ele>1260</ele>
        <time>2014-09-14T07:44:30Z</time>
      </trkpt>
      <trkpt lat="45.38978" lon="4.5933">
        <ele>1260</ele>
        <time>2014-09-14T07:44:33Z</time>
      </trkpt>
      <trkpt lat="45.38979" lon="4.59336">
        <ele>1260</ele>
        <time>2014-09-14T07:44:36Z</time>
      </trkpt>
      <trkpt lat="45.38977" lon="4.5934">
        <ele>1260</ele>
        <time>2014-09-14T07:44:38Z</time>
      </trkpt>
      <trkpt lat="45.38976" lon="4.59345">
        <ele>1261</ele>
        <time>2014-09-14T07:44:42Z</time>
      </trkpt>
      <trkpt lat="45.38977" lon="4.5935">
        <ele>1261</ele>
        <time>2014-09-14T07:44:44Z</time>
      </trkpt>
      <trkpt lat="45.38977" lon="4.59355">
        <ele>1262</ele>
        <time>2014-09-14T07:44:47Z</time>
      </trkpt>
      <trkpt lat="45.38977" lon="4.59359">
        <ele>1262</ele>
        <time>2014-09-14T07:44:49Z</time>
      </trkpt>
      <trkpt lat="45.38976" lon="4.59364">
        <ele>1262</ele>
        <time>2014-09-14T07:44:51Z</time>
      </trkpt>
      <trkpt lat="45.38977" lon="4.59368">
        <ele>1262</ele>
        <time>2014-09-14T07:44:53Z</time>
      </trkpt>
      <trkpt lat="45.38976" lon="4.59372">
        <ele>1262</ele>
        <time>2014-09-14T07:44:55Z</time>
      </trkpt>
      <trkpt lat="45.38975" lon="4.59378">
        <ele>1263</ele>
        <time>2014-09-14T07:44:59Z</time>
      </trkpt>
      <trkpt lat="45.38975" lon="4.59386">
        <ele>1263</ele>
        <time>2014-09-14T07:45:01Z</time>
      </trkpt>
      <trkpt lat="45.38975" lon="4.59392">
        <ele>1263</ele>
        <time>2014-09-14T07:45:04Z</time>
      </trkpt>
      <trkpt lat="45.38975" lon="4.59402">
        <ele>1263</ele>
        <time>2014-09-14T07:45:07Z</time>
      </trkpt>
      <trkpt lat="45.38975" lon="4.59408">
        <ele>1262</ele>
        <time>2014-09-14T07:45:09Z</time>
      </trkpt>
      <trkpt lat="45.38976" lon="4.59418">
        <ele>1262</ele>
        <time>2014-09-14T07:45:11Z</time>
      </trkpt>
      <trkpt lat="45.38976" lon="4.59425">
        <ele>1262</ele>
        <time>2014-09-14T07:45:13Z</time>
      </trkpt>
      <trkpt lat="45.38976" lon="4.59431">
        <ele>1262</ele>
        <time>2014-09-14T07:45:16Z</time>
      </trkpt>
      <trkpt lat="45.38976" lon="4.5944">
        <ele>1263</ele>
        <time>2014-09-14T07:45:18Z</time>
      </trkpt>
      <trkpt lat="45.38976" lon="4.59444">
        <ele>1264</ele>
        <time>2014-09-14T07:45:20Z</time>
      </trkpt>
      <trkpt lat="45.38975" lon="4.59449">
        <ele>1264</ele>
        <time>2014-09-14T07:45:23Z</time>
      </trkpt>
      <trkpt lat="45.38973" lon="4.59454">
        <ele>1264</ele>
        <time>2014-09-14T07:45:25Z</time>
      </trkpt>
      <trkpt lat="45.38972" lon="4.59463">
        <ele>1263</ele>
        <time>2014-09-14T07:45:28Z</time>
      </trkpt>
      <trkpt lat="45.38971" lon="4.59473">
        <ele>1263</ele>
        <time>2014-09-14T07:45:30Z</time>
      </trkpt>
      <trkpt lat="45.3897" lon="4.59478">
        <ele>1264</ele>
        <time>2014-09-14T07:45:33Z</time>
      </trkpt>
      <trkpt lat="45.3897" lon="4.59485">
        <ele>1264</ele>
        <time>2014-09-14T07:45:35Z</time>
      </trkpt>
      <trkpt lat="45.38972" lon="4.59493">
        <ele>1264</ele>
        <time>2014-09-14T07:45:38Z</time>
      </trkpt>
      <trkpt lat="45.38972" lon="4.59497">
        <ele>1265</ele>
        <time>2014-09-14T07:45:40Z</time>
      </trkpt>
      <trkpt lat="45.38972" lon="4.59502">
        <ele>1265</ele>
        <time>2014-09-14T07:45:43Z</time>
      </trkpt>
      <trkpt lat="45.3897" lon="4.59506">
        <ele>1266</ele>
        <time>2014-09-14T07:45:45Z</time>
      </trkpt>
      <trkpt lat="45.38965" lon="4.59514">
        <ele>1266</ele>
        <time>2014-09-14T07:45:48Z</time>
      </trkpt>
      <trkpt lat="45.38961" lon="4.59523">
        <ele>1266</ele>
        <time>2014-09-14T07:45:50Z</time>
      </trkpt>
      <trkpt lat="45.38961" lon="4.59535">
        <ele>1266</ele>
        <time>2014-09-14T07:45:53Z</time>
      </trkpt>
      <trkpt lat="45.3896" lon="4.59542">
        <ele>1266</ele>
        <time>2014-09-14T07:45:55Z</time>
      </trkpt>
      <trkpt lat="45.3896" lon="4.59549">
        <ele>1266</ele>
        <time>2014-09-14T07:45:57Z</time>
      </trkpt>
      <trkpt lat="45.38959" lon="4.59555">
        <ele>1267</ele>
        <time>2014-09-14T07:46:00Z</time>
      </trkpt>
      <trkpt lat="45.38959" lon="4.59564">
        <ele>1267</ele>
        <time>2014-09-14T07:46:02Z</time>
      </trkpt>
      <trkpt lat="45.38958" lon="4.59573">
        <ele>1267</ele>
        <time>2014-09-14T07:46:04Z</time>
      </trkpt>
      <trkpt lat="45.38957" lon="4.5958">
        <ele>1267</ele>
        <time>2014-09-14T07:46:07Z</time>
      </trkpt>
      <trkpt lat="45.3896" lon="4.59591">
        <ele>1267</ele>
        <time>2014-09-14T07:46:09Z</time>
      </trkpt>
      <trkpt lat="45.3896" lon="4.59597">
        <ele>1266</ele>
        <time>2014-09-14T07:46:11Z</time>
      </trkpt>
      <trkpt lat="45.38961" lon="4.59605">
        <ele>1266</ele>
        <time>2014-09-14T07:46:14Z</time>
      </trkpt>
      <trkpt lat="45.38961" lon="4.59617">
        <ele>1266</ele>
        <time>2014-09-14T07:46:17Z</time>
      </trkpt>
      <trkpt lat="45.38961" lon="4.59624">
        <ele>1266</ele>
        <time>2014-09-14T07:46:19Z</time>
      </trkpt>
      <trkpt lat="45.38962" lon="4.59633">
        <ele>1266</ele>
        <time>2014-09-14T07:46:21Z</time>
      </trkpt>
      <trkpt lat="45.38961" lon="4.59639">
        <ele>1266</ele>
        <time>2014-09-14T07:46:24Z</time>
      </trkpt>
      <trkpt lat="45.38959" lon="4.59645">
        <ele>1267</ele>
        <time>2014-09-14T07:46:26Z</time>
      </trkpt>
      <trkpt lat="45.38959" lon="4.59651">
        <ele>1267</ele>
        <time>2014-09-14T07:46:28Z</time>
      </trkpt>
      <trkpt lat="45.38957" lon="4.59659">
        <ele>1267</ele>
        <time>2014-09-14T07:46:31Z</time>
      </trkpt>
      <trkpt lat="45.38956" lon="4.59665">
        <ele>1267</ele>
        <time>2014-09-14T07:46:33Z</time>
      </trkpt>
      <trkpt lat="45.38954" lon="4.59671">
        <ele>1267</ele>
        <time>2014-09-14T07:46:36Z</time>
      </trkpt>
      <trkpt lat="45.38954" lon="4.59675">
        <ele>1267</ele>
        <time>2014-09-14T07:46:38Z</time>
      </trkpt>
      <trkpt lat="45.38952" lon="4.59683">
        <ele>1268</ele>
        <time>2014-09-14T07:46:41Z</time>
      </trkpt>
      <trkpt lat="45.38952" lon="4.59691">
        <ele>1268</ele>
        <time>2014-09-14T07:46:43Z</time>
      </trkpt>
      <trkpt lat="45.38952" lon="4.59697">
        <ele>1268</ele>
        <time>2014-09-14T07:46:45Z</time>
      </trkpt>
      <trkpt lat="45.38953" lon="4.59703">
        <ele>1268</ele>
        <time>2014-09-14T07:46:48Z</time>
      </trkpt>
      <trkpt lat="45.38954" lon="4.59708">
        <ele>1268</ele>
        <time>2014-09-14T07:46:50Z</time>
      </trkpt>
      <trkpt lat="45.38956" lon="4.59717">
        <ele>1268</ele>
        <time>2014-09-14T07:46:53Z</time>
      </trkpt>
      <trkpt lat="45.38958" lon="4.59726">
        <ele>1269</ele>
        <time>2014-09-14T07:46:56Z</time>
      </trkpt>
      <trkpt lat="45.38961" lon="4.59735">
        <ele>1269</ele>
        <time>2014-09-14T07:46:58Z</time>
      </trkpt>
      <trkpt lat="45.38963" lon="4.59741">
        <ele>1270</ele>
        <time>2014-09-14T07:47:00Z</time>
      </trkpt>
      <trkpt lat="45.38965" lon="4.59746">
        <ele>1270</ele>
        <time>2014-09-14T07:47:02Z</time>
      </trkpt>
      <trkpt lat="45.38965" lon="4.59753">
        <ele>1270</ele>
        <time>2014-09-14T07:47:06Z</time>
      </trkpt>
      <trkpt lat="45.38966" lon="4.59762">
        <ele>1270</ele>
        <time>2014-09-14T07:47:09Z</time>
      </trkpt>
      <trkpt lat="45.38968" lon="4.59772">
        <ele>1271</ele>
        <time>2014-09-14T07:47:11Z</time>
      </trkpt>
      <trkpt lat="45.3897" lon="4.59779">
        <ele>1271</ele>
        <time>2014-09-14T07:47:13Z</time>
      </trkpt>
      <trkpt lat="45.38973" lon="4.59785">
        <ele>1270</ele>
        <time>2014-09-14T07:47:15Z</time>
      </trkpt>
      <trkpt lat="45.38977" lon="4.59791">
        <ele>1270</ele>
        <time>2014-09-14T07:47:17Z</time>
      </trkpt>
      <trkpt lat="45.38981" lon="4.59798">
        <ele>1270</ele>
        <time>2014-09-14T07:47:19Z</time>
      </trkpt>
      <trkpt lat="45.38985" lon="4.59804">
        <ele>1270</ele>
        <time>2014-09-14T07:47:22Z</time>
      </trkpt>
      <trkpt lat="45.38987" lon="4.59811">
        <ele>1269</ele>
        <time>2014-09-14T07:47:24Z</time>
      </trkpt>
      <trkpt lat="45.38987" lon="4.59818">
        <ele>1269</ele>
        <time>2014-09-14T07:47:26Z</time>
      </trkpt>
      <trkpt lat="45.38988" lon="4.59821">
        <ele>1270</ele>
        <time>2014-09-14T07:47:28Z</time>
      </trkpt>
      <trkpt lat="45.38989" lon="4.59824">
        <ele>1270</ele>
        <time>2014-09-14T07:47:31Z</time>
      </trkpt>
      <trkpt lat="45.3899" lon="4.59829">
        <ele>1271</ele>
        <time>2014-09-14T07:47:34Z</time>
      </trkpt>
      <trkpt lat="45.3899" lon="4.59834">
        <ele>1271</ele>
        <time>2014-09-14T07:47:37Z</time>
      </trkpt>
      <trkpt lat="45.3899" lon="4.5984">
        <ele>1271</ele>
        <time>2014-09-14T07:47:40Z</time>
      </trkpt>
      <trkpt lat="45.38991" lon="4.59845">
        <ele>1272</ele>
        <time>2014-09-14T07:47:42Z</time>
      </trkpt>
      <trkpt lat="45.38991" lon="4.59848">
        <ele>1272</ele>
        <time>2014-09-14T07:47:44Z</time>
      </trkpt>
      <trkpt lat="45.38992" lon="4.59853">
        <ele>1273</ele>
        <time>2014-09-14T07:47:48Z</time>
      </trkpt>
      <trkpt lat="45.38994" lon="4.59857">
        <ele>1273</ele>
        <time>2014-09-14T07:47:50Z</time>
      </trkpt>
      <trkpt lat="45.38995" lon="4.5986">
        <ele>1272</ele>
        <time>2014-09-14T07:47:52Z</time>
      </trkpt>
      <trkpt lat="45.38997" lon="4.59863">
        <ele>1272</ele>
        <time>2014-09-14T07:47:55Z</time>
      </trkpt>
      <trkpt lat="45.38999" lon="4.59867">
        <ele>1272</ele>
        <time>2014-09-14T07:47:58Z</time>
      </trkpt>
      <trkpt lat="45.39001" lon="4.59871">
        <ele>1273</ele>
        <time>2014-09-14T07:48:01Z</time>
      </trkpt>
      <trkpt lat="45.39004" lon="4.59876">
        <ele>1273</ele>
        <time>2014-09-14T07:48:03Z</time>
      </trkpt>
      <trkpt lat="45.39005" lon="4.5988">
        <ele>1273</ele>
        <time>2014-09-14T07:48:05Z</time>
      </trkpt>
      <trkpt lat="45.39004" lon="4.59885">
        <ele>1273</ele>
        <time>2014-09-14T07:48:08Z</time>
      </trkpt>
      <trkpt lat="45.39007" lon="4.59889">
        <ele>1273</ele>
        <time>2014-09-14T07:48:11Z</time>
      </trkpt>
      <trkpt lat="45.39008" lon="4.59891">
        <ele>1273</ele>
        <time>2014-09-14T07:48:13Z</time>
      </trkpt>
      <trkpt lat="45.39011" lon="4.59894">
        <ele>1273</ele>
        <time>2014-09-14T07:48:16Z</time>
      </trkpt>
      <trkpt lat="45.39013" lon="4.59897">
        <ele>1274</ele>
        <time>2014-09-14T07:48:18Z</time>
      </trkpt>
      <trkpt lat="45.39014" lon="4.59901">
        <ele>1274</ele>
        <time>2014-09-14T07:48:21Z</time>
      </trkpt>
      <trkpt lat="45.39016" lon="4.59904">
        <ele>1274</ele>
        <time>2014-09-14T07:48:23Z</time>
      </trkpt>
      <trkpt lat="45.39019" lon="4.59906">
        <ele>1275</ele>
        <time>2014-09-14T07:48:25Z</time>
      </trkpt>
      <trkpt lat="45.39021" lon="4.5991">
        <ele>1275</ele>
        <time>2014-09-14T07:48:28Z</time>
      </trkpt>
      <trkpt lat="45.39024" lon="4.59915">
        <ele>1275</ele>
        <time>2014-09-14T07:48:30Z</time>
      </trkpt>
      <trkpt lat="45.39026" lon="4.59918">
        <ele>1275</ele>
        <time>2014-09-14T07:48:33Z</time>
      </trkpt>
      <trkpt lat="45.39028" lon="4.59923">
        <ele>1275</ele>
        <time>2014-09-14T07:48:36Z</time>
      </trkpt>
      <trkpt lat="45.39029" lon="4.59928">
        <ele>1276</ele>
        <time>2014-09-14T07:48:39Z</time>
      </trkpt>
      <trkpt lat="45.39028" lon="4.59933">
        <ele>1276</ele>
        <time>2014-09-14T07:48:41Z</time>
      </trkpt>
      <trkpt lat="45.39025" lon="4.59936">
        <ele>1277</ele>
        <time>2014-09-14T07:48:43Z</time>
      </trkpt>
      <trkpt lat="45.39022" lon="4.59937">
        <ele>1278</ele>
        <time>2014-09-14T07:48:45Z</time>
      </trkpt>
      <trkpt lat="45.39017" lon="4.59934">
        <ele>1278</ele>
        <time>2014-09-14T07:48:48Z</time>
      </trkpt>
      <trkpt lat="45.39014" lon="4.59933">
        <ele>1278</ele>
        <time>2014-09-14T07:48:50Z</time>
      </trkpt>
      <trkpt lat="45.39011" lon="4.59932">
        <ele>1279</ele>
        <time>2014-09-14T07:48:53Z</time>
      </trkpt>
      <trkpt lat="45.39007" lon="4.59932">
        <ele>1279</ele>
        <time>2014-09-14T07:48:55Z</time>
      </trkpt>
      <trkpt lat="45.39003" lon="4.59933">
        <ele>1280</ele>
        <time>2014-09-14T07:48:57Z</time>
      </trkpt>
      <trkpt lat="45.38998" lon="4.59934">
        <ele>1281</ele>
        <time>2014-09-14T07:49:00Z</time>
      </trkpt>
      <trkpt lat="45.38996" lon="4.59935">
        <ele>1281</ele>
        <time>2014-09-14T07:49:02Z</time>
      </trkpt>
      <trkpt lat="45.38992" lon="4.59937">
        <ele>1282</ele>
        <time>2014-09-14T07:49:05Z</time>
      </trkpt>
      <trkpt lat="45.3899" lon="4.59938">
        <ele>1283</ele>
        <time>2014-09-14T07:49:07Z</time>
      </trkpt>
      <trkpt lat="45.38985" lon="4.59938">
        <ele>1283</ele>
        <time>2014-09-14T07:49:10Z</time>
      </trkpt>
      <trkpt lat="45.38983" lon="4.59938">
        <ele>1283</ele>
        <time>2014-09-14T07:49:12Z</time>
      </trkpt>
      <trkpt lat="45.38981" lon="4.59937">
        <ele>1283</ele>
        <time>2014-09-14T07:49:15Z</time>
      </trkpt>
      <trkpt lat="45.38977" lon="4.59936">
        <ele>1284</ele>
        <time>2014-09-14T07:49:18Z</time>
      </trkpt>
      <trkpt lat="45.38972" lon="4.59936">
        <ele>1284</ele>
        <time>2014-09-14T07:49:21Z</time>
      </trkpt>
      <trkpt lat="45.38969" lon="4.59936">
        <ele>1285</ele>
        <time>2014-09-14T07:49:23Z</time>
      </trkpt>
      <trkpt lat="45.38966" lon="4.59936">
        <ele>1285</ele>
        <time>2014-09-14T07:49:26Z</time>
      </trkpt>
      <trkpt lat="45.38961" lon="4.59934">
        <ele>1285</ele>
        <time>2014-09-14T07:49:29Z</time>
      </trkpt>
      <trkpt lat="45.38954" lon="4.59931">
        <ele>1285</ele>
        <time>2014-09-14T07:49:31Z</time>
      </trkpt>
      <trkpt lat="45.3895" lon="4.59928">
        <ele>1285</ele>
        <time>2014-09-14T07:49:33Z</time>
      </trkpt>
      <trkpt lat="45.38946" lon="4.59926">
        <ele>1285</ele>
        <time>2014-09-14T07:49:35Z</time>
      </trkpt>
      <trkpt lat="45.38942" lon="4.59924">
        <ele>1285</ele>
        <time>2014-09-14T07:49:37Z</time>
      </trkpt>
      <trkpt lat="45.38938" lon="4.59921">
        <ele>1285</ele>
        <time>2014-09-14T07:49:40Z</time>
      </trkpt>
      <trkpt lat="45.38931" lon="4.59918">
        <ele>1285</ele>
        <time>2014-09-14T07:49:42Z</time>
      </trkpt>
      <trkpt lat="45.38927" lon="4.59916">
        <ele>1285</ele>
        <time>2014-09-14T07:49:44Z</time>
      </trkpt>
      <trkpt lat="45.38923" lon="4.59914">
        <ele>1285</ele>
        <time>2014-09-14T07:49:46Z</time>
      </trkpt>
      <trkpt lat="45.38919" lon="4.59913">
        <ele>1285</ele>
        <time>2014-09-14T07:49:49Z</time>
      </trkpt>
      <trkpt lat="45.38912" lon="4.59911">
        <ele>1286</ele>
        <time>2014-09-14T07:49:52Z</time>
      </trkpt>
      <trkpt lat="45.38906" lon="4.59908">
        <ele>1286</ele>
        <time>2014-09-14T07:49:54Z</time>
      </trkpt>
      <trkpt lat="45.38902" lon="4.59907">
        <ele>1286</ele>
        <time>2014-09-14T07:49:56Z</time>
      </trkpt>
      <trkpt lat="45.38898" lon="4.59906">
        <ele>1286</ele>
        <time>2014-09-14T07:49:58Z</time>
      </trkpt>
      <trkpt lat="45.38891" lon="4.59905">
        <ele>1287</ele>
        <time>2014-09-14T07:50:02Z</time>
      </trkpt>
      <trkpt lat="45.38884" lon="4.59903">
        <ele>1287</ele>
        <time>2014-09-14T07:50:05Z</time>
      </trkpt>
      <trkpt lat="45.38878" lon="4.59902">
        <ele>1288</ele>
        <time>2014-09-14T07:50:07Z</time>
      </trkpt>
      <trkpt lat="45.38873" lon="4.599">
        <ele>1288</ele>
        <time>2014-09-14T07:50:09Z</time>
      </trkpt>
      <trkpt lat="45.38868" lon="4.59897">
        <ele>1288</ele>
        <time>2014-09-14T07:50:11Z</time>
      </trkpt>
      <trkpt lat="45.38863" lon="4.59891">
        <ele>1288</ele>
        <time>2014-09-14T07:50:14Z</time>
      </trkpt>
      <trkpt lat="45.3886" lon="4.59887">
        <ele>1288</ele>
        <time>2014-09-14T07:50:16Z</time>
      </trkpt>
      <trkpt lat="45.38854" lon="4.59881">
        <ele>1288</ele>
        <time>2014-09-14T07:50:19Z</time>
      </trkpt>
      <trkpt lat="45.38848" lon="4.59876">
        <ele>1288</ele>
        <time>2014-09-14T07:50:23Z</time>
      </trkpt>
      <trkpt lat="45.38845" lon="4.59872">
        <ele>1289</ele>
        <time>2014-09-14T07:50:25Z</time>
      </trkpt>
      <trkpt lat="45.3884" lon="4.59868">
        <ele>1289</ele>
        <time>2014-09-14T07:50:27Z</time>
      </trkpt>
      <trkpt lat="45.38838" lon="4.59866">
        <ele>1289</ele>
        <time>2014-09-14T07:50:29Z</time>
      </trkpt>
      <trkpt lat="45.38836" lon="4.59862">
        <ele>1289</ele>
        <time>2014-09-14T07:50:32Z</time>
      </trkpt>
      <trkpt lat="45.38834" lon="4.5986">
        <ele>1289</ele>
        <time>2014-09-14T07:50:34Z</time>
      </trkpt>
      <trkpt lat="45.38833" lon="4.59856">
        <ele>1289</ele>
        <time>2014-09-14T07:50:36Z</time>
      </trkpt>
      <trkpt lat="45.38831" lon="4.59853">
        <ele>1289</ele>
        <time>2014-09-14T07:50:39Z</time>
      </trkpt>
      <trkpt lat="45.3883" lon="4.59849">
        <ele>1289</ele>
        <time>2014-09-14T07:50:41Z</time>
      </trkpt>
      <trkpt lat="45.38829" lon="4.59847">
        <ele>1290</ele>
        <time>2014-09-14T07:50:43Z</time>
      </trkpt>
      <trkpt lat="45.38828" lon="4.59844">
        <ele>1290</ele>
        <time>2014-09-14T07:50:45Z</time>
      </trkpt>
      <trkpt lat="45.38826" lon="4.59842">
        <ele>1290</ele>
        <time>2014-09-14T07:50:47Z</time>
      </trkpt>
      <trkpt lat="45.38824" lon="4.59839">
        <ele>1291</ele>
        <time>2014-09-14T07:50:49Z</time>
      </trkpt>
      <trkpt lat="45.38822" lon="4.59835">
        <ele>1292</ele>
        <time>2014-09-14T07:50:52Z</time>
      </trkpt>
      <trkpt lat="45.38821" lon="4.59832">
        <ele>1292</ele>
        <time>2014-09-14T07:50:55Z</time>
      </trkpt>
      <trkpt lat="45.38819" lon="4.59828">
        <ele>1293</ele>
        <time>2014-09-14T07:50:57Z</time>
      </trkpt>
      <trkpt lat="45.38817" lon="4.59823">
        <ele>1293</ele>
        <time>2014-09-14T07:51:00Z</time>
      </trkpt>
      <trkpt lat="45.38816" lon="4.5982">
        <ele>1293</ele>
        <time>2014-09-14T07:51:03Z</time>
      </trkpt>
      <trkpt lat="45.38814" lon="4.59816">
        <ele>1294</ele>
        <time>2014-09-14T07:51:05Z</time>
      </trkpt>
      <trkpt lat="45.38813" lon="4.5981">
        <ele>1294</ele>
        <time>2014-09-14T07:51:08Z</time>
      </trkpt>
      <trkpt lat="45.38811" lon="4.59807">
        <ele>1295</ele>
        <time>2014-09-14T07:51:11Z</time>
      </trkpt>
      <trkpt lat="45.3881" lon="4.59804">
        <ele>1295</ele>
        <time>2014-09-14T07:51:14Z</time>
      </trkpt>
      <trkpt lat="45.38809" lon="4.598">
        <ele>1295</ele>
        <time>2014-09-14T07:51:16Z</time>
      </trkpt>
      <trkpt lat="45.38808" lon="4.59797">
        <ele>1296</ele>
        <time>2014-09-14T07:51:18Z</time>
      </trkpt>
      <trkpt lat="45.38806" lon="4.59795">
        <ele>1296</ele>
        <time>2014-09-14T07:51:20Z</time>
      </trkpt>
      <trkpt lat="45.38805" lon="4.59791">
        <ele>1297</ele>
        <time>2014-09-14T07:51:23Z</time>
      </trkpt>
      <trkpt lat="45.38804" lon="4.59789">
        <ele>1297</ele>
        <time>2014-09-14T07:51:25Z</time>
      </trkpt>
      <trkpt lat="45.38803" lon="4.59784">
        <ele>1298</ele>
        <time>2014-09-14T07:51:29Z</time>
      </trkpt>
      <trkpt lat="45.38802" lon="4.59781">
        <ele>1298</ele>
        <time>2014-09-14T07:51:31Z</time>
      </trkpt>
      <trkpt lat="45.38801" lon="4.59778">
        <ele>1299</ele>
        <time>2014-09-14T07:51:33Z</time>
      </trkpt>
      <trkpt lat="45.38801" lon="4.59774">
        <ele>1299</ele>
        <time>2014-09-14T07:51:36Z</time>
      </trkpt>
      <trkpt lat="45.38799" lon="4.5977">
        <ele>1300</ele>
        <time>2014-09-14T07:51:39Z</time>
      </trkpt>
      <trkpt lat="45.38799" lon="4.59768">
        <ele>1300</ele>
        <time>2014-09-14T07:51:41Z</time>
      </trkpt>
      <trkpt lat="45.38798" lon="4.59765">
        <ele>1301</ele>
        <time>2014-09-14T07:51:43Z</time>
      </trkpt>
      <trkpt lat="45.38795" lon="4.59763">
        <ele>1301</ele>
        <time>2014-09-14T07:51:46Z</time>
      </trkpt>
      <trkpt lat="45.38794" lon="4.59762">
        <ele>1302</ele>
        <time>2014-09-14T07:51:48Z</time>
      </trkpt>
      <trkpt lat="45.38792" lon="4.5976">
        <ele>1302</ele>
        <time>2014-09-14T07:51:51Z</time>
      </trkpt>
      <trkpt lat="45.38791" lon="4.59757">
        <ele>1302</ele>
        <time>2014-09-14T07:51:53Z</time>
      </trkpt>
      <trkpt lat="45.38789" lon="4.59754">
        <ele>1303</ele>
        <time>2014-09-14T07:51:56Z</time>
      </trkpt>
      <trkpt lat="45.38788" lon="4.59752">
        <ele>1303</ele>
        <time>2014-09-14T07:51:58Z</time>
      </trkpt>
      <trkpt lat="45.38786" lon="4.5975">
        <ele>1304</ele>
        <time>2014-09-14T07:52:01Z</time>
      </trkpt>
      <trkpt lat="45.38782" lon="4.59747">
        <ele>1305</ele>
        <time>2014-09-14T07:52:04Z</time>
      </trkpt>
      <trkpt lat="45.3878" lon="4.59745">
        <ele>1306</ele>
        <time>2014-09-14T07:52:07Z</time>
      </trkpt>
      <trkpt lat="45.38778" lon="4.59743">
        <ele>1306</ele>
        <time>2014-09-14T07:52:09Z</time>
      </trkpt>
      <trkpt lat="45.38776" lon="4.59741">
        <ele>1306</ele>
        <time>2014-09-14T07:52:11Z</time>
      </trkpt>
      <trkpt lat="45.38776" lon="4.59739">
        <ele>1307</ele>
        <time>2014-09-14T07:52:14Z</time>
      </trkpt>
      <trkpt lat="45.38776" lon="4.59738">
        <ele>1307</ele>
        <time>2014-09-14T07:52:16Z</time>
      </trkpt>
      <trkpt lat="45.38774" lon="4.59737">
        <ele>1308</ele>
        <time>2014-09-14T07:52:18Z</time>
      </trkpt>
      <trkpt lat="45.38771" lon="4.59734">
        <ele>1309</ele>
        <time>2014-09-14T07:52:21Z</time>
      </trkpt>
      <trkpt lat="45.38769" lon="4.59732">
        <ele>1310</ele>
        <time>2014-09-14T07:52:25Z</time>
      </trkpt>
      <trkpt lat="45.38769" lon="4.59729">
        <ele>1310</ele>
        <time>2014-09-14T07:52:27Z</time>
      </trkpt>
      <trkpt lat="45.38768" lon="4.59727">
        <ele>1310</ele>
        <time>2014-09-14T07:52:29Z</time>
      </trkpt>
      <trkpt lat="45.38766" lon="4.59724">
        <ele>1310</ele>
        <time>2014-09-14T07:52:32Z</time>
      </trkpt>
      <trkpt lat="45.38763" lon="4.59721">
        <ele>1311</ele>
        <time>2014-09-14T07:52:35Z</time>
      </trkpt>
      <trkpt lat="45.38762" lon="4.5972">
        <ele>1312</ele>
        <time>2014-09-14T07:52:38Z</time>
      </trkpt>
      <trkpt lat="45.3876" lon="4.59717">
        <ele>1312</ele>
        <time>2014-09-14T07:52:40Z</time>
      </trkpt>
      <trkpt lat="45.38757" lon="4.59714">
        <ele>1313</ele>
        <time>2014-09-14T07:52:43Z</time>
      </trkpt>
      <trkpt lat="45.38755" lon="4.59711">
        <ele>1314</ele>
        <time>2014-09-14T07:52:45Z</time>
      </trkpt>
      <trkpt lat="45.38753" lon="4.59707">
        <ele>1314</ele>
        <time>2014-09-14T07:52:48Z</time>
      </trkpt>
      <trkpt lat="45.38752" lon="4.59704">
        <ele>1315</ele>
        <time>2014-09-14T07:52:52Z</time>
      </trkpt>
      <trkpt lat="45.38751" lon="4.59701">
        <ele>1315</ele>
        <time>2014-09-14T07:52:54Z</time>
      </trkpt>
      <trkpt lat="45.3875" lon="4.59699">
        <ele>1315</ele>
        <time>2014-09-14T07:52:56Z</time>
      </trkpt>
      <trkpt lat="45.38748" lon="4.59697">
        <ele>1316</ele>
        <time>2014-09-14T07:52:59Z</time>
      </trkpt>
      <trkpt lat="45.38745" lon="4.59694">
        <ele>1316</ele>
        <time>2014-09-14T07:53:02Z</time>
      </trkpt>
      <trkpt lat="45.38741" lon="4.59691">
        <ele>1317</ele>
        <time>2014-09-14T07:53:05Z</time>
      </trkpt>
      <trkpt lat="45.38739" lon="4.59689">
        <ele>1317</ele>
        <time>2014-09-14T07:53:07Z</time>
      </trkpt>
      <trkpt lat="45.38736" lon="4.59687">
        <ele>1318</ele>
        <time>2014-09-14T07:53:10Z</time>
      </trkpt>
      <trkpt lat="45.38734" lon="4.59686">
        <ele>1318</ele>
        <time>2014-09-14T07:53:12Z</time>
      </trkpt>
      <trkpt lat="45.38731" lon="4.59684">
        <ele>1319</ele>
        <time>2014-09-14T07:53:15Z</time>
      </trkpt>
      <trkpt lat="45.38727" lon="4.59682">
        <ele>1320</ele>
        <time>2014-09-14T07:53:18Z</time>
      </trkpt>
      <trkpt lat="45.38725" lon="4.59681">
        <ele>1320</ele>
        <time>2014-09-14T07:53:20Z</time>
      </trkpt>
      <trkpt lat="45.38723" lon="4.59679">
        <ele>1320</ele>
        <time>2014-09-14T07:53:22Z</time>
      </trkpt>
      <trkpt lat="45.3872" lon="4.59676">
        <ele>1321</ele>
        <time>2014-09-14T07:53:25Z</time>
      </trkpt>
      <trkpt lat="45.38718" lon="4.59674">
        <ele>1321</ele>
        <time>2014-09-14T07:53:27Z</time>
      </trkpt>
      <trkpt lat="45.38717" lon="4.59672">
        <ele>1321</ele>
        <time>2014-09-14T07:53:30Z</time>
      </trkpt>
      <trkpt lat="45.38715" lon="4.5967">
        <ele>1321</ele>
        <time>2014-09-14T07:53:32Z</time>
      </trkpt>
      <trkpt lat="45.38713" lon="4.59667">
        <ele>1322</ele>
        <time>2014-09-14T07:53:35Z</time>
      </trkpt>
      <trkpt lat="45.3871" lon="4.59663">
        <ele>1322</ele>
        <time>2014-09-14T07:53:38Z</time>
      </trkpt>
      <trkpt lat="45.38709" lon="4.59661">
        <ele>1324</ele>
        <time>2014-09-14T07:53:40Z</time>
      </trkpt>
      <trkpt lat="45.38707" lon="4.59657">
        <ele>1324</ele>
        <time>2014-09-14T07:53:43Z</time>
      </trkpt>
      <trkpt lat="45.38707" lon="4.59654">
        <ele>1324</ele>
        <time>2014-09-14T07:53:46Z</time>
      </trkpt>
      <trkpt lat="45.38707" lon="4.59653">
        <ele>1325</ele>
        <time>2014-09-14T07:53:48Z</time>
      </trkpt>
      <trkpt lat="45.38706" lon="4.59651">
        <ele>1325</ele>
        <time>2014-09-14T07:53:50Z</time>
      </trkpt>
      <trkpt lat="45.38706" lon="4.59649">
        <ele>1326</ele>
        <time>2014-09-14T07:53:52Z</time>
      </trkpt>
      <trkpt lat="45.38705" lon="4.59644">
        <ele>1327</ele>
        <time>2014-09-14T07:53:56Z</time>
      </trkpt>
      <trkpt lat="45.38704" lon="4.59641">
        <ele>1328</ele>
        <time>2014-09-14T07:53:58Z</time>
      </trkpt>
      <trkpt lat="45.38703" lon="4.59638">
        <ele>1328</ele>
        <time>2014-09-14T07:54:00Z</time>
      </trkpt>
      <trkpt lat="45.38702" lon="4.59635">
        <ele>1328</ele>
        <time>2014-09-14T07:54:03Z</time>
      </trkpt>
      <trkpt lat="45.38702" lon="4.59631">
        <ele>1329</ele>
        <time>2014-09-14T07:54:06Z</time>
      </trkpt>
      <trkpt lat="45.38701" lon="4.59627">
        <ele>1329</ele>
        <time>2014-09-14T07:54:09Z</time>
      </trkpt>
      <trkpt lat="45.38699" lon="4.59624">
        <ele>1330</ele>
        <time>2014-09-14T07:54:12Z</time>
      </trkpt>
      <trkpt lat="45.38698" lon="4.5962">
        <ele>1330</ele>
        <time>2014-09-14T07:54:14Z</time>
      </trkpt>
      <trkpt lat="45.38697" lon="4.59618">
        <ele>1331</ele>
        <time>2014-09-14T07:54:16Z</time>
      </trkpt>
      <trkpt lat="45.38696" lon="4.59614">
        <ele>1331</ele>
        <time>2014-09-14T07:54:19Z</time>
      </trkpt>
      <trkpt lat="45.38694" lon="4.59611">
        <ele>1332</ele>
        <time>2014-09-14T07:54:22Z</time>
      </trkpt>
      <trkpt lat="45.38693" lon="4.59609">
        <ele>1332</ele>
        <time>2014-09-14T07:54:25Z</time>
      </trkpt>
      <trkpt lat="45.38691" lon="4.59605">
        <ele>1332</ele>
        <time>2014-09-14T07:54:27Z</time>
      </trkpt>
      <trkpt lat="45.38691" lon="4.59602">
        <ele>1333</ele>
        <time>2014-09-14T07:54:29Z</time>
      </trkpt>
      <trkpt lat="45.38689" lon="4.59596">
        <ele>1332</ele>
        <time>2014-09-14T07:54:32Z</time>
      </trkpt>
      <trkpt lat="45.38689" lon="4.59592">
        <ele>1332</ele>
        <time>2014-09-14T07:54:35Z</time>
      </trkpt>
      <trkpt lat="45.38689" lon="4.59586">
        <ele>1332</ele>
        <time>2014-09-14T07:54:37Z</time>
      </trkpt>
      <trkpt lat="45.38689" lon="4.59581">
        <ele>1331</ele>
        <time>2014-09-14T07:54:39Z</time>
      </trkpt>
      <trkpt lat="45.38689" lon="4.5957">
        <ele>1331</ele>
        <time>2014-09-14T07:54:42Z</time>
      </trkpt>
      <trkpt lat="45.38689" lon="4.59563">
        <ele>1331</ele>
        <time>2014-09-14T07:54:44Z</time>
      </trkpt>
      <trkpt lat="45.38689" lon="4.59554">
        <ele>1330</ele>
        <time>2014-09-14T07:54:47Z</time>
      </trkpt>
      <trkpt lat="45.38689" lon="4.59551">
        <ele>1330</ele>
        <time>2014-09-14T07:54:49Z</time>
      </trkpt>
      <trkpt lat="45.38689" lon="4.59545">
        <ele>1330</ele>
        <time>2014-09-14T07:54:52Z</time>
      </trkpt>
      <trkpt lat="45.38688" lon="4.5954">
        <ele>1329</ele>
        <time>2014-09-14T07:54:55Z</time>
      </trkpt>
      <trkpt lat="45.38688" lon="4.5953">
        <ele>1329</ele>
        <time>2014-09-14T07:54:57Z</time>
      </trkpt>
      <trkpt lat="45.38686" lon="4.59524">
        <ele>1328</ele>
        <time>2014-09-14T07:54:59Z</time>
      </trkpt>
      <trkpt lat="45.38685" lon="4.59515">
        <ele>1328</ele>
        <time>2014-09-14T07:55:02Z</time>
      </trkpt>
      <trkpt lat="45.38684" lon="4.59506">
        <ele>1328</ele>
        <time>2014-09-14T07:55:05Z</time>
      </trkpt>
      <trkpt lat="45.38684" lon="4.59501">
        <ele>1328</ele>
        <time>2014-09-14T07:55:07Z</time>
      </trkpt>
      <trkpt lat="45.38683" lon="4.59494">
        <ele>1327</ele>
        <time>2014-09-14T07:55:10Z</time>
      </trkpt>
      <trkpt lat="45.38683" lon="4.59484">
        <ele>1327</ele>
        <time>2014-09-14T07:55:12Z</time>
      </trkpt>
      <trkpt lat="45.38683" lon="4.59474">
        <ele>1326</ele>
        <time>2014-09-14T07:55:15Z</time>
      </trkpt>
      <trkpt lat="45.38682" lon="4.59467">
        <ele>1325</ele>
        <time>2014-09-14T07:55:17Z</time>
      </trkpt>
      <trkpt lat="45.38681" lon="4.59455">
        <ele>1325</ele>
        <time>2014-09-14T07:55:20Z</time>
      </trkpt>
      <trkpt lat="45.3868" lon="4.59449">
        <ele>1324</ele>
        <time>2014-09-14T07:55:22Z</time>
      </trkpt>
      <trkpt lat="45.38678" lon="4.59438">
        <ele>1324</ele>
        <time>2014-09-14T07:55:25Z</time>
      </trkpt>
      <trkpt lat="45.38676" lon="4.59427">
        <ele>1323</ele>
        <time>2014-09-14T07:55:28Z</time>
      </trkpt>
      <trkpt lat="45.38675" lon="4.5942">
        <ele>1323</ele>
        <time>2014-09-14T07:55:30Z</time>
      </trkpt>
      <trkpt lat="45.38673" lon="4.59412">
        <ele>1322</ele>
        <time>2014-09-14T07:55:32Z</time>
      </trkpt>
      <trkpt lat="45.38671" lon="4.59405">
        <ele>1322</ele>
        <time>2014-09-14T07:55:34Z</time>
      </trkpt>
      <trkpt lat="45.38668" lon="4.59398">
        <ele>1322</ele>
        <time>2014-09-14T07:55:37Z</time>
      </trkpt>
      <trkpt lat="45.38665" lon="4.59388">
        <ele>1322</ele>
        <time>2014-09-14T07:55:39Z</time>
      </trkpt>
      <trkpt lat="45.38663" lon="4.59381">
        <ele>1321</ele>
        <time>2014-09-14T07:55:41Z</time>
      </trkpt>
      <trkpt lat="45.38661" lon="4.59373">
        <ele>1321</ele>
        <time>2014-09-14T07:55:43Z</time>
      </trkpt>
      <trkpt lat="45.3866" lon="4.59366">
        <ele>1321</ele>
        <time>2014-09-14T07:55:45Z</time>
      </trkpt>
      <trkpt lat="45.38658" lon="4.59356">
        <ele>1322</ele>
        <time>2014-09-14T07:55:48Z</time>
      </trkpt>
      <trkpt lat="45.38655" lon="4.59347">
        <ele>1322</ele>
        <time>2014-09-14T07:55:51Z</time>
      </trkpt>
      <trkpt lat="45.38653" lon="4.59339">
        <ele>1322</ele>
        <time>2014-09-14T07:55:54Z</time>
      </trkpt>
      <trkpt lat="45.38652" lon="4.59335">
        <ele>1322</ele>
        <time>2014-09-14T07:55:56Z</time>
      </trkpt>
      <trkpt lat="45.3865" lon="4.59331">
        <ele>1323</ele>
        <time>2014-09-14T07:55:58Z</time>
      </trkpt>
      <trkpt lat="45.38647" lon="4.59326">
        <ele>1323</ele>
        <time>2014-09-14T07:56:01Z</time>
      </trkpt>
      <trkpt lat="45.38645" lon="4.59324">
        <ele>1323</ele>
        <time>2014-09-14T07:56:03Z</time>
      </trkpt>
      <trkpt lat="45.38643" lon="4.59319">
        <ele>1324</ele>
        <time>2014-09-14T07:56:06Z</time>
      </trkpt>
      <trkpt lat="45.38642" lon="4.59315">
        <ele>1324</ele>
        <time>2014-09-14T07:56:08Z</time>
      </trkpt>
      <trkpt lat="45.38641" lon="4.59312">
        <ele>1325</ele>
        <time>2014-09-14T07:56:10Z</time>
      </trkpt>
      <trkpt lat="45.3864" lon="4.59308">
        <ele>1326</ele>
        <time>2014-09-14T07:56:13Z</time>
      </trkpt>
      <trkpt lat="45.38639" lon="4.59305">
        <ele>1326</ele>
        <time>2014-09-14T07:56:15Z</time>
      </trkpt>
      <trkpt lat="45.38638" lon="4.59301">
        <ele>1327</ele>
        <time>2014-09-14T07:56:18Z</time>
      </trkpt>
      <trkpt lat="45.38636" lon="4.59298">
        <ele>1328</ele>
        <time>2014-09-14T07:56:21Z</time>
      </trkpt>
      <trkpt lat="45.38634" lon="4.59294">
        <ele>1328</ele>
        <time>2014-09-14T07:56:24Z</time>
      </trkpt>
      <trkpt lat="45.38633" lon="4.59291">
        <ele>1329</ele>
        <time>2014-09-14T07:56:26Z</time>
      </trkpt>
      <trkpt lat="45.38631" lon="4.59289">
        <ele>1329</ele>
        <time>2014-09-14T07:56:28Z</time>
      </trkpt>
      <trkpt lat="45.3863" lon="4.59287">
        <ele>1330</ele>
        <time>2014-09-14T07:56:30Z</time>
      </trkpt>
      <trkpt lat="45.38627" lon="4.59283">
        <ele>1330</ele>
        <time>2014-09-14T07:56:33Z</time>
      </trkpt>
      <trkpt lat="45.38625" lon="4.59281">
        <ele>1330</ele>
        <time>2014-09-14T07:56:35Z</time>
      </trkpt>
      <trkpt lat="45.38624" lon="4.59278">
        <ele>1331</ele>
        <time>2014-09-14T07:56:37Z</time>
      </trkpt>
      <trkpt lat="45.38622" lon="4.59273">
        <ele>1331</ele>
        <time>2014-09-14T07:56:40Z</time>
      </trkpt>
      <trkpt lat="45.38621" lon="4.59271">
        <ele>1332</ele>
        <time>2014-09-14T07:56:42Z</time>
      </trkpt>
      <trkpt lat="45.38619" lon="4.59268">
        <ele>1332</ele>
        <time>2014-09-14T07:56:44Z</time>
      </trkpt>
      <trkpt lat="45.38617" lon="4.59264">
        <ele>1332</ele>
        <time>2014-09-14T07:56:47Z</time>
      </trkpt>
      <trkpt lat="45.38615" lon="4.59262">
        <ele>1333</ele>
        <time>2014-09-14T07:56:49Z</time>
      </trkpt>
      <trkpt lat="45.3861" lon="4.59258">
        <ele>1333</ele>
        <time>2014-09-14T07:56:52Z</time>
      </trkpt>
      <trkpt lat="45.38606" lon="4.59258">
        <ele>1333</ele>
        <time>2014-09-14T07:56:54Z</time>
      </trkpt>
      <trkpt lat="45.38602" lon="4.59258">
        <ele>1333</ele>
        <time>2014-09-14T07:56:56Z</time>
      </trkpt>
      <trkpt lat="45.38598" lon="4.59257">
        <ele>1333</ele>
        <time>2014-09-14T07:56:58Z</time>
      </trkpt>
      <trkpt lat="45.38594" lon="4.59255">
        <ele>1333</ele>
        <time>2014-09-14T07:57:01Z</time>
      </trkpt>
      <trkpt lat="45.38588" lon="4.59253">
        <ele>1333</ele>
        <time>2014-09-14T07:57:03Z</time>
      </trkpt>
      <trkpt lat="45.38584" lon="4.59249">
        <ele>1333</ele>
        <time>2014-09-14T07:57:05Z</time>
      </trkpt>
      <trkpt lat="45.38581" lon="4.59246">
        <ele>1334</ele>
        <time>2014-09-14T07:57:07Z</time>
      </trkpt>
      <trkpt lat="45.38577" lon="4.59243">
        <ele>1334</ele>
        <time>2014-09-14T07:57:09Z</time>
      </trkpt>
      <trkpt lat="45.38573" lon="4.5924">
        <ele>1335</ele>
        <time>2014-09-14T07:57:11Z</time>
      </trkpt>
      <trkpt lat="45.38569" lon="4.59238">
        <ele>1335</ele>
        <time>2014-09-14T07:57:13Z</time>
      </trkpt>
      <trkpt lat="45.38563" lon="4.59235">
        <ele>1335</ele>
        <time>2014-09-14T07:57:16Z</time>
      </trkpt>
      <trkpt lat="45.38558" lon="4.59232">
        <ele>1336</ele>
        <time>2014-09-14T07:57:18Z</time>
      </trkpt>
      <trkpt lat="45.38552" lon="4.59231">
        <ele>1336</ele>
        <time>2014-09-14T07:57:21Z</time>
      </trkpt>
      <trkpt lat="45.38547" lon="4.5923">
        <ele>1336</ele>
        <time>2014-09-14T07:57:23Z</time>
      </trkpt>
      <trkpt lat="45.38543" lon="4.5923">
        <ele>1336</ele>
        <time>2014-09-14T07:57:25Z</time>
      </trkpt>
      <trkpt lat="45.38536" lon="4.59231">
        <ele>1336</ele>
        <time>2014-09-14T07:57:28Z</time>
      </trkpt>
      <trkpt lat="45.38532" lon="4.59229">
        <ele>1336</ele>
        <time>2014-09-14T07:57:30Z</time>
      </trkpt>
      <trkpt lat="45.38526" lon="4.59227">
        <ele>1336</ele>
        <time>2014-09-14T07:57:33Z</time>
      </trkpt>
      <trkpt lat="45.3852" lon="4.59226">
        <ele>1336</ele>
        <time>2014-09-14T07:57:36Z</time>
      </trkpt>
      <trkpt lat="45.38516" lon="4.59225">
        <ele>1336</ele>
        <time>2014-09-14T07:57:38Z</time>
      </trkpt>
      <trkpt lat="45.38511" lon="4.59226">
        <ele>1336</ele>
        <time>2014-09-14T07:57:41Z</time>
      </trkpt>
      <trkpt lat="45.38507" lon="4.59227">
        <ele>1337</ele>
        <time>2014-09-14T07:57:44Z</time>
      </trkpt>
      <trkpt lat="45.38503" lon="4.59226">
        <ele>1337</ele>
        <time>2014-09-14T07:57:46Z</time>
      </trkpt>
      <trkpt lat="45.38498" lon="4.59226">
        <ele>1336</ele>
        <time>2014-09-14T07:57:49Z</time>
      </trkpt>
      <trkpt lat="45.38496" lon="4.59223">
        <ele>1336</ele>
        <time>2014-09-14T07:57:51Z</time>
      </trkpt>
      <trkpt lat="45.38497" lon="4.59218">
        <ele>1336</ele>
        <time>2014-09-14T07:57:54Z</time>
      </trkpt>
      <trkpt lat="45.38498" lon="4.59209">
        <ele>1336</ele>
        <time>2014-09-14T07:57:56Z</time>
      </trkpt>
      <trkpt lat="45.38497" lon="4.59198">
        <ele>1336</ele>
        <time>2014-09-14T07:57:59Z</time>
      </trkpt>
      <trkpt lat="45.38497" lon="4.5919">
        <ele>1336</ele>
        <time>2014-09-14T07:58:01Z</time>
      </trkpt>
      <trkpt lat="45.38499" lon="4.59179">
        <ele>1336</ele>
        <time>2014-09-14T07:58:04Z</time>
      </trkpt>
      <trkpt lat="45.38499" lon="4.59173">
        <ele>1336</ele>
        <time>2014-09-14T07:58:06Z</time>
      </trkpt>
      <trkpt lat="45.38499" lon="4.59165">
        <ele>1335</ele>
        <time>2014-09-14T07:58:09Z</time>
      </trkpt>
      <trkpt lat="45.38499" lon="4.59156">
        <ele>1335</ele>
        <time>2014-09-14T07:58:11Z</time>
      </trkpt>
      <trkpt lat="45.385" lon="4.59145">
        <ele>1336</ele>
        <time>2014-09-14T07:58:14Z</time>
      </trkpt>
      <trkpt lat="45.38501" lon="4.59138">
        <ele>1336</ele>
        <time>2014-09-14T07:58:16Z</time>
      </trkpt>
      <trkpt lat="45.38501" lon="4.59132">
        <ele>1335</ele>
        <time>2014-09-14T07:58:18Z</time>
      </trkpt>
      <trkpt lat="45.38501" lon="4.59124">
        <ele>1335</ele>
        <time>2014-09-14T07:58:21Z</time>
      </trkpt>
      <trkpt lat="45.385" lon="4.59116">
        <ele>1334</ele>
        <time>2014-09-14T07:58:24Z</time>
      </trkpt>
      <trkpt lat="45.38501" lon="4.5911">
        <ele>1334</ele>
        <time>2014-09-14T07:58:26Z</time>
      </trkpt>
      <trkpt lat="45.38502" lon="4.59104">
        <ele>1334</ele>
        <time>2014-09-14T07:58:28Z</time>
      </trkpt>
      <trkpt lat="45.38504" lon="4.59093">
        <ele>1333</ele>
        <time>2014-09-14T07:58:31Z</time>
      </trkpt>
      <trkpt lat="45.38507" lon="4.59086">
        <ele>1333</ele>
        <time>2014-09-14T07:58:34Z</time>
      </trkpt>
      <trkpt lat="45.38509" lon="4.5908">
        <ele>1333</ele>
        <time>2014-09-14T07:58:36Z</time>
      </trkpt>
      <trkpt lat="45.38509" lon="4.59074">
        <ele>1333</ele>
        <time>2014-09-14T07:58:38Z</time>
      </trkpt>
      <trkpt lat="45.3851" lon="4.59064">
        <ele>1333</ele>
        <time>2014-09-14T07:58:41Z</time>
      </trkpt>
      <trkpt lat="45.38511" lon="4.59057">
        <ele>1333</ele>
        <time>2014-09-14T07:58:43Z</time>
      </trkpt>
      <trkpt lat="45.38511" lon="4.59047">
        <ele>1333</ele>
        <time>2014-09-14T07:58:46Z</time>
      </trkpt>
      <trkpt lat="45.38512" lon="4.5904">
        <ele>1333</ele>
        <time>2014-09-14T07:58:48Z</time>
      </trkpt>
      <trkpt lat="45.38514" lon="4.59032">
        <ele>1334</ele>
        <time>2014-09-14T07:58:51Z</time>
      </trkpt>
      <trkpt lat="45.38513" lon="4.59026">
        <ele>1334</ele>
        <time>2014-09-14T07:58:53Z</time>
      </trkpt>
      <trkpt lat="45.38512" lon="4.5902">
        <ele>1334</ele>
        <time>2014-09-14T07:58:55Z</time>
      </trkpt>
      <trkpt lat="45.38511" lon="4.5901">
        <ele>1334</ele>
        <time>2014-09-14T07:58:58Z</time>
      </trkpt>
      <trkpt lat="45.38511" lon="4.59">
        <ele>1334</ele>
        <time>2014-09-14T07:59:01Z</time>
      </trkpt>
      <trkpt lat="45.38512" lon="4.5899">
        <ele>1335</ele>
        <time>2014-09-14T07:59:04Z</time>
      </trkpt>
      <trkpt lat="45.38512" lon="4.58981">
        <ele>1335</ele>
        <time>2014-09-14T07:59:07Z</time>
      </trkpt>
      <trkpt lat="45.38514" lon="4.58972">
        <ele>1335</ele>
        <time>2014-09-14T07:59:10Z</time>
      </trkpt>
      <trkpt lat="45.38514" lon="4.58962">
        <ele>1334</ele>
        <time>2014-09-14T07:59:13Z</time>
      </trkpt>
      <trkpt lat="45.38513" lon="4.58955">
        <ele>1333</ele>
        <time>2014-09-14T07:59:15Z</time>
      </trkpt>
      <trkpt lat="45.38512" lon="4.58946">
        <ele>1332</ele>
        <time>2014-09-14T07:59:18Z</time>
      </trkpt>
      <trkpt lat="45.38511" lon="4.58938">
        <ele>1331</ele>
        <time>2014-09-14T07:59:21Z</time>
      </trkpt>
      <trkpt lat="45.3851" lon="4.58934">
        <ele>1330</ele>
        <time>2014-09-14T07:59:23Z</time>
      </trkpt>
      <trkpt lat="45.38507" lon="4.58926">
        <ele>1329</ele>
        <time>2014-09-14T07:59:26Z</time>
      </trkpt>
      <trkpt lat="45.38508" lon="4.5892">
        <ele>1329</ele>
        <time>2014-09-14T07:59:28Z</time>
      </trkpt>
      <trkpt lat="45.38512" lon="4.58913">
        <ele>1328</ele>
        <time>2014-09-14T07:59:31Z</time>
      </trkpt>
      <trkpt lat="45.38516" lon="4.58908">
        <ele>1328</ele>
        <time>2014-09-14T07:59:33Z</time>
      </trkpt>
      <trkpt lat="45.38518" lon="4.58904">
        <ele>1327</ele>
        <time>2014-09-14T07:59:36Z</time>
      </trkpt>
      <trkpt lat="45.38516" lon="4.58896">
        <ele>1327</ele>
        <time>2014-09-14T07:59:38Z</time>
      </trkpt>
      <trkpt lat="45.38513" lon="4.58892">
        <ele>1327</ele>
        <time>2014-09-14T07:59:40Z</time>
      </trkpt>
      <trkpt lat="45.38508" lon="4.58885">
        <ele>1326</ele>
        <time>2014-09-14T07:59:43Z</time>
      </trkpt>
      <trkpt lat="45.38505" lon="4.58881">
        <ele>1326</ele>
        <time>2014-09-14T07:59:45Z</time>
      </trkpt>
      <trkpt lat="45.38501" lon="4.58872">
        <ele>1325</ele>
        <time>2014-09-14T07:59:48Z</time>
      </trkpt>
      <trkpt lat="45.38499" lon="4.58866">
        <ele>1325</ele>
        <time>2014-09-14T07:59:51Z</time>
      </trkpt>
      <trkpt lat="45.38496" lon="4.58859">
        <ele>1324</ele>
        <time>2014-09-14T07:59:53Z</time>
      </trkpt>
      <trkpt lat="45.38493" lon="4.5885">
        <ele>1324</ele>
        <time>2014-09-14T07:59:56Z</time>
      </trkpt>
      <trkpt lat="45.38491" lon="4.5884">
        <ele>1323</ele>
        <time>2014-09-14T07:59:59Z</time>
      </trkpt>
      <trkpt lat="45.3849" lon="4.58833">
        <ele>1323</ele>
        <time>2014-09-14T08:00:01Z</time>
      </trkpt>
      <trkpt lat="45.38489" lon="4.58824">
        <ele>1322</ele>
        <time>2014-09-14T08:00:04Z</time>
      </trkpt>
      <trkpt lat="45.38488" lon="4.58817">
        <ele>1322</ele>
        <time>2014-09-14T08:00:06Z</time>
      </trkpt>
      <trkpt lat="45.38488" lon="4.58811">
        <ele>1322</ele>
        <time>2014-09-14T08:00:09Z</time>
      </trkpt>
      <trkpt lat="45.38486" lon="4.58806">
        <ele>1321</ele>
        <time>2014-09-14T08:00:12Z</time>
      </trkpt>
      <trkpt lat="45.38483" lon="4.58801">
        <ele>1321</ele>
        <time>2014-09-14T08:00:15Z</time>
      </trkpt>
      <trkpt lat="45.38481" lon="4.58795">
        <ele>1320</ele>
        <time>2014-09-14T08:00:17Z</time>
      </trkpt>
      <trkpt lat="45.38479" lon="4.58789">
        <ele>1320</ele>
        <time>2014-09-14T08:00:19Z</time>
      </trkpt>
      <trkpt lat="45.38475" lon="4.58782">
        <ele>1319</ele>
        <time>2014-09-14T08:00:22Z</time>
      </trkpt>
      <trkpt lat="45.38471" lon="4.58776">
        <ele>1319</ele>
        <time>2014-09-14T08:00:25Z</time>
      </trkpt>
      <trkpt lat="45.38469" lon="4.58773">
        <ele>1318</ele>
        <time>2014-09-14T08:00:27Z</time>
      </trkpt>
      <trkpt lat="45.38466" lon="4.58767">
        <ele>1318</ele>
        <time>2014-09-14T08:00:30Z</time>
      </trkpt>
      <trkpt lat="45.38464" lon="4.58764">
        <ele>1317</ele>
        <time>2014-09-14T08:00:32Z</time>
      </trkpt>
      <trkpt lat="45.38461" lon="4.58759">
        <ele>1317</ele>
        <time>2014-09-14T08:00:35Z</time>
      </trkpt>
      <trkpt lat="45.3846" lon="4.58756">
        <ele>1317</ele>
        <time>2014-09-14T08:00:37Z</time>
      </trkpt>
      <trkpt lat="45.38457" lon="4.58751">
        <ele>1316</ele>
        <time>2014-09-14T08:00:40Z</time>
      </trkpt>
      <trkpt lat="45.38457" lon="4.58744">
        <ele>1316</ele>
        <time>2014-09-14T08:00:43Z</time>
      </trkpt>
      <trkpt lat="45.38458" lon="4.58738">
        <ele>1315</ele>
        <time>2014-09-14T08:00:46Z</time>
      </trkpt>
      <trkpt lat="45.38458" lon="4.58734">
        <ele>1314</ele>
        <time>2014-09-14T08:00:48Z</time>
      </trkpt>
      <trkpt lat="45.38457" lon="4.58728">
        <ele>1314</ele>
        <time>2014-09-14T08:00:50Z</time>
      </trkpt>
      <trkpt lat="45.38458" lon="4.58721">
        <ele>1313</ele>
        <time>2014-09-14T08:00:52Z</time>
      </trkpt>
      <trkpt lat="45.38455" lon="4.58713">
        <ele>1313</ele>
        <time>2014-09-14T08:00:55Z</time>
      </trkpt>
      <trkpt lat="45.38451" lon="4.58705">
        <ele>1312</ele>
        <time>2014-09-14T08:00:58Z</time>
      </trkpt>
      <trkpt lat="45.38447" lon="4.58697">
        <ele>1312</ele>
        <time>2014-09-14T08:01:01Z</time>
      </trkpt>
      <trkpt lat="45.38446" lon="4.58692">
        <ele>1312</ele>
        <time>2014-09-14T08:01:03Z</time>
      </trkpt>
      <trkpt lat="45.38443" lon="4.58687">
        <ele>1312</ele>
        <time>2014-09-14T08:01:06Z</time>
      </trkpt>
      <trkpt lat="45.38442" lon="4.58685">
        <ele>1312</ele>
        <time>2014-09-14T08:01:08Z</time>
      </trkpt>
      <trkpt lat="45.3844" lon="4.5868">
        <ele>1313</ele>
        <time>2014-09-14T08:01:11Z</time>
      </trkpt>
      <trkpt lat="45.38439" lon="4.58678">
        <ele>1313</ele>
        <time>2014-09-14T08:01:13Z</time>
      </trkpt>
      <trkpt lat="45.38437" lon="4.58673">
        <ele>1314</ele>
        <time>2014-09-14T08:01:16Z</time>
      </trkpt>
      <trkpt lat="45.38436" lon="4.58668">
        <ele>1314</ele>
        <time>2014-09-14T08:01:19Z</time>
      </trkpt>
      <trkpt lat="45.38434" lon="4.58666">
        <ele>1314</ele>
        <time>2014-09-14T08:01:22Z</time>
      </trkpt>
      <trkpt lat="45.3843" lon="4.58663">
        <ele>1315</ele>
        <time>2014-09-14T08:01:25Z</time>
      </trkpt>
      <trkpt lat="45.38429" lon="4.5866">
        <ele>1316</ele>
        <time>2014-09-14T08:01:27Z</time>
      </trkpt>
      <trkpt lat="45.38427" lon="4.58658">
        <ele>1316</ele>
        <time>2014-09-14T08:01:29Z</time>
      </trkpt>
      <trkpt lat="45.38426" lon="4.58656">
        <ele>1316</ele>
        <time>2014-09-14T08:01:31Z</time>
      </trkpt>
      <trkpt lat="45.38424" lon="4.58655">
        <ele>1317</ele>
        <time>2014-09-14T08:01:33Z</time>
      </trkpt>
      <trkpt lat="45.38422" lon="4.58653">
        <ele>1317</ele>
        <time>2014-09-14T08:01:36Z</time>
      </trkpt>
      <trkpt lat="45.38419" lon="4.5865">
        <ele>1317</ele>
        <time>2014-09-14T08:01:38Z</time>
      </trkpt>
      <trkpt lat="45.38417" lon="4.58648">
        <ele>1317</ele>
        <time>2014-09-14T08:01:40Z</time>
      </trkpt>
      <trkpt lat="45.38414" lon="4.58647">
        <ele>1318</ele>
        <time>2014-09-14T08:01:43Z</time>
      </trkpt>
      <trkpt lat="45.3841" lon="4.58645">
        <ele>1318</ele>
        <time>2014-09-14T08:01:46Z</time>
      </trkpt>
      <trkpt lat="45.38408" lon="4.58643">
        <ele>1318</ele>
        <time>2014-09-14T08:01:48Z</time>
      </trkpt>
      <trkpt lat="45.38406" lon="4.58641">
        <ele>1319</ele>
        <time>2014-09-14T08:01:50Z</time>
      </trkpt>
      <trkpt lat="45.38404" lon="4.58638">
        <ele>1318</ele>
        <time>2014-09-14T08:01:53Z</time>
      </trkpt>
      <trkpt lat="45.38402" lon="4.58636">
        <ele>1318</ele>
        <time>2014-09-14T08:01:55Z</time>
      </trkpt>
      <trkpt lat="45.38399" lon="4.58634">
        <ele>1319</ele>
        <time>2014-09-14T08:01:58Z</time>
      </trkpt>
      <trkpt lat="45.38397" lon="4.58632">
        <ele>1319</ele>
        <time>2014-09-14T08:02:00Z</time>
      </trkpt>
      <trkpt lat="45.38393" lon="4.5863">
        <ele>1319</ele>
        <time>2014-09-14T08:02:03Z</time>
      </trkpt>
      <trkpt lat="45.3839" lon="4.58629">
        <ele>1319</ele>
        <time>2014-09-14T08:02:06Z</time>
      </trkpt>
      <trkpt lat="45.38388" lon="4.58629">
        <ele>1319</ele>
        <time>2014-09-14T08:02:08Z</time>
      </trkpt>
      <trkpt lat="45.38385" lon="4.58628">
        <ele>1320</ele>
        <time>2014-09-14T08:02:11Z</time>
      </trkpt>
      <trkpt lat="45.38382" lon="4.58626">
        <ele>1319</ele>
        <time>2014-09-14T08:02:13Z</time>
      </trkpt>
      <trkpt lat="45.38379" lon="4.58626">
        <ele>1319</ele>
        <time>2014-09-14T08:02:15Z</time>
      </trkpt>
      <trkpt lat="45.38376" lon="4.58626">
        <ele>1319</ele>
        <time>2014-09-14T08:02:17Z</time>
      </trkpt>
      <trkpt lat="45.38372" lon="4.58624">
        <ele>1319</ele>
        <time>2014-09-14T08:02:20Z</time>
      </trkpt>
      <trkpt lat="45.38368" lon="4.58622">
        <ele>1319</ele>
        <time>2014-09-14T08:02:23Z</time>
      </trkpt>
      <trkpt lat="45.38366" lon="4.5862">
        <ele>1318</ele>
        <time>2014-09-14T08:02:25Z</time>
      </trkpt>
      <trkpt lat="45.38363" lon="4.58616">
        <ele>1318</ele>
        <time>2014-09-14T08:02:28Z</time>
      </trkpt>
      <trkpt lat="45.38361" lon="4.58613">
        <ele>1318</ele>
        <time>2014-09-14T08:02:31Z</time>
      </trkpt>
      <trkpt lat="45.3836" lon="4.58609">
        <ele>1317</ele>
        <time>2014-09-14T08:02:34Z</time>
      </trkpt>
      <trkpt lat="45.38359" lon="4.58606">
        <ele>1317</ele>
        <time>2014-09-14T08:02:36Z</time>
      </trkpt>
      <trkpt lat="45.38359" lon="4.58602">
        <ele>1318</ele>
        <time>2014-09-14T08:02:39Z</time>
      </trkpt>
      <trkpt lat="45.38358" lon="4.58598">
        <ele>1318</ele>
        <time>2014-09-14T08:02:42Z</time>
      </trkpt>
      <trkpt lat="45.38356" lon="4.58596">
        <ele>1318</ele>
        <time>2014-09-14T08:02:44Z</time>
      </trkpt>
      <trkpt lat="45.38355" lon="4.58595">
        <ele>1318</ele>
        <time>2014-09-14T08:02:46Z</time>
      </trkpt>
      <trkpt lat="45.38352" lon="4.58594">
        <ele>1318</ele>
        <time>2014-09-14T08:02:49Z</time>
      </trkpt>
      <trkpt lat="45.38349" lon="4.58591">
        <ele>1318</ele>
        <time>2014-09-14T08:02:52Z</time>
      </trkpt>
      <trkpt lat="45.38346" lon="4.5859">
        <ele>1318</ele>
        <time>2014-09-14T08:02:55Z</time>
      </trkpt>
      <trkpt lat="45.38344" lon="4.58591">
        <ele>1318</ele>
        <time>2014-09-14T08:02:58Z</time>
      </trkpt>
      <trkpt lat="45.38341" lon="4.58592">
        <ele>1318</ele>
        <time>2014-09-14T08:03:00Z</time>
      </trkpt>
      <trkpt lat="45.3834" lon="4.58592">
        <ele>1318</ele>
        <time>2014-09-14T08:03:02Z</time>
      </trkpt>
      <trkpt lat="45.38338" lon="4.58594">
        <ele>1317</ele>
        <time>2014-09-14T08:03:05Z</time>
      </trkpt>
      <trkpt lat="45.38335" lon="4.58596">
        <ele>1317</ele>
        <time>2014-09-14T08:03:08Z</time>
      </trkpt>
      <trkpt lat="45.38333" lon="4.58596">
        <ele>1317</ele>
        <time>2014-09-14T08:03:10Z</time>
      </trkpt>
      <trkpt lat="45.38331" lon="4.58599">
        <ele>1317</ele>
        <time>2014-09-14T08:03:13Z</time>
      </trkpt>
      <trkpt lat="45.38327" lon="4.58602">
        <ele>1317</ele>
        <time>2014-09-14T08:03:16Z</time>
      </trkpt>
      <trkpt lat="45.38326" lon="4.58602">
        <ele>1317</ele>
        <time>2014-09-14T08:03:18Z</time>
      </trkpt>
      <trkpt lat="45.38324" lon="4.58601">
        <ele>1316</ele>
        <time>2014-09-14T08:03:20Z</time>
      </trkpt>
      <trkpt lat="45.38323" lon="4.58601">
        <ele>1316</ele>
        <time>2014-09-14T08:03:22Z</time>
      </trkpt>
      <trkpt lat="45.38318" lon="4.586">
        <ele>1316</ele>
        <time>2014-09-14T08:03:25Z</time>
      </trkpt>
      <trkpt lat="45.38316" lon="4.58599">
        <ele>1316</ele>
        <time>2014-09-14T08:03:28Z</time>
      </trkpt>
      <trkpt lat="45.38313" lon="4.586">
        <ele>1315</ele>
        <time>2014-09-14T08:03:31Z</time>
      </trkpt>
      <trkpt lat="45.38311" lon="4.58601">
        <ele>1314</ele>
        <time>2014-09-14T08:03:33Z</time>
      </trkpt>
      <trkpt lat="45.38309" lon="4.586">
        <ele>1314</ele>
        <time>2014-09-14T08:03:35Z</time>
      </trkpt>
      <trkpt lat="45.38308" lon="4.586">
        <ele>1313</ele>
        <time>2014-09-14T08:03:37Z</time>
      </trkpt>
      <trkpt lat="45.38306" lon="4.58599">
        <ele>1314</ele>
        <time>2014-09-14T08:03:39Z</time>
      </trkpt>
      <trkpt lat="45.38304" lon="4.58596">
        <ele>1314</ele>
        <time>2014-09-14T08:03:42Z</time>
      </trkpt>
      <trkpt lat="45.38301" lon="4.58593">
        <ele>1315</ele>
        <time>2014-09-14T08:03:45Z</time>
      </trkpt>
      <trkpt lat="45.383" lon="4.58592">
        <ele>1314</ele>
        <time>2014-09-14T08:03:47Z</time>
      </trkpt>
      <trkpt lat="45.38298" lon="4.5859">
        <ele>1314</ele>
        <time>2014-09-14T08:03:50Z</time>
      </trkpt>
      <trkpt lat="45.38297" lon="4.58589">
        <ele>1314</ele>
        <time>2014-09-14T08:03:53Z</time>
      </trkpt>
      <trkpt lat="45.38296" lon="4.58588">
        <ele>1315</ele>
        <time>2014-09-14T08:03:55Z</time>
      </trkpt>
      <trkpt lat="45.38295" lon="4.58586">
        <ele>1315</ele>
        <time>2014-09-14T08:03:57Z</time>
      </trkpt>
      <trkpt lat="45.38293" lon="4.58582">
        <ele>1315</ele>
        <time>2014-09-14T08:04:00Z</time>
      </trkpt>
      <trkpt lat="45.38292" lon="4.5858">
        <ele>1316</ele>
        <time>2014-09-14T08:04:02Z</time>
      </trkpt>
      <trkpt lat="45.38291" lon="4.58577">
        <ele>1316</ele>
        <time>2014-09-14T08:04:04Z</time>
      </trkpt>
      <trkpt lat="45.38289" lon="4.58571">
        <ele>1317</ele>
        <time>2014-09-14T08:04:07Z</time>
      </trkpt>
      <trkpt lat="45.38288" lon="4.58568">
        <ele>1317</ele>
        <time>2014-09-14T08:04:09Z</time>
      </trkpt>
      <trkpt lat="45.38288" lon="4.58565">
        <ele>1317</ele>
        <time>2014-09-14T08:04:11Z</time>
      </trkpt>
      <trkpt lat="45.38287" lon="4.58561">
        <ele>1318</ele>
        <time>2014-09-14T08:04:14Z</time>
      </trkpt>
      <trkpt lat="45.38287" lon="4.58556">
        <ele>1318</ele>
        <time>2014-09-14T08:04:17Z</time>
      </trkpt>
      <trkpt lat="45.38286" lon="4.58553">
        <ele>1319</ele>
        <time>2014-09-14T08:04:19Z</time>
      </trkpt>
      <trkpt lat="45.38286" lon="4.58547">
        <ele>1319</ele>
        <time>2014-09-14T08:04:22Z</time>
      </trkpt>
      <trkpt lat="45.38286" lon="4.58544">
        <ele>1319</ele>
        <time>2014-09-14T08:04:24Z</time>
      </trkpt>
      <trkpt lat="45.38285" lon="4.58538">
        <ele>1319</ele>
        <time>2014-09-14T08:04:27Z</time>
      </trkpt>
      <trkpt lat="45.38284" lon="4.58535">
        <ele>1319</ele>
        <time>2014-09-14T08:04:29Z</time>
      </trkpt>
      <trkpt lat="45.38282" lon="4.58532">
        <ele>1320</ele>
        <time>2014-09-14T08:04:32Z</time>
      </trkpt>
      <trkpt lat="45.3828" lon="4.5853">
        <ele>1320</ele>
        <time>2014-09-14T08:04:35Z</time>
      </trkpt>
      <trkpt lat="45.38277" lon="4.58528">
        <ele>1321</ele>
        <time>2014-09-14T08:04:38Z</time>
      </trkpt>
      <trkpt lat="45.38276" lon="4.58526">
        <ele>1321</ele>
        <time>2014-09-14T08:04:40Z</time>
      </trkpt>
      <trkpt lat="45.38272" lon="4.58523">
        <ele>1322</ele>
        <time>2014-09-14T08:04:43Z</time>
      </trkpt>
      <trkpt lat="45.38269" lon="4.58521">
        <ele>1322</ele>
        <time>2014-09-14T08:04:46Z</time>
      </trkpt>
      <trkpt lat="45.38265" lon="4.58518">
        <ele>1322</ele>
        <time>2014-09-14T08:04:49Z</time>
      </trkpt>
      <trkpt lat="45.38263" lon="4.58515">
        <ele>1322</ele>
        <time>2014-09-14T08:04:51Z</time>
      </trkpt>
      <trkpt lat="45.38261" lon="4.58513">
        <ele>1322</ele>
        <time>2014-09-14T08:04:53Z</time>
      </trkpt>
      <trkpt lat="45.38258" lon="4.5851">
        <ele>1323</ele>
        <time>2014-09-14T08:04:56Z</time>
      </trkpt>
      <trkpt lat="45.38255" lon="4.58509">
        <ele>1323</ele>
        <time>2014-09-14T08:04:59Z</time>
      </trkpt>
      <trkpt lat="45.38253" lon="4.58509">
        <ele>1324</ele>
        <time>2014-09-14T08:05:01Z</time>
      </trkpt>
      <trkpt lat="45.3825" lon="4.5851">
        <ele>1324</ele>
        <time>2014-09-14T08:05:04Z</time>
      </trkpt>
      <trkpt lat="45.38246" lon="4.58513">
        <ele>1323</ele>
        <time>2014-09-14T08:05:07Z</time>
      </trkpt>
      <trkpt lat="45.38244" lon="4.58518">
        <ele>1323</ele>
        <time>2014-09-14T08:05:10Z</time>
      </trkpt>
      <trkpt lat="45.38244" lon="4.5852">
        <ele>1323</ele>
        <time>2014-09-14T08:05:12Z</time>
      </trkpt>
      <trkpt lat="45.38241" lon="4.58523">
        <ele>1322</ele>
        <time>2014-09-14T08:05:15Z</time>
      </trkpt>
      <trkpt lat="45.3824" lon="4.58526">
        <ele>1322</ele>
        <time>2014-09-14T08:05:17Z</time>
      </trkpt>
      <trkpt lat="45.38238" lon="4.58529">
        <ele>1322</ele>
        <time>2014-09-14T08:05:19Z</time>
      </trkpt>
      <trkpt lat="45.38236" lon="4.5853">
        <ele>1321</ele>
        <time>2014-09-14T08:05:21Z</time>
      </trkpt>
      <trkpt lat="45.38234" lon="4.58531">
        <ele>1321</ele>
        <time>2014-09-14T08:05:24Z</time>
      </trkpt>
      <trkpt lat="45.38233" lon="4.58532">
        <ele>1321</ele>
        <time>2014-09-14T08:05:26Z</time>
      </trkpt>
      <trkpt lat="45.38233" lon="4.58532">
        <ele>1321</ele>
        <time>2014-09-14T08:05:28Z</time>
      </trkpt>
      <trkpt lat="45.38232" lon="4.58532">
        <ele>1322</ele>
        <time>2014-09-14T08:05:31Z</time>
      </trkpt>
      <trkpt lat="45.38231" lon="4.58533">
        <ele>1322</ele>
        <time>2014-09-14T08:05:34Z</time>
      </trkpt>
      <trkpt lat="45.3823" lon="4.58533">
        <ele>1322</ele>
        <time>2014-09-14T08:05:37Z</time>
      </trkpt>
      <trkpt lat="45.38229" lon="4.58533">
        <ele>1322</ele>
        <time>2014-09-14T08:05:39Z</time>
      </trkpt>
      <trkpt lat="45.38229" lon="4.58532">
        <ele>1321</ele>
        <time>2014-09-14T08:05:41Z</time>
      </trkpt>
      <trkpt lat="45.38227" lon="4.58532">
        <ele>1321</ele>
        <time>2014-09-14T08:05:44Z</time>
      </trkpt>
      <trkpt lat="45.38226" lon="4.58532">
        <ele>1321</ele>
        <time>2014-09-14T08:05:46Z</time>
      </trkpt>
      <trkpt lat="45.38224" lon="4.58532">
        <ele>1321</ele>
        <time>2014-09-14T08:05:49Z</time>
      </trkpt>
      <trkpt lat="45.38223" lon="4.58532">
        <ele>1321</ele>
        <time>2014-09-14T08:05:52Z</time>
      </trkpt>
      <trkpt lat="45.38221" lon="4.58531">
        <ele>1321</ele>
        <time>2014-09-14T08:05:55Z</time>
      </trkpt>
      <trkpt lat="45.38218" lon="4.5853">
        <ele>1321</ele>
        <time>2014-09-14T08:05:57Z</time>
      </trkpt>
      <trkpt lat="45.38215" lon="4.58528">
        <ele>1321</ele>
        <time>2014-09-14T08:05:59Z</time>
      </trkpt>
      <trkpt lat="45.38214" lon="4.58524">
        <ele>1322</ele>
        <time>2014-09-14T08:06:01Z</time>
      </trkpt>
      <trkpt lat="45.38213" lon="4.5852">
        <ele>1322</ele>
        <time>2014-09-14T08:06:04Z</time>
      </trkpt>
      <trkpt lat="45.38211" lon="4.58517">
        <ele>1323</ele>
        <time>2014-09-14T08:06:07Z</time>
      </trkpt>
      <trkpt lat="45.38207" lon="4.58512">
        <ele>1324</ele>
        <time>2014-09-14T08:06:10Z</time>
      </trkpt>
      <trkpt lat="45.38205" lon="4.58509">
        <ele>1324</ele>
        <time>2014-09-14T08:06:12Z</time>
      </trkpt>
      <trkpt lat="45.38203" lon="4.58506">
        <ele>1325</ele>
        <time>2014-09-14T08:06:14Z</time>
      </trkpt>
      <trkpt lat="45.38199" lon="4.585">
        <ele>1325</ele>
        <time>2014-09-14T08:06:17Z</time>
      </trkpt>
      <trkpt lat="45.38197" lon="4.58496">
        <ele>1326</ele>
        <time>2014-09-14T08:06:19Z</time>
      </trkpt>
      <trkpt lat="45.38193" lon="4.58491">
        <ele>1326</ele>
        <time>2014-09-14T08:06:22Z</time>
      </trkpt>
      <trkpt lat="45.38192" lon="4.58485">
        <ele>1326</ele>
        <time>2014-09-14T08:06:25Z</time>
      </trkpt>
      <trkpt lat="45.38192" lon="4.58483">
        <ele>1327</ele>
        <time>2014-09-14T08:06:27Z</time>
      </trkpt>
      <trkpt lat="45.38192" lon="4.58476">
        <ele>1327</ele>
        <time>2014-09-14T08:06:30Z</time>
      </trkpt>
      <trkpt lat="45.38192" lon="4.5847">
        <ele>1328</ele>
        <time>2014-09-14T08:06:32Z</time>
      </trkpt>
      <trkpt lat="45.38191" lon="4.58465">
        <ele>1328</ele>
        <time>2014-09-14T08:06:34Z</time>
      </trkpt>
      <trkpt lat="45.38191" lon="4.58459">
        <ele>1329</ele>
        <time>2014-09-14T08:06:37Z</time>
      </trkpt>
      <trkpt lat="45.38193" lon="4.58454">
        <ele>1329</ele>
        <time>2014-09-14T08:06:40Z</time>
      </trkpt>
      <trkpt lat="45.38195" lon="4.58451">
        <ele>1330</ele>
        <time>2014-09-14T08:06:42Z</time>
      </trkpt>
      <trkpt lat="45.38195" lon="4.58445">
        <ele>1330</ele>
        <time>2014-09-14T08:06:45Z</time>
      </trkpt>
      <trkpt lat="45.38196" lon="4.5844">
        <ele>1331</ele>
        <time>2014-09-14T08:06:48Z</time>
      </trkpt>
      <trkpt lat="45.38198" lon="4.58434">
        <ele>1331</ele>
        <time>2014-09-14T08:06:51Z</time>
      </trkpt>
      <trkpt lat="45.38199" lon="4.58429">
        <ele>1331</ele>
        <time>2014-09-14T08:06:54Z</time>
      </trkpt>
      <trkpt lat="45.382" lon="4.58426">
        <ele>1332</ele>
        <time>2014-09-14T08:06:56Z</time>
      </trkpt>
      <trkpt lat="45.382" lon="4.58424">
        <ele>1332</ele>
        <time>2014-09-14T08:06:58Z</time>
      </trkpt>
      <trkpt lat="45.38202" lon="4.58421">
        <ele>1332</ele>
        <time>2014-09-14T08:07:00Z</time>
      </trkpt>
      <trkpt lat="45.38203" lon="4.5842">
        <ele>1333</ele>
        <time>2014-09-14T08:07:02Z</time>
      </trkpt>
      <trkpt lat="45.38204" lon="4.58418">
        <ele>1333</ele>
        <time>2014-09-14T08:07:04Z</time>
      </trkpt>
      <trkpt lat="45.38207" lon="4.58416">
        <ele>1334</ele>
        <time>2014-09-14T08:07:07Z</time>
      </trkpt>
      <trkpt lat="45.38208" lon="4.58414">
        <ele>1334</ele>
        <time>2014-09-14T08:07:09Z</time>
      </trkpt>
      <trkpt lat="45.3821" lon="4.58412">
        <ele>1334</ele>
        <time>2014-09-14T08:07:11Z</time>
      </trkpt>
      <trkpt lat="45.38211" lon="4.58409">
        <ele>1334</ele>
        <time>2014-09-14T08:07:14Z</time>
      </trkpt>
      <trkpt lat="45.38211" lon="4.58405">
        <ele>1335</ele>
        <time>2014-09-14T08:07:17Z</time>
      </trkpt>
      <trkpt lat="45.38211" lon="4.58402">
        <ele>1335</ele>
        <time>2014-09-14T08:07:19Z</time>
      </trkpt>
      <trkpt lat="45.38211" lon="4.58399">
        <ele>1335</ele>
        <time>2014-09-14T08:07:21Z</time>
      </trkpt>
      <trkpt lat="45.38212" lon="4.58395">
        <ele>1336</ele>
        <time>2014-09-14T08:07:24Z</time>
      </trkpt>
      <trkpt lat="45.38213" lon="4.58392">
        <ele>1336</ele>
        <time>2014-09-14T08:07:26Z</time>
      </trkpt>
      <trkpt lat="45.38213" lon="4.58389">
        <ele>1336</ele>
        <time>2014-09-14T08:07:28Z</time>
      </trkpt>
      <trkpt lat="45.38212" lon="4.58385">
        <ele>1337</ele>
        <time>2014-09-14T08:07:30Z</time>
      </trkpt>
      <trkpt lat="45.38211" lon="4.58382">
        <ele>1337</ele>
        <time>2014-09-14T08:07:32Z</time>
      </trkpt>
      <trkpt lat="45.38211" lon="4.58379">
        <ele>1337</ele>
        <time>2014-09-14T08:07:34Z</time>
      </trkpt>
      <trkpt lat="45.38213" lon="4.58377">
        <ele>1338</ele>
        <time>2014-09-14T08:07:37Z</time>
      </trkpt>
      <trkpt lat="45.38214" lon="4.58374">
        <ele>1338</ele>
        <time>2014-09-14T08:07:39Z</time>
      </trkpt>
      <trkpt lat="45.38215" lon="4.5837">
        <ele>1338</ele>
        <time>2014-09-14T08:07:42Z</time>
      </trkpt>
      <trkpt lat="45.38216" lon="4.58366">
        <ele>1339</ele>
        <time>2014-09-14T08:07:45Z</time>
      </trkpt>
      <trkpt lat="45.38217" lon="4.58361">
        <ele>1339</ele>
        <time>2014-09-14T08:07:48Z</time>
      </trkpt>
      <trkpt lat="45.38218" lon="4.58358">
        <ele>1339</ele>
        <time>2014-09-14T08:07:50Z</time>
      </trkpt>
      <trkpt lat="45.3822" lon="4.58356">
        <ele>1340</ele>
        <time>2014-09-14T08:07:52Z</time>
      </trkpt>
      <trkpt lat="45.38222" lon="4.58352">
        <ele>1340</ele>
        <time>2014-09-14T08:07:55Z</time>
      </trkpt>
      <trkpt lat="45.38223" lon="4.58349">
        <ele>1340</ele>
        <time>2014-09-14T08:07:57Z</time>
      </trkpt>
      <trkpt lat="45.38224" lon="4.58346">
        <ele>1341</ele>
        <time>2014-09-14T08:08:00Z</time>
      </trkpt>
      <trkpt lat="45.38225" lon="4.58344">
        <ele>1341</ele>
        <time>2014-09-14T08:08:02Z</time>
      </trkpt>
      <trkpt lat="45.38226" lon="4.58341">
        <ele>1342</ele>
        <time>2014-09-14T08:08:05Z</time>
      </trkpt>
      <trkpt lat="45.38228" lon="4.58337">
        <ele>1342</ele>
        <time>2014-09-14T08:08:08Z</time>
      </trkpt>
      <trkpt lat="45.38229" lon="4.58335">
        <ele>1343</ele>
        <time>2014-09-14T08:08:10Z</time>
      </trkpt>
      <trkpt lat="45.3823" lon="4.58331">
        <ele>1343</ele>
        <time>2014-09-14T08:08:13Z</time>
      </trkpt>
      <trkpt lat="45.38232" lon="4.58328">
        <ele>1343</ele>
        <time>2014-09-14T08:08:15Z</time>
      </trkpt>
      <trkpt lat="45.38235" lon="4.58324">
        <ele>1343</ele>
        <time>2014-09-14T08:08:18Z</time>
      </trkpt>
      <trkpt lat="45.38237" lon="4.58322">
        <ele>1343</ele>
        <time>2014-09-14T08:08:21Z</time>
      </trkpt>
      <trkpt lat="45.38239" lon="4.58318">
        <ele>1343</ele>
        <time>2014-09-14T08:08:23Z</time>
      </trkpt>
      <trkpt lat="45.38242" lon="4.58315">
        <ele>1344</ele>
        <time>2014-09-14T08:08:26Z</time>
      </trkpt>
      <trkpt lat="45.38243" lon="4.58313">
        <ele>1344</ele>
        <time>2014-09-14T08:08:28Z</time>
      </trkpt>
      <trkpt lat="45.38244" lon="4.58312">
        <ele>1345</ele>
        <time>2014-09-14T08:08:30Z</time>
      </trkpt>
      <trkpt lat="45.38246" lon="4.5831">
        <ele>1345</ele>
        <time>2014-09-14T08:08:32Z</time>
      </trkpt>
      <trkpt lat="45.38247" lon="4.58308">
        <ele>1345</ele>
        <time>2014-09-14T08:08:34Z</time>
      </trkpt>
      <trkpt lat="45.38248" lon="4.58305">
        <ele>1345</ele>
        <time>2014-09-14T08:08:37Z</time>
      </trkpt>
      <trkpt lat="45.3825" lon="4.58301">
        <ele>1346</ele>
        <time>2014-09-14T08:08:39Z</time>
      </trkpt>
      <trkpt lat="45.38251" lon="4.58297">
        <ele>1346</ele>
        <time>2014-09-14T08:08:42Z</time>
      </trkpt>
      <trkpt lat="45.38253" lon="4.58294">
        <ele>1347</ele>
        <time>2014-09-14T08:08:45Z</time>
      </trkpt>
      <trkpt lat="45.38253" lon="4.5829">
        <ele>1348</ele>
        <time>2014-09-14T08:08:48Z</time>
      </trkpt>
      <trkpt lat="45.38254" lon="4.58287">
        <ele>1348</ele>
        <time>2014-09-14T08:08:50Z</time>
      </trkpt>
      <trkpt lat="45.38255" lon="4.58282">
        <ele>1349</ele>
        <time>2014-09-14T08:08:53Z</time>
      </trkpt>
      <trkpt lat="45.38257" lon="4.58278">
        <ele>1349</ele>
        <time>2014-09-14T08:08:56Z</time>
      </trkpt>
      <trkpt lat="45.38258" lon="4.58276">
        <ele>1350</ele>
        <time>2014-09-14T08:08:58Z</time>
      </trkpt>
      <trkpt lat="45.38259" lon="4.58273">
        <ele>1350</ele>
        <time>2014-09-14T08:09:00Z</time>
      </trkpt>
      <trkpt lat="45.3826" lon="4.5827">
        <ele>1350</ele>
        <time>2014-09-14T08:09:02Z</time>
      </trkpt>
      <trkpt lat="45.38261" lon="4.58267">
        <ele>1350</ele>
        <time>2014-09-14T08:09:04Z</time>
      </trkpt>
      <trkpt lat="45.38261" lon="4.58264">
        <ele>1350</ele>
        <time>2014-09-14T08:09:06Z</time>
      </trkpt>
      <trkpt lat="45.38263" lon="4.58259">
        <ele>1350</ele>
        <time>2014-09-14T08:09:09Z</time>
      </trkpt>
      <trkpt lat="45.38263" lon="4.58256">
        <ele>1350</ele>
        <time>2014-09-14T08:09:12Z</time>
      </trkpt>
      <trkpt lat="45.38265" lon="4.5825">
        <ele>1350</ele>
        <time>2014-09-14T08:09:15Z</time>
      </trkpt>
      <trkpt lat="45.38266" lon="4.58244">
        <ele>1351</ele>
        <time>2014-09-14T08:09:18Z</time>
      </trkpt>
      <trkpt lat="45.38266" lon="4.5824">
        <ele>1352</ele>
        <time>2014-09-14T08:09:20Z</time>
      </trkpt>
      <trkpt lat="45.38267" lon="4.58235">
        <ele>1352</ele>
        <time>2014-09-14T08:09:23Z</time>
      </trkpt>
      <trkpt lat="45.38268" lon="4.58229">
        <ele>1353</ele>
        <time>2014-09-14T08:09:26Z</time>
      </trkpt>
      <trkpt lat="45.38269" lon="4.58223">
        <ele>1353</ele>
        <time>2014-09-14T08:09:29Z</time>
      </trkpt>
      <trkpt lat="45.3827" lon="4.58218">
        <ele>1354</ele>
        <time>2014-09-14T08:09:32Z</time>
      </trkpt>
      <trkpt lat="45.3827" lon="4.58215">
        <ele>1354</ele>
        <time>2014-09-14T08:09:34Z</time>
      </trkpt>
      <trkpt lat="45.38272" lon="4.58212">
        <ele>1354</ele>
        <time>2014-09-14T08:09:36Z</time>
      </trkpt>
      <trkpt lat="45.38274" lon="4.58206">
        <ele>1354</ele>
        <time>2014-09-14T08:09:39Z</time>
      </trkpt>
      <trkpt lat="45.38275" lon="4.58203">
        <ele>1354</ele>
        <time>2014-09-14T08:09:41Z</time>
      </trkpt>
      <trkpt lat="45.38276" lon="4.582">
        <ele>1355</ele>
        <time>2014-09-14T08:09:43Z</time>
      </trkpt>
      <trkpt lat="45.38275" lon="4.58195">
        <ele>1355</ele>
        <time>2014-09-14T08:09:46Z</time>
      </trkpt>
      <trkpt lat="45.38275" lon="4.58192">
        <ele>1355</ele>
        <time>2014-09-14T08:09:48Z</time>
      </trkpt>
      <trkpt lat="45.38276" lon="4.58187">
        <ele>1356</ele>
        <time>2014-09-14T08:09:51Z</time>
      </trkpt>
      <trkpt lat="45.38277" lon="4.58182">
        <ele>1356</ele>
        <time>2014-09-14T08:09:54Z</time>
      </trkpt>
      <trkpt lat="45.38279" lon="4.58177">
        <ele>1357</ele>
        <time>2014-09-14T08:09:57Z</time>
      </trkpt>
      <trkpt lat="45.3828" lon="4.58173">
        <ele>1357</ele>
        <time>2014-09-14T08:09:59Z</time>
      </trkpt>
      <trkpt lat="45.3828" lon="4.58168">
        <ele>1358</ele>
        <time>2014-09-14T08:10:02Z</time>
      </trkpt>
      <trkpt lat="45.3828" lon="4.58163">
        <ele>1358</ele>
        <time>2014-09-14T08:10:05Z</time>
      </trkpt>
      <trkpt lat="45.38279" lon="4.5816">
        <ele>1358</ele>
        <time>2014-09-14T08:10:08Z</time>
      </trkpt>
      <trkpt lat="45.38276" lon="4.58157">
        <ele>1359</ele>
        <time>2014-09-14T08:10:11Z</time>
      </trkpt>
      <trkpt lat="45.38274" lon="4.58156">
        <ele>1359</ele>
        <time>2014-09-14T08:10:13Z</time>
      </trkpt>
      <trkpt lat="45.38272" lon="4.58152">
        <ele>1360</ele>
        <time>2014-09-14T08:10:16Z</time>
      </trkpt>
      <trkpt lat="45.38271" lon="4.58149">
        <ele>1360</ele>
        <time>2014-09-14T08:10:18Z</time>
      </trkpt>
      <trkpt lat="45.38271" lon="4.58146">
        <ele>1360</ele>
        <time>2014-09-14T08:10:21Z</time>
      </trkpt>
      <trkpt lat="45.38271" lon="4.58141">
        <ele>1360</ele>
        <time>2014-09-14T08:10:24Z</time>
      </trkpt>
      <trkpt lat="45.38272" lon="4.58138">
        <ele>1361</ele>
        <time>2014-09-14T08:10:26Z</time>
      </trkpt>
      <trkpt lat="45.38272" lon="4.58133">
        <ele>1361</ele>
        <time>2014-09-14T08:10:29Z</time>
      </trkpt>
      <trkpt lat="45.38275" lon="4.5813">
        <ele>1362</ele>
        <time>2014-09-14T08:10:31Z</time>
      </trkpt>
      <trkpt lat="45.38279" lon="4.58124">
        <ele>1362</ele>
        <time>2014-09-14T08:10:34Z</time>
      </trkpt>
      <trkpt lat="45.3828" lon="4.5812">
        <ele>1362</ele>
        <time>2014-09-14T08:10:36Z</time>
      </trkpt>
      <trkpt lat="45.38277" lon="4.58115">
        <ele>1362</ele>
        <time>2014-09-14T08:10:39Z</time>
      </trkpt>
      <trkpt lat="45.38274" lon="4.58109">
        <ele>1363</ele>
        <time>2014-09-14T08:10:42Z</time>
      </trkpt>
      <trkpt lat="45.38275" lon="4.58101">
        <ele>1363</ele>
        <time>2014-09-14T08:10:45Z</time>
      </trkpt>
      <trkpt lat="45.38275" lon="4.58095">
        <ele>1363</ele>
        <time>2014-09-14T08:10:47Z</time>
      </trkpt>
      <trkpt lat="45.38277" lon="4.5809">
        <ele>1363</ele>
        <time>2014-09-14T08:10:49Z</time>
      </trkpt>
      <trkpt lat="45.38281" lon="4.58081">
        <ele>1364</ele>
        <time>2014-09-14T08:10:52Z</time>
      </trkpt>
      <trkpt lat="45.38285" lon="4.58071">
        <ele>1364</ele>
        <time>2014-09-14T08:10:55Z</time>
      </trkpt>
      <trkpt lat="45.38285" lon="4.58065">
        <ele>1364</ele>
        <time>2014-09-14T08:10:57Z</time>
      </trkpt>
      <trkpt lat="45.38286" lon="4.58059">
        <ele>1364</ele>
        <time>2014-09-14T08:10:59Z</time>
      </trkpt>
      <trkpt lat="45.38288" lon="4.58048">
        <ele>1365</ele>
        <time>2014-09-14T08:11:02Z</time>
      </trkpt>
      <trkpt lat="45.38287" lon="4.58039">
        <ele>1365</ele>
        <time>2014-09-14T08:11:05Z</time>
      </trkpt>
      <trkpt lat="45.38284" lon="4.58035">
        <ele>1365</ele>
        <time>2014-09-14T08:11:08Z</time>
      </trkpt>
      <trkpt lat="45.3828" lon="4.58036">
        <ele>1366</ele>
        <time>2014-09-14T08:11:11Z</time>
      </trkpt>
      <trkpt lat="45.38274" lon="4.58037">
        <ele>1366</ele>
        <time>2014-09-14T08:11:14Z</time>
      </trkpt>
      <trkpt lat="45.38271" lon="4.58039">
        <ele>1366</ele>
        <time>2014-09-14T08:11:16Z</time>
      </trkpt>
      <trkpt lat="45.38266" lon="4.5804">
        <ele>1366</ele>
        <time>2014-09-14T08:11:19Z</time>
      </trkpt>
      <trkpt lat="45.38264" lon="4.58044">
        <ele>1367</ele>
        <time>2014-09-14T08:11:21Z</time>
      </trkpt>
      <trkpt lat="45.38262" lon="4.5805">
        <ele>1367</ele>
        <time>2014-09-14T08:11:24Z</time>
      </trkpt>
      <trkpt lat="45.3826" lon="4.58052">
        <ele>1368</ele>
        <time>2014-09-14T08:11:26Z</time>
      </trkpt>
      <trkpt lat="45.38255" lon="4.58055">
        <ele>1367</ele>
        <time>2014-09-14T08:11:29Z</time>
      </trkpt>
      <trkpt lat="45.38253" lon="4.58057">
        <ele>1368</ele>
        <time>2014-09-14T08:11:31Z</time>
      </trkpt>
      <trkpt lat="45.38249" lon="4.5806">
        <ele>1368</ele>
        <time>2014-09-14T08:11:34Z</time>
      </trkpt>
      <trkpt lat="45.38246" lon="4.5806">
        <ele>1368</ele>
        <time>2014-09-14T08:11:36Z</time>
      </trkpt>
      <trkpt lat="45.38242" lon="4.58062">
        <ele>1368</ele>
        <time>2014-09-14T08:11:39Z</time>
      </trkpt>
      <trkpt lat="45.38238" lon="4.58064">
        <ele>1369</ele>
        <time>2014-09-14T08:11:42Z</time>
      </trkpt>
      <trkpt lat="45.38236" lon="4.58064">
        <ele>1369</ele>
        <time>2014-09-14T08:11:44Z</time>
      </trkpt>
      <trkpt lat="45.38232" lon="4.58065">
        <ele>1370</ele>
        <time>2014-09-14T08:11:47Z</time>
      </trkpt>
      <trkpt lat="45.38229" lon="4.58064">
        <ele>1370</ele>
        <time>2014-09-14T08:11:49Z</time>
      </trkpt>
      <trkpt lat="45.38225" lon="4.58063">
        <ele>1370</ele>
        <time>2014-09-14T08:11:52Z</time>
      </trkpt>
      <trkpt lat="45.38221" lon="4.58062">
        <ele>1370</ele>
        <time>2014-09-14T08:11:55Z</time>
      </trkpt>
      <trkpt lat="45.38219" lon="4.58062">
        <ele>1371</ele>
        <time>2014-09-14T08:11:57Z</time>
      </trkpt>
      <trkpt lat="45.38214" lon="4.58061">
        <ele>1372</ele>
        <time>2014-09-14T08:12:00Z</time>
      </trkpt>
      <trkpt lat="45.3821" lon="4.58061">
        <ele>1372</ele>
        <time>2014-09-14T08:12:03Z</time>
      </trkpt>
      <trkpt lat="45.38206" lon="4.58062">
        <ele>1372</ele>
        <time>2014-09-14T08:12:05Z</time>
      </trkpt>
      <trkpt lat="45.38201" lon="4.58063">
        <ele>1372</ele>
        <time>2014-09-14T08:12:08Z</time>
      </trkpt>
      <trkpt lat="45.38197" lon="4.58063">
        <ele>1372</ele>
        <time>2014-09-14T08:12:10Z</time>
      </trkpt>
      <trkpt lat="45.3819" lon="4.58064">
        <ele>1373</ele>
        <time>2014-09-14T08:12:13Z</time>
      </trkpt>
      <trkpt lat="45.38186" lon="4.58065">
        <ele>1373</ele>
        <time>2014-09-14T08:12:15Z</time>
      </trkpt>
      <trkpt lat="45.3818" lon="4.58066">
        <ele>1374</ele>
        <time>2014-09-14T08:12:18Z</time>
      </trkpt>
      <trkpt lat="45.38174" lon="4.58068">
        <ele>1374</ele>
        <time>2014-09-14T08:12:21Z</time>
      </trkpt>
      <trkpt lat="45.38169" lon="4.58069">
        <ele>1373</ele>
        <time>2014-09-14T08:12:23Z</time>
      </trkpt>
      <trkpt lat="45.38163" lon="4.58071">
        <ele>1373</ele>
        <time>2014-09-14T08:12:26Z</time>
      </trkpt>
      <trkpt lat="45.38158" lon="4.58072">
        <ele>1373</ele>
        <time>2014-09-14T08:12:28Z</time>
      </trkpt>
      <trkpt lat="45.38152" lon="4.58073">
        <ele>1373</ele>
        <time>2014-09-14T08:12:31Z</time>
      </trkpt>
      <trkpt lat="45.38145" lon="4.58074">
        <ele>1372</ele>
        <time>2014-09-14T08:12:34Z</time>
      </trkpt>
      <trkpt lat="45.3814" lon="4.58073">
        <ele>1371</ele>
        <time>2014-09-14T08:12:36Z</time>
      </trkpt>
      <trkpt lat="45.38135" lon="4.58073">
        <ele>1371</ele>
        <time>2014-09-14T08:12:38Z</time>
      </trkpt>
      <trkpt lat="45.38131" lon="4.58073">
        <ele>1371</ele>
        <time>2014-09-14T08:12:40Z</time>
      </trkpt>
      <trkpt lat="45.38126" lon="4.58073">
        <ele>1371</ele>
        <time>2014-09-14T08:12:42Z</time>
      </trkpt>
      <trkpt lat="45.38119" lon="4.58076">
        <ele>1371</ele>
        <time>2014-09-14T08:12:45Z</time>
      </trkpt>
      <trkpt lat="45.38115" lon="4.58078">
        <ele>1370</ele>
        <time>2014-09-14T08:12:47Z</time>
      </trkpt>
      <trkpt lat="45.3811" lon="4.5808">
        <ele>1370</ele>
        <time>2014-09-14T08:12:49Z</time>
      </trkpt>
      <trkpt lat="45.38106" lon="4.58082">
        <ele>1370</ele>
        <time>2014-09-14T08:12:51Z</time>
      </trkpt>
      <trkpt lat="45.38099" lon="4.58084">
        <ele>1371</ele>
        <time>2014-09-14T08:12:54Z</time>
      </trkpt>
      <trkpt lat="45.38095" lon="4.58085">
        <ele>1371</ele>
        <time>2014-09-14T08:12:56Z</time>
      </trkpt>
      <trkpt lat="45.38089" lon="4.58089">
        <ele>1371</ele>
        <time>2014-09-14T08:12:59Z</time>
      </trkpt>
      <trkpt lat="45.38084" lon="4.58092">
        <ele>1371</ele>
        <time>2014-09-14T08:13:02Z</time>
      </trkpt>
      <trkpt lat="45.38079" lon="4.58095">
        <ele>1371</ele>
        <time>2014-09-14T08:13:05Z</time>
      </trkpt>
      <trkpt lat="45.38071" lon="4.58096">
        <ele>1371</ele>
        <time>2014-09-14T08:13:08Z</time>
      </trkpt>
      <trkpt lat="45.38066" lon="4.58096">
        <ele>1371</ele>
        <time>2014-09-14T08:13:10Z</time>
      </trkpt>
      <trkpt lat="45.38062" lon="4.58097">
        <ele>1371</ele>
        <time>2014-09-14T08:13:12Z</time>
      </trkpt>
      <trkpt lat="45.38055" lon="4.581">
        <ele>1371</ele>
        <time>2014-09-14T08:13:15Z</time>
      </trkpt>
      <trkpt lat="45.38048" lon="4.58101">
        <ele>1372</ele>
        <time>2014-09-14T08:13:18Z</time>
      </trkpt>
      <trkpt lat="45.38042" lon="4.58104">
        <ele>1371</ele>
        <time>2014-09-14T08:13:21Z</time>
      </trkpt>
      <trkpt lat="45.38037" lon="4.58106">
        <ele>1371</ele>
        <time>2014-09-14T08:13:23Z</time>
      </trkpt>
      <trkpt lat="45.38032" lon="4.58109">
        <ele>1370</ele>
        <time>2014-09-14T08:13:26Z</time>
      </trkpt>
      <trkpt lat="45.38027" lon="4.58111">
        <ele>1370</ele>
        <time>2014-09-14T08:13:28Z</time>
      </trkpt>
      <trkpt lat="45.38021" lon="4.58115">
        <ele>1370</ele>
        <time>2014-09-14T08:13:31Z</time>
      </trkpt>
      <trkpt lat="45.38017" lon="4.58115">
        <ele>1370</ele>
        <time>2014-09-14T08:13:33Z</time>
      </trkpt>
      <trkpt lat="45.38013" lon="4.58117">
        <ele>1370</ele>
        <time>2014-09-14T08:13:35Z</time>
      </trkpt>
      <trkpt lat="45.3801" lon="4.58119">
        <ele>1370</ele>
        <time>2014-09-14T08:13:37Z</time>
      </trkpt>
      <trkpt lat="45.38007" lon="4.58121">
        <ele>1369</ele>
        <time>2014-09-14T08:13:39Z</time>
      </trkpt>
      <trkpt lat="45.38001" lon="4.58123">
        <ele>1369</ele>
        <time>2014-09-14T08:13:42Z</time>
      </trkpt>
      <trkpt lat="45.37996" lon="4.58124">
        <ele>1369</ele>
        <time>2014-09-14T08:13:45Z</time>
      </trkpt>
      <trkpt lat="45.37992" lon="4.58127">
        <ele>1370</ele>
        <time>2014-09-14T08:13:48Z</time>
      </trkpt>
      <trkpt lat="45.37989" lon="4.58128">
        <ele>1370</ele>
        <time>2014-09-14T08:13:50Z</time>
      </trkpt>
      <trkpt lat="45.37986" lon="4.5813">
        <ele>1370</ele>
        <time>2014-09-14T08:13:53Z</time>
      </trkpt>
      <trkpt lat="45.37984" lon="4.5813">
        <ele>1370</ele>
        <time>2014-09-14T08:13:55Z</time>
      </trkpt>
      <trkpt lat="45.37983" lon="4.58129">
        <ele>1370</ele>
        <time>2014-09-14T08:13:57Z</time>
      </trkpt>
      <trkpt lat="45.37982" lon="4.58125">
        <ele>1370</ele>
        <time>2014-09-14T08:14:00Z</time>
      </trkpt>
      <trkpt lat="45.37982" lon="4.58125">
        <ele>1370</ele>
        <time>2014-09-14T08:14:02Z</time>
      </trkpt>
      <trkpt lat="45.37982" lon="4.58124">
        <ele>1370</ele>
        <time>2014-09-14T08:14:04Z</time>
      </trkpt>
      <trkpt lat="45.37983" lon="4.5812">
        <ele>1370</ele>
        <time>2014-09-14T08:14:07Z</time>
      </trkpt>
      <trkpt lat="45.37983" lon="4.58117">
        <ele>1370</ele>
        <time>2014-09-14T08:14:09Z</time>
      </trkpt>
      <trkpt lat="45.37984" lon="4.58111">
        <ele>1369</ele>
        <time>2014-09-14T08:14:12Z</time>
      </trkpt>
      <trkpt lat="45.37986" lon="4.58106">
        <ele>1369</ele>
        <time>2014-09-14T08:14:14Z</time>
      </trkpt>
      <trkpt lat="45.37989" lon="4.581">
        <ele>1367</ele>
        <time>2014-09-14T08:14:17Z</time>
      </trkpt>
      <trkpt lat="45.37989" lon="4.58096">
        <ele>1367</ele>
        <time>2014-09-14T08:14:19Z</time>
      </trkpt>
      <trkpt lat="45.37988" lon="4.58091">
        <ele>1365</ele>
        <time>2014-09-14T08:14:22Z</time>
      </trkpt>
      <trkpt lat="45.37987" lon="4.58086">
        <ele>1364</ele>
        <time>2014-09-14T08:14:25Z</time>
      </trkpt>
      <trkpt lat="45.37988" lon="4.5808">
        <ele>1363</ele>
        <time>2014-09-14T08:14:28Z</time>
      </trkpt>
      <trkpt lat="45.37988" lon="4.58073">
        <ele>1361</ele>
        <time>2014-09-14T08:14:31Z</time>
      </trkpt>
      <trkpt lat="45.37988" lon="4.58069">
        <ele>1360</ele>
        <time>2014-09-14T08:14:34Z</time>
      </trkpt>
      <trkpt lat="45.37988" lon="4.58065">
        <ele>1359</ele>
        <time>2014-09-14T08:14:36Z</time>
      </trkpt>
      <trkpt lat="45.37988" lon="4.58062">
        <ele>1358</ele>
        <time>2014-09-14T08:14:38Z</time>
      </trkpt>
      <trkpt lat="45.37987" lon="4.58057">
        <ele>1357</ele>
        <time>2014-09-14T08:14:41Z</time>
      </trkpt>
      <trkpt lat="45.37987" lon="4.58055">
        <ele>1357</ele>
        <time>2014-09-14T08:14:43Z</time>
      </trkpt>
      <trkpt lat="45.37987" lon="4.58051">
        <ele>1356</ele>
        <time>2014-09-14T08:14:46Z</time>
      </trkpt>
      <trkpt lat="45.37986" lon="4.58049">
        <ele>1355</ele>
        <time>2014-09-14T08:14:48Z</time>
      </trkpt>
      <trkpt lat="45.37986" lon="4.58046">
        <ele>1354</ele>
        <time>2014-09-14T08:14:51Z</time>
      </trkpt>
      <trkpt lat="45.37986" lon="4.58039">
        <ele>1352</ele>
        <time>2014-09-14T08:14:54Z</time>
      </trkpt>
      <trkpt lat="45.37989" lon="4.58034">
        <ele>1351</ele>
        <time>2014-09-14T08:14:57Z</time>
      </trkpt>
      <trkpt lat="45.3799" lon="4.58033">
        <ele>1351</ele>
        <time>2014-09-14T08:14:59Z</time>
      </trkpt>
      <trkpt lat="45.3799" lon="4.58029">
        <ele>1350</ele>
        <time>2014-09-14T08:15:02Z</time>
      </trkpt>
      <trkpt lat="45.37991" lon="4.58025">
        <ele>1350</ele>
        <time>2014-09-14T08:15:05Z</time>
      </trkpt>
      <trkpt lat="45.37994" lon="4.58021">
        <ele>1350</ele>
        <time>2014-09-14T08:15:08Z</time>
      </trkpt>
      <trkpt lat="45.37996" lon="4.58019">
        <ele>1350</ele>
        <time>2014-09-14T08:15:10Z</time>
      </trkpt>
      <trkpt lat="45.37997" lon="4.58019">
        <ele>1350</ele>
        <time>2014-09-14T08:15:13Z</time>
      </trkpt>
      <trkpt lat="45.37999" lon="4.58019">
        <ele>1350</ele>
        <time>2014-09-14T08:15:15Z</time>
      </trkpt>
      <trkpt lat="45.38" lon="4.58017">
        <ele>1350</ele>
        <time>2014-09-14T08:15:17Z</time>
      </trkpt>
      <trkpt lat="45.38" lon="4.5801">
        <ele>1350</ele>
        <time>2014-09-14T08:15:20Z</time>
      </trkpt>
      <trkpt lat="45.37999" lon="4.58006">
        <ele>1349</ele>
        <time>2014-09-14T08:15:23Z</time>
      </trkpt>
      <trkpt lat="45.37997" lon="4.58002">
        <ele>1348</ele>
        <time>2014-09-14T08:15:26Z</time>
      </trkpt>
      <trkpt lat="45.37995" lon="4.57996">
        <ele>1347</ele>
        <time>2014-09-14T08:15:29Z</time>
      </trkpt>
      <trkpt lat="45.37992" lon="4.57991">
        <ele>1347</ele>
        <time>2014-09-14T08:15:32Z</time>
      </trkpt>
      <trkpt lat="45.3799" lon="4.57987">
        <ele>1345</ele>
        <time>2014-09-14T08:15:35Z</time>
      </trkpt>
      <trkpt lat="45.37988" lon="4.57983">
        <ele>1344</ele>
        <time>2014-09-14T08:15:37Z</time>
      </trkpt>
      <trkpt lat="45.37986" lon="4.57976">
        <ele>1343</ele>
        <time>2014-09-14T08:15:40Z</time>
      </trkpt>
      <trkpt lat="45.37985" lon="4.57968">
        <ele>1342</ele>
        <time>2014-09-14T08:15:43Z</time>
      </trkpt>
      <trkpt lat="45.37986" lon="4.5796">
        <ele>1342</ele>
        <time>2014-09-14T08:15:45Z</time>
      </trkpt>
      <trkpt lat="45.37986" lon="4.57953">
        <ele>1341</ele>
        <time>2014-09-14T08:15:47Z</time>
      </trkpt>
      <trkpt lat="45.37986" lon="4.57947">
        <ele>1340</ele>
        <time>2014-09-14T08:15:50Z</time>
      </trkpt>
      <trkpt lat="45.37989" lon="4.57942">
        <ele>1340</ele>
        <time>2014-09-14T08:15:52Z</time>
      </trkpt>
      <trkpt lat="45.37992" lon="4.57935">
        <ele>1339</ele>
        <time>2014-09-14T08:15:55Z</time>
      </trkpt>
      <trkpt lat="45.37992" lon="4.57927">
        <ele>1339</ele>
        <time>2014-09-14T08:15:57Z</time>
      </trkpt>
      <trkpt lat="45.37992" lon="4.57921">
        <ele>1338</ele>
        <time>2014-09-14T08:15:59Z</time>
      </trkpt>
      <trkpt lat="45.37994" lon="4.57914">
        <ele>1337</ele>
        <time>2014-09-14T08:16:02Z</time>
      </trkpt>
      <trkpt lat="45.37995" lon="4.5791">
        <ele>1336</ele>
        <time>2014-09-14T08:16:04Z</time>
      </trkpt>
      <trkpt lat="45.37997" lon="4.57899">
        <ele>1335</ele>
        <time>2014-09-14T08:16:07Z</time>
      </trkpt>
      <trkpt lat="45.38001" lon="4.57888">
        <ele>1335</ele>
        <time>2014-09-14T08:16:10Z</time>
      </trkpt>
      <trkpt lat="45.38005" lon="4.5788">
        <ele>1334</ele>
        <time>2014-09-14T08:16:13Z</time>
      </trkpt>
      <trkpt lat="45.38009" lon="4.57872">
        <ele>1333</ele>
        <time>2014-09-14T08:16:16Z</time>
      </trkpt>
      <trkpt lat="45.38012" lon="4.57864">
        <ele>1332</ele>
        <time>2014-09-14T08:16:19Z</time>
      </trkpt>
      <trkpt lat="45.38012" lon="4.57856">
        <ele>1331</ele>
        <time>2014-09-14T08:16:21Z</time>
      </trkpt>
      <trkpt lat="45.38012" lon="4.57848">
        <ele>1330</ele>
        <time>2014-09-14T08:16:23Z</time>
      </trkpt>
      <trkpt lat="45.38014" lon="4.57843">
        <ele>1329</ele>
        <time>2014-09-14T08:16:25Z</time>
      </trkpt>
      <trkpt lat="45.3802" lon="4.57838">
        <ele>1328</ele>
        <time>2014-09-14T08:16:28Z</time>
      </trkpt>
      <trkpt lat="45.38026" lon="4.57835">
        <ele>1327</ele>
        <time>2014-09-14T08:16:31Z</time>
      </trkpt>
      <trkpt lat="45.38028" lon="4.57834">
        <ele>1328</ele>
        <time>2014-09-14T08:16:33Z</time>
      </trkpt>
      <trkpt lat="45.38031" lon="4.57834">
        <ele>1329</ele>
        <time>2014-09-14T08:16:35Z</time>
      </trkpt>
      <trkpt lat="45.38034" lon="4.57832">
        <ele>1329</ele>
        <time>2014-09-14T08:16:38Z</time>
      </trkpt>
      <trkpt lat="45.38038" lon="4.57831">
        <ele>1329</ele>
        <time>2014-09-14T08:16:40Z</time>
      </trkpt>
      <trkpt lat="45.38041" lon="4.57831">
        <ele>1330</ele>
        <time>2014-09-14T08:16:42Z</time>
      </trkpt>
      <trkpt lat="45.38047" lon="4.57827">
        <ele>1330</ele>
        <time>2014-09-14T08:16:45Z</time>
      </trkpt>
      <trkpt lat="45.38049" lon="4.57824">
        <ele>1331</ele>
        <time>2014-09-14T08:16:47Z</time>
      </trkpt>
      <trkpt lat="45.38052" lon="4.57822">
        <ele>1331</ele>
        <time>2014-09-14T08:16:49Z</time>
      </trkpt>
      <trkpt lat="45.38054" lon="4.57821">
        <ele>1331</ele>
        <time>2014-09-14T08:16:51Z</time>
      </trkpt>
      <trkpt lat="45.38059" lon="4.5782">
        <ele>1332</ele>
        <time>2014-09-14T08:16:54Z</time>
      </trkpt>
      <trkpt lat="45.38063" lon="4.57819">
        <ele>1333</ele>
        <time>2014-09-14T08:16:57Z</time>
      </trkpt>
      <trkpt lat="45.38066" lon="4.57819">
        <ele>1334</ele>
        <time>2014-09-14T08:17:00Z</time>
      </trkpt>
      <trkpt lat="45.3807" lon="4.5782">
        <ele>1334</ele>
        <time>2014-09-14T08:17:03Z</time>
      </trkpt>
      <trkpt lat="45.38073" lon="4.57819">
        <ele>1335</ele>
        <time>2014-09-14T08:17:05Z</time>
      </trkpt>
      <trkpt lat="45.38076" lon="4.57817">
        <ele>1335</ele>
        <time>2014-09-14T08:17:07Z</time>
      </trkpt>
      <trkpt lat="45.3808" lon="4.57816">
        <ele>1335</ele>
        <time>2014-09-14T08:17:10Z</time>
      </trkpt>
      <trkpt lat="45.38084" lon="4.57815">
        <ele>1336</ele>
        <time>2014-09-14T08:17:13Z</time>
      </trkpt>
      <trkpt lat="45.38089" lon="4.57811">
        <ele>1336</ele>
        <time>2014-09-14T08:17:16Z</time>
      </trkpt>
      <trkpt lat="45.38091" lon="4.57809">
        <ele>1336</ele>
        <time>2014-09-14T08:17:19Z</time>
      </trkpt>
      <trkpt lat="45.38092" lon="4.57809">
        <ele>1337</ele>
        <time>2014-09-14T08:17:21Z</time>
      </trkpt>
      <trkpt lat="45.38094" lon="4.57808">
        <ele>1337</ele>
        <time>2014-09-14T08:17:24Z</time>
      </trkpt>
      <trkpt lat="45.38098" lon="4.57808">
        <ele>1338</ele>
        <time>2014-09-14T08:17:26Z</time>
      </trkpt>
      <trkpt lat="45.381" lon="4.57807">
        <ele>1338</ele>
        <time>2014-09-14T08:17:29Z</time>
      </trkpt>
      <trkpt lat="45.38103" lon="4.57806">
        <ele>1339</ele>
        <time>2014-09-14T08:17:31Z</time>
      </trkpt>
      <trkpt lat="45.38108" lon="4.57803">
        <ele>1339</ele>
        <time>2014-09-14T08:17:34Z</time>
      </trkpt>
      <trkpt lat="45.38111" lon="4.57799">
        <ele>1339</ele>
        <time>2014-09-14T08:17:36Z</time>
      </trkpt>
      <trkpt lat="45.38114" lon="4.57794">
        <ele>1339</ele>
        <time>2014-09-14T08:17:39Z</time>
      </trkpt>
      <trkpt lat="45.38116" lon="4.57788">
        <ele>1339</ele>
        <time>2014-09-14T08:17:41Z</time>
      </trkpt>
      <trkpt lat="45.38123" lon="4.57783">
        <ele>1338</ele>
        <time>2014-09-14T08:17:44Z</time>
      </trkpt>
      <trkpt lat="45.38128" lon="4.57779">
        <ele>1338</ele>
        <time>2014-09-14T08:17:46Z</time>
      </trkpt>
      <trkpt lat="45.38133" lon="4.57775">
        <ele>1337</ele>
        <time>2014-09-14T08:17:49Z</time>
      </trkpt>
      <trkpt lat="45.38136" lon="4.57774">
        <ele>1338</ele>
        <time>2014-09-14T08:17:51Z</time>
      </trkpt>
      <trkpt lat="45.38139" lon="4.57772">
        <ele>1338</ele>
        <time>2014-09-14T08:17:54Z</time>
      </trkpt>
      <trkpt lat="45.3814" lon="4.5777">
        <ele>1337</ele>
        <time>2014-09-14T08:17:56Z</time>
      </trkpt>
      <trkpt lat="45.38142" lon="4.57766">
        <ele>1337</ele>
        <time>2014-09-14T08:17:59Z</time>
      </trkpt>
      <trkpt lat="45.38146" lon="4.57757">
        <ele>1337</ele>
        <time>2014-09-14T08:18:02Z</time>
      </trkpt>
      <trkpt lat="45.3815" lon="4.57754">
        <ele>1336</ele>
        <time>2014-09-14T08:18:04Z</time>
      </trkpt>
      <trkpt lat="45.38155" lon="4.57754">
        <ele>1336</ele>
        <time>2014-09-14T08:18:07Z</time>
      </trkpt>
      <trkpt lat="45.38158" lon="4.57754">
        <ele>1337</ele>
        <time>2014-09-14T08:18:09Z</time>
      </trkpt>
      <trkpt lat="45.38165" lon="4.57752">
        <ele>1337</ele>
        <time>2014-09-14T08:18:12Z</time>
      </trkpt>
      <trkpt lat="45.38169" lon="4.57748">
        <ele>1338</ele>
        <time>2014-09-14T08:18:15Z</time>
      </trkpt>
      <trkpt lat="45.38174" lon="4.57741">
        <ele>1338</ele>
        <time>2014-09-14T08:18:18Z</time>
      </trkpt>
      <trkpt lat="45.3818" lon="4.57736">
        <ele>1338</ele>
        <time>2014-09-14T08:18:21Z</time>
      </trkpt>
      <trkpt lat="45.38184" lon="4.57733">
        <ele>1339</ele>
        <time>2014-09-14T08:18:23Z</time>
      </trkpt>
      <trkpt lat="45.38192" lon="4.5773">
        <ele>1339</ele>
        <time>2014-09-14T08:18:26Z</time>
      </trkpt>
      <trkpt lat="45.38195" lon="4.57728">
        <ele>1339</ele>
        <time>2014-09-14T08:18:28Z</time>
      </trkpt>
      <trkpt lat="45.38198" lon="4.57724">
        <ele>1339</ele>
        <time>2014-09-14T08:18:31Z</time>
      </trkpt>
      <trkpt lat="45.38202" lon="4.57721">
        <ele>1340</ele>
        <time>2014-09-14T08:18:34Z</time>
      </trkpt>
      <trkpt lat="45.38206" lon="4.57718">
        <ele>1340</ele>
        <time>2014-09-14T08:18:37Z</time>
      </trkpt>
      <trkpt lat="45.38208" lon="4.57714">
        <ele>1340</ele>
        <time>2014-09-14T08:18:40Z</time>
      </trkpt>
      <trkpt lat="45.3821" lon="4.57712">
        <ele>1340</ele>
        <time>2014-09-14T08:18:42Z</time>
      </trkpt>
      <trkpt lat="45.38212" lon="4.57708">
        <ele>1340</ele>
        <time>2014-09-14T08:18:44Z</time>
      </trkpt>
      <trkpt lat="45.38214" lon="4.57705">
        <ele>1340</ele>
        <time>2014-09-14T08:18:46Z</time>
      </trkpt>
      <trkpt lat="45.38216" lon="4.57701">
        <ele>1340</ele>
        <time>2014-09-14T08:18:49Z</time>
      </trkpt>
      <trkpt lat="45.38219" lon="4.57698">
        <ele>1340</ele>
        <time>2014-09-14T08:18:52Z</time>
      </trkpt>
      <trkpt lat="45.38223" lon="4.57694">
        <ele>1340</ele>
        <time>2014-09-14T08:18:55Z</time>
      </trkpt>
      <trkpt lat="45.38226" lon="4.57691">
        <ele>1340</ele>
        <time>2014-09-14T08:18:58Z</time>
      </trkpt>
      <trkpt lat="45.38228" lon="4.57689">
        <ele>1340</ele>
        <time>2014-09-14T08:19:00Z</time>
      </trkpt>
      <trkpt lat="45.3823" lon="4.57686">
        <ele>1340</ele>
        <time>2014-09-14T08:19:03Z</time>
      </trkpt>
      <trkpt lat="45.38232" lon="4.57681">
        <ele>1340</ele>
        <time>2014-09-14T08:19:06Z</time>
      </trkpt>
      <trkpt lat="45.38234" lon="4.57678">
        <ele>1340</ele>
        <time>2014-09-14T08:19:08Z</time>
      </trkpt>
      <trkpt lat="45.38237" lon="4.57671">
        <ele>1340</ele>
        <time>2014-09-14T08:19:11Z</time>
      </trkpt>
      <trkpt lat="45.38242" lon="4.57664">
        <ele>1340</ele>
        <time>2014-09-14T08:19:14Z</time>
      </trkpt>
      <trkpt lat="45.38247" lon="4.5766">
        <ele>1341</ele>
        <time>2014-09-14T08:19:16Z</time>
      </trkpt>
      <trkpt lat="45.3825" lon="4.57654">
        <ele>1341</ele>
        <time>2014-09-14T08:19:18Z</time>
      </trkpt>
      <trkpt lat="45.38252" lon="4.57643">
        <ele>1341</ele>
        <time>2014-09-14T08:19:21Z</time>
      </trkpt>
      <trkpt lat="45.38255" lon="4.57636">
        <ele>1342</ele>
        <time>2014-09-14T08:19:23Z</time>
      </trkpt>
      <trkpt lat="45.3826" lon="4.57633">
        <ele>1342</ele>
        <time>2014-09-14T08:19:25Z</time>
      </trkpt>
      <trkpt lat="45.38266" lon="4.57633">
        <ele>1342</ele>
        <time>2014-09-14T08:19:28Z</time>
      </trkpt>
      <trkpt lat="45.38273" lon="4.57633">
        <ele>1343</ele>
        <time>2014-09-14T08:19:31Z</time>
      </trkpt>
      <trkpt lat="45.38277" lon="4.57633">
        <ele>1343</ele>
        <time>2014-09-14T08:19:33Z</time>
      </trkpt>
      <trkpt lat="45.38281" lon="4.57632">
        <ele>1343</ele>
        <time>2014-09-14T08:19:36Z</time>
      </trkpt>
      <trkpt lat="45.38285" lon="4.57629">
        <ele>1344</ele>
        <time>2014-09-14T08:19:39Z</time>
      </trkpt>
      <trkpt lat="45.38288" lon="4.57621">
        <ele>1344</ele>
        <time>2014-09-14T08:19:42Z</time>
      </trkpt>
      <trkpt lat="45.38287" lon="4.57614">
        <ele>1344</ele>
        <time>2014-09-14T08:19:44Z</time>
      </trkpt>
      <trkpt lat="45.38285" lon="4.57605">
        <ele>1344</ele>
        <time>2014-09-14T08:19:47Z</time>
      </trkpt>
      <trkpt lat="45.38284" lon="4.57596">
        <ele>1344</ele>
        <time>2014-09-14T08:19:50Z</time>
      </trkpt>
      <trkpt lat="45.38282" lon="4.5759">
        <ele>1344</ele>
        <time>2014-09-14T08:19:52Z</time>
      </trkpt>
      <trkpt lat="45.3828" lon="4.57582">
        <ele>1344</ele>
        <time>2014-09-14T08:19:55Z</time>
      </trkpt>
      <trkpt lat="45.38279" lon="4.57576">
        <ele>1345</ele>
        <time>2014-09-14T08:19:57Z</time>
      </trkpt>
      <trkpt lat="45.38276" lon="4.57569">
        <ele>1345</ele>
        <time>2014-09-14T08:20:00Z</time>
      </trkpt>
      <trkpt lat="45.38276" lon="4.57565">
        <ele>1346</ele>
        <time>2014-09-14T08:20:02Z</time>
      </trkpt>
      <trkpt lat="45.38275" lon="4.57561">
        <ele>1346</ele>
        <time>2014-09-14T08:20:04Z</time>
      </trkpt>
      <trkpt lat="45.38274" lon="4.57556">
        <ele>1346</ele>
        <time>2014-09-14T08:20:07Z</time>
      </trkpt>
      <trkpt lat="45.38273" lon="4.57552">
        <ele>1346</ele>
        <time>2014-09-14T08:20:09Z</time>
      </trkpt>
      <trkpt lat="45.38273" lon="4.57549">
        <ele>1346</ele>
        <time>2014-09-14T08:20:11Z</time>
      </trkpt>
      <trkpt lat="45.38272" lon="4.57544">
        <ele>1347</ele>
        <time>2014-09-14T08:20:14Z</time>
      </trkpt>
      <trkpt lat="45.38272" lon="4.5754">
        <ele>1347</ele>
        <time>2014-09-14T08:20:16Z</time>
      </trkpt>
      <trkpt lat="45.38271" lon="4.57535">
        <ele>1347</ele>
        <time>2014-09-14T08:20:19Z</time>
      </trkpt>
      <trkpt lat="45.3827" lon="4.5753">
        <ele>1348</ele>
        <time>2014-09-14T08:20:22Z</time>
      </trkpt>
      <trkpt lat="45.38269" lon="4.57527">
        <ele>1348</ele>
        <time>2014-09-14T08:20:24Z</time>
      </trkpt>
      <trkpt lat="45.38269" lon="4.57522">
        <ele>1348</ele>
        <time>2014-09-14T08:20:27Z</time>
      </trkpt>
      <trkpt lat="45.38268" lon="4.57517">
        <ele>1348</ele>
        <time>2014-09-14T08:20:30Z</time>
      </trkpt>
      <trkpt lat="45.38267" lon="4.57512">
        <ele>1349</ele>
        <time>2014-09-14T08:20:33Z</time>
      </trkpt>
      <trkpt lat="45.38266" lon="4.57509">
        <ele>1349</ele>
        <time>2014-09-14T08:20:35Z</time>
      </trkpt>
      <trkpt lat="45.38266" lon="4.57506">
        <ele>1349</ele>
        <time>2014-09-14T08:20:37Z</time>
      </trkpt>
      <trkpt lat="45.38265" lon="4.57501">
        <ele>1349</ele>
        <time>2014-09-14T08:20:40Z</time>
      </trkpt>
      <trkpt lat="45.38264" lon="4.57496">
        <ele>1349</ele>
        <time>2014-09-14T08:20:43Z</time>
      </trkpt>
      <trkpt lat="45.38263" lon="4.57493">
        <ele>1350</ele>
        <time>2014-09-14T08:20:45Z</time>
      </trkpt>
      <trkpt lat="45.38263" lon="4.57488">
        <ele>1350</ele>
        <time>2014-09-14T08:20:48Z</time>
      </trkpt>
      <trkpt lat="45.38262" lon="4.57484">
        <ele>1351</ele>
        <time>2014-09-14T08:20:50Z</time>
      </trkpt>
      <trkpt lat="45.38262" lon="4.57479">
        <ele>1351</ele>
        <time>2014-09-14T08:20:53Z</time>
      </trkpt>
      <trkpt lat="45.38262" lon="4.57475">
        <ele>1351</ele>
        <time>2014-09-14T08:20:55Z</time>
      </trkpt>
      <trkpt lat="45.38261" lon="4.57472">
        <ele>1351</ele>
        <time>2014-09-14T08:20:57Z</time>
      </trkpt>
      <trkpt lat="45.38261" lon="4.57466">
        <ele>1352</ele>
        <time>2014-09-14T08:21:00Z</time>
      </trkpt>
      <trkpt lat="45.38261" lon="4.57462">
        <ele>1352</ele>
        <time>2014-09-14T08:21:02Z</time>
      </trkpt>
      <trkpt lat="45.38261" lon="4.57459">
        <ele>1352</ele>
        <time>2014-09-14T08:21:04Z</time>
      </trkpt>
      <trkpt lat="45.38261" lon="4.57454">
        <ele>1352</ele>
        <time>2014-09-14T08:21:07Z</time>
      </trkpt>
      <trkpt lat="45.38261" lon="4.5745">
        <ele>1353</ele>
        <time>2014-09-14T08:21:09Z</time>
      </trkpt>
      <trkpt lat="45.38261" lon="4.57447">
        <ele>1353</ele>
        <time>2014-09-14T08:21:11Z</time>
      </trkpt>
      <trkpt lat="45.38261" lon="4.57441">
        <ele>1353</ele>
        <time>2014-09-14T08:21:14Z</time>
      </trkpt>
      <trkpt lat="45.38261" lon="4.57438">
        <ele>1354</ele>
        <time>2014-09-14T08:21:16Z</time>
      </trkpt>
      <trkpt lat="45.3826" lon="4.57433">
        <ele>1353</ele>
        <time>2014-09-14T08:21:19Z</time>
      </trkpt>
      <trkpt lat="45.3826" lon="4.57429">
        <ele>1354</ele>
        <time>2014-09-14T08:21:21Z</time>
      </trkpt>
      <trkpt lat="45.3826" lon="4.57425">
        <ele>1354</ele>
        <time>2014-09-14T08:21:23Z</time>
      </trkpt>
      <trkpt lat="45.3826" lon="4.5742">
        <ele>1354</ele>
        <time>2014-09-14T08:21:26Z</time>
      </trkpt>
      <trkpt lat="45.3826" lon="4.57415">
        <ele>1355</ele>
        <time>2014-09-14T08:21:29Z</time>
      </trkpt>
      <trkpt lat="45.38261" lon="4.57412">
        <ele>1355</ele>
        <time>2014-09-14T08:21:31Z</time>
      </trkpt>
      <trkpt lat="45.38261" lon="4.57408">
        <ele>1355</ele>
        <time>2014-09-14T08:21:33Z</time>
      </trkpt>
      <trkpt lat="45.38263" lon="4.57404">
        <ele>1355</ele>
        <time>2014-09-14T08:21:36Z</time>
      </trkpt>
      <trkpt lat="45.38263" lon="4.57401">
        <ele>1355</ele>
        <time>2014-09-14T08:21:38Z</time>
      </trkpt>
      <trkpt lat="45.38264" lon="4.57396">
        <ele>1356</ele>
        <time>2014-09-14T08:21:41Z</time>
      </trkpt>
      <trkpt lat="45.38265" lon="4.57391">
        <ele>1356</ele>
        <time>2014-09-14T08:21:44Z</time>
      </trkpt>
      <trkpt lat="45.38265" lon="4.57388">
        <ele>1356</ele>
        <time>2014-09-14T08:21:46Z</time>
      </trkpt>
      <trkpt lat="45.38264" lon="4.57385">
        <ele>1357</ele>
        <time>2014-09-14T08:21:48Z</time>
      </trkpt>
      <trkpt lat="45.38264" lon="4.5738">
        <ele>1357</ele>
        <time>2014-09-14T08:21:51Z</time>
      </trkpt>
      <trkpt lat="45.38264" lon="4.57376">
        <ele>1358</ele>
        <time>2014-09-14T08:21:54Z</time>
      </trkpt>
      <trkpt lat="45.38263" lon="4.57374">
        <ele>1358</ele>
        <time>2014-09-14T08:21:56Z</time>
      </trkpt>
      <trkpt lat="45.38263" lon="4.57372">
        <ele>1358</ele>
        <time>2014-09-14T08:21:58Z</time>
      </trkpt>
      <trkpt lat="45.38261" lon="4.57368">
        <ele>1359</ele>
        <time>2014-09-14T08:22:01Z</time>
      </trkpt>
      <trkpt lat="45.38261" lon="4.57365">
        <ele>1359</ele>
        <time>2014-09-14T08:22:03Z</time>
      </trkpt>
      <trkpt lat="45.38258" lon="4.57361">
        <ele>1360</ele>
        <time>2014-09-14T08:22:06Z</time>
      </trkpt>
      <trkpt lat="45.38255" lon="4.57359">
        <ele>1360</ele>
        <time>2014-09-14T08:22:09Z</time>
      </trkpt>
      <trkpt lat="45.38253" lon="4.57357">
        <ele>1361</ele>
        <time>2014-09-14T08:22:12Z</time>
      </trkpt>
      <trkpt lat="45.38251" lon="4.57354">
        <ele>1361</ele>
        <time>2014-09-14T08:22:15Z</time>
      </trkpt>
      <trkpt lat="45.38251" lon="4.57351">
        <ele>1362</ele>
        <time>2014-09-14T08:22:17Z</time>
      </trkpt>
      <trkpt lat="45.38251" lon="4.57349">
        <ele>1362</ele>
        <time>2014-09-14T08:22:19Z</time>
      </trkpt>
      <trkpt lat="45.38252" lon="4.57346">
        <ele>1362</ele>
        <time>2014-09-14T08:22:22Z</time>
      </trkpt>
      <trkpt lat="45.38252" lon="4.57345">
        <ele>1363</ele>
        <time>2014-09-14T08:22:24Z</time>
      </trkpt>
      <trkpt lat="45.38251" lon="4.57341">
        <ele>1364</ele>
        <time>2014-09-14T08:22:27Z</time>
      </trkpt>
      <trkpt lat="45.38252" lon="4.57338">
        <ele>1365</ele>
        <time>2014-09-14T08:22:30Z</time>
      </trkpt>
      <trkpt lat="45.38253" lon="4.57336">
        <ele>1365</ele>
        <time>2014-09-14T08:22:32Z</time>
      </trkpt>
      <trkpt lat="45.38254" lon="4.57333">
        <ele>1366</ele>
        <time>2014-09-14T08:22:35Z</time>
      </trkpt>
      <trkpt lat="45.38253" lon="4.5733">
        <ele>1366</ele>
        <time>2014-09-14T08:22:37Z</time>
      </trkpt>
      <trkpt lat="45.38254" lon="4.57327">
        <ele>1367</ele>
        <time>2014-09-14T08:22:40Z</time>
      </trkpt>
      <trkpt lat="45.38255" lon="4.57324">
        <ele>1367</ele>
        <time>2014-09-14T08:22:43Z</time>
      </trkpt>
      <trkpt lat="45.38255" lon="4.5732">
        <ele>1367</ele>
        <time>2014-09-14T08:22:45Z</time>
      </trkpt>
      <trkpt lat="45.38255" lon="4.57317">
        <ele>1367</ele>
        <time>2014-09-14T08:22:48Z</time>
      </trkpt>
      <trkpt lat="45.38255" lon="4.57314">
        <ele>1368</ele>
        <time>2014-09-14T08:22:51Z</time>
      </trkpt>
      <trkpt lat="45.38255" lon="4.57311">
        <ele>1369</ele>
        <time>2014-09-14T08:22:54Z</time>
      </trkpt>
      <trkpt lat="45.38254" lon="4.57309">
        <ele>1369</ele>
        <time>2014-09-14T08:22:56Z</time>
      </trkpt>
      <trkpt lat="45.38253" lon="4.57306">
        <ele>1370</ele>
        <time>2014-09-14T08:22:58Z</time>
      </trkpt>
      <trkpt lat="45.38251" lon="4.57303">
        <ele>1370</ele>
        <time>2014-09-14T08:23:01Z</time>
      </trkpt>
      <trkpt lat="45.38252" lon="4.573">
        <ele>1370</ele>
        <time>2014-09-14T08:23:04Z</time>
      </trkpt>
      <trkpt lat="45.38253" lon="4.57298">
        <ele>1370</ele>
        <time>2014-09-14T08:23:06Z</time>
      </trkpt>
      <trkpt lat="45.38253" lon="4.57297">
        <ele>1371</ele>
        <time>2014-09-14T08:23:08Z</time>
      </trkpt>
      <trkpt lat="45.38253" lon="4.57295">
        <ele>1372</ele>
        <time>2014-09-14T08:23:10Z</time>
      </trkpt>
      <trkpt lat="45.38253" lon="4.57293">
        <ele>1372</ele>
        <time>2014-09-14T08:23:12Z</time>
      </trkpt>
      <trkpt lat="45.38254" lon="4.5729">
        <ele>1373</ele>
        <time>2014-09-14T08:23:15Z</time>
      </trkpt>
      <trkpt lat="45.38254" lon="4.57288">
        <ele>1373</ele>
        <time>2014-09-14T08:23:17Z</time>
      </trkpt>
      <trkpt lat="45.38255" lon="4.57285">
        <ele>1374</ele>
        <time>2014-09-14T08:23:19Z</time>
      </trkpt>
      <trkpt lat="45.38255" lon="4.57283">
        <ele>1375</ele>
        <time>2014-09-14T08:23:21Z</time>
      </trkpt>
      <trkpt lat="45.38254" lon="4.5728">
        <ele>1375</ele>
        <time>2014-09-14T08:23:24Z</time>
      </trkpt>
      <trkpt lat="45.38253" lon="4.57277">
        <ele>1376</ele>
        <time>2014-09-14T08:23:27Z</time>
      </trkpt>
      <trkpt lat="45.38252" lon="4.57275">
        <ele>1376</ele>
        <time>2014-09-14T08:23:29Z</time>
      </trkpt>
      <trkpt lat="45.38251" lon="4.57273">
        <ele>1375</ele>
        <time>2014-09-14T08:23:32Z</time>
      </trkpt>
      <trkpt lat="45.38251" lon="4.5727">
        <ele>1375</ele>
        <time>2014-09-14T08:23:34Z</time>
      </trkpt>
      <trkpt lat="45.38251" lon="4.57269">
        <ele>1375</ele>
        <time>2014-09-14T08:23:37Z</time>
      </trkpt>
      <trkpt lat="45.3825" lon="4.57266">
        <ele>1374</ele>
        <time>2014-09-14T08:23:39Z</time>
      </trkpt>
      <trkpt lat="45.3825" lon="4.57263">
        <ele>1374</ele>
        <time>2014-09-14T08:23:42Z</time>
      </trkpt>
      <trkpt lat="45.3825" lon="4.57257">
        <ele>1373</ele>
        <time>2014-09-14T08:23:45Z</time>
      </trkpt>
      <trkpt lat="45.38246" lon="4.57249">
        <ele>1373</ele>
        <time>2014-09-14T08:23:48Z</time>
      </trkpt>
      <trkpt lat="45.38242" lon="4.57242">
        <ele>1372</ele>
        <time>2014-09-14T08:23:51Z</time>
      </trkpt>
      <trkpt lat="45.38238" lon="4.57234">
        <ele>1371</ele>
        <time>2014-09-14T08:23:54Z</time>
      </trkpt>
      <trkpt lat="45.38234" lon="4.57225">
        <ele>1371</ele>
        <time>2014-09-14T08:23:57Z</time>
      </trkpt>
      <trkpt lat="45.38232" lon="4.57219">
        <ele>1369</ele>
        <time>2014-09-14T08:23:59Z</time>
      </trkpt>
      <trkpt lat="45.3823" lon="4.57209">
        <ele>1369</ele>
        <time>2014-09-14T08:24:02Z</time>
      </trkpt>
      <trkpt lat="45.38231" lon="4.57202">
        <ele>1367</ele>
        <time>2014-09-14T08:24:04Z</time>
      </trkpt>
      <trkpt lat="45.38231" lon="4.57193">
        <ele>1366</ele>
        <time>2014-09-14T08:24:07Z</time>
      </trkpt>
      <trkpt lat="45.3823" lon="4.57188">
        <ele>1365</ele>
        <time>2014-09-14T08:24:09Z</time>
      </trkpt>
      <trkpt lat="45.38229" lon="4.57183">
        <ele>1365</ele>
        <time>2014-09-14T08:24:11Z</time>
      </trkpt>
      <trkpt lat="45.3823" lon="4.57173">
        <ele>1364</ele>
        <time>2014-09-14T08:24:14Z</time>
      </trkpt>
      <trkpt lat="45.3823" lon="4.57168">
        <ele>1364</ele>
        <time>2014-09-14T08:24:16Z</time>
      </trkpt>
      <trkpt lat="45.38228" lon="4.5716">
        <ele>1362</ele>
        <time>2014-09-14T08:24:19Z</time>
      </trkpt>
      <trkpt lat="45.38226" lon="4.57153">
        <ele>1361</ele>
        <time>2014-09-14T08:24:21Z</time>
      </trkpt>
      <trkpt lat="45.38225" lon="4.57148">
        <ele>1360</ele>
        <time>2014-09-14T08:24:23Z</time>
      </trkpt>
      <trkpt lat="45.38222" lon="4.57142">
        <ele>1360</ele>
        <time>2014-09-14T08:24:25Z</time>
      </trkpt>
      <trkpt lat="45.38219" lon="4.57137">
        <ele>1359</ele>
        <time>2014-09-14T08:24:27Z</time>
      </trkpt>
      <trkpt lat="45.38214" lon="4.57129">
        <ele>1359</ele>
        <time>2014-09-14T08:24:30Z</time>
      </trkpt>
      <trkpt lat="45.38212" lon="4.57122">
        <ele>1359</ele>
        <time>2014-09-14T08:24:32Z</time>
      </trkpt>
      <trkpt lat="45.38209" lon="4.57114">
        <ele>1357</ele>
        <time>2014-09-14T08:24:35Z</time>
      </trkpt>
      <trkpt lat="45.38205" lon="4.57105">
        <ele>1356</ele>
        <time>2014-09-14T08:24:38Z</time>
      </trkpt>
      <trkpt lat="45.38202" lon="4.57098">
        <ele>1355</ele>
        <time>2014-09-14T08:24:40Z</time>
      </trkpt>
      <trkpt lat="45.38198" lon="4.57089">
        <ele>1354</ele>
        <time>2014-09-14T08:24:43Z</time>
      </trkpt>
      <trkpt lat="45.38194" lon="4.57084">
        <ele>1354</ele>
        <time>2014-09-14T08:24:45Z</time>
      </trkpt>
      <trkpt lat="45.38188" lon="4.57076">
        <ele>1353</ele>
        <time>2014-09-14T08:24:48Z</time>
      </trkpt>
      <trkpt lat="45.38182" lon="4.57071">
        <ele>1352</ele>
        <time>2014-09-14T08:24:51Z</time>
      </trkpt>
      <trkpt lat="45.3818" lon="4.57066">
        <ele>1352</ele>
        <time>2014-09-14T08:24:53Z</time>
      </trkpt>
      <trkpt lat="45.38177" lon="4.5706">
        <ele>1351</ele>
        <time>2014-09-14T08:24:56Z</time>
      </trkpt>
      <trkpt lat="45.38171" lon="4.57052">
        <ele>1350</ele>
        <time>2014-09-14T08:24:59Z</time>
      </trkpt>
      <trkpt lat="45.38167" lon="4.57047">
        <ele>1349</ele>
        <time>2014-09-14T08:25:01Z</time>
      </trkpt>
      <trkpt lat="45.38163" lon="4.57042">
        <ele>1348</ele>
        <time>2014-09-14T08:25:03Z</time>
      </trkpt>
      <trkpt lat="45.38158" lon="4.57033">
        <ele>1348</ele>
        <time>2014-09-14T08:25:06Z</time>
      </trkpt>
      <trkpt lat="45.38152" lon="4.57024">
        <ele>1347</ele>
        <time>2014-09-14T08:25:09Z</time>
      </trkpt>
      <trkpt lat="45.38149" lon="4.57019">
        <ele>1346</ele>
        <time>2014-09-14T08:25:11Z</time>
      </trkpt>
      <trkpt lat="45.38143" lon="4.57011">
        <ele>1345</ele>
        <time>2014-09-14T08:25:14Z</time>
      </trkpt>
      <trkpt lat="45.38141" lon="4.57005">
        <ele>1345</ele>
        <time>2014-09-14T08:25:16Z</time>
      </trkpt>
      <trkpt lat="45.38136" lon="4.56995">
        <ele>1344</ele>
        <time>2014-09-14T08:25:19Z</time>
      </trkpt>
      <trkpt lat="45.38133" lon="4.56989">
        <ele>1344</ele>
        <time>2014-09-14T08:25:21Z</time>
      </trkpt>
      <trkpt lat="45.38128" lon="4.5698">
        <ele>1343</ele>
        <time>2014-09-14T08:25:24Z</time>
      </trkpt>
      <trkpt lat="45.38123" lon="4.56971">
        <ele>1342</ele>
        <time>2014-09-14T08:25:27Z</time>
      </trkpt>
      <trkpt lat="45.38117" lon="4.56962">
        <ele>1341</ele>
        <time>2014-09-14T08:25:30Z</time>
      </trkpt>
      <trkpt lat="45.38113" lon="4.56957">
        <ele>1340</ele>
        <time>2014-09-14T08:25:32Z</time>
      </trkpt>
      <trkpt lat="45.38108" lon="4.56948">
        <ele>1339</ele>
        <time>2014-09-14T08:25:35Z</time>
      </trkpt>
      <trkpt lat="45.38104" lon="4.56943">
        <ele>1338</ele>
        <time>2014-09-14T08:25:37Z</time>
      </trkpt>
      <trkpt lat="45.38099" lon="4.56935">
        <ele>1337</ele>
        <time>2014-09-14T08:25:40Z</time>
      </trkpt>
      <trkpt lat="45.38095" lon="4.56929">
        <ele>1337</ele>
        <time>2014-09-14T08:25:42Z</time>
      </trkpt>
      <trkpt lat="45.38092" lon="4.5692">
        <ele>1336</ele>
        <time>2014-09-14T08:25:45Z</time>
      </trkpt>
      <trkpt lat="45.38089" lon="4.56911">
        <ele>1334</ele>
        <time>2014-09-14T08:25:48Z</time>
      </trkpt>
      <trkpt lat="45.38089" lon="4.56903">
        <ele>1333</ele>
        <time>2014-09-14T08:25:50Z</time>
      </trkpt>
      <trkpt lat="45.38088" lon="4.56893">
        <ele>1332</ele>
        <time>2014-09-14T08:25:53Z</time>
      </trkpt>
      <trkpt lat="45.38084" lon="4.56889">
        <ele>1333</ele>
        <time>2014-09-14T08:25:55Z</time>
      </trkpt>
      <trkpt lat="45.38081" lon="4.56884">
        <ele>1333</ele>
        <time>2014-09-14T08:25:57Z</time>
      </trkpt>
      <trkpt lat="45.38076" lon="4.56878">
        <ele>1332</ele>
        <time>2014-09-14T08:26:00Z</time>
      </trkpt>
      <trkpt lat="45.38072" lon="4.56875">
        <ele>1332</ele>
        <time>2014-09-14T08:26:02Z</time>
      </trkpt>
      <trkpt lat="45.38069" lon="4.56866">
        <ele>1331</ele>
        <time>2014-09-14T08:26:05Z</time>
      </trkpt>
      <trkpt lat="45.38066" lon="4.56861">
        <ele>1330</ele>
        <time>2014-09-14T08:26:07Z</time>
      </trkpt>
      <trkpt lat="45.38063" lon="4.56856">
        <ele>1330</ele>
        <time>2014-09-14T08:26:09Z</time>
      </trkpt>
      <trkpt lat="45.38058" lon="4.56848">
        <ele>1329</ele>
        <time>2014-09-14T08:26:12Z</time>
      </trkpt>
      <trkpt lat="45.38054" lon="4.56843">
        <ele>1329</ele>
        <time>2014-09-14T08:26:14Z</time>
      </trkpt>
      <trkpt lat="45.38051" lon="4.56835">
        <ele>1329</ele>
        <time>2014-09-14T08:26:17Z</time>
      </trkpt>
      <trkpt lat="45.38049" lon="4.56825">
        <ele>1328</ele>
        <time>2014-09-14T08:26:20Z</time>
      </trkpt>
      <trkpt lat="45.38047" lon="4.56818">
        <ele>1328</ele>
        <time>2014-09-14T08:26:22Z</time>
      </trkpt>
      <trkpt lat="45.38045" lon="4.56811">
        <ele>1327</ele>
        <time>2014-09-14T08:26:24Z</time>
      </trkpt>
      <trkpt lat="45.38042" lon="4.56805">
        <ele>1326</ele>
        <time>2014-09-14T08:26:26Z</time>
      </trkpt>
      <trkpt lat="45.38039" lon="4.568">
        <ele>1325</ele>
        <time>2014-09-14T08:26:28Z</time>
      </trkpt>
      <trkpt lat="45.38033" lon="4.56794">
        <ele>1324</ele>
        <time>2014-09-14T08:26:31Z</time>
      </trkpt>
      <trkpt lat="45.38027" lon="4.56787">
        <ele>1323</ele>
        <time>2014-09-14T08:26:34Z</time>
      </trkpt>
      <trkpt lat="45.38024" lon="4.56784">
        <ele>1323</ele>
        <time>2014-09-14T08:26:36Z</time>
      </trkpt>
      <trkpt lat="45.38018" lon="4.56779">
        <ele>1322</ele>
        <time>2014-09-14T08:26:39Z</time>
      </trkpt>
      <trkpt lat="45.38014" lon="4.56772">
        <ele>1322</ele>
        <time>2014-09-14T08:26:42Z</time>
      </trkpt>
      <trkpt lat="45.38008" lon="4.56766">
        <ele>1321</ele>
        <time>2014-09-14T08:26:45Z</time>
      </trkpt>
      <trkpt lat="45.38004" lon="4.56764">
        <ele>1321</ele>
        <time>2014-09-14T08:26:47Z</time>
      </trkpt>
      <trkpt lat="45.37999" lon="4.56764">
        <ele>1321</ele>
        <time>2014-09-14T08:26:50Z</time>
      </trkpt>
      <trkpt lat="45.37994" lon="4.56765">
        <ele>1321</ele>
        <time>2014-09-14T08:26:53Z</time>
      </trkpt>
      <trkpt lat="45.37989" lon="4.56763">
        <ele>1320</ele>
        <time>2014-09-14T08:26:56Z</time>
      </trkpt>
      <trkpt lat="45.37983" lon="4.5676">
        <ele>1319</ele>
        <time>2014-09-14T08:26:59Z</time>
      </trkpt>
      <trkpt lat="45.37978" lon="4.5676">
        <ele>1319</ele>
        <time>2014-09-14T08:27:01Z</time>
      </trkpt>
      <trkpt lat="45.37973" lon="4.56758">
        <ele>1318</ele>
        <time>2014-09-14T08:27:04Z</time>
      </trkpt>
      <trkpt lat="45.37968" lon="4.56758">
        <ele>1318</ele>
        <time>2014-09-14T08:27:06Z</time>
      </trkpt>
      <trkpt lat="45.37963" lon="4.56756">
        <ele>1318</ele>
        <time>2014-09-14T08:27:08Z</time>
      </trkpt>
      <trkpt lat="45.37956" lon="4.56752">
        <ele>1317</ele>
        <time>2014-09-14T08:27:11Z</time>
      </trkpt>
      <trkpt lat="45.37949" lon="4.56748">
        <ele>1317</ele>
        <time>2014-09-14T08:27:14Z</time>
      </trkpt>
      <trkpt lat="45.37943" lon="4.56745">
        <ele>1316</ele>
        <time>2014-09-14T08:27:17Z</time>
      </trkpt>
      <trkpt lat="45.37939" lon="4.56743">
        <ele>1316</ele>
        <time>2014-09-14T08:27:19Z</time>
      </trkpt>
      <trkpt lat="45.37931" lon="4.5674">
        <ele>1315</ele>
        <time>2014-09-14T08:27:22Z</time>
      </trkpt>
      <trkpt lat="45.37923" lon="4.56734">
        <ele>1315</ele>
        <time>2014-09-14T08:27:25Z</time>
      </trkpt>
      <trkpt lat="45.37916" lon="4.5673">
        <ele>1314</ele>
        <time>2014-09-14T08:27:28Z</time>
      </trkpt>
      <trkpt lat="45.37912" lon="4.56726">
        <ele>1313</ele>
        <time>2014-09-14T08:27:30Z</time>
      </trkpt>
      <trkpt lat="45.37908" lon="4.56724">
        <ele>1312</ele>
        <time>2014-09-14T08:27:32Z</time>
      </trkpt>
      <trkpt lat="45.37901" lon="4.56719">
        <ele>1312</ele>
        <time>2014-09-14T08:27:35Z</time>
      </trkpt>
      <trkpt lat="45.37897" lon="4.56715">
        <ele>1312</ele>
        <time>2014-09-14T08:27:37Z</time>
      </trkpt>
      <trkpt lat="45.37893" lon="4.56712">
        <ele>1312</ele>
        <time>2014-09-14T08:27:39Z</time>
      </trkpt>
      <trkpt lat="45.37888" lon="4.56706">
        <ele>1311</ele>
        <time>2014-09-14T08:27:42Z</time>
      </trkpt>
      <trkpt lat="45.37881" lon="4.567">
        <ele>1310</ele>
        <time>2014-09-14T08:27:45Z</time>
      </trkpt>
      <trkpt lat="45.37875" lon="4.56696">
        <ele>1309</ele>
        <time>2014-09-14T08:27:48Z</time>
      </trkpt>
      <trkpt lat="45.37868" lon="4.56688">
        <ele>1309</ele>
        <time>2014-09-14T08:27:51Z</time>
      </trkpt>
      <trkpt lat="45.37863" lon="4.56684">
        <ele>1308</ele>
        <time>2014-09-14T08:27:53Z</time>
      </trkpt>
      <trkpt lat="45.37859" lon="4.56682">
        <ele>1308</ele>
        <time>2014-09-14T08:27:55Z</time>
      </trkpt>
      <trkpt lat="45.37854" lon="4.56677">
        <ele>1307</ele>
        <time>2014-09-14T08:27:58Z</time>
      </trkpt>
      <trkpt lat="45.37848" lon="4.56671">
        <ele>1307</ele>
        <time>2014-09-14T08:28:01Z</time>
      </trkpt>
      <trkpt lat="45.37844" lon="4.56668">
        <ele>1307</ele>
        <time>2014-09-14T08:28:03Z</time>
      </trkpt>
      <trkpt lat="45.37837" lon="4.56662">
        <ele>1306</ele>
        <time>2014-09-14T08:28:06Z</time>
      </trkpt>
      <trkpt lat="45.37833" lon="4.56658">
        <ele>1305</ele>
        <time>2014-09-14T08:28:08Z</time>
      </trkpt>
      <trkpt lat="45.37827" lon="4.56651">
        <ele>1305</ele>
        <time>2014-09-14T08:28:11Z</time>
      </trkpt>
      <trkpt lat="45.37822" lon="4.56648">
        <ele>1304</ele>
        <time>2014-09-14T08:28:13Z</time>
      </trkpt>
      <trkpt lat="45.37817" lon="4.56641">
        <ele>1303</ele>
        <time>2014-09-14T08:28:16Z</time>
      </trkpt>
      <trkpt lat="45.37813" lon="4.56635">
        <ele>1302</ele>
        <time>2014-09-14T08:28:18Z</time>
      </trkpt>
      <trkpt lat="45.37807" lon="4.56631">
        <ele>1302</ele>
        <time>2014-09-14T08:28:20Z</time>
      </trkpt>
      <trkpt lat="45.37803" lon="4.56628">
        <ele>1301</ele>
        <time>2014-09-14T08:28:22Z</time>
      </trkpt>
      <trkpt lat="45.37797" lon="4.56621">
        <ele>1301</ele>
        <time>2014-09-14T08:28:25Z</time>
      </trkpt>
      <trkpt lat="45.37791" lon="4.56614">
        <ele>1300</ele>
        <time>2014-09-14T08:28:28Z</time>
      </trkpt>
      <trkpt lat="45.37787" lon="4.56609">
        <ele>1299</ele>
        <time>2014-09-14T08:28:30Z</time>
      </trkpt>
      <trkpt lat="45.37783" lon="4.56604">
        <ele>1298</ele>
        <time>2014-09-14T08:28:32Z</time>
      </trkpt>
      <trkpt lat="45.37779" lon="4.566">
        <ele>1298</ele>
        <time>2014-09-14T08:28:34Z</time>
      </trkpt>
      <trkpt lat="45.37775" lon="4.56596">
        <ele>1297</ele>
        <time>2014-09-14T08:28:36Z</time>
      </trkpt>
      <trkpt lat="45.3777" lon="4.56589">
        <ele>1296</ele>
        <time>2014-09-14T08:28:39Z</time>
      </trkpt>
      <trkpt lat="45.37768" lon="4.56586">
        <ele>1295</ele>
        <time>2014-09-14T08:28:41Z</time>
      </trkpt>
      <trkpt lat="45.37763" lon="4.56582">
        <ele>1294</ele>
        <time>2014-09-14T08:28:43Z</time>
      </trkpt>
      <trkpt lat="45.37755" lon="4.56574">
        <ele>1293</ele>
        <time>2014-09-14T08:28:46Z</time>
      </trkpt>
      <trkpt lat="45.37749" lon="4.56566">
        <ele>1292</ele>
        <time>2014-09-14T08:28:49Z</time>
      </trkpt>
      <trkpt lat="45.37744" lon="4.5656">
        <ele>1292</ele>
        <time>2014-09-14T08:28:52Z</time>
      </trkpt>
      <trkpt lat="45.37739" lon="4.56557">
        <ele>1292</ele>
        <time>2014-09-14T08:28:54Z</time>
      </trkpt>
      <trkpt lat="45.37732" lon="4.5655">
        <ele>1291</ele>
        <time>2014-09-14T08:28:57Z</time>
      </trkpt>
      <trkpt lat="45.37729" lon="4.56544">
        <ele>1290</ele>
        <time>2014-09-14T08:28:59Z</time>
      </trkpt>
      <trkpt lat="45.37724" lon="4.56535">
        <ele>1289</ele>
        <time>2014-09-14T08:29:02Z</time>
      </trkpt>
      <trkpt lat="45.3772" lon="4.5653">
        <ele>1288</ele>
        <time>2014-09-14T08:29:04Z</time>
      </trkpt>
      <trkpt lat="45.37716" lon="4.56524">
        <ele>1287</ele>
        <time>2014-09-14T08:29:06Z</time>
      </trkpt>
      <trkpt lat="45.37709" lon="4.56515">
        <ele>1286</ele>
        <time>2014-09-14T08:29:09Z</time>
      </trkpt>
      <trkpt lat="45.37702" lon="4.56508">
        <ele>1285</ele>
        <time>2014-09-14T08:29:12Z</time>
      </trkpt>
      <trkpt lat="45.37698" lon="4.56503">
        <ele>1285</ele>
        <time>2014-09-14T08:29:14Z</time>
      </trkpt>
      <trkpt lat="45.37692" lon="4.56496">
        <ele>1283</ele>
        <time>2014-09-14T08:29:17Z</time>
      </trkpt>
      <trkpt lat="45.37688" lon="4.56489">
        <ele>1283</ele>
        <time>2014-09-14T08:29:19Z</time>
      </trkpt>
      <trkpt lat="45.37682" lon="4.56481">
        <ele>1283</ele>
        <time>2014-09-14T08:29:22Z</time>
      </trkpt>
      <trkpt lat="45.37678" lon="4.56475">
        <ele>1282</ele>
        <time>2014-09-14T08:29:24Z</time>
      </trkpt>
      <trkpt lat="45.37674" lon="4.56471">
        <ele>1282</ele>
        <time>2014-09-14T08:29:26Z</time>
      </trkpt>
      <trkpt lat="45.37668" lon="4.56466">
        <ele>1280</ele>
        <time>2014-09-14T08:29:29Z</time>
      </trkpt>
      <trkpt lat="45.37665" lon="4.56461">
        <ele>1280</ele>
        <time>2014-09-14T08:29:31Z</time>
      </trkpt>
      <trkpt lat="45.37662" lon="4.56456">
        <ele>1279</ele>
        <time>2014-09-14T08:29:33Z</time>
      </trkpt>
      <trkpt lat="45.37657" lon="4.5645">
        <ele>1278</ele>
        <time>2014-09-14T08:29:36Z</time>
      </trkpt>
      <trkpt lat="45.37653" lon="4.56443">
        <ele>1276</ele>
        <time>2014-09-14T08:29:39Z</time>
      </trkpt>
      <trkpt lat="45.37648" lon="4.56439">
        <ele>1275</ele>
        <time>2014-09-14T08:29:41Z</time>
      </trkpt>
      <trkpt lat="45.37641" lon="4.56434">
        <ele>1275</ele>
        <time>2014-09-14T08:29:44Z</time>
      </trkpt>
      <trkpt lat="45.37637" lon="4.56431">
        <ele>1275</ele>
        <time>2014-09-14T08:29:46Z</time>
      </trkpt>
      <trkpt lat="45.37632" lon="4.56427">
        <ele>1274</ele>
        <time>2014-09-14T08:29:48Z</time>
      </trkpt>
      <trkpt lat="45.37626" lon="4.56422">
        <ele>1275</ele>
        <time>2014-09-14T08:29:51Z</time>
      </trkpt>
      <trkpt lat="45.37622" lon="4.5642">
        <ele>1274</ele>
        <time>2014-09-14T08:29:53Z</time>
      </trkpt>
      <trkpt lat="45.37614" lon="4.56419">
        <ele>1273</ele>
        <time>2014-09-14T08:29:56Z</time>
      </trkpt>
      <trkpt lat="45.37608" lon="4.56419">
        <ele>1272</ele>
        <time>2014-09-14T08:29:59Z</time>
      </trkpt>
      <trkpt lat="45.376" lon="4.56416">
        <ele>1271</ele>
        <time>2014-09-14T08:30:02Z</time>
      </trkpt>
      <trkpt lat="45.37595" lon="4.56415">
        <ele>1270</ele>
        <time>2014-09-14T08:30:04Z</time>
      </trkpt>
      <trkpt lat="45.37589" lon="4.56412">
        <ele>1270</ele>
        <time>2014-09-14T08:30:07Z</time>
      </trkpt>
      <trkpt lat="45.37585" lon="4.5641">
        <ele>1270</ele>
        <time>2014-09-14T08:30:09Z</time>
      </trkpt>
      <trkpt lat="45.37578" lon="4.56407">
        <ele>1270</ele>
        <time>2014-09-14T08:30:12Z</time>
      </trkpt>
      <trkpt lat="45.37569" lon="4.56402">
        <ele>1269</ele>
        <time>2014-09-14T08:30:16Z</time>
      </trkpt>
      <trkpt lat="45.37561" lon="4.564">
        <ele>1269</ele>
        <time>2014-09-14T08:30:19Z</time>
      </trkpt>
      <trkpt lat="45.37554" lon="4.564">
        <ele>1268</ele>
        <time>2014-09-14T08:30:22Z</time>
      </trkpt>
      <trkpt lat="45.37545" lon="4.56399">
        <ele>1267</ele>
        <time>2014-09-14T08:30:25Z</time>
      </trkpt>
      <trkpt lat="45.3754" lon="4.56397">
        <ele>1267</ele>
        <time>2014-09-14T08:30:27Z</time>
      </trkpt>
      <trkpt lat="45.37532" lon="4.56393">
        <ele>1266</ele>
        <time>2014-09-14T08:30:30Z</time>
      </trkpt>
      <trkpt lat="45.37524" lon="4.56387">
        <ele>1265</ele>
        <time>2014-09-14T08:30:33Z</time>
      </trkpt>
      <trkpt lat="45.37518" lon="4.56382">
        <ele>1265</ele>
        <time>2014-09-14T08:30:36Z</time>
      </trkpt>
      <trkpt lat="45.37513" lon="4.56378">
        <ele>1265</ele>
        <time>2014-09-14T08:30:38Z</time>
      </trkpt>
      <trkpt lat="45.37509" lon="4.56372">
        <ele>1265</ele>
        <time>2014-09-14T08:30:40Z</time>
      </trkpt>
      <trkpt lat="45.37503" lon="4.56367">
        <ele>1265</ele>
        <time>2014-09-14T08:30:43Z</time>
      </trkpt>
      <trkpt lat="45.37497" lon="4.56363">
        <ele>1264</ele>
        <time>2014-09-14T08:30:45Z</time>
      </trkpt>
      <trkpt lat="45.37493" lon="4.56358">
        <ele>1263</ele>
        <time>2014-09-14T08:30:47Z</time>
      </trkpt>
      <trkpt lat="45.37485" lon="4.56354">
        <ele>1261</ele>
        <time>2014-09-14T08:30:50Z</time>
      </trkpt>
      <trkpt lat="45.37481" lon="4.56352">
        <ele>1260</ele>
        <time>2014-09-14T08:30:52Z</time>
      </trkpt>
      <trkpt lat="45.37476" lon="4.56349">
        <ele>1259</ele>
        <time>2014-09-14T08:30:54Z</time>
      </trkpt>
      <trkpt lat="45.37469" lon="4.56344">
        <ele>1259</ele>
        <time>2014-09-14T08:30:57Z</time>
      </trkpt>
      <trkpt lat="45.37465" lon="4.5634">
        <ele>1259</ele>
        <time>2014-09-14T08:30:59Z</time>
      </trkpt>
      <trkpt lat="45.37458" lon="4.56334">
        <ele>1259</ele>
        <time>2014-09-14T08:31:02Z</time>
      </trkpt>
      <trkpt lat="45.37453" lon="4.56329">
        <ele>1259</ele>
        <time>2014-09-14T08:31:04Z</time>
      </trkpt>
      <trkpt lat="45.37449" lon="4.56323">
        <ele>1259</ele>
        <time>2014-09-14T08:31:06Z</time>
      </trkpt>
      <trkpt lat="45.37446" lon="4.5632">
        <ele>1259</ele>
        <time>2014-09-14T08:31:08Z</time>
      </trkpt>
      <trkpt lat="45.37439" lon="4.56313">
        <ele>1258</ele>
        <time>2014-09-14T08:31:11Z</time>
      </trkpt>
      <trkpt lat="45.37432" lon="4.56307">
        <ele>1257</ele>
        <time>2014-09-14T08:31:14Z</time>
      </trkpt>
      <trkpt lat="45.37424" lon="4.56302">
        <ele>1255</ele>
        <time>2014-09-14T08:31:17Z</time>
      </trkpt>
      <trkpt lat="45.37416" lon="4.56297">
        <ele>1254</ele>
        <time>2014-09-14T08:31:20Z</time>
      </trkpt>
      <trkpt lat="45.37408" lon="4.56292">
        <ele>1253</ele>
        <time>2014-09-14T08:31:23Z</time>
      </trkpt>
      <trkpt lat="45.37403" lon="4.56287">
        <ele>1253</ele>
        <time>2014-09-14T08:31:25Z</time>
      </trkpt>
      <trkpt lat="45.37395" lon="4.56281">
        <ele>1252</ele>
        <time>2014-09-14T08:31:28Z</time>
      </trkpt>
      <trkpt lat="45.37389" lon="4.56275">
        <ele>1251</ele>
        <time>2014-09-14T08:31:31Z</time>
      </trkpt>
      <trkpt lat="45.37385" lon="4.5627">
        <ele>1250</ele>
        <time>2014-09-14T08:31:33Z</time>
      </trkpt>
      <trkpt lat="45.37381" lon="4.56266">
        <ele>1249</ele>
        <time>2014-09-14T08:31:35Z</time>
      </trkpt>
      <trkpt lat="45.37375" lon="4.56261">
        <ele>1249</ele>
        <time>2014-09-14T08:31:38Z</time>
      </trkpt>
      <trkpt lat="45.37371" lon="4.56256">
        <ele>1248</ele>
        <time>2014-09-14T08:31:40Z</time>
      </trkpt>
      <trkpt lat="45.37365" lon="4.56251">
        <ele>1248</ele>
        <time>2014-09-14T08:31:43Z</time>
      </trkpt>
      <trkpt lat="45.37358" lon="4.56245">
        <ele>1248</ele>
        <time>2014-09-14T08:31:46Z</time>
      </trkpt>
      <trkpt lat="45.37353" lon="4.56239">
        <ele>1248</ele>
        <time>2014-09-14T08:31:49Z</time>
      </trkpt>
      <trkpt lat="45.37347" lon="4.56231">
        <ele>1248</ele>
        <time>2014-09-14T08:31:52Z</time>
      </trkpt>
      <trkpt lat="45.37343" lon="4.56226">
        <ele>1247</ele>
        <time>2014-09-14T08:31:54Z</time>
      </trkpt>
      <trkpt lat="45.37339" lon="4.56222">
        <ele>1248</ele>
        <time>2014-09-14T08:31:56Z</time>
      </trkpt>
      <trkpt lat="45.37333" lon="4.56214">
        <ele>1248</ele>
        <time>2014-09-14T08:31:59Z</time>
      </trkpt>
      <trkpt lat="45.37329" lon="4.56209">
        <ele>1248</ele>
        <time>2014-09-14T08:32:01Z</time>
      </trkpt>
      <trkpt lat="45.37323" lon="4.56203">
        <ele>1247</ele>
        <time>2014-09-14T08:32:04Z</time>
      </trkpt>
      <trkpt lat="45.37317" lon="4.56195">
        <ele>1247</ele>
        <time>2014-09-14T08:32:07Z</time>
      </trkpt>
      <trkpt lat="45.37314" lon="4.56189">
        <ele>1246</ele>
        <time>2014-09-14T08:32:09Z</time>
      </trkpt>
      <trkpt lat="45.37309" lon="4.56181">
        <ele>1246</ele>
        <time>2014-09-14T08:32:12Z</time>
      </trkpt>
      <trkpt lat="45.37305" lon="4.56175">
        <ele>1246</ele>
        <time>2014-09-14T08:32:14Z</time>
      </trkpt>
      <trkpt lat="45.373" lon="4.56169">
        <ele>1246</ele>
        <time>2014-09-14T08:32:17Z</time>
      </trkpt>
      <trkpt lat="45.37296" lon="4.56164">
        <ele>1246</ele>
        <time>2014-09-14T08:32:19Z</time>
      </trkpt>
      <trkpt lat="45.37291" lon="4.56158">
        <ele>1245</ele>
        <time>2014-09-14T08:32:22Z</time>
      </trkpt>
      <trkpt lat="45.37287" lon="4.56154">
        <ele>1245</ele>
        <time>2014-09-14T08:32:25Z</time>
      </trkpt>
      <trkpt lat="45.37283" lon="4.56147">
        <ele>1245</ele>
        <time>2014-09-14T08:32:28Z</time>
      </trkpt>
      <trkpt lat="45.3728" lon="4.56143">
        <ele>1246</ele>
        <time>2014-09-14T08:32:30Z</time>
      </trkpt>
      <trkpt lat="45.37276" lon="4.56137">
        <ele>1246</ele>
        <time>2014-09-14T08:32:33Z</time>
      </trkpt>
      <trkpt lat="45.37274" lon="4.56133">
        <ele>1246</ele>
        <time>2014-09-14T08:32:36Z</time>
      </trkpt>
      <trkpt lat="45.37273" lon="4.56129">
        <ele>1247</ele>
        <time>2014-09-14T08:32:39Z</time>
      </trkpt>
      <trkpt lat="45.3727" lon="4.56124">
        <ele>1247</ele>
        <time>2014-09-14T08:32:42Z</time>
      </trkpt>
      <trkpt lat="45.37268" lon="4.56119">
        <ele>1247</ele>
        <time>2014-09-14T08:32:45Z</time>
      </trkpt>
      <trkpt lat="45.37266" lon="4.56116">
        <ele>1246</ele>
        <time>2014-09-14T08:32:47Z</time>
      </trkpt>
      <trkpt lat="45.37263" lon="4.56111">
        <ele>1246</ele>
        <time>2014-09-14T08:32:50Z</time>
      </trkpt>
      <trkpt lat="45.37262" lon="4.56108">
        <ele>1246</ele>
        <time>2014-09-14T08:32:52Z</time>
      </trkpt>
      <trkpt lat="45.3726" lon="4.56106">
        <ele>1246</ele>
        <time>2014-09-14T08:32:54Z</time>
      </trkpt>
      <trkpt lat="45.37259" lon="4.56103">
        <ele>1247</ele>
        <time>2014-09-14T08:32:56Z</time>
      </trkpt>
      <trkpt lat="45.37258" lon="4.56099">
        <ele>1247</ele>
        <time>2014-09-14T08:32:59Z</time>
      </trkpt>
      <trkpt lat="45.37257" lon="4.56096">
        <ele>1247</ele>
        <time>2014-09-14T08:33:01Z</time>
      </trkpt>
      <trkpt lat="45.37254" lon="4.56093">
        <ele>1247</ele>
        <time>2014-09-14T08:33:04Z</time>
      </trkpt>
      <trkpt lat="45.37253" lon="4.56088">
        <ele>1247</ele>
        <time>2014-09-14T08:33:07Z</time>
      </trkpt>
      <trkpt lat="45.37251" lon="4.56084">
        <ele>1247</ele>
        <time>2014-09-14T08:33:09Z</time>
      </trkpt>
      <trkpt lat="45.37249" lon="4.56081">
        <ele>1247</ele>
        <time>2014-09-14T08:33:11Z</time>
      </trkpt>
      <trkpt lat="45.37246" lon="4.56077">
        <ele>1247</ele>
        <time>2014-09-14T08:33:14Z</time>
      </trkpt>
      <trkpt lat="45.37245" lon="4.56074">
        <ele>1247</ele>
        <time>2014-09-14T08:33:16Z</time>
      </trkpt>
      <trkpt lat="45.37243" lon="4.56069">
        <ele>1248</ele>
        <time>2014-09-14T08:33:19Z</time>
      </trkpt>
      <trkpt lat="45.37241" lon="4.56066">
        <ele>1248</ele>
        <time>2014-09-14T08:33:21Z</time>
      </trkpt>
      <trkpt lat="45.37238" lon="4.56062">
        <ele>1248</ele>
        <time>2014-09-14T08:33:24Z</time>
      </trkpt>
      <trkpt lat="45.37236" lon="4.56059">
        <ele>1248</ele>
        <time>2014-09-14T08:33:26Z</time>
      </trkpt>
      <trkpt lat="45.37235" lon="4.56055">
        <ele>1248</ele>
        <time>2014-09-14T08:33:28Z</time>
      </trkpt>
      <trkpt lat="45.37233" lon="4.56051">
        <ele>1248</ele>
        <time>2014-09-14T08:33:31Z</time>
      </trkpt>
      <trkpt lat="45.37232" lon="4.56048">
        <ele>1248</ele>
        <time>2014-09-14T08:33:33Z</time>
      </trkpt>
      <trkpt lat="45.37231" lon="4.56045">
        <ele>1248</ele>
        <time>2014-09-14T08:33:36Z</time>
      </trkpt>
      <trkpt lat="45.37229" lon="4.56043">
        <ele>1248</ele>
        <time>2014-09-14T08:33:38Z</time>
      </trkpt>
      <trkpt lat="45.37227" lon="4.56039">
        <ele>1248</ele>
        <time>2014-09-14T08:33:41Z</time>
      </trkpt>
      <trkpt lat="45.37228" lon="4.56038">
        <ele>1248</ele>
        <time>2014-09-14T08:33:43Z</time>
      </trkpt>
      <trkpt lat="45.37228" lon="4.56037">
        <ele>1248</ele>
        <time>2014-09-14T08:33:46Z</time>
      </trkpt>
      <trkpt lat="45.37228" lon="4.56036">
        <ele>1248</ele>
        <time>2014-09-14T08:33:48Z</time>
      </trkpt>
      <trkpt lat="45.37228" lon="4.56035">
        <ele>1248</ele>
        <time>2014-09-14T08:33:51Z</time>
      </trkpt>
      <trkpt lat="45.37228" lon="4.56034">
        <ele>1248</ele>
        <time>2014-09-14T08:33:53Z</time>
      </trkpt>
      <trkpt lat="45.37227" lon="4.56034">
        <ele>1248</ele>
        <time>2014-09-14T08:33:55Z</time>
      </trkpt>
      <trkpt lat="45.37227" lon="4.56032">
        <ele>1249</ele>
        <time>2014-09-14T08:33:58Z</time>
      </trkpt>
      <trkpt lat="45.37228" lon="4.56032">
        <ele>1249</ele>
        <time>2014-09-14T08:34:00Z</time>
      </trkpt>
      <trkpt lat="45.37228" lon="4.56032">
        <ele>1249</ele>
        <time>2014-09-14T08:34:03Z</time>
      </trkpt>
      <trkpt lat="45.37228" lon="4.56031">
        <ele>1249</ele>
        <time>2014-09-14T08:34:06Z</time>
      </trkpt>
      <trkpt lat="45.3723" lon="4.56032">
        <ele>1249</ele>
        <time>2014-09-14T08:34:09Z</time>
      </trkpt>
      <trkpt lat="45.3723" lon="4.56031">
        <ele>1248</ele>
        <time>2014-09-14T08:34:11Z</time>
      </trkpt>
      <trkpt lat="45.37231" lon="4.56031">
        <ele>1248</ele>
        <time>2014-09-14T08:34:13Z</time>
      </trkpt>
      <trkpt lat="45.37231" lon="4.56031">
        <ele>1248</ele>
        <time>2014-09-14T08:34:17Z</time>
      </trkpt>
      <trkpt lat="45.37229" lon="4.56028">
        <ele>1248</ele>
        <time>2014-09-14T08:34:20Z</time>
      </trkpt>
      <trkpt lat="45.37228" lon="4.56027">
        <ele>1248</ele>
        <time>2014-09-14T08:34:22Z</time>
      </trkpt>
      <trkpt lat="45.37226" lon="4.56025">
        <ele>1248</ele>
        <time>2014-09-14T08:34:24Z</time>
      </trkpt>
      <trkpt lat="45.37223" lon="4.56023">
        <ele>1249</ele>
        <time>2014-09-14T08:34:27Z</time>
      </trkpt>
      <trkpt lat="45.3722" lon="4.56021">
        <ele>1249</ele>
        <time>2014-09-14T08:34:30Z</time>
      </trkpt>
      <trkpt lat="45.37217" lon="4.5602">
        <ele>1249</ele>
        <time>2014-09-14T08:34:32Z</time>
      </trkpt>
      <trkpt lat="45.37214" lon="4.5602">
        <ele>1249</ele>
        <time>2014-09-14T08:34:35Z</time>
      </trkpt>
      <trkpt lat="45.3721" lon="4.56019">
        <ele>1250</ele>
        <time>2014-09-14T08:34:38Z</time>
      </trkpt>
      <trkpt lat="45.37207" lon="4.56018">
        <ele>1250</ele>
        <time>2014-09-14T08:34:40Z</time>
      </trkpt>
      <trkpt lat="45.37206" lon="4.56017">
        <ele>1250</ele>
        <time>2014-09-14T08:34:42Z</time>
      </trkpt>
      <trkpt lat="45.37203" lon="4.56015">
        <ele>1250</ele>
        <time>2014-09-14T08:34:45Z</time>
      </trkpt>
      <trkpt lat="45.37201" lon="4.56013">
        <ele>1250</ele>
        <time>2014-09-14T08:34:47Z</time>
      </trkpt>
      <trkpt lat="45.372" lon="4.56013">
        <ele>1250</ele>
        <time>2014-09-14T08:34:50Z</time>
      </trkpt>
      <trkpt lat="45.37199" lon="4.56011">
        <ele>1250</ele>
        <time>2014-09-14T08:34:53Z</time>
      </trkpt>
      <trkpt lat="45.37197" lon="4.56009">
        <ele>1250</ele>
        <time>2014-09-14T08:34:55Z</time>
      </trkpt>
      <trkpt lat="45.37193" lon="4.56007">
        <ele>1250</ele>
        <time>2014-09-14T08:34:58Z</time>
      </trkpt>
      <trkpt lat="45.37191" lon="4.56006">
        <ele>1250</ele>
        <time>2014-09-14T08:35:00Z</time>
      </trkpt>
      <trkpt lat="45.37187" lon="4.56003">
        <ele>1250</ele>
        <time>2014-09-14T08:35:03Z</time>
      </trkpt>
      <trkpt lat="45.37186" lon="4.56001">
        <ele>1250</ele>
        <time>2014-09-14T08:35:05Z</time>
      </trkpt>
      <trkpt lat="45.37184" lon="4.55999">
        <ele>1251</ele>
        <time>2014-09-14T08:35:07Z</time>
      </trkpt>
      <trkpt lat="45.37182" lon="4.55997">
        <ele>1251</ele>
        <time>2014-09-14T08:35:09Z</time>
      </trkpt>
      <trkpt lat="45.37179" lon="4.55995">
        <ele>1252</ele>
        <time>2014-09-14T08:35:12Z</time>
      </trkpt>
      <trkpt lat="45.37176" lon="4.55992">
        <ele>1252</ele>
        <time>2014-09-14T08:35:14Z</time>
      </trkpt>
      <trkpt lat="45.37172" lon="4.5599">
        <ele>1252</ele>
        <time>2014-09-14T08:35:17Z</time>
      </trkpt>
      <trkpt lat="45.37168" lon="4.55987">
        <ele>1252</ele>
        <time>2014-09-14T08:35:20Z</time>
      </trkpt>
      <trkpt lat="45.37164" lon="4.55984">
        <ele>1251</ele>
        <time>2014-09-14T08:35:23Z</time>
      </trkpt>
      <trkpt lat="45.3716" lon="4.55982">
        <ele>1251</ele>
        <time>2014-09-14T08:35:25Z</time>
      </trkpt>
      <trkpt lat="45.37158" lon="4.55981">
        <ele>1252</ele>
        <time>2014-09-14T08:35:27Z</time>
      </trkpt>
      <trkpt lat="45.37154" lon="4.55979">
        <ele>1251</ele>
        <time>2014-09-14T08:35:30Z</time>
      </trkpt>
      <trkpt lat="45.3715" lon="4.55978">
        <ele>1252</ele>
        <time>2014-09-14T08:35:32Z</time>
      </trkpt>
      <trkpt lat="45.37148" lon="4.55976">
        <ele>1252</ele>
        <time>2014-09-14T08:35:34Z</time>
      </trkpt>
      <trkpt lat="45.37143" lon="4.55974">
        <ele>1252</ele>
        <time>2014-09-14T08:35:37Z</time>
      </trkpt>
      <trkpt lat="45.37141" lon="4.55973">
        <ele>1252</ele>
        <time>2014-09-14T08:35:39Z</time>
      </trkpt>
      <trkpt lat="45.37136" lon="4.5597">
        <ele>1252</ele>
        <time>2014-09-14T08:35:42Z</time>
      </trkpt>
      <trkpt lat="45.37131" lon="4.55967">
        <ele>1252</ele>
        <time>2014-09-14T08:35:45Z</time>
      </trkpt>
      <trkpt lat="45.37126" lon="4.55963">
        <ele>1252</ele>
        <time>2014-09-14T08:35:48Z</time>
      </trkpt>
      <trkpt lat="45.37122" lon="4.5596">
        <ele>1252</ele>
        <time>2014-09-14T08:35:50Z</time>
      </trkpt>
      <trkpt lat="45.37117" lon="4.55957">
        <ele>1252</ele>
        <time>2014-09-14T08:35:53Z</time>
      </trkpt>
      <trkpt lat="45.37114" lon="4.55953">
        <ele>1252</ele>
        <time>2014-09-14T08:35:55Z</time>
      </trkpt>
      <trkpt lat="45.3711" lon="4.55947">
        <ele>1252</ele>
        <time>2014-09-14T08:35:58Z</time>
      </trkpt>
      <trkpt lat="45.37104" lon="4.55942">
        <ele>1252</ele>
        <time>2014-09-14T08:36:01Z</time>
      </trkpt>
      <trkpt lat="45.371" lon="4.55937">
        <ele>1252</ele>
        <time>2014-09-14T08:36:04Z</time>
      </trkpt>
      <trkpt lat="45.37094" lon="4.55932">
        <ele>1252</ele>
        <time>2014-09-14T08:36:07Z</time>
      </trkpt>
      <trkpt lat="45.37089" lon="4.55926">
        <ele>1251</ele>
        <time>2014-09-14T08:36:10Z</time>
      </trkpt>
      <trkpt lat="45.37082" lon="4.55918">
        <ele>1252</ele>
        <time>2014-09-14T08:36:13Z</time>
      </trkpt>
      <trkpt lat="45.37075" lon="4.55913">
        <ele>1251</ele>
        <time>2014-09-14T08:36:16Z</time>
      </trkpt>
      <trkpt lat="45.3707" lon="4.5591">
        <ele>1251</ele>
        <time>2014-09-14T08:36:18Z</time>
      </trkpt>
      <trkpt lat="45.37061" lon="4.55907">
        <ele>1251</ele>
        <time>2014-09-14T08:36:21Z</time>
      </trkpt>
      <trkpt lat="45.37055" lon="4.55904">
        <ele>1251</ele>
        <time>2014-09-14T08:36:23Z</time>
      </trkpt>
      <trkpt lat="45.37049" lon="4.55898">
        <ele>1251</ele>
        <time>2014-09-14T08:36:26Z</time>
      </trkpt>
      <trkpt lat="45.37043" lon="4.55892">
        <ele>1250</ele>
        <time>2014-09-14T08:36:29Z</time>
      </trkpt>
      <trkpt lat="45.37039" lon="4.55888">
        <ele>1250</ele>
        <time>2014-09-14T08:36:31Z</time>
      </trkpt>
      <trkpt lat="45.37035" lon="4.55882">
        <ele>1250</ele>
        <time>2014-09-14T08:36:33Z</time>
      </trkpt>
      <trkpt lat="45.37031" lon="4.55871">
        <ele>1249</ele>
        <time>2014-09-14T08:36:36Z</time>
      </trkpt>
      <trkpt lat="45.37028" lon="4.55863">
        <ele>1249</ele>
        <time>2014-09-14T08:36:38Z</time>
      </trkpt>
      <trkpt lat="45.37024" lon="4.55853">
        <ele>1249</ele>
        <time>2014-09-14T08:36:41Z</time>
      </trkpt>
      <trkpt lat="45.37018" lon="4.55844">
        <ele>1249</ele>
        <time>2014-09-14T08:36:44Z</time>
      </trkpt>
      <trkpt lat="45.37013" lon="4.55839">
        <ele>1248</ele>
        <time>2014-09-14T08:36:46Z</time>
      </trkpt>
      <trkpt lat="45.37007" lon="4.55832">
        <ele>1249</ele>
        <time>2014-09-14T08:36:49Z</time>
      </trkpt>
      <trkpt lat="45.37003" lon="4.55828">
        <ele>1248</ele>
        <time>2014-09-14T08:36:51Z</time>
      </trkpt>
      <trkpt lat="45.36996" lon="4.55821">
        <ele>1248</ele>
        <time>2014-09-14T08:36:54Z</time>
      </trkpt>
      <trkpt lat="45.36992" lon="4.55816">
        <ele>1248</ele>
        <time>2014-09-14T08:36:56Z</time>
      </trkpt>
      <trkpt lat="45.36985" lon="4.55808">
        <ele>1247</ele>
        <time>2014-09-14T08:36:59Z</time>
      </trkpt>
      <trkpt lat="45.36979" lon="4.558">
        <ele>1247</ele>
        <time>2014-09-14T08:37:02Z</time>
      </trkpt>
      <trkpt lat="45.36973" lon="4.55797">
        <ele>1247</ele>
        <time>2014-09-14T08:37:04Z</time>
      </trkpt>
      <trkpt lat="45.36969" lon="4.55795">
        <ele>1246</ele>
        <time>2014-09-14T08:37:06Z</time>
      </trkpt>
      <trkpt lat="45.36961" lon="4.55791">
        <ele>1245</ele>
        <time>2014-09-14T08:37:09Z</time>
      </trkpt>
      <trkpt lat="45.36956" lon="4.55788">
        <ele>1244</ele>
        <time>2014-09-14T08:37:11Z</time>
      </trkpt>
      <trkpt lat="45.36949" lon="4.55786">
        <ele>1243</ele>
        <time>2014-09-14T08:37:14Z</time>
      </trkpt>
      <trkpt lat="45.3694" lon="4.55784">
        <ele>1243</ele>
        <time>2014-09-14T08:37:17Z</time>
      </trkpt>
      <trkpt lat="45.36933" lon="4.55781">
        <ele>1244</ele>
        <time>2014-09-14T08:37:20Z</time>
      </trkpt>
      <trkpt lat="45.36926" lon="4.55779">
        <ele>1245</ele>
        <time>2014-09-14T08:37:23Z</time>
      </trkpt>
      <trkpt lat="45.36921" lon="4.55778">
        <ele>1244</ele>
        <time>2014-09-14T08:37:25Z</time>
      </trkpt>
      <trkpt lat="45.36913" lon="4.55779">
        <ele>1244</ele>
        <time>2014-09-14T08:37:28Z</time>
      </trkpt>
      <trkpt lat="45.36907" lon="4.55779">
        <ele>1243</ele>
        <time>2014-09-14T08:37:30Z</time>
      </trkpt>
      <trkpt lat="45.36899" lon="4.55778">
        <ele>1243</ele>
        <time>2014-09-14T08:37:33Z</time>
      </trkpt>
      <trkpt lat="45.36894" lon="4.55778">
        <ele>1243</ele>
        <time>2014-09-14T08:37:35Z</time>
      </trkpt>
      <trkpt lat="45.36887" lon="4.55777">
        <ele>1242</ele>
        <time>2014-09-14T08:37:38Z</time>
      </trkpt>
      <trkpt lat="45.36882" lon="4.55776">
        <ele>1242</ele>
        <time>2014-09-14T08:37:40Z</time>
      </trkpt>
      <trkpt lat="45.36875" lon="4.55775">
        <ele>1241</ele>
        <time>2014-09-14T08:37:43Z</time>
      </trkpt>
      <trkpt lat="45.3687" lon="4.55774">
        <ele>1241</ele>
        <time>2014-09-14T08:37:45Z</time>
      </trkpt>
      <trkpt lat="45.36863" lon="4.55773">
        <ele>1241</ele>
        <time>2014-09-14T08:37:48Z</time>
      </trkpt>
      <trkpt lat="45.36858" lon="4.55771">
        <ele>1240</ele>
        <time>2014-09-14T08:37:50Z</time>
      </trkpt>
      <trkpt lat="45.3685" lon="4.5577">
        <ele>1239</ele>
        <time>2014-09-14T08:37:53Z</time>
      </trkpt>
      <trkpt lat="45.36845" lon="4.55769">
        <ele>1238</ele>
        <time>2014-09-14T08:37:55Z</time>
      </trkpt>
      <trkpt lat="45.36838" lon="4.55769">
        <ele>1237</ele>
        <time>2014-09-14T08:37:58Z</time>
      </trkpt>
      <trkpt lat="45.36834" lon="4.5577">
        <ele>1236</ele>
        <time>2014-09-14T08:38:00Z</time>
      </trkpt>
      <trkpt lat="45.36828" lon="4.55771">
        <ele>1236</ele>
        <time>2014-09-14T08:38:03Z</time>
      </trkpt>
      <trkpt lat="45.36823" lon="4.55772">
        <ele>1235</ele>
        <time>2014-09-14T08:38:05Z</time>
      </trkpt>
      <trkpt lat="45.36817" lon="4.55773">
        <ele>1235</ele>
        <time>2014-09-14T08:38:08Z</time>
      </trkpt>
      <trkpt lat="45.36811" lon="4.55774">
        <ele>1234</ele>
        <time>2014-09-14T08:38:11Z</time>
      </trkpt>
      <trkpt lat="45.36807" lon="4.55774">
        <ele>1233</ele>
        <time>2014-09-14T08:38:13Z</time>
      </trkpt>
      <trkpt lat="45.36801" lon="4.55773">
        <ele>1232</ele>
        <time>2014-09-14T08:38:16Z</time>
      </trkpt>
      <trkpt lat="45.36795" lon="4.55772">
        <ele>1232</ele>
        <time>2014-09-14T08:38:19Z</time>
      </trkpt>
      <trkpt lat="45.36792" lon="4.5577">
        <ele>1231</ele>
        <time>2014-09-14T08:38:21Z</time>
      </trkpt>
      <trkpt lat="45.36786" lon="4.55767">
        <ele>1231</ele>
        <time>2014-09-14T08:38:24Z</time>
      </trkpt>
      <trkpt lat="45.36781" lon="4.55762">
        <ele>1231</ele>
        <time>2014-09-14T08:38:27Z</time>
      </trkpt>
      <trkpt lat="45.36775" lon="4.55758">
        <ele>1230</ele>
        <time>2014-09-14T08:38:30Z</time>
      </trkpt>
      <trkpt lat="45.36771" lon="4.55754">
        <ele>1230</ele>
        <time>2014-09-14T08:38:32Z</time>
      </trkpt>
      <trkpt lat="45.36766" lon="4.55748">
        <ele>1229</ele>
        <time>2014-09-14T08:38:35Z</time>
      </trkpt>
      <trkpt lat="45.36761" lon="4.55741">
        <ele>1229</ele>
        <time>2014-09-14T08:38:38Z</time>
      </trkpt>
      <trkpt lat="45.36755" lon="4.55736">
        <ele>1228</ele>
        <time>2014-09-14T08:38:41Z</time>
      </trkpt>
      <trkpt lat="45.36747" lon="4.5573">
        <ele>1228</ele>
        <time>2014-09-14T08:38:44Z</time>
      </trkpt>
      <trkpt lat="45.36742" lon="4.55725">
        <ele>1227</ele>
        <time>2014-09-14T08:38:47Z</time>
      </trkpt>
      <trkpt lat="45.36737" lon="4.55718">
        <ele>1226</ele>
        <time>2014-09-14T08:38:50Z</time>
      </trkpt>
      <trkpt lat="45.36732" lon="4.55713">
        <ele>1224</ele>
        <time>2014-09-14T08:38:53Z</time>
      </trkpt>
      <trkpt lat="45.36727" lon="4.55706">
        <ele>1223</ele>
        <time>2014-09-14T08:38:56Z</time>
      </trkpt>
      <trkpt lat="45.36722" lon="4.55702">
        <ele>1222</ele>
        <time>2014-09-14T08:38:59Z</time>
      </trkpt>
      <trkpt lat="45.36718" lon="4.557">
        <ele>1221</ele>
        <time>2014-09-14T08:39:01Z</time>
      </trkpt>
      <trkpt lat="45.36715" lon="4.55699">
        <ele>1221</ele>
        <time>2014-09-14T08:39:03Z</time>
      </trkpt>
      <trkpt lat="45.36709" lon="4.55698">
        <ele>1220</ele>
        <time>2014-09-14T08:39:06Z</time>
      </trkpt>
      <trkpt lat="45.36705" lon="4.55697">
        <ele>1219</ele>
        <time>2014-09-14T08:39:08Z</time>
      </trkpt>
      <trkpt lat="45.36699" lon="4.55694">
        <ele>1218</ele>
        <time>2014-09-14T08:39:11Z</time>
      </trkpt>
      <trkpt lat="45.36694" lon="4.55692">
        <ele>1217</ele>
        <time>2014-09-14T08:39:13Z</time>
      </trkpt>
      <trkpt lat="45.36689" lon="4.55687">
        <ele>1215</ele>
        <time>2014-09-14T08:39:16Z</time>
      </trkpt>
      <trkpt lat="45.36684" lon="4.55683">
        <ele>1215</ele>
        <time>2014-09-14T08:39:19Z</time>
      </trkpt>
      <trkpt lat="45.3668" lon="4.55682">
        <ele>1214</ele>
        <time>2014-09-14T08:39:21Z</time>
      </trkpt>
      <trkpt lat="45.36676" lon="4.55679">
        <ele>1213</ele>
        <time>2014-09-14T08:39:23Z</time>
      </trkpt>
      <trkpt lat="45.36668" lon="4.55677">
        <ele>1212</ele>
        <time>2014-09-14T08:39:26Z</time>
      </trkpt>
      <trkpt lat="45.36661" lon="4.55675">
        <ele>1211</ele>
        <time>2014-09-14T08:39:29Z</time>
      </trkpt>
      <trkpt lat="45.36656" lon="4.55674">
        <ele>1210</ele>
        <time>2014-09-14T08:39:31Z</time>
      </trkpt>
      <trkpt lat="45.36651" lon="4.5567">
        <ele>1210</ele>
        <time>2014-09-14T08:39:33Z</time>
      </trkpt>
      <trkpt lat="45.36647" lon="4.55667">
        <ele>1209</ele>
        <time>2014-09-14T08:39:35Z</time>
      </trkpt>
      <trkpt lat="45.36641" lon="4.55663">
        <ele>1208</ele>
        <time>2014-09-14T08:39:38Z</time>
      </trkpt>
      <trkpt lat="45.36634" lon="4.55659">
        <ele>1208</ele>
        <time>2014-09-14T08:39:41Z</time>
      </trkpt>
      <trkpt lat="45.36627" lon="4.55654">
        <ele>1207</ele>
        <time>2014-09-14T08:39:44Z</time>
      </trkpt>
      <trkpt lat="45.36621" lon="4.55652">
        <ele>1206</ele>
        <time>2014-09-14T08:39:46Z</time>
      </trkpt>
      <trkpt lat="45.36617" lon="4.55649">
        <ele>1205</ele>
        <time>2014-09-14T08:39:48Z</time>
      </trkpt>
      <trkpt lat="45.3661" lon="4.55645">
        <ele>1204</ele>
        <time>2014-09-14T08:39:51Z</time>
      </trkpt>
      <trkpt lat="45.36605" lon="4.5564">
        <ele>1204</ele>
        <time>2014-09-14T08:39:53Z</time>
      </trkpt>
      <trkpt lat="45.36602" lon="4.55632">
        <ele>1204</ele>
        <time>2014-09-14T08:39:56Z</time>
      </trkpt>
      <trkpt lat="45.36596" lon="4.55625">
        <ele>1203</ele>
        <time>2014-09-14T08:39:59Z</time>
      </trkpt>
      <trkpt lat="45.36591" lon="4.55617">
        <ele>1202</ele>
        <time>2014-09-14T08:40:02Z</time>
      </trkpt>
      <trkpt lat="45.36586" lon="4.55609">
        <ele>1201</ele>
        <time>2014-09-14T08:40:05Z</time>
      </trkpt>
      <trkpt lat="45.3658" lon="4.55601">
        <ele>1200</ele>
        <time>2014-09-14T08:40:08Z</time>
      </trkpt>
      <trkpt lat="45.36575" lon="4.55594">
        <ele>1200</ele>
        <time>2014-09-14T08:40:11Z</time>
      </trkpt>
      <trkpt lat="45.36572" lon="4.55589">
        <ele>1199</ele>
        <time>2014-09-14T08:40:13Z</time>
      </trkpt>
      <trkpt lat="45.36568" lon="4.55585">
        <ele>1199</ele>
        <time>2014-09-14T08:40:15Z</time>
      </trkpt>
      <trkpt lat="45.36563" lon="4.55578">
        <ele>1198</ele>
        <time>2014-09-14T08:40:18Z</time>
      </trkpt>
      <trkpt lat="45.36561" lon="4.55573">
        <ele>1198</ele>
        <time>2014-09-14T08:40:20Z</time>
      </trkpt>
      <trkpt lat="45.36558" lon="4.55569">
        <ele>1197</ele>
        <time>2014-09-14T08:40:22Z</time>
      </trkpt>
      <trkpt lat="45.36554" lon="4.55564">
        <ele>1197</ele>
        <time>2014-09-14T08:40:24Z</time>
      </trkpt>
      <trkpt lat="45.36551" lon="4.5556">
        <ele>1197</ele>
        <time>2014-09-14T08:40:26Z</time>
      </trkpt>
      <trkpt lat="45.36545" lon="4.55556">
        <ele>1196</ele>
        <time>2014-09-14T08:40:29Z</time>
      </trkpt>
      <trkpt lat="45.3654" lon="4.55555">
        <ele>1196</ele>
        <time>2014-09-14T08:40:31Z</time>
      </trkpt>
      <trkpt lat="45.3653" lon="4.55554">
        <ele>1195</ele>
        <time>2014-09-14T08:40:34Z</time>
      </trkpt>
      <trkpt lat="45.36522" lon="4.55552">
        <ele>1195</ele>
        <time>2014-09-14T08:40:37Z</time>
      </trkpt>
      <trkpt lat="45.36517" lon="4.55548">
        <ele>1194</ele>
        <time>2014-09-14T08:40:39Z</time>
      </trkpt>
      <trkpt lat="45.36512" lon="4.55545">
        <ele>1194</ele>
        <time>2014-09-14T08:40:41Z</time>
      </trkpt>
      <trkpt lat="45.36503" lon="4.55541">
        <ele>1193</ele>
        <time>2014-09-14T08:40:44Z</time>
      </trkpt>
      <trkpt lat="45.36496" lon="4.55535">
        <ele>1192</ele>
        <time>2014-09-14T08:40:47Z</time>
      </trkpt>
      <trkpt lat="45.36491" lon="4.5553">
        <ele>1191</ele>
        <time>2014-09-14T08:40:49Z</time>
      </trkpt>
      <trkpt lat="45.36487" lon="4.55525">
        <ele>1191</ele>
        <time>2014-09-14T08:40:51Z</time>
      </trkpt>
      <trkpt lat="45.3648" lon="4.55518">
        <ele>1191</ele>
        <time>2014-09-14T08:40:54Z</time>
      </trkpt>
      <trkpt lat="45.36473" lon="4.5551">
        <ele>1190</ele>
        <time>2014-09-14T08:40:57Z</time>
      </trkpt>
      <trkpt lat="45.36466" lon="4.55502">
        <ele>1189</ele>
        <time>2014-09-14T08:41:00Z</time>
      </trkpt>
      <trkpt lat="45.36462" lon="4.55497">
        <ele>1189</ele>
        <time>2014-09-14T08:41:02Z</time>
      </trkpt>
      <trkpt lat="45.36457" lon="4.55492">
        <ele>1188</ele>
        <time>2014-09-14T08:41:04Z</time>
      </trkpt>
      <trkpt lat="45.36451" lon="4.55483">
        <ele>1187</ele>
        <time>2014-09-14T08:41:07Z</time>
      </trkpt>
      <trkpt lat="45.36448" lon="4.55477">
        <ele>1186</ele>
        <time>2014-09-14T08:41:09Z</time>
      </trkpt>
      <trkpt lat="45.36444" lon="4.55468">
        <ele>1185</ele>
        <time>2014-09-14T08:41:12Z</time>
      </trkpt>
      <trkpt lat="45.3644" lon="4.55457">
        <ele>1185</ele>
        <time>2014-09-14T08:41:15Z</time>
      </trkpt>
      <trkpt lat="45.36438" lon="4.5545">
        <ele>1184</ele>
        <time>2014-09-14T08:41:17Z</time>
      </trkpt>
      <trkpt lat="45.36436" lon="4.55441">
        <ele>1183</ele>
        <time>2014-09-14T08:41:20Z</time>
      </trkpt>
      <trkpt lat="45.36432" lon="4.55431">
        <ele>1182</ele>
        <time>2014-09-14T08:41:23Z</time>
      </trkpt>
      <trkpt lat="45.36428" lon="4.55422">
        <ele>1182</ele>
        <time>2014-09-14T08:41:26Z</time>
      </trkpt>
      <trkpt lat="45.36425" lon="4.55415">
        <ele>1181</ele>
        <time>2014-09-14T08:41:28Z</time>
      </trkpt>
      <trkpt lat="45.36422" lon="4.55405">
        <ele>1180</ele>
        <time>2014-09-14T08:41:31Z</time>
      </trkpt>
      <trkpt lat="45.36417" lon="4.55395">
        <ele>1179</ele>
        <time>2014-09-14T08:41:34Z</time>
      </trkpt>
      <trkpt lat="45.36415" lon="4.55389">
        <ele>1177</ele>
        <time>2014-09-14T08:41:36Z</time>
      </trkpt>
      <trkpt lat="45.36413" lon="4.55383">
        <ele>1177</ele>
        <time>2014-09-14T08:41:38Z</time>
      </trkpt>
      <trkpt lat="45.36409" lon="4.55372">
        <ele>1176</ele>
        <time>2014-09-14T08:41:41Z</time>
      </trkpt>
      <trkpt lat="45.36406" lon="4.55363">
        <ele>1176</ele>
        <time>2014-09-14T08:41:44Z</time>
      </trkpt>
      <trkpt lat="45.36403" lon="4.55356">
        <ele>1174</ele>
        <time>2014-09-14T08:41:46Z</time>
      </trkpt>
      <trkpt lat="45.36399" lon="4.55346">
        <ele>1174</ele>
        <time>2014-09-14T08:41:49Z</time>
      </trkpt>
      <trkpt lat="45.36396" lon="4.55337">
        <ele>1172</ele>
        <time>2014-09-14T08:41:52Z</time>
      </trkpt>
      <trkpt lat="45.36394" lon="4.5533">
        <ele>1172</ele>
        <time>2014-09-14T08:41:54Z</time>
      </trkpt>
      <trkpt lat="45.36391" lon="4.55321">
        <ele>1171</ele>
        <time>2014-09-14T08:41:57Z</time>
      </trkpt>
      <trkpt lat="45.36389" lon="4.55314">
        <ele>1170</ele>
        <time>2014-09-14T08:41:59Z</time>
      </trkpt>
      <trkpt lat="45.36386" lon="4.55303">
        <ele>1169</ele>
        <time>2014-09-14T08:42:02Z</time>
      </trkpt>
      <trkpt lat="45.36383" lon="4.55293">
        <ele>1167</ele>
        <time>2014-09-14T08:42:05Z</time>
      </trkpt>
      <trkpt lat="45.36382" lon="4.55285">
        <ele>1167</ele>
        <time>2014-09-14T08:42:07Z</time>
      </trkpt>
      <trkpt lat="45.3638" lon="4.55275">
        <ele>1167</ele>
        <time>2014-09-14T08:42:10Z</time>
      </trkpt>
      <trkpt lat="45.36378" lon="4.55265">
        <ele>1166</ele>
        <time>2014-09-14T08:42:13Z</time>
      </trkpt>
      <trkpt lat="45.36376" lon="4.55258">
        <ele>1165</ele>
        <time>2014-09-14T08:42:15Z</time>
      </trkpt>
      <trkpt lat="45.36373" lon="4.55249">
        <ele>1164</ele>
        <time>2014-09-14T08:42:18Z</time>
      </trkpt>
      <trkpt lat="45.36372" lon="4.55243">
        <ele>1164</ele>
        <time>2014-09-14T08:42:20Z</time>
      </trkpt>
      <trkpt lat="45.36372" lon="4.55234">
        <ele>1163</ele>
        <time>2014-09-14T08:42:23Z</time>
      </trkpt>
      <trkpt lat="45.36373" lon="4.55226">
        <ele>1162</ele>
        <time>2014-09-14T08:42:25Z</time>
      </trkpt>
      <trkpt lat="45.36375" lon="4.55217">
        <ele>1162</ele>
        <time>2014-09-14T08:42:28Z</time>
      </trkpt>
      <trkpt lat="45.36377" lon="4.5521">
        <ele>1162</ele>
        <time>2014-09-14T08:42:30Z</time>
      </trkpt>
      <trkpt lat="45.36377" lon="4.55203">
        <ele>1162</ele>
        <time>2014-09-14T08:42:32Z</time>
      </trkpt>
      <trkpt lat="45.3638" lon="4.55194">
        <ele>1161</ele>
        <time>2014-09-14T08:42:35Z</time>
      </trkpt>
      <trkpt lat="45.36381" lon="4.55188">
        <ele>1161</ele>
        <time>2014-09-14T08:42:37Z</time>
      </trkpt>
      <trkpt lat="45.36382" lon="4.5518">
        <ele>1161</ele>
        <time>2014-09-14T08:42:40Z</time>
      </trkpt>
      <trkpt lat="45.36383" lon="4.55174">
        <ele>1162</ele>
        <time>2014-09-14T08:42:43Z</time>
      </trkpt>
      <trkpt lat="45.36383" lon="4.55171">
        <ele>1163</ele>
        <time>2014-09-14T08:42:45Z</time>
      </trkpt>
      <trkpt lat="45.36385" lon="4.55168">
        <ele>1163</ele>
        <time>2014-09-14T08:42:47Z</time>
      </trkpt>
      <trkpt lat="45.36385" lon="4.55164">
        <ele>1164</ele>
        <time>2014-09-14T08:42:49Z</time>
      </trkpt>
      <trkpt lat="45.36386" lon="4.55159">
        <ele>1164</ele>
        <time>2014-09-14T08:42:52Z</time>
      </trkpt>
      <trkpt lat="45.36386" lon="4.55155">
        <ele>1164</ele>
        <time>2014-09-14T08:42:54Z</time>
      </trkpt>
      <trkpt lat="45.36387" lon="4.55151">
        <ele>1164</ele>
        <time>2014-09-14T08:42:56Z</time>
      </trkpt>
      <trkpt lat="45.36388" lon="4.55146">
        <ele>1165</ele>
        <time>2014-09-14T08:42:59Z</time>
      </trkpt>
      <trkpt lat="45.3639" lon="4.5514">
        <ele>1164</ele>
        <time>2014-09-14T08:43:02Z</time>
      </trkpt>
      <trkpt lat="45.36391" lon="4.55136">
        <ele>1164</ele>
        <time>2014-09-14T08:43:05Z</time>
      </trkpt>
      <trkpt lat="45.36393" lon="4.55131">
        <ele>1165</ele>
        <time>2014-09-14T08:43:08Z</time>
      </trkpt>
      <trkpt lat="45.36394" lon="4.55126">
        <ele>1164</ele>
        <time>2014-09-14T08:43:11Z</time>
      </trkpt>
      <trkpt lat="45.36395" lon="4.55121">
        <ele>1165</ele>
        <time>2014-09-14T08:43:14Z</time>
      </trkpt>
      <trkpt lat="45.36396" lon="4.55116">
        <ele>1165</ele>
        <time>2014-09-14T08:43:17Z</time>
      </trkpt>
      <trkpt lat="45.36397" lon="4.55111">
        <ele>1166</ele>
        <time>2014-09-14T08:43:20Z</time>
      </trkpt>
      <trkpt lat="45.36398" lon="4.55106">
        <ele>1166</ele>
        <time>2014-09-14T08:43:23Z</time>
      </trkpt>
      <trkpt lat="45.364" lon="4.55101">
        <ele>1166</ele>
        <time>2014-09-14T08:43:26Z</time>
      </trkpt>
      <trkpt lat="45.364" lon="4.55098">
        <ele>1166</ele>
        <time>2014-09-14T08:43:28Z</time>
      </trkpt>
      <trkpt lat="45.36401" lon="4.55094">
        <ele>1166</ele>
        <time>2014-09-14T08:43:31Z</time>
      </trkpt>
      <trkpt lat="45.36401" lon="4.55091">
        <ele>1167</ele>
        <time>2014-09-14T08:43:33Z</time>
      </trkpt>
      <trkpt lat="45.36402" lon="4.55086">
        <ele>1167</ele>
        <time>2014-09-14T08:43:36Z</time>
      </trkpt>
      <trkpt lat="45.36403" lon="4.55081">
        <ele>1167</ele>
        <time>2014-09-14T08:43:39Z</time>
      </trkpt>
      <trkpt lat="45.36404" lon="4.55077">
        <ele>1167</ele>
        <time>2014-09-14T08:43:41Z</time>
      </trkpt>
      <trkpt lat="45.36405" lon="4.55072">
        <ele>1167</ele>
        <time>2014-09-14T08:43:44Z</time>
      </trkpt>
      <trkpt lat="45.36405" lon="4.55069">
        <ele>1168</ele>
        <time>2014-09-14T08:43:46Z</time>
      </trkpt>
      <trkpt lat="45.36405" lon="4.55064">
        <ele>1168</ele>
        <time>2014-09-14T08:43:49Z</time>
      </trkpt>
      <trkpt lat="45.36405" lon="4.5506">
        <ele>1168</ele>
        <time>2014-09-14T08:43:51Z</time>
      </trkpt>
      <trkpt lat="45.36406" lon="4.55055">
        <ele>1168</ele>
        <time>2014-09-14T08:43:54Z</time>
      </trkpt>
      <trkpt lat="45.36407" lon="4.5505">
        <ele>1169</ele>
        <time>2014-09-14T08:43:57Z</time>
      </trkpt>
      <trkpt lat="45.36408" lon="4.55046">
        <ele>1169</ele>
        <time>2014-09-14T08:43:59Z</time>
      </trkpt>
      <trkpt lat="45.36409" lon="4.55041">
        <ele>1169</ele>
        <time>2014-09-14T08:44:02Z</time>
      </trkpt>
      <trkpt lat="45.3641" lon="4.55037">
        <ele>1170</ele>
        <time>2014-09-14T08:44:04Z</time>
      </trkpt>
      <trkpt lat="45.3641" lon="4.55034">
        <ele>1170</ele>
        <time>2014-09-14T08:44:06Z</time>
      </trkpt>
      <trkpt lat="45.36411" lon="4.55029">
        <ele>1170</ele>
        <time>2014-09-14T08:44:09Z</time>
      </trkpt>
      <trkpt lat="45.36412" lon="4.55025">
        <ele>1170</ele>
        <time>2014-09-14T08:44:11Z</time>
      </trkpt>
      <trkpt lat="45.36414" lon="4.5502">
        <ele>1170</ele>
        <time>2014-09-14T08:44:14Z</time>
      </trkpt>
      <trkpt lat="45.36414" lon="4.55017">
        <ele>1170</ele>
        <time>2014-09-14T08:44:16Z</time>
      </trkpt>
      <trkpt lat="45.36415" lon="4.55012">
        <ele>1170</ele>
        <time>2014-09-14T08:44:19Z</time>
      </trkpt>
      <trkpt lat="45.36417" lon="4.55007">
        <ele>1171</ele>
        <time>2014-09-14T08:44:22Z</time>
      </trkpt>
      <trkpt lat="45.36418" lon="4.55004">
        <ele>1171</ele>
        <time>2014-09-14T08:44:24Z</time>
      </trkpt>
      <trkpt lat="45.36419" lon="4.54998">
        <ele>1172</ele>
        <time>2014-09-14T08:44:27Z</time>
      </trkpt>
      <trkpt lat="45.3642" lon="4.54993">
        <ele>1172</ele>
        <time>2014-09-14T08:44:30Z</time>
      </trkpt>
      <trkpt lat="45.36421" lon="4.5499">
        <ele>1172</ele>
        <time>2014-09-14T08:44:32Z</time>
      </trkpt>
      <trkpt lat="45.36423" lon="4.54985">
        <ele>1172</ele>
        <time>2014-09-14T08:44:35Z</time>
      </trkpt>
      <trkpt lat="45.36424" lon="4.54979">
        <ele>1173</ele>
        <time>2014-09-14T08:44:38Z</time>
      </trkpt>
      <trkpt lat="45.36425" lon="4.54974">
        <ele>1173</ele>
        <time>2014-09-14T08:44:41Z</time>
      </trkpt>
      <trkpt lat="45.36426" lon="4.54971">
        <ele>1173</ele>
        <time>2014-09-14T08:44:43Z</time>
      </trkpt>
      <trkpt lat="45.36428" lon="4.54966">
        <ele>1173</ele>
        <time>2014-09-14T08:44:46Z</time>
      </trkpt>
      <trkpt lat="45.3643" lon="4.54962">
        <ele>1173</ele>
        <time>2014-09-14T08:44:49Z</time>
      </trkpt>
      <trkpt lat="45.36431" lon="4.54959">
        <ele>1173</ele>
        <time>2014-09-14T08:44:51Z</time>
      </trkpt>
      <trkpt lat="45.36434" lon="4.54955">
        <ele>1174</ele>
        <time>2014-09-14T08:44:54Z</time>
      </trkpt>
      <trkpt lat="45.36435" lon="4.54952">
        <ele>1174</ele>
        <time>2014-09-14T08:44:56Z</time>
      </trkpt>
      <trkpt lat="45.36436" lon="4.54947">
        <ele>1174</ele>
        <time>2014-09-14T08:44:59Z</time>
      </trkpt>
      <trkpt lat="45.36437" lon="4.54944">
        <ele>1174</ele>
        <time>2014-09-14T08:45:01Z</time>
      </trkpt>
      <trkpt lat="45.36439" lon="4.54942">
        <ele>1174</ele>
        <time>2014-09-14T08:45:03Z</time>
      </trkpt>
      <trkpt lat="45.3644" lon="4.54939">
        <ele>1174</ele>
        <time>2014-09-14T08:45:05Z</time>
      </trkpt>
      <trkpt lat="45.36441" lon="4.54934">
        <ele>1175</ele>
        <time>2014-09-14T08:45:08Z</time>
      </trkpt>
      <trkpt lat="45.36442" lon="4.5493">
        <ele>1175</ele>
        <time>2014-09-14T08:45:10Z</time>
      </trkpt>
      <trkpt lat="45.36444" lon="4.54926">
        <ele>1175</ele>
        <time>2014-09-14T08:45:13Z</time>
      </trkpt>
      <trkpt lat="45.36447" lon="4.54922">
        <ele>1176</ele>
        <time>2014-09-14T08:45:16Z</time>
      </trkpt>
      <trkpt lat="45.36448" lon="4.54916">
        <ele>1176</ele>
        <time>2014-09-14T08:45:19Z</time>
      </trkpt>
      <trkpt lat="45.36449" lon="4.54912">
        <ele>1176</ele>
        <time>2014-09-14T08:45:22Z</time>
      </trkpt>
      <trkpt lat="45.36451" lon="4.54907">
        <ele>1176</ele>
        <time>2014-09-14T08:45:25Z</time>
      </trkpt>
      <trkpt lat="45.36451" lon="4.54903">
        <ele>1176</ele>
        <time>2014-09-14T08:45:27Z</time>
      </trkpt>
      <trkpt lat="45.36453" lon="4.54899">
        <ele>1176</ele>
        <time>2014-09-14T08:45:30Z</time>
      </trkpt>
      <trkpt lat="45.36455" lon="4.54895">
        <ele>1177</ele>
        <time>2014-09-14T08:45:33Z</time>
      </trkpt>
      <trkpt lat="45.36456" lon="4.54892">
        <ele>1177</ele>
        <time>2014-09-14T08:45:35Z</time>
      </trkpt>
      <trkpt lat="45.36457" lon="4.54889">
        <ele>1177</ele>
        <time>2014-09-14T08:45:37Z</time>
      </trkpt>
      <trkpt lat="45.36458" lon="4.54885">
        <ele>1177</ele>
        <time>2014-09-14T08:45:40Z</time>
      </trkpt>
      <trkpt lat="45.36459" lon="4.54881">
        <ele>1177</ele>
        <time>2014-09-14T08:45:42Z</time>
      </trkpt>
      <trkpt lat="45.36459" lon="4.54876">
        <ele>1177</ele>
        <time>2014-09-14T08:45:45Z</time>
      </trkpt>
      <trkpt lat="45.3646" lon="4.5487">
        <ele>1177</ele>
        <time>2014-09-14T08:45:48Z</time>
      </trkpt>
      <trkpt lat="45.36461" lon="4.54867">
        <ele>1177</ele>
        <time>2014-09-14T08:45:50Z</time>
      </trkpt>
      <trkpt lat="45.36462" lon="4.54861">
        <ele>1177</ele>
        <time>2014-09-14T08:45:53Z</time>
      </trkpt>
      <trkpt lat="45.36462" lon="4.54855">
        <ele>1177</ele>
        <time>2014-09-14T08:45:56Z</time>
      </trkpt>
      <trkpt lat="45.36463" lon="4.54851">
        <ele>1178</ele>
        <time>2014-09-14T08:45:58Z</time>
      </trkpt>
      <trkpt lat="45.36464" lon="4.54846">
        <ele>1178</ele>
        <time>2014-09-14T08:46:01Z</time>
      </trkpt>
      <trkpt lat="45.36465" lon="4.54843">
        <ele>1178</ele>
        <time>2014-09-14T08:46:03Z</time>
      </trkpt>
      <trkpt lat="45.36467" lon="4.54838">
        <ele>1178</ele>
        <time>2014-09-14T08:46:06Z</time>
      </trkpt>
      <trkpt lat="45.36468" lon="4.54833">
        <ele>1179</ele>
        <time>2014-09-14T08:46:09Z</time>
      </trkpt>
      <trkpt lat="45.3647" lon="4.54829">
        <ele>1178</ele>
        <time>2014-09-14T08:46:12Z</time>
      </trkpt>
      <trkpt lat="45.3647" lon="4.54826">
        <ele>1178</ele>
        <time>2014-09-14T08:46:14Z</time>
      </trkpt>
      <trkpt lat="45.36471" lon="4.54821">
        <ele>1178</ele>
        <time>2014-09-14T08:46:17Z</time>
      </trkpt>
      <trkpt lat="45.36472" lon="4.54816">
        <ele>1178</ele>
        <time>2014-09-14T08:46:20Z</time>
      </trkpt>
      <trkpt lat="45.36473" lon="4.54813">
        <ele>1178</ele>
        <time>2014-09-14T08:46:22Z</time>
      </trkpt>
      <trkpt lat="45.36475" lon="4.54809">
        <ele>1179</ele>
        <time>2014-09-14T08:46:25Z</time>
      </trkpt>
      <trkpt lat="45.36476" lon="4.54807">
        <ele>1179</ele>
        <time>2014-09-14T08:46:27Z</time>
      </trkpt>
      <trkpt lat="45.36478" lon="4.54802">
        <ele>1179</ele>
        <time>2014-09-14T08:46:30Z</time>
      </trkpt>
      <trkpt lat="45.3648" lon="4.54799">
        <ele>1179</ele>
        <time>2014-09-14T08:46:33Z</time>
      </trkpt>
      <trkpt lat="45.36481" lon="4.54797">
        <ele>1179</ele>
        <time>2014-09-14T08:46:35Z</time>
      </trkpt>
      <trkpt lat="45.36483" lon="4.54792">
        <ele>1180</ele>
        <time>2014-09-14T08:46:38Z</time>
      </trkpt>
      <trkpt lat="45.36485" lon="4.5479">
        <ele>1180</ele>
        <time>2014-09-14T08:46:40Z</time>
      </trkpt>
      <trkpt lat="45.36487" lon="4.54787">
        <ele>1180</ele>
        <time>2014-09-14T08:46:43Z</time>
      </trkpt>
      <trkpt lat="45.36488" lon="4.54784">
        <ele>1180</ele>
        <time>2014-09-14T08:46:45Z</time>
      </trkpt>
      <trkpt lat="45.3649" lon="4.54782">
        <ele>1180</ele>
        <time>2014-09-14T08:46:47Z</time>
      </trkpt>
      <trkpt lat="45.36491" lon="4.54779">
        <ele>1180</ele>
        <time>2014-09-14T08:46:49Z</time>
      </trkpt>
      <trkpt lat="45.36494" lon="4.54774">
        <ele>1181</ele>
        <time>2014-09-14T08:46:52Z</time>
      </trkpt>
      <trkpt lat="45.36495" lon="4.5477">
        <ele>1181</ele>
        <time>2014-09-14T08:46:54Z</time>
      </trkpt>
      <trkpt lat="45.36497" lon="4.54765">
        <ele>1181</ele>
        <time>2014-09-14T08:46:57Z</time>
      </trkpt>
      <trkpt lat="45.36498" lon="4.54762">
        <ele>1182</ele>
        <time>2014-09-14T08:46:59Z</time>
      </trkpt>
      <trkpt lat="45.365" lon="4.54759">
        <ele>1182</ele>
        <time>2014-09-14T08:47:01Z</time>
      </trkpt>
      <trkpt lat="45.36502" lon="4.54754">
        <ele>1182</ele>
        <time>2014-09-14T08:47:04Z</time>
      </trkpt>
      <trkpt lat="45.36505" lon="4.54749">
        <ele>1183</ele>
        <time>2014-09-14T08:47:07Z</time>
      </trkpt>
      <trkpt lat="45.36507" lon="4.54744">
        <ele>1183</ele>
        <time>2014-09-14T08:47:10Z</time>
      </trkpt>
      <trkpt lat="45.36509" lon="4.54739">
        <ele>1183</ele>
        <time>2014-09-14T08:47:13Z</time>
      </trkpt>
      <trkpt lat="45.36511" lon="4.54736">
        <ele>1183</ele>
        <time>2014-09-14T08:47:15Z</time>
      </trkpt>
      <trkpt lat="45.36512" lon="4.54731">
        <ele>1183</ele>
        <time>2014-09-14T08:47:18Z</time>
      </trkpt>
      <trkpt lat="45.36514" lon="4.54728">
        <ele>1183</ele>
        <time>2014-09-14T08:47:20Z</time>
      </trkpt>
      <trkpt lat="45.36516" lon="4.54722">
        <ele>1183</ele>
        <time>2014-09-14T08:47:23Z</time>
      </trkpt>
      <trkpt lat="45.36517" lon="4.54719">
        <ele>1183</ele>
        <time>2014-09-14T08:47:25Z</time>
      </trkpt>
      <trkpt lat="45.36518" lon="4.54715">
        <ele>1183</ele>
        <time>2014-09-14T08:47:27Z</time>
      </trkpt>
      <trkpt lat="45.3652" lon="4.54713">
        <ele>1184</ele>
        <time>2014-09-14T08:47:29Z</time>
      </trkpt>
      <trkpt lat="45.36522" lon="4.54708">
        <ele>1184</ele>
        <time>2014-09-14T08:47:32Z</time>
      </trkpt>
      <trkpt lat="45.36524" lon="4.54705">
        <ele>1185</ele>
        <time>2014-09-14T08:47:34Z</time>
      </trkpt>
      <trkpt lat="45.36526" lon="4.547">
        <ele>1185</ele>
        <time>2014-09-14T08:47:37Z</time>
      </trkpt>
      <trkpt lat="45.36528" lon="4.54697">
        <ele>1185</ele>
        <time>2014-09-14T08:47:39Z</time>
      </trkpt>
      <trkpt lat="45.3653" lon="4.54694">
        <ele>1185</ele>
        <time>2014-09-14T08:47:41Z</time>
      </trkpt>
      <trkpt lat="45.36532" lon="4.5469">
        <ele>1185</ele>
        <time>2014-09-14T08:47:44Z</time>
      </trkpt>
      <trkpt lat="45.36533" lon="4.54687">
        <ele>1185</ele>
        <time>2014-09-14T08:47:46Z</time>
      </trkpt>
      <trkpt lat="45.36535" lon="4.54683">
        <ele>1185</ele>
        <time>2014-09-14T08:47:48Z</time>
      </trkpt>
      <trkpt lat="45.36537" lon="4.54678">
        <ele>1185</ele>
        <time>2014-09-14T08:47:51Z</time>
      </trkpt>
      <trkpt lat="45.36538" lon="4.54676">
        <ele>1185</ele>
        <time>2014-09-14T08:47:53Z</time>
      </trkpt>
      <trkpt lat="45.36542" lon="4.54673">
        <ele>1185</ele>
        <time>2014-09-14T08:47:55Z</time>
      </trkpt>
      <trkpt lat="45.36546" lon="4.54668">
        <ele>1185</ele>
        <time>2014-09-14T08:47:58Z</time>
      </trkpt>
      <trkpt lat="45.36551" lon="4.54662">
        <ele>1185</ele>
        <time>2014-09-14T08:48:01Z</time>
      </trkpt>
      <trkpt lat="45.36555" lon="4.54659">
        <ele>1186</ele>
        <time>2014-09-14T08:48:03Z</time>
      </trkpt>
      <trkpt lat="45.3656" lon="4.54654">
        <ele>1186</ele>
        <time>2014-09-14T08:48:06Z</time>
      </trkpt>
      <trkpt lat="45.36564" lon="4.54651">
        <ele>1186</ele>
        <time>2014-09-14T08:48:09Z</time>
      </trkpt>
      <trkpt lat="45.36567" lon="4.54646">
        <ele>1186</ele>
        <time>2014-09-14T08:48:12Z</time>
      </trkpt>
      <trkpt lat="45.36569" lon="4.54643">
        <ele>1186</ele>
        <time>2014-09-14T08:48:14Z</time>
      </trkpt>
      <trkpt lat="45.36571" lon="4.54641">
        <ele>1187</ele>
        <time>2014-09-14T08:48:16Z</time>
      </trkpt>
      <trkpt lat="45.36573" lon="4.54637">
        <ele>1187</ele>
        <time>2014-09-14T08:48:19Z</time>
      </trkpt>
      <trkpt lat="45.36575" lon="4.54635">
        <ele>1187</ele>
        <time>2014-09-14T08:48:21Z</time>
      </trkpt>
      <trkpt lat="45.36579" lon="4.54632">
        <ele>1187</ele>
        <time>2014-09-14T08:48:24Z</time>
      </trkpt>
      <trkpt lat="45.36582" lon="4.54629">
        <ele>1187</ele>
        <time>2014-09-14T08:48:27Z</time>
      </trkpt>
      <trkpt lat="45.36586" lon="4.54626">
        <ele>1186</ele>
        <time>2014-09-14T08:48:30Z</time>
      </trkpt>
      <trkpt lat="45.36587" lon="4.54624">
        <ele>1186</ele>
        <time>2014-09-14T08:48:32Z</time>
      </trkpt>
      <trkpt lat="45.36591" lon="4.5462">
        <ele>1186</ele>
        <time>2014-09-14T08:48:35Z</time>
      </trkpt>
      <trkpt lat="45.36594" lon="4.54616">
        <ele>1187</ele>
        <time>2014-09-14T08:48:37Z</time>
      </trkpt>
      <trkpt lat="45.36599" lon="4.54609">
        <ele>1187</ele>
        <time>2014-09-14T08:48:40Z</time>
      </trkpt>
      <trkpt lat="45.36603" lon="4.54605">
        <ele>1187</ele>
        <time>2014-09-14T08:48:42Z</time>
      </trkpt>
      <trkpt lat="45.3661" lon="4.54598">
        <ele>1188</ele>
        <time>2014-09-14T08:48:45Z</time>
      </trkpt>
      <trkpt lat="45.36617" lon="4.54593">
        <ele>1188</ele>
        <time>2014-09-14T08:48:48Z</time>
      </trkpt>
      <trkpt lat="45.36623" lon="4.54588">
        <ele>1187</ele>
        <time>2014-09-14T08:48:51Z</time>
      </trkpt>
      <trkpt lat="45.36627" lon="4.54585">
        <ele>1186</ele>
        <time>2014-09-14T08:48:53Z</time>
      </trkpt>
      <trkpt lat="45.36634" lon="4.54579">
        <ele>1186</ele>
        <time>2014-09-14T08:48:56Z</time>
      </trkpt>
      <trkpt lat="45.3664" lon="4.54573">
        <ele>1184</ele>
        <time>2014-09-14T08:48:59Z</time>
      </trkpt>
      <trkpt lat="45.36645" lon="4.54569">
        <ele>1184</ele>
        <time>2014-09-14T08:49:01Z</time>
      </trkpt>
      <trkpt lat="45.36649" lon="4.54565">
        <ele>1184</ele>
        <time>2014-09-14T08:49:03Z</time>
      </trkpt>
      <trkpt lat="45.36655" lon="4.54561">
        <ele>1184</ele>
        <time>2014-09-14T08:49:06Z</time>
      </trkpt>
      <trkpt lat="45.36662" lon="4.54558">
        <ele>1183</ele>
        <time>2014-09-14T08:49:09Z</time>
      </trkpt>
      <trkpt lat="45.36669" lon="4.54555">
        <ele>1181</ele>
        <time>2014-09-14T08:49:12Z</time>
      </trkpt>
      <trkpt lat="45.36676" lon="4.5455">
        <ele>1180</ele>
        <time>2014-09-14T08:49:15Z</time>
      </trkpt>
      <trkpt lat="45.36681" lon="4.54548">
        <ele>1180</ele>
        <time>2014-09-14T08:49:17Z</time>
      </trkpt>
      <trkpt lat="45.36689" lon="4.54543">
        <ele>1179</ele>
        <time>2014-09-14T08:49:20Z</time>
      </trkpt>
      <trkpt lat="45.36694" lon="4.54539">
        <ele>1178</ele>
        <time>2014-09-14T08:49:22Z</time>
      </trkpt>
      <trkpt lat="45.36697" lon="4.54535">
        <ele>1178</ele>
        <time>2014-09-14T08:49:24Z</time>
      </trkpt>
      <trkpt lat="45.36703" lon="4.54529">
        <ele>1178</ele>
        <time>2014-09-14T08:49:27Z</time>
      </trkpt>
      <trkpt lat="45.3671" lon="4.54523">
        <ele>1177</ele>
        <time>2014-09-14T08:49:30Z</time>
      </trkpt>
      <trkpt lat="45.36718" lon="4.54518">
        <ele>1177</ele>
        <time>2014-09-14T08:49:33Z</time>
      </trkpt>
      <trkpt lat="45.36725" lon="4.54515">
        <ele>1176</ele>
        <time>2014-09-14T08:49:36Z</time>
      </trkpt>
      <trkpt lat="45.36732" lon="4.54511">
        <ele>1177</ele>
        <time>2014-09-14T08:49:39Z</time>
      </trkpt>
      <trkpt lat="45.36736" lon="4.54509">
        <ele>1177</ele>
        <time>2014-09-14T08:49:41Z</time>
      </trkpt>
      <trkpt lat="45.3674" lon="4.54508">
        <ele>1176</ele>
        <time>2014-09-14T08:49:43Z</time>
      </trkpt>
      <trkpt lat="45.36746" lon="4.54506">
        <ele>1177</ele>
        <time>2014-09-14T08:49:46Z</time>
      </trkpt>
      <trkpt lat="45.36752" lon="4.54502">
        <ele>1176</ele>
        <time>2014-09-14T08:49:49Z</time>
      </trkpt>
      <trkpt lat="45.36758" lon="4.54496">
        <ele>1176</ele>
        <time>2014-09-14T08:49:52Z</time>
      </trkpt>
      <trkpt lat="45.36762" lon="4.54494">
        <ele>1176</ele>
        <time>2014-09-14T08:49:54Z</time>
      </trkpt>
      <trkpt lat="45.36767" lon="4.54491">
        <ele>1175</ele>
        <time>2014-09-14T08:49:57Z</time>
      </trkpt>
      <trkpt lat="45.36771" lon="4.54491">
        <ele>1175</ele>
        <time>2014-09-14T08:50:00Z</time>
      </trkpt>
      <trkpt lat="45.36774" lon="4.54491">
        <ele>1175</ele>
        <time>2014-09-14T08:50:02Z</time>
      </trkpt>
      <trkpt lat="45.36776" lon="4.5449">
        <ele>1176</ele>
        <time>2014-09-14T08:50:04Z</time>
      </trkpt>
      <trkpt lat="45.36779" lon="4.54488">
        <ele>1176</ele>
        <time>2014-09-14T08:50:07Z</time>
      </trkpt>
      <trkpt lat="45.36783" lon="4.54486">
        <ele>1176</ele>
        <time>2014-09-14T08:50:10Z</time>
      </trkpt>
      <trkpt lat="45.36789" lon="4.54484">
        <ele>1176</ele>
        <time>2014-09-14T08:50:13Z</time>
      </trkpt>
      <trkpt lat="45.36793" lon="4.54482">
        <ele>1175</ele>
        <time>2014-09-14T08:50:15Z</time>
      </trkpt>
      <trkpt lat="45.36799" lon="4.54478">
        <ele>1175</ele>
        <time>2014-09-14T08:50:18Z</time>
      </trkpt>
      <trkpt lat="45.36806" lon="4.54473">
        <ele>1174</ele>
        <time>2014-09-14T08:50:21Z</time>
      </trkpt>
      <trkpt lat="45.3681" lon="4.54469">
        <ele>1174</ele>
        <time>2014-09-14T08:50:23Z</time>
      </trkpt>
      <trkpt lat="45.36817" lon="4.54466">
        <ele>1174</ele>
        <time>2014-09-14T08:50:26Z</time>
      </trkpt>
      <trkpt lat="45.36823" lon="4.54461">
        <ele>1174</ele>
        <time>2014-09-14T08:50:29Z</time>
      </trkpt>
      <trkpt lat="45.36827" lon="4.5446">
        <ele>1174</ele>
        <time>2014-09-14T08:50:32Z</time>
      </trkpt>
      <trkpt lat="45.36829" lon="4.54459">
        <ele>1174</ele>
        <time>2014-09-14T08:50:34Z</time>
      </trkpt>
      <trkpt lat="45.36835" lon="4.54458">
        <ele>1174</ele>
        <time>2014-09-14T08:50:37Z</time>
      </trkpt>
      <trkpt lat="45.36841" lon="4.54458">
        <ele>1173</ele>
        <time>2014-09-14T08:50:40Z</time>
      </trkpt>
      <trkpt lat="45.36848" lon="4.54457">
        <ele>1173</ele>
        <time>2014-09-14T08:50:43Z</time>
      </trkpt>
      <trkpt lat="45.36852" lon="4.54458">
        <ele>1173</ele>
        <time>2014-09-14T08:50:45Z</time>
      </trkpt>
      <trkpt lat="45.36858" lon="4.54458">
        <ele>1173</ele>
        <time>2014-09-14T08:50:48Z</time>
      </trkpt>
      <trkpt lat="45.36864" lon="4.54457">
        <ele>1173</ele>
        <time>2014-09-14T08:50:51Z</time>
      </trkpt>
      <trkpt lat="45.36869" lon="4.54457">
        <ele>1173</ele>
        <time>2014-09-14T08:50:54Z</time>
      </trkpt>
      <trkpt lat="45.36874" lon="4.54455">
        <ele>1173</ele>
        <time>2014-09-14T08:50:57Z</time>
      </trkpt>
      <trkpt lat="45.36879" lon="4.54454">
        <ele>1173</ele>
        <time>2014-09-14T08:51:00Z</time>
      </trkpt>
      <trkpt lat="45.36884" lon="4.54452">
        <ele>1172</ele>
        <time>2014-09-14T08:51:03Z</time>
      </trkpt>
      <trkpt lat="45.36889" lon="4.54449">
        <ele>1171</ele>
        <time>2014-09-14T08:51:06Z</time>
      </trkpt>
      <trkpt lat="45.36893" lon="4.54447">
        <ele>1171</ele>
        <time>2014-09-14T08:51:08Z</time>
      </trkpt>
      <trkpt lat="45.36896" lon="4.54445">
        <ele>1171</ele>
        <time>2014-09-14T08:51:10Z</time>
      </trkpt>
      <trkpt lat="45.36901" lon="4.5444">
        <ele>1170</ele>
        <time>2014-09-14T08:51:13Z</time>
      </trkpt>
      <trkpt lat="45.36905" lon="4.54436">
        <ele>1170</ele>
        <time>2014-09-14T08:51:15Z</time>
      </trkpt>
      <trkpt lat="45.36908" lon="4.54431">
        <ele>1170</ele>
        <time>2014-09-14T08:51:17Z</time>
      </trkpt>
      <trkpt lat="45.36912" lon="4.54426">
        <ele>1169</ele>
        <time>2014-09-14T08:51:19Z</time>
      </trkpt>
      <trkpt lat="45.36916" lon="4.54422">
        <ele>1169</ele>
        <time>2014-09-14T08:51:21Z</time>
      </trkpt>
      <trkpt lat="45.36921" lon="4.54415">
        <ele>1168</ele>
        <time>2014-09-14T08:51:24Z</time>
      </trkpt>
      <trkpt lat="45.36926" lon="4.5441">
        <ele>1168</ele>
        <time>2014-09-14T08:51:26Z</time>
      </trkpt>
      <trkpt lat="45.36931" lon="4.54401">
        <ele>1169</ele>
        <time>2014-09-14T08:51:29Z</time>
      </trkpt>
      <trkpt lat="45.36934" lon="4.54397">
        <ele>1168</ele>
        <time>2014-09-14T08:51:31Z</time>
      </trkpt>
      <trkpt lat="45.36937" lon="4.54391">
        <ele>1168</ele>
        <time>2014-09-14T08:51:33Z</time>
      </trkpt>
      <trkpt lat="45.3694" lon="4.54384">
        <ele>1168</ele>
        <time>2014-09-14T08:51:35Z</time>
      </trkpt>
      <trkpt lat="45.36944" lon="4.54375">
        <ele>1168</ele>
        <time>2014-09-14T08:51:38Z</time>
      </trkpt>
      <trkpt lat="45.36946" lon="4.5437">
        <ele>1168</ele>
        <time>2014-09-14T08:51:40Z</time>
      </trkpt>
      <trkpt lat="45.36948" lon="4.54365">
        <ele>1167</ele>
        <time>2014-09-14T08:51:42Z</time>
      </trkpt>
      <trkpt lat="45.36954" lon="4.54356">
        <ele>1167</ele>
        <time>2014-09-14T08:51:45Z</time>
      </trkpt>
      <trkpt lat="45.36957" lon="4.5435">
        <ele>1167</ele>
        <time>2014-09-14T08:51:47Z</time>
      </trkpt>
      <trkpt lat="45.36961" lon="4.54344">
        <ele>1167</ele>
        <time>2014-09-14T08:51:49Z</time>
      </trkpt>
      <trkpt lat="45.36963" lon="4.54338">
        <ele>1167</ele>
        <time>2014-09-14T08:51:51Z</time>
      </trkpt>
      <trkpt lat="45.36964" lon="4.54333">
        <ele>1166</ele>
        <time>2014-09-14T08:51:53Z</time>
      </trkpt>
      <trkpt lat="45.36966" lon="4.54329">
        <ele>1166</ele>
        <time>2014-09-14T08:51:55Z</time>
      </trkpt>
      <trkpt lat="45.36968" lon="4.54323">
        <ele>1166</ele>
        <time>2014-09-14T08:51:58Z</time>
      </trkpt>
      <trkpt lat="45.36969" lon="4.5432">
        <ele>1165</ele>
        <time>2014-09-14T08:52:00Z</time>
      </trkpt>
      <trkpt lat="45.36972" lon="4.54316">
        <ele>1165</ele>
        <time>2014-09-14T08:52:03Z</time>
      </trkpt>
      <trkpt lat="45.36973" lon="4.54313">
        <ele>1166</ele>
        <time>2014-09-14T08:52:05Z</time>
      </trkpt>
      <trkpt lat="45.36975" lon="4.5431">
        <ele>1167</ele>
        <time>2014-09-14T08:52:07Z</time>
      </trkpt>
      <trkpt lat="45.36979" lon="4.54304">
        <ele>1167</ele>
        <time>2014-09-14T08:52:10Z</time>
      </trkpt>
      <trkpt lat="45.36982" lon="4.54299">
        <ele>1167</ele>
        <time>2014-09-14T08:52:13Z</time>
      </trkpt>
      <trkpt lat="45.36985" lon="4.54295">
        <ele>1167</ele>
        <time>2014-09-14T08:52:15Z</time>
      </trkpt>
      <trkpt lat="45.36991" lon="4.54287">
        <ele>1167</ele>
        <time>2014-09-14T08:52:18Z</time>
      </trkpt>
      <trkpt lat="45.36996" lon="4.54279">
        <ele>1167</ele>
        <time>2014-09-14T08:52:21Z</time>
      </trkpt>
      <trkpt lat="45.36998" lon="4.54274">
        <ele>1167</ele>
        <time>2014-09-14T08:52:23Z</time>
      </trkpt>
      <trkpt lat="45.37" lon="4.54267">
        <ele>1168</ele>
        <time>2014-09-14T08:52:26Z</time>
      </trkpt>
      <trkpt lat="45.37001" lon="4.54263">
        <ele>1168</ele>
        <time>2014-09-14T08:52:28Z</time>
      </trkpt>
      <trkpt lat="45.37001" lon="4.54259">
        <ele>1168</ele>
        <time>2014-09-14T08:52:30Z</time>
      </trkpt>
      <trkpt lat="45.37002" lon="4.54252">
        <ele>1168</ele>
        <time>2014-09-14T08:52:33Z</time>
      </trkpt>
      <trkpt lat="45.37002" lon="4.54246">
        <ele>1169</ele>
        <time>2014-09-14T08:52:36Z</time>
      </trkpt>
      <trkpt lat="45.37002" lon="4.54242">
        <ele>1169</ele>
        <time>2014-09-14T08:52:39Z</time>
      </trkpt>
      <trkpt lat="45.37002" lon="4.54239">
        <ele>1168</ele>
        <time>2014-09-14T08:52:42Z</time>
      </trkpt>
      <trkpt lat="45.37003" lon="4.54237">
        <ele>1168</ele>
        <time>2014-09-14T08:52:44Z</time>
      </trkpt>
      <trkpt lat="45.37003" lon="4.54235">
        <ele>1169</ele>
        <time>2014-09-14T08:52:46Z</time>
      </trkpt>
      <trkpt lat="45.37003" lon="4.54233">
        <ele>1169</ele>
        <time>2014-09-14T08:52:48Z</time>
      </trkpt>
      <trkpt lat="45.37003" lon="4.54228">
        <ele>1170</ele>
        <time>2014-09-14T08:52:51Z</time>
      </trkpt>
      <trkpt lat="45.37003" lon="4.54223">
        <ele>1170</ele>
        <time>2014-09-14T08:52:54Z</time>
      </trkpt>
      <trkpt lat="45.37003" lon="4.54217">
        <ele>1171</ele>
        <time>2014-09-14T08:52:57Z</time>
      </trkpt>
      <trkpt lat="45.37003" lon="4.54211">
        <ele>1171</ele>
        <time>2014-09-14T08:53:00Z</time>
      </trkpt>
      <trkpt lat="45.37002" lon="4.54204">
        <ele>1171</ele>
        <time>2014-09-14T08:53:03Z</time>
      </trkpt>
      <trkpt lat="45.37002" lon="4.54198">
        <ele>1171</ele>
        <time>2014-09-14T08:53:06Z</time>
      </trkpt>
      <trkpt lat="45.37002" lon="4.54192">
        <ele>1172</ele>
        <time>2014-09-14T08:53:09Z</time>
      </trkpt>
      <trkpt lat="45.37001" lon="4.54188">
        <ele>1172</ele>
        <time>2014-09-14T08:53:11Z</time>
      </trkpt>
      <trkpt lat="45.37001" lon="4.54181">
        <ele>1172</ele>
        <time>2014-09-14T08:53:14Z</time>
      </trkpt>
      <trkpt lat="45.37001" lon="4.54175">
        <ele>1173</ele>
        <time>2014-09-14T08:53:17Z</time>
      </trkpt>
      <trkpt lat="45.37001" lon="4.5417">
        <ele>1173</ele>
        <time>2014-09-14T08:53:20Z</time>
      </trkpt>
      <trkpt lat="45.37" lon="4.54164">
        <ele>1173</ele>
        <time>2014-09-14T08:53:23Z</time>
      </trkpt>
      <trkpt lat="45.37" lon="4.54158">
        <ele>1173</ele>
        <time>2014-09-14T08:53:26Z</time>
      </trkpt>
      <trkpt lat="45.36999" lon="4.54153">
        <ele>1173</ele>
        <time>2014-09-14T08:53:29Z</time>
      </trkpt>
      <trkpt lat="45.36997" lon="4.54148">
        <ele>1174</ele>
        <time>2014-09-14T08:53:32Z</time>
      </trkpt>
      <trkpt lat="45.36996" lon="4.54144">
        <ele>1174</ele>
        <time>2014-09-14T08:53:34Z</time>
      </trkpt>
      <trkpt lat="45.36995" lon="4.5414">
        <ele>1174</ele>
        <time>2014-09-14T08:53:37Z</time>
      </trkpt>
      <trkpt lat="45.36995" lon="4.54134">
        <ele>1173</ele>
        <time>2014-09-14T08:53:40Z</time>
      </trkpt>
      <trkpt lat="45.36994" lon="4.54129">
        <ele>1174</ele>
        <time>2014-09-14T08:53:43Z</time>
      </trkpt>
      <trkpt lat="45.36993" lon="4.54123">
        <ele>1174</ele>
        <time>2014-09-14T08:53:46Z</time>
      </trkpt>
      <trkpt lat="45.36993" lon="4.54118">
        <ele>1174</ele>
        <time>2014-09-14T08:53:49Z</time>
      </trkpt>
      <trkpt lat="45.36993" lon="4.54112">
        <ele>1174</ele>
        <time>2014-09-14T08:53:52Z</time>
      </trkpt>
      <trkpt lat="45.36993" lon="4.54109">
        <ele>1174</ele>
        <time>2014-09-14T08:53:54Z</time>
      </trkpt>
      <trkpt lat="45.36993" lon="4.54105">
        <ele>1174</ele>
        <time>2014-09-14T08:53:56Z</time>
      </trkpt>
      <trkpt lat="45.36992" lon="4.541">
        <ele>1174</ele>
        <time>2014-09-14T08:53:59Z</time>
      </trkpt>
      <trkpt lat="45.3699" lon="4.54094">
        <ele>1174</ele>
        <time>2014-09-14T08:54:02Z</time>
      </trkpt>
      <trkpt lat="45.3699" lon="4.54089">
        <ele>1174</ele>
        <time>2014-09-14T08:54:05Z</time>
      </trkpt>
      <trkpt lat="45.3699" lon="4.54084">
        <ele>1174</ele>
        <time>2014-09-14T08:54:08Z</time>
      </trkpt>
      <trkpt lat="45.3699" lon="4.5408">
        <ele>1174</ele>
        <time>2014-09-14T08:54:10Z</time>
      </trkpt>
      <trkpt lat="45.36988" lon="4.54076">
        <ele>1174</ele>
        <time>2014-09-14T08:54:13Z</time>
      </trkpt>
      <trkpt lat="45.36988" lon="4.54071">
        <ele>1175</ele>
        <time>2014-09-14T08:54:16Z</time>
      </trkpt>
      <trkpt lat="45.36988" lon="4.54067">
        <ele>1175</ele>
        <time>2014-09-14T08:54:18Z</time>
      </trkpt>
      <trkpt lat="45.36988" lon="4.54062">
        <ele>1175</ele>
        <time>2014-09-14T08:54:21Z</time>
      </trkpt>
      <trkpt lat="45.36989" lon="4.54057">
        <ele>1174</ele>
        <time>2014-09-14T08:54:24Z</time>
      </trkpt>
      <trkpt lat="45.3699" lon="4.54054">
        <ele>1174</ele>
        <time>2014-09-14T08:54:26Z</time>
      </trkpt>
      <trkpt lat="45.36991" lon="4.54051">
        <ele>1174</ele>
        <time>2014-09-14T08:54:29Z</time>
      </trkpt>
      <trkpt lat="45.36992" lon="4.54048">
        <ele>1175</ele>
        <time>2014-09-14T08:54:31Z</time>
      </trkpt>
      <trkpt lat="45.36994" lon="4.54044">
        <ele>1175</ele>
        <time>2014-09-14T08:54:34Z</time>
      </trkpt>
      <trkpt lat="45.36995" lon="4.54041">
        <ele>1175</ele>
        <time>2014-09-14T08:54:36Z</time>
      </trkpt>
      <trkpt lat="45.36995" lon="4.54036">
        <ele>1175</ele>
        <time>2014-09-14T08:54:39Z</time>
      </trkpt>
      <trkpt lat="45.36995" lon="4.54032">
        <ele>1175</ele>
        <time>2014-09-14T08:54:42Z</time>
      </trkpt>
      <trkpt lat="45.36996" lon="4.54028">
        <ele>1175</ele>
        <time>2014-09-14T08:54:45Z</time>
      </trkpt>
      <trkpt lat="45.36996" lon="4.54025">
        <ele>1175</ele>
        <time>2014-09-14T08:54:47Z</time>
      </trkpt>
      <trkpt lat="45.36997" lon="4.54023">
        <ele>1175</ele>
        <time>2014-09-14T08:54:49Z</time>
      </trkpt>
      <trkpt lat="45.36998" lon="4.54018">
        <ele>1175</ele>
        <time>2014-09-14T08:54:52Z</time>
      </trkpt>
      <trkpt lat="45.37" lon="4.54014">
        <ele>1175</ele>
        <time>2014-09-14T08:54:54Z</time>
      </trkpt>
      <trkpt lat="45.37001" lon="4.54009">
        <ele>1175</ele>
        <time>2014-09-14T08:54:57Z</time>
      </trkpt>
      <trkpt lat="45.37002" lon="4.54006">
        <ele>1176</ele>
        <time>2014-09-14T08:55:00Z</time>
      </trkpt>
      <trkpt lat="45.37002" lon="4.54003">
        <ele>1176</ele>
        <time>2014-09-14T08:55:02Z</time>
      </trkpt>
      <trkpt lat="45.37002" lon="4.53998">
        <ele>1176</ele>
        <time>2014-09-14T08:55:05Z</time>
      </trkpt>
      <trkpt lat="45.37001" lon="4.53993">
        <ele>1177</ele>
        <time>2014-09-14T08:55:08Z</time>
      </trkpt>
      <trkpt lat="45.37001" lon="4.5399">
        <ele>1177</ele>
        <time>2014-09-14T08:55:11Z</time>
      </trkpt>
      <trkpt lat="45.37001" lon="4.53988">
        <ele>1177</ele>
        <time>2014-09-14T08:55:13Z</time>
      </trkpt>
      <trkpt lat="45.37001" lon="4.53983">
        <ele>1177</ele>
        <time>2014-09-14T08:55:16Z</time>
      </trkpt>
      <trkpt lat="45.37001" lon="4.5398">
        <ele>1178</ele>
        <time>2014-09-14T08:55:18Z</time>
      </trkpt>
      <trkpt lat="45.37001" lon="4.53977">
        <ele>1178</ele>
        <time>2014-09-14T08:55:20Z</time>
      </trkpt>
      <trkpt lat="45.37001" lon="4.53973">
        <ele>1178</ele>
        <time>2014-09-14T08:55:23Z</time>
      </trkpt>
      <trkpt lat="45.37001" lon="4.5397">
        <ele>1179</ele>
        <time>2014-09-14T08:55:25Z</time>
      </trkpt>
      <trkpt lat="45.37001" lon="4.53966">
        <ele>1179</ele>
        <time>2014-09-14T08:55:28Z</time>
      </trkpt>
      <trkpt lat="45.37" lon="4.53962">
        <ele>1180</ele>
        <time>2014-09-14T08:55:31Z</time>
      </trkpt>
      <trkpt lat="45.36999" lon="4.53958">
        <ele>1181</ele>
        <time>2014-09-14T08:55:34Z</time>
      </trkpt>
      <trkpt lat="45.36998" lon="4.53954">
        <ele>1181</ele>
        <time>2014-09-14T08:55:36Z</time>
      </trkpt>
      <trkpt lat="45.36998" lon="4.53952">
        <ele>1181</ele>
        <time>2014-09-14T08:55:38Z</time>
      </trkpt>
      <trkpt lat="45.36997" lon="4.53948">
        <ele>1181</ele>
        <time>2014-09-14T08:55:41Z</time>
      </trkpt>
      <trkpt lat="45.36996" lon="4.53944">
        <ele>1181</ele>
        <time>2014-09-14T08:55:44Z</time>
      </trkpt>
      <trkpt lat="45.36995" lon="4.53939">
        <ele>1182</ele>
        <time>2014-09-14T08:55:47Z</time>
      </trkpt>
      <trkpt lat="45.36995" lon="4.53934">
        <ele>1183</ele>
        <time>2014-09-14T08:55:50Z</time>
      </trkpt>
      <trkpt lat="45.36995" lon="4.53932">
        <ele>1183</ele>
        <time>2014-09-14T08:55:52Z</time>
      </trkpt>
      <trkpt lat="45.36996" lon="4.53926">
        <ele>1184</ele>
        <time>2014-09-14T08:55:55Z</time>
      </trkpt>
      <trkpt lat="45.36997" lon="4.53923">
        <ele>1184</ele>
        <time>2014-09-14T08:55:57Z</time>
      </trkpt>
      <trkpt lat="45.36998" lon="4.53918">
        <ele>1184</ele>
        <time>2014-09-14T08:56:00Z</time>
      </trkpt>
      <trkpt lat="45.36998" lon="4.53916">
        <ele>1184</ele>
        <time>2014-09-14T08:56:02Z</time>
      </trkpt>
      <trkpt lat="45.36998" lon="4.5391">
        <ele>1184</ele>
        <time>2014-09-14T08:56:05Z</time>
      </trkpt>
      <trkpt lat="45.36998" lon="4.53907">
        <ele>1184</ele>
        <time>2014-09-14T08:56:07Z</time>
      </trkpt>
      <trkpt lat="45.36997" lon="4.539">
        <ele>1185</ele>
        <time>2014-09-14T08:56:10Z</time>
      </trkpt>
      <trkpt lat="45.36996" lon="4.53894">
        <ele>1185</ele>
        <time>2014-09-14T08:56:13Z</time>
      </trkpt>
      <trkpt lat="45.36995" lon="4.53889">
        <ele>1185</ele>
        <time>2014-09-14T08:56:15Z</time>
      </trkpt>
      <trkpt lat="45.36995" lon="4.53881">
        <ele>1185</ele>
        <time>2014-09-14T08:56:18Z</time>
      </trkpt>
      <trkpt lat="45.36995" lon="4.53872">
        <ele>1186</ele>
        <time>2014-09-14T08:56:21Z</time>
      </trkpt>
      <trkpt lat="45.36995" lon="4.53863">
        <ele>1185</ele>
        <time>2014-09-14T08:56:24Z</time>
      </trkpt>
      <trkpt lat="45.36994" lon="4.53852">
        <ele>1186</ele>
        <time>2014-09-14T08:56:27Z</time>
      </trkpt>
      <trkpt lat="45.36993" lon="4.53841">
        <ele>1185</ele>
        <time>2014-09-14T08:56:30Z</time>
      </trkpt>
      <trkpt lat="45.36993" lon="4.5383">
        <ele>1186</ele>
        <time>2014-09-14T08:56:33Z</time>
      </trkpt>
      <trkpt lat="45.36992" lon="4.5382">
        <ele>1185</ele>
        <time>2014-09-14T08:56:36Z</time>
      </trkpt>
      <trkpt lat="45.36992" lon="4.53815">
        <ele>1185</ele>
        <time>2014-09-14T08:56:38Z</time>
      </trkpt>
      <trkpt lat="45.36991" lon="4.53809">
        <ele>1186</ele>
        <time>2014-09-14T08:56:41Z</time>
      </trkpt>
      <trkpt lat="45.36991" lon="4.53803">
        <ele>1185</ele>
        <time>2014-09-14T08:56:44Z</time>
      </trkpt>
      <trkpt lat="45.36991" lon="4.53797">
        <ele>1184</ele>
        <time>2014-09-14T08:56:47Z</time>
      </trkpt>
      <trkpt lat="45.36992" lon="4.53792">
        <ele>1183</ele>
        <time>2014-09-14T08:56:50Z</time>
      </trkpt>
      <trkpt lat="45.36992" lon="4.53786">
        <ele>1183</ele>
        <time>2014-09-14T08:56:53Z</time>
      </trkpt>
      <trkpt lat="45.36992" lon="4.53783">
        <ele>1185</ele>
        <time>2014-09-14T08:56:55Z</time>
      </trkpt>
      <trkpt lat="45.36993" lon="4.53779">
        <ele>1186</ele>
        <time>2014-09-14T08:56:57Z</time>
      </trkpt>
      <trkpt lat="45.36993" lon="4.53773">
        <ele>1186</ele>
        <time>2014-09-14T08:57:00Z</time>
      </trkpt>
      <trkpt lat="45.36993" lon="4.53769">
        <ele>1187</ele>
        <time>2014-09-14T08:57:02Z</time>
      </trkpt>
      <trkpt lat="45.36993" lon="4.53763">
        <ele>1186</ele>
        <time>2014-09-14T08:57:05Z</time>
      </trkpt>
      <trkpt lat="45.36993" lon="4.53757">
        <ele>1186</ele>
        <time>2014-09-14T08:57:08Z</time>
      </trkpt>
      <trkpt lat="45.36993" lon="4.53754">
        <ele>1185</ele>
        <time>2014-09-14T08:57:10Z</time>
      </trkpt>
      <trkpt lat="45.36993" lon="4.53749">
        <ele>1185</ele>
        <time>2014-09-14T08:57:13Z</time>
      </trkpt>
      <trkpt lat="45.36994" lon="4.53744">
        <ele>1185</ele>
        <time>2014-09-14T08:57:16Z</time>
      </trkpt>
      <trkpt lat="45.36996" lon="4.5374">
        <ele>1185</ele>
        <time>2014-09-14T08:57:19Z</time>
      </trkpt>
      <trkpt lat="45.36998" lon="4.53735">
        <ele>1184</ele>
        <time>2014-09-14T08:57:22Z</time>
      </trkpt>
      <trkpt lat="45.36999" lon="4.53732">
        <ele>1185</ele>
        <time>2014-09-14T08:57:24Z</time>
      </trkpt>
      <trkpt lat="45.37001" lon="4.53727">
        <ele>1185</ele>
        <time>2014-09-14T08:57:27Z</time>
      </trkpt>
      <trkpt lat="45.37001" lon="4.53721">
        <ele>1186</ele>
        <time>2014-09-14T08:57:30Z</time>
      </trkpt>
      <trkpt lat="45.37002" lon="4.53718">
        <ele>1186</ele>
        <time>2014-09-14T08:57:32Z</time>
      </trkpt>
      <trkpt lat="45.37002" lon="4.53714">
        <ele>1186</ele>
        <time>2014-09-14T08:57:35Z</time>
      </trkpt>
      <trkpt lat="45.37002" lon="4.53711">
        <ele>1186</ele>
        <time>2014-09-14T08:57:37Z</time>
      </trkpt>
      <trkpt lat="45.37003" lon="4.53708">
        <ele>1186</ele>
        <time>2014-09-14T08:57:39Z</time>
      </trkpt>
      <trkpt lat="45.37004" lon="4.53704">
        <ele>1186</ele>
        <time>2014-09-14T08:57:42Z</time>
      </trkpt>
      <trkpt lat="45.37005" lon="4.53702">
        <ele>1186</ele>
        <time>2014-09-14T08:57:44Z</time>
      </trkpt>
      <trkpt lat="45.37005" lon="4.53698">
        <ele>1186</ele>
        <time>2014-09-14T08:57:47Z</time>
      </trkpt>
      <trkpt lat="45.37005" lon="4.53694">
        <ele>1186</ele>
        <time>2014-09-14T08:57:50Z</time>
      </trkpt>
      <trkpt lat="45.37005" lon="4.53692">
        <ele>1186</ele>
        <time>2014-09-14T08:57:52Z</time>
      </trkpt>
      <trkpt lat="45.37005" lon="4.53689">
        <ele>1186</ele>
        <time>2014-09-14T08:57:54Z</time>
      </trkpt>
      <trkpt lat="45.37006" lon="4.53685">
        <ele>1186</ele>
        <time>2014-09-14T08:57:57Z</time>
      </trkpt>
      <trkpt lat="45.37006" lon="4.5368">
        <ele>1186</ele>
        <time>2014-09-14T08:58:00Z</time>
      </trkpt>
      <trkpt lat="45.37007" lon="4.53674">
        <ele>1186</ele>
        <time>2014-09-14T08:58:03Z</time>
      </trkpt>
      <trkpt lat="45.37008" lon="4.5367">
        <ele>1186</ele>
        <time>2014-09-14T08:58:05Z</time>
      </trkpt>
      <trkpt lat="45.37009" lon="4.53666">
        <ele>1186</ele>
        <time>2014-09-14T08:58:07Z</time>
      </trkpt>
      <trkpt lat="45.37011" lon="4.53661">
        <ele>1186</ele>
        <time>2014-09-14T08:58:09Z</time>
      </trkpt>
      <trkpt lat="45.37013" lon="4.53652">
        <ele>1186</ele>
        <time>2014-09-14T08:58:12Z</time>
      </trkpt>
      <trkpt lat="45.37015" lon="4.53645">
        <ele>1186</ele>
        <time>2014-09-14T08:58:14Z</time>
      </trkpt>
      <trkpt lat="45.37015" lon="4.53636">
        <ele>1186</ele>
        <time>2014-09-14T08:58:17Z</time>
      </trkpt>
      <trkpt lat="45.37016" lon="4.53629">
        <ele>1186</ele>
        <time>2014-09-14T08:58:20Z</time>
      </trkpt>
      <trkpt lat="45.37017" lon="4.53621">
        <ele>1186</ele>
        <time>2014-09-14T08:58:23Z</time>
      </trkpt>
      <trkpt lat="45.37017" lon="4.53617">
        <ele>1187</ele>
        <time>2014-09-14T08:58:25Z</time>
      </trkpt>
      <trkpt lat="45.37018" lon="4.53612">
        <ele>1187</ele>
        <time>2014-09-14T08:58:27Z</time>
      </trkpt>
      <trkpt lat="45.37019" lon="4.53605">
        <ele>1187</ele>
        <time>2014-09-14T08:58:30Z</time>
      </trkpt>
      <trkpt lat="45.3702" lon="4.53598">
        <ele>1187</ele>
        <time>2014-09-14T08:58:33Z</time>
      </trkpt>
      <trkpt lat="45.37021" lon="4.53591">
        <ele>1187</ele>
        <time>2014-09-14T08:58:36Z</time>
      </trkpt>
      <trkpt lat="45.37021" lon="4.53587">
        <ele>1187</ele>
        <time>2014-09-14T08:58:38Z</time>
      </trkpt>
      <trkpt lat="45.37022" lon="4.53582">
        <ele>1187</ele>
        <time>2014-09-14T08:58:40Z</time>
      </trkpt>
      <trkpt lat="45.37022" lon="4.53578">
        <ele>1187</ele>
        <time>2014-09-14T08:58:42Z</time>
      </trkpt>
      <trkpt lat="45.37023" lon="4.53572">
        <ele>1187</ele>
        <time>2014-09-14T08:58:45Z</time>
      </trkpt>
      <trkpt lat="45.37023" lon="4.53568">
        <ele>1188</ele>
        <time>2014-09-14T08:58:47Z</time>
      </trkpt>
      <trkpt lat="45.37024" lon="4.53562">
        <ele>1188</ele>
        <time>2014-09-14T08:58:50Z</time>
      </trkpt>
      <trkpt lat="45.37023" lon="4.53557">
        <ele>1189</ele>
        <time>2014-09-14T08:58:53Z</time>
      </trkpt>
      <trkpt lat="45.37023" lon="4.53551">
        <ele>1188</ele>
        <time>2014-09-14T08:58:56Z</time>
      </trkpt>
      <trkpt lat="45.37022" lon="4.53548">
        <ele>1188</ele>
        <time>2014-09-14T08:58:58Z</time>
      </trkpt>
      <trkpt lat="45.37022" lon="4.53545">
        <ele>1189</ele>
        <time>2014-09-14T08:59:00Z</time>
      </trkpt>
      <trkpt lat="45.37022" lon="4.53539">
        <ele>1189</ele>
        <time>2014-09-14T08:59:03Z</time>
      </trkpt>
      <trkpt lat="45.37022" lon="4.53536">
        <ele>1189</ele>
        <time>2014-09-14T08:59:05Z</time>
      </trkpt>
      <trkpt lat="45.37022" lon="4.53534">
        <ele>1189</ele>
        <time>2014-09-14T08:59:07Z</time>
      </trkpt>
      <trkpt lat="45.37022" lon="4.53528">
        <ele>1189</ele>
        <time>2014-09-14T08:59:10Z</time>
      </trkpt>
      <trkpt lat="45.37021" lon="4.53524">
        <ele>1189</ele>
        <time>2014-09-14T08:59:13Z</time>
      </trkpt>
      <trkpt lat="45.3702" lon="4.53519">
        <ele>1190</ele>
        <time>2014-09-14T08:59:16Z</time>
      </trkpt>
      <trkpt lat="45.3702" lon="4.53516">
        <ele>1190</ele>
        <time>2014-09-14T08:59:18Z</time>
      </trkpt>
      <trkpt lat="45.3702" lon="4.53511">
        <ele>1191</ele>
        <time>2014-09-14T08:59:21Z</time>
      </trkpt>
      <trkpt lat="45.3702" lon="4.53509">
        <ele>1191</ele>
        <time>2014-09-14T08:59:23Z</time>
      </trkpt>
      <trkpt lat="45.37018" lon="4.53505">
        <ele>1191</ele>
        <time>2014-09-14T08:59:26Z</time>
      </trkpt>
      <trkpt lat="45.37018" lon="4.53502">
        <ele>1191</ele>
        <time>2014-09-14T08:59:28Z</time>
      </trkpt>
      <trkpt lat="45.37016" lon="4.53499">
        <ele>1192</ele>
        <time>2014-09-14T08:59:31Z</time>
      </trkpt>
      <trkpt lat="45.37014" lon="4.53495">
        <ele>1192</ele>
        <time>2014-09-14T08:59:34Z</time>
      </trkpt>
      <trkpt lat="45.37013" lon="4.53492">
        <ele>1192</ele>
        <time>2014-09-14T08:59:36Z</time>
      </trkpt>
      <trkpt lat="45.37011" lon="4.5349">
        <ele>1192</ele>
        <time>2014-09-14T08:59:38Z</time>
      </trkpt>
      <trkpt lat="45.3701" lon="4.53486">
        <ele>1193</ele>
        <time>2014-09-14T08:59:41Z</time>
      </trkpt>
      <trkpt lat="45.37008" lon="4.53481">
        <ele>1193</ele>
        <time>2014-09-14T08:59:44Z</time>
      </trkpt>
      <trkpt lat="45.37006" lon="4.53477">
        <ele>1194</ele>
        <time>2014-09-14T08:59:47Z</time>
      </trkpt>
      <trkpt lat="45.37004" lon="4.53473">
        <ele>1194</ele>
        <time>2014-09-14T08:59:50Z</time>
      </trkpt>
      <trkpt lat="45.37003" lon="4.5347">
        <ele>1195</ele>
        <time>2014-09-14T08:59:52Z</time>
      </trkpt>
      <trkpt lat="45.37002" lon="4.53465">
        <ele>1195</ele>
        <time>2014-09-14T08:59:55Z</time>
      </trkpt>
      <trkpt lat="45.37001" lon="4.53462">
        <ele>1195</ele>
        <time>2014-09-14T08:59:58Z</time>
      </trkpt>
      <trkpt lat="45.37" lon="4.53459">
        <ele>1195</ele>
        <time>2014-09-14T09:00:00Z</time>
      </trkpt>
      <trkpt lat="45.36999" lon="4.53455">
        <ele>1196</ele>
        <time>2014-09-14T09:00:03Z</time>
      </trkpt>
      <trkpt lat="45.36998" lon="4.53451">
        <ele>1196</ele>
        <time>2014-09-14T09:00:06Z</time>
      </trkpt>
      <trkpt lat="45.36998" lon="4.53446">
        <ele>1196</ele>
        <time>2014-09-14T09:00:09Z</time>
      </trkpt>
      <trkpt lat="45.36996" lon="4.53443">
        <ele>1196</ele>
        <time>2014-09-14T09:00:11Z</time>
      </trkpt>
      <trkpt lat="45.36995" lon="4.53439">
        <ele>1196</ele>
        <time>2014-09-14T09:00:14Z</time>
      </trkpt>
      <trkpt lat="45.36994" lon="4.53435">
        <ele>1197</ele>
        <time>2014-09-14T09:00:17Z</time>
      </trkpt>
      <trkpt lat="45.36994" lon="4.5343">
        <ele>1196</ele>
        <time>2014-09-14T09:00:20Z</time>
      </trkpt>
      <trkpt lat="45.36992" lon="4.53425">
        <ele>1197</ele>
        <time>2014-09-14T09:00:23Z</time>
      </trkpt>
      <trkpt lat="45.36989" lon="4.5342">
        <ele>1197</ele>
        <time>2014-09-14T09:00:26Z</time>
      </trkpt>
      <trkpt lat="45.36987" lon="4.53414">
        <ele>1197</ele>
        <time>2014-09-14T09:00:29Z</time>
      </trkpt>
      <trkpt lat="45.36986" lon="4.53409">
        <ele>1198</ele>
        <time>2014-09-14T09:00:31Z</time>
      </trkpt>
      <trkpt lat="45.36983" lon="4.53401">
        <ele>1198</ele>
        <time>2014-09-14T09:00:34Z</time>
      </trkpt>
      <trkpt lat="45.3698" lon="4.53394">
        <ele>1198</ele>
        <time>2014-09-14T09:00:37Z</time>
      </trkpt>
      <trkpt lat="45.36977" lon="4.53389">
        <ele>1198</ele>
        <time>2014-09-14T09:00:39Z</time>
      </trkpt>
      <trkpt lat="45.36973" lon="4.53382">
        <ele>1198</ele>
        <time>2014-09-14T09:00:42Z</time>
      </trkpt>
      <trkpt lat="45.36969" lon="4.53375">
        <ele>1197</ele>
        <time>2014-09-14T09:00:45Z</time>
      </trkpt>
      <trkpt lat="45.36967" lon="4.5337">
        <ele>1197</ele>
        <time>2014-09-14T09:00:47Z</time>
      </trkpt>
      <trkpt lat="45.36963" lon="4.53365">
        <ele>1196</ele>
        <time>2014-09-14T09:00:50Z</time>
      </trkpt>
      <trkpt lat="45.36961" lon="4.5336">
        <ele>1195</ele>
        <time>2014-09-14T09:00:52Z</time>
      </trkpt>
      <trkpt lat="45.36959" lon="4.53353">
        <ele>1195</ele>
        <time>2014-09-14T09:00:55Z</time>
      </trkpt>
      <trkpt lat="45.36957" lon="4.53348">
        <ele>1194</ele>
        <time>2014-09-14T09:00:57Z</time>
      </trkpt>
      <trkpt lat="45.36956" lon="4.53344">
        <ele>1194</ele>
        <time>2014-09-14T09:00:59Z</time>
      </trkpt>
      <trkpt lat="45.36953" lon="4.53337">
        <ele>1193</ele>
        <time>2014-09-14T09:01:02Z</time>
      </trkpt>
      <trkpt lat="45.3695" lon="4.5333">
        <ele>1192</ele>
        <time>2014-09-14T09:01:05Z</time>
      </trkpt>
      <trkpt lat="45.36948" lon="4.53322">
        <ele>1192</ele>
        <time>2014-09-14T09:01:08Z</time>
      </trkpt>
      <trkpt lat="45.36945" lon="4.53316">
        <ele>1191</ele>
        <time>2014-09-14T09:01:10Z</time>
      </trkpt>
      <trkpt lat="45.3694" lon="4.5331">
        <ele>1190</ele>
        <time>2014-09-14T09:01:13Z</time>
      </trkpt>
      <trkpt lat="45.36937" lon="4.53304">
        <ele>1189</ele>
        <time>2014-09-14T09:01:15Z</time>
      </trkpt>
      <trkpt lat="45.36936" lon="4.53294">
        <ele>1188</ele>
        <time>2014-09-14T09:01:18Z</time>
      </trkpt>
      <trkpt lat="45.36933" lon="4.53282">
        <ele>1186</ele>
        <time>2014-09-14T09:01:21Z</time>
      </trkpt>
      <trkpt lat="45.36931" lon="4.53271">
        <ele>1186</ele>
        <time>2014-09-14T09:01:24Z</time>
      </trkpt>
      <trkpt lat="45.3693" lon="4.53264">
        <ele>1185</ele>
        <time>2014-09-14T09:01:26Z</time>
      </trkpt>
      <trkpt lat="45.36929" lon="4.53256">
        <ele>1185</ele>
        <time>2014-09-14T09:01:28Z</time>
      </trkpt>
      <trkpt lat="45.36928" lon="4.53249">
        <ele>1184</ele>
        <time>2014-09-14T09:01:30Z</time>
      </trkpt>
      <trkpt lat="45.36929" lon="4.53237">
        <ele>1184</ele>
        <time>2014-09-14T09:01:33Z</time>
      </trkpt>
      <trkpt lat="45.3693" lon="4.53228">
        <ele>1184</ele>
        <time>2014-09-14T09:01:36Z</time>
      </trkpt>
      <trkpt lat="45.36929" lon="4.53218">
        <ele>1184</ele>
        <time>2014-09-14T09:01:39Z</time>
      </trkpt>
      <trkpt lat="45.36928" lon="4.53214">
        <ele>1184</ele>
        <time>2014-09-14T09:01:41Z</time>
      </trkpt>
      <trkpt lat="45.36922" lon="4.53203">
        <ele>1183</ele>
        <time>2014-09-14T09:01:44Z</time>
      </trkpt>
      <trkpt lat="45.3692" lon="4.53196">
        <ele>1182</ele>
        <time>2014-09-14T09:01:46Z</time>
      </trkpt>
      <trkpt lat="45.36919" lon="4.53187">
        <ele>1181</ele>
        <time>2014-09-14T09:01:49Z</time>
      </trkpt>
      <trkpt lat="45.36918" lon="4.53179">
        <ele>1179</ele>
        <time>2014-09-14T09:01:52Z</time>
      </trkpt>
      <trkpt lat="45.36916" lon="4.5317">
        <ele>1179</ele>
        <time>2014-09-14T09:01:55Z</time>
      </trkpt>
      <trkpt lat="45.36915" lon="4.53162">
        <ele>1178</ele>
        <time>2014-09-14T09:01:58Z</time>
      </trkpt>
      <trkpt lat="45.36916" lon="4.53152">
        <ele>1178</ele>
        <time>2014-09-14T09:02:01Z</time>
      </trkpt>
      <trkpt lat="45.36915" lon="4.53146">
        <ele>1176</ele>
        <time>2014-09-14T09:02:03Z</time>
      </trkpt>
      <trkpt lat="45.36912" lon="4.53135">
        <ele>1176</ele>
        <time>2014-09-14T09:02:06Z</time>
      </trkpt>
      <trkpt lat="45.36911" lon="4.53128">
        <ele>1175</ele>
        <time>2014-09-14T09:02:09Z</time>
      </trkpt>
      <trkpt lat="45.3691" lon="4.53123">
        <ele>1175</ele>
        <time>2014-09-14T09:02:11Z</time>
      </trkpt>
      <trkpt lat="45.36907" lon="4.53114">
        <ele>1174</ele>
        <time>2014-09-14T09:02:14Z</time>
      </trkpt>
      <trkpt lat="45.36903" lon="4.53104">
        <ele>1173</ele>
        <time>2014-09-14T09:02:17Z</time>
      </trkpt>
      <trkpt lat="45.36902" lon="4.53097">
        <ele>1173</ele>
        <time>2014-09-14T09:02:19Z</time>
      </trkpt>
      <trkpt lat="45.36902" lon="4.53086">
        <ele>1171</ele>
        <time>2014-09-14T09:02:22Z</time>
      </trkpt>
      <trkpt lat="45.36904" lon="4.53079">
        <ele>1171</ele>
        <time>2014-09-14T09:02:24Z</time>
      </trkpt>
      <trkpt lat="45.36906" lon="4.53068">
        <ele>1170</ele>
        <time>2014-09-14T09:02:27Z</time>
      </trkpt>
      <trkpt lat="45.36906" lon="4.5306">
        <ele>1170</ele>
        <time>2014-09-14T09:02:29Z</time>
      </trkpt>
      <trkpt lat="45.36905" lon="4.53053">
        <ele>1169</ele>
        <time>2014-09-14T09:02:31Z</time>
      </trkpt>
      <trkpt lat="45.36903" lon="4.53044">
        <ele>1168</ele>
        <time>2014-09-14T09:02:34Z</time>
      </trkpt>
      <trkpt lat="45.36901" lon="4.53038">
        <ele>1167</ele>
        <time>2014-09-14T09:02:36Z</time>
      </trkpt>
      <trkpt lat="45.36898" lon="4.53029">
        <ele>1167</ele>
        <time>2014-09-14T09:02:39Z</time>
      </trkpt>
      <trkpt lat="45.36893" lon="4.53022">
        <ele>1166</ele>
        <time>2014-09-14T09:02:42Z</time>
      </trkpt>
      <trkpt lat="45.36889" lon="4.53016">
        <ele>1166</ele>
        <time>2014-09-14T09:02:45Z</time>
      </trkpt>
      <trkpt lat="45.36884" lon="4.53008">
        <ele>1165</ele>
        <time>2014-09-14T09:02:48Z</time>
      </trkpt>
      <trkpt lat="45.3688" lon="4.53004">
        <ele>1164</ele>
        <time>2014-09-14T09:02:50Z</time>
      </trkpt>
      <trkpt lat="45.36878" lon="4.52999">
        <ele>1163</ele>
        <time>2014-09-14T09:02:52Z</time>
      </trkpt>
      <trkpt lat="45.36876" lon="4.52994">
        <ele>1163</ele>
        <time>2014-09-14T09:02:54Z</time>
      </trkpt>
      <trkpt lat="45.36873" lon="4.52986">
        <ele>1162</ele>
        <time>2014-09-14T09:02:57Z</time>
      </trkpt>
      <trkpt lat="45.36869" lon="4.52976">
        <ele>1161</ele>
        <time>2014-09-14T09:03:00Z</time>
      </trkpt>
      <trkpt lat="45.36868" lon="4.52968">
        <ele>1161</ele>
        <time>2014-09-14T09:03:02Z</time>
      </trkpt>
      <trkpt lat="45.36866" lon="4.52958">
        <ele>1159</ele>
        <time>2014-09-14T09:03:05Z</time>
      </trkpt>
      <trkpt lat="45.36865" lon="4.52951">
        <ele>1158</ele>
        <time>2014-09-14T09:03:07Z</time>
      </trkpt>
      <trkpt lat="45.36863" lon="4.52941">
        <ele>1158</ele>
        <time>2014-09-14T09:03:10Z</time>
      </trkpt>
      <trkpt lat="45.36863" lon="4.52934">
        <ele>1157</ele>
        <time>2014-09-14T09:03:12Z</time>
      </trkpt>
      <trkpt lat="45.3686" lon="4.52923">
        <ele>1156</ele>
        <time>2014-09-14T09:03:15Z</time>
      </trkpt>
      <trkpt lat="45.36859" lon="4.52916">
        <ele>1155</ele>
        <time>2014-09-14T09:03:17Z</time>
      </trkpt>
      <trkpt lat="45.36858" lon="4.5291">
        <ele>1155</ele>
        <time>2014-09-14T09:03:19Z</time>
      </trkpt>
      <trkpt lat="45.36856" lon="4.529">
        <ele>1154</ele>
        <time>2014-09-14T09:03:22Z</time>
      </trkpt>
      <trkpt lat="45.36855" lon="4.52894">
        <ele>1154</ele>
        <time>2014-09-14T09:03:24Z</time>
      </trkpt>
      <trkpt lat="45.36853" lon="4.52888">
        <ele>1154</ele>
        <time>2014-09-14T09:03:26Z</time>
      </trkpt>
      <trkpt lat="45.36852" lon="4.52879">
        <ele>1153</ele>
        <time>2014-09-14T09:03:29Z</time>
      </trkpt>
      <trkpt lat="45.36851" lon="4.52873">
        <ele>1152</ele>
        <time>2014-09-14T09:03:31Z</time>
      </trkpt>
      <trkpt lat="45.3685" lon="4.52867">
        <ele>1152</ele>
        <time>2014-09-14T09:03:33Z</time>
      </trkpt>
      <trkpt lat="45.36848" lon="4.52857">
        <ele>1151</ele>
        <time>2014-09-14T09:03:36Z</time>
      </trkpt>
      <trkpt lat="45.36848" lon="4.52847">
        <ele>1150</ele>
        <time>2014-09-14T09:03:39Z</time>
      </trkpt>
      <trkpt lat="45.36847" lon="4.52841">
        <ele>1150</ele>
        <time>2014-09-14T09:03:41Z</time>
      </trkpt>
      <trkpt lat="45.36846" lon="4.52835">
        <ele>1149</ele>
        <time>2014-09-14T09:03:43Z</time>
      </trkpt>
      <trkpt lat="45.36845" lon="4.52826">
        <ele>1150</ele>
        <time>2014-09-14T09:03:46Z</time>
      </trkpt>
      <trkpt lat="45.36844" lon="4.52817">
        <ele>1150</ele>
        <time>2014-09-14T09:03:49Z</time>
      </trkpt>
      <trkpt lat="45.36844" lon="4.52812">
        <ele>1150</ele>
        <time>2014-09-14T09:03:51Z</time>
      </trkpt>
      <trkpt lat="45.36844" lon="4.52804">
        <ele>1151</ele>
        <time>2014-09-14T09:03:54Z</time>
      </trkpt>
      <trkpt lat="45.36843" lon="4.52798">
        <ele>1151</ele>
        <time>2014-09-14T09:03:56Z</time>
      </trkpt>
      <trkpt lat="45.36843" lon="4.52792">
        <ele>1151</ele>
        <time>2014-09-14T09:03:58Z</time>
      </trkpt>
      <trkpt lat="45.36844" lon="4.52784">
        <ele>1151</ele>
        <time>2014-09-14T09:04:01Z</time>
      </trkpt>
      <trkpt lat="45.36845" lon="4.52779">
        <ele>1151</ele>
        <time>2014-09-14T09:04:03Z</time>
      </trkpt>
      <trkpt lat="45.36845" lon="4.52772">
        <ele>1151</ele>
        <time>2014-09-14T09:04:06Z</time>
      </trkpt>
      <trkpt lat="45.36847" lon="4.52764">
        <ele>1151</ele>
        <time>2014-09-14T09:04:09Z</time>
      </trkpt>
      <trkpt lat="45.36848" lon="4.52756">
        <ele>1151</ele>
        <time>2014-09-14T09:04:12Z</time>
      </trkpt>
      <trkpt lat="45.3685" lon="4.52755">
        <ele>1151</ele>
        <time>2014-09-14T09:04:14Z</time>
      </trkpt>
      <trkpt lat="45.36854" lon="4.5276">
        <ele>1151</ele>
        <time>2014-09-14T09:04:17Z</time>
      </trkpt>
      <trkpt lat="45.36856" lon="4.52765">
        <ele>1151</ele>
        <time>2014-09-14T09:04:19Z</time>
      </trkpt>
      <trkpt lat="45.36859" lon="4.52767">
        <ele>1150</ele>
        <time>2014-09-14T09:04:21Z</time>
      </trkpt>
      <trkpt lat="45.3686" lon="4.52763">
        <ele>1150</ele>
        <time>2014-09-14T09:04:23Z</time>
      </trkpt>
      <trkpt lat="45.36861" lon="4.52755">
        <ele>1149</ele>
        <time>2014-09-14T09:04:26Z</time>
      </trkpt>
      <trkpt lat="45.36861" lon="4.5275">
        <ele>1149</ele>
        <time>2014-09-14T09:04:28Z</time>
      </trkpt>
      <trkpt lat="45.36862" lon="4.52741">
        <ele>1147</ele>
        <time>2014-09-14T09:04:31Z</time>
      </trkpt>
      <trkpt lat="45.36865" lon="4.52733">
        <ele>1147</ele>
        <time>2014-09-14T09:04:34Z</time>
      </trkpt>
      <trkpt lat="45.36868" lon="4.52725">
        <ele>1146</ele>
        <time>2014-09-14T09:04:37Z</time>
      </trkpt>
      <trkpt lat="45.36872" lon="4.52716">
        <ele>1145</ele>
        <time>2014-09-14T09:04:40Z</time>
      </trkpt>
      <trkpt lat="45.36875" lon="4.5271">
        <ele>1144</ele>
        <time>2014-09-14T09:04:42Z</time>
      </trkpt>
      <trkpt lat="45.36879" lon="4.52702">
        <ele>1144</ele>
        <time>2014-09-14T09:04:45Z</time>
      </trkpt>
      <trkpt lat="45.36882" lon="4.52694">
        <ele>1144</ele>
        <time>2014-09-14T09:04:48Z</time>
      </trkpt>
      <trkpt lat="45.36883" lon="4.52685">
        <ele>1144</ele>
        <time>2014-09-14T09:04:51Z</time>
      </trkpt>
      <trkpt lat="45.36882" lon="4.52679">
        <ele>1144</ele>
        <time>2014-09-14T09:04:53Z</time>
      </trkpt>
      <trkpt lat="45.36884" lon="4.52672">
        <ele>1144</ele>
        <time>2014-09-14T09:04:56Z</time>
      </trkpt>
      <trkpt lat="45.36886" lon="4.52667">
        <ele>1144</ele>
        <time>2014-09-14T09:04:58Z</time>
      </trkpt>
      <trkpt lat="45.36889" lon="4.52659">
        <ele>1143</ele>
        <time>2014-09-14T09:05:01Z</time>
      </trkpt>
      <trkpt lat="45.36891" lon="4.52653">
        <ele>1143</ele>
        <time>2014-09-14T09:05:04Z</time>
      </trkpt>
      <trkpt lat="45.36891" lon="4.52647">
        <ele>1143</ele>
        <time>2014-09-14T09:05:06Z</time>
      </trkpt>
      <trkpt lat="45.36891" lon="4.52643">
        <ele>1142</ele>
        <time>2014-09-14T09:05:08Z</time>
      </trkpt>
      <trkpt lat="45.36892" lon="4.52638">
        <ele>1142</ele>
        <time>2014-09-14T09:05:10Z</time>
      </trkpt>
      <trkpt lat="45.36891" lon="4.52634">
        <ele>1142</ele>
        <time>2014-09-14T09:05:12Z</time>
      </trkpt>
      <trkpt lat="45.36891" lon="4.52628">
        <ele>1141</ele>
        <time>2014-09-14T09:05:15Z</time>
      </trkpt>
      <trkpt lat="45.36893" lon="4.5262">
        <ele>1140</ele>
        <time>2014-09-14T09:05:18Z</time>
      </trkpt>
      <trkpt lat="45.36895" lon="4.52614">
        <ele>1140</ele>
        <time>2014-09-14T09:05:20Z</time>
      </trkpt>
      <trkpt lat="45.36896" lon="4.52607">
        <ele>1140</ele>
        <time>2014-09-14T09:05:23Z</time>
      </trkpt>
      <trkpt lat="45.36896" lon="4.52599">
        <ele>1141</ele>
        <time>2014-09-14T09:05:26Z</time>
      </trkpt>
      <trkpt lat="45.36897" lon="4.52594">
        <ele>1140</ele>
        <time>2014-09-14T09:05:28Z</time>
      </trkpt>
      <trkpt lat="45.36897" lon="4.52586">
        <ele>1140</ele>
        <time>2014-09-14T09:05:31Z</time>
      </trkpt>
      <trkpt lat="45.36897" lon="4.52583">
        <ele>1140</ele>
        <time>2014-09-14T09:05:33Z</time>
      </trkpt>
      <trkpt lat="45.36897" lon="4.52575">
        <ele>1139</ele>
        <time>2014-09-14T09:05:36Z</time>
      </trkpt>
      <trkpt lat="45.36896" lon="4.5257">
        <ele>1139</ele>
        <time>2014-09-14T09:05:38Z</time>
      </trkpt>
      <trkpt lat="45.36895" lon="4.52566">
        <ele>1139</ele>
        <time>2014-09-14T09:05:40Z</time>
      </trkpt>
      <trkpt lat="45.36897" lon="4.52557">
        <ele>1139</ele>
        <time>2014-09-14T09:05:43Z</time>
      </trkpt>
      <trkpt lat="45.369" lon="4.52545">
        <ele>1138</ele>
        <time>2014-09-14T09:05:46Z</time>
      </trkpt>
      <trkpt lat="45.36901" lon="4.52533">
        <ele>1138</ele>
        <time>2014-09-14T09:05:49Z</time>
      </trkpt>
      <trkpt lat="45.36902" lon="4.52524">
        <ele>1137</ele>
        <time>2014-09-14T09:05:51Z</time>
      </trkpt>
      <trkpt lat="45.36902" lon="4.52511">
        <ele>1137</ele>
        <time>2014-09-14T09:05:54Z</time>
      </trkpt>
      <trkpt lat="45.369" lon="4.52504">
        <ele>1137</ele>
        <time>2014-09-14T09:05:56Z</time>
      </trkpt>
      <trkpt lat="45.36898" lon="4.52494">
        <ele>1137</ele>
        <time>2014-09-14T09:05:59Z</time>
      </trkpt>
      <trkpt lat="45.36897" lon="4.52485">
        <ele>1138</ele>
        <time>2014-09-14T09:06:02Z</time>
      </trkpt>
      <trkpt lat="45.36895" lon="4.52479">
        <ele>1138</ele>
        <time>2014-09-14T09:06:04Z</time>
      </trkpt>
      <trkpt lat="45.36895" lon="4.52472">
        <ele>1138</ele>
        <time>2014-09-14T09:06:06Z</time>
      </trkpt>
      <trkpt lat="45.36893" lon="4.52463">
        <ele>1138</ele>
        <time>2014-09-14T09:06:09Z</time>
      </trkpt>
      <trkpt lat="45.36892" lon="4.52458">
        <ele>1139</ele>
        <time>2014-09-14T09:06:11Z</time>
      </trkpt>
      <trkpt lat="45.36891" lon="4.52448">
        <ele>1139</ele>
        <time>2014-09-14T09:06:14Z</time>
      </trkpt>
      <trkpt lat="45.3689" lon="4.52441">
        <ele>1140</ele>
        <time>2014-09-14T09:06:16Z</time>
      </trkpt>
      <trkpt lat="45.36888" lon="4.52432">
        <ele>1139</ele>
        <time>2014-09-14T09:06:19Z</time>
      </trkpt>
      <trkpt lat="45.36888" lon="4.52423">
        <ele>1139</ele>
        <time>2014-09-14T09:06:22Z</time>
      </trkpt>
      <trkpt lat="45.36887" lon="4.52413">
        <ele>1139</ele>
        <time>2014-09-14T09:06:25Z</time>
      </trkpt>
      <trkpt lat="45.36887" lon="4.52403">
        <ele>1139</ele>
        <time>2014-09-14T09:06:28Z</time>
      </trkpt>
      <trkpt lat="45.36886" lon="4.52396">
        <ele>1139</ele>
        <time>2014-09-14T09:06:31Z</time>
      </trkpt>
      <trkpt lat="45.36886" lon="4.52392">
        <ele>1139</ele>
        <time>2014-09-14T09:06:34Z</time>
      </trkpt>
      <trkpt lat="45.36886" lon="4.52388">
        <ele>1140</ele>
        <time>2014-09-14T09:06:37Z</time>
      </trkpt>
      <trkpt lat="45.36886" lon="4.52385">
        <ele>1140</ele>
        <time>2014-09-14T09:06:39Z</time>
      </trkpt>
      <trkpt lat="45.36885" lon="4.5238">
        <ele>1140</ele>
        <time>2014-09-14T09:06:42Z</time>
      </trkpt>
      <trkpt lat="45.36884" lon="4.52376">
        <ele>1139</ele>
        <time>2014-09-14T09:06:44Z</time>
      </trkpt>
      <trkpt lat="45.36883" lon="4.52373">
        <ele>1139</ele>
        <time>2014-09-14T09:06:46Z</time>
      </trkpt>
      <trkpt lat="45.36883" lon="4.52368">
        <ele>1139</ele>
        <time>2014-09-14T09:06:49Z</time>
      </trkpt>
      <trkpt lat="45.36882" lon="4.52365">
        <ele>1139</ele>
        <time>2014-09-14T09:06:51Z</time>
      </trkpt>
      <trkpt lat="45.36882" lon="4.52361">
        <ele>1139</ele>
        <time>2014-09-14T09:06:54Z</time>
      </trkpt>
      <trkpt lat="45.36882" lon="4.52356">
        <ele>1139</ele>
        <time>2014-09-14T09:06:57Z</time>
      </trkpt>
      <trkpt lat="45.36881" lon="4.52353">
        <ele>1140</ele>
        <time>2014-09-14T09:06:59Z</time>
      </trkpt>
      <trkpt lat="45.36881" lon="4.52348">
        <ele>1140</ele>
        <time>2014-09-14T09:07:02Z</time>
      </trkpt>
      <trkpt lat="45.3688" lon="4.52343">
        <ele>1140</ele>
        <time>2014-09-14T09:07:05Z</time>
      </trkpt>
      <trkpt lat="45.3688" lon="4.52337">
        <ele>1140</ele>
        <time>2014-09-14T09:07:08Z</time>
      </trkpt>
      <trkpt lat="45.36881" lon="4.52333">
        <ele>1140</ele>
        <time>2014-09-14T09:07:10Z</time>
      </trkpt>
      <trkpt lat="45.36881" lon="4.52328">
        <ele>1139</ele>
        <time>2014-09-14T09:07:13Z</time>
      </trkpt>
      <trkpt lat="45.3688" lon="4.52326">
        <ele>1139</ele>
        <time>2014-09-14T09:07:15Z</time>
      </trkpt>
      <trkpt lat="45.3688" lon="4.52321">
        <ele>1139</ele>
        <time>2014-09-14T09:07:18Z</time>
      </trkpt>
      <trkpt lat="45.3688" lon="4.52318">
        <ele>1139</ele>
        <time>2014-09-14T09:07:20Z</time>
      </trkpt>
      <trkpt lat="45.36879" lon="4.52314">
        <ele>1139</ele>
        <time>2014-09-14T09:07:23Z</time>
      </trkpt>
      <trkpt lat="45.36879" lon="4.5231">
        <ele>1139</ele>
        <time>2014-09-14T09:07:26Z</time>
      </trkpt>
      <trkpt lat="45.36878" lon="4.52307">
        <ele>1139</ele>
        <time>2014-09-14T09:07:28Z</time>
      </trkpt>
      <trkpt lat="45.36879" lon="4.52301">
        <ele>1139</ele>
        <time>2014-09-14T09:07:31Z</time>
      </trkpt>
      <trkpt lat="45.36878" lon="4.52298">
        <ele>1139</ele>
        <time>2014-09-14T09:07:33Z</time>
      </trkpt>
      <trkpt lat="45.36877" lon="4.52293">
        <ele>1139</ele>
        <time>2014-09-14T09:07:36Z</time>
      </trkpt>
      <trkpt lat="45.36877" lon="4.52289">
        <ele>1139</ele>
        <time>2014-09-14T09:07:38Z</time>
      </trkpt>
      <trkpt lat="45.36877" lon="4.52284">
        <ele>1139</ele>
        <time>2014-09-14T09:07:41Z</time>
      </trkpt>
      <trkpt lat="45.36877" lon="4.52279">
        <ele>1138</ele>
        <time>2014-09-14T09:07:44Z</time>
      </trkpt>
      <trkpt lat="45.36877" lon="4.52275">
        <ele>1138</ele>
        <time>2014-09-14T09:07:46Z</time>
      </trkpt>
      <trkpt lat="45.36877" lon="4.52271">
        <ele>1138</ele>
        <time>2014-09-14T09:07:48Z</time>
      </trkpt>
      <trkpt lat="45.36878" lon="4.52264">
        <ele>1138</ele>
        <time>2014-09-14T09:07:51Z</time>
      </trkpt>
      <trkpt lat="45.36878" lon="4.5226">
        <ele>1138</ele>
        <time>2014-09-14T09:07:53Z</time>
      </trkpt>
      <trkpt lat="45.36878" lon="4.52254">
        <ele>1138</ele>
        <time>2014-09-14T09:07:56Z</time>
      </trkpt>
      <trkpt lat="45.36878" lon="4.52249">
        <ele>1138</ele>
        <time>2014-09-14T09:07:58Z</time>
      </trkpt>
      <trkpt lat="45.36878" lon="4.52246">
        <ele>1138</ele>
        <time>2014-09-14T09:08:00Z</time>
      </trkpt>
      <trkpt lat="45.36879" lon="4.52242">
        <ele>1138</ele>
        <time>2014-09-14T09:08:02Z</time>
      </trkpt>
      <trkpt lat="45.36879" lon="4.52237">
        <ele>1138</ele>
        <time>2014-09-14T09:08:04Z</time>
      </trkpt>
      <trkpt lat="45.3688" lon="4.52232">
        <ele>1138</ele>
        <time>2014-09-14T09:08:07Z</time>
      </trkpt>
      <trkpt lat="45.3688" lon="4.52226">
        <ele>1138</ele>
        <time>2014-09-14T09:08:10Z</time>
      </trkpt>
      <trkpt lat="45.3688" lon="4.52222">
        <ele>1138</ele>
        <time>2014-09-14T09:08:12Z</time>
      </trkpt>
      <trkpt lat="45.3688" lon="4.52215">
        <ele>1138</ele>
        <time>2014-09-14T09:08:15Z</time>
      </trkpt>
      <trkpt lat="45.3688" lon="4.52212">
        <ele>1137</ele>
        <time>2014-09-14T09:08:17Z</time>
      </trkpt>
      <trkpt lat="45.36881" lon="4.52208">
        <ele>1137</ele>
        <time>2014-09-14T09:08:19Z</time>
      </trkpt>
      <trkpt lat="45.36882" lon="4.52204">
        <ele>1137</ele>
        <time>2014-09-14T09:08:21Z</time>
      </trkpt>
      <trkpt lat="45.36882" lon="4.52198">
        <ele>1137</ele>
        <time>2014-09-14T09:08:24Z</time>
      </trkpt>
      <trkpt lat="45.36882" lon="4.52194">
        <ele>1137</ele>
        <time>2014-09-14T09:08:26Z</time>
      </trkpt>
      <trkpt lat="45.36883" lon="4.52188">
        <ele>1137</ele>
        <time>2014-09-14T09:08:29Z</time>
      </trkpt>
      <trkpt lat="45.36883" lon="4.52183">
        <ele>1137</ele>
        <time>2014-09-14T09:08:32Z</time>
      </trkpt>
      <trkpt lat="45.36882" lon="4.52177">
        <ele>1136</ele>
        <time>2014-09-14T09:08:35Z</time>
      </trkpt>
      <trkpt lat="45.36882" lon="4.52174">
        <ele>1136</ele>
        <time>2014-09-14T09:08:37Z</time>
      </trkpt>
      <trkpt lat="45.36881" lon="4.52168">
        <ele>1136</ele>
        <time>2014-09-14T09:08:40Z</time>
      </trkpt>
      <trkpt lat="45.3688" lon="4.52161">
        <ele>1136</ele>
        <time>2014-09-14T09:08:43Z</time>
      </trkpt>
      <trkpt lat="45.36879" lon="4.52155">
        <ele>1136</ele>
        <time>2014-09-14T09:08:45Z</time>
      </trkpt>
      <trkpt lat="45.36877" lon="4.52146">
        <ele>1136</ele>
        <time>2014-09-14T09:08:48Z</time>
      </trkpt>
      <trkpt lat="45.36876" lon="4.5214">
        <ele>1136</ele>
        <time>2014-09-14T09:08:50Z</time>
      </trkpt>
      <trkpt lat="45.36873" lon="4.5213">
        <ele>1136</ele>
        <time>2014-09-14T09:08:53Z</time>
      </trkpt>
      <trkpt lat="45.36871" lon="4.5212">
        <ele>1136</ele>
        <time>2014-09-14T09:08:56Z</time>
      </trkpt>
      <trkpt lat="45.36869" lon="4.52113">
        <ele>1135</ele>
        <time>2014-09-14T09:08:58Z</time>
      </trkpt>
      <trkpt lat="45.36867" lon="4.52104">
        <ele>1134</ele>
        <time>2014-09-14T09:09:01Z</time>
      </trkpt>
      <trkpt lat="45.36865" lon="4.52094">
        <ele>1134</ele>
        <time>2014-09-14T09:09:04Z</time>
      </trkpt>
      <trkpt lat="45.36864" lon="4.52088">
        <ele>1134</ele>
        <time>2014-09-14T09:09:06Z</time>
      </trkpt>
      <trkpt lat="45.36862" lon="4.52082">
        <ele>1134</ele>
        <time>2014-09-14T09:09:08Z</time>
      </trkpt>
      <trkpt lat="45.36859" lon="4.52074">
        <ele>1134</ele>
        <time>2014-09-14T09:09:11Z</time>
      </trkpt>
      <trkpt lat="45.36857" lon="4.52068">
        <ele>1133</ele>
        <time>2014-09-14T09:09:13Z</time>
      </trkpt>
      <trkpt lat="45.36853" lon="4.52061">
        <ele>1133</ele>
        <time>2014-09-14T09:09:16Z</time>
      </trkpt>
      <trkpt lat="45.36849" lon="4.52053">
        <ele>1133</ele>
        <time>2014-09-14T09:09:19Z</time>
      </trkpt>
      <trkpt lat="45.36845" lon="4.52048">
        <ele>1133</ele>
        <time>2014-09-14T09:09:21Z</time>
      </trkpt>
      <trkpt lat="45.3684" lon="4.52042">
        <ele>1133</ele>
        <time>2014-09-14T09:09:24Z</time>
      </trkpt>
      <trkpt lat="45.36835" lon="4.52036">
        <ele>1133</ele>
        <time>2014-09-14T09:09:27Z</time>
      </trkpt>
      <trkpt lat="45.3683" lon="4.52029">
        <ele>1133</ele>
        <time>2014-09-14T09:09:30Z</time>
      </trkpt>
      <trkpt lat="45.36826" lon="4.52022">
        <ele>1133</ele>
        <time>2014-09-14T09:09:33Z</time>
      </trkpt>
      <trkpt lat="45.36825" lon="4.52013">
        <ele>1133</ele>
        <time>2014-09-14T09:09:36Z</time>
      </trkpt>
      <trkpt lat="45.36825" lon="4.52003">
        <ele>1133</ele>
        <time>2014-09-14T09:09:39Z</time>
      </trkpt>
      <trkpt lat="45.36825" lon="4.51998">
        <ele>1132</ele>
        <time>2014-09-14T09:09:41Z</time>
      </trkpt>
      <trkpt lat="45.36826" lon="4.51989">
        <ele>1132</ele>
        <time>2014-09-14T09:09:44Z</time>
      </trkpt>
      <trkpt lat="45.36826" lon="4.51979">
        <ele>1132</ele>
        <time>2014-09-14T09:09:47Z</time>
      </trkpt>
      <trkpt lat="45.36827" lon="4.51972">
        <ele>1131</ele>
        <time>2014-09-14T09:09:49Z</time>
      </trkpt>
      <trkpt lat="45.36827" lon="4.51965">
        <ele>1130</ele>
        <time>2014-09-14T09:09:51Z</time>
      </trkpt>
      <trkpt lat="45.36828" lon="4.51956">
        <ele>1130</ele>
        <time>2014-09-14T09:09:54Z</time>
      </trkpt>
      <trkpt lat="45.36829" lon="4.51947">
        <ele>1128</ele>
        <time>2014-09-14T09:09:57Z</time>
      </trkpt>
      <trkpt lat="45.3683" lon="4.51941">
        <ele>1128</ele>
        <time>2014-09-14T09:09:59Z</time>
      </trkpt>
      <trkpt lat="45.36832" lon="4.51932">
        <ele>1127</ele>
        <time>2014-09-14T09:10:02Z</time>
      </trkpt>
      <trkpt lat="45.36833" lon="4.51923">
        <ele>1126</ele>
        <time>2014-09-14T09:10:05Z</time>
      </trkpt>
      <trkpt lat="45.36835" lon="4.51913">
        <ele>1125</ele>
        <time>2014-09-14T09:10:08Z</time>
      </trkpt>
      <trkpt lat="45.36837" lon="4.51904">
        <ele>1125</ele>
        <time>2014-09-14T09:10:11Z</time>
      </trkpt>
      <trkpt lat="45.36838" lon="4.51896">
        <ele>1124</ele>
        <time>2014-09-14T09:10:14Z</time>
      </trkpt>
      <trkpt lat="45.3684" lon="4.51887">
        <ele>1123</ele>
        <time>2014-09-14T09:10:17Z</time>
      </trkpt>
      <trkpt lat="45.36842" lon="4.51878">
        <ele>1122</ele>
        <time>2014-09-14T09:10:20Z</time>
      </trkpt>
      <trkpt lat="45.36843" lon="4.51869">
        <ele>1122</ele>
        <time>2014-09-14T09:10:23Z</time>
      </trkpt>
      <trkpt lat="45.36845" lon="4.51861">
        <ele>1121</ele>
        <time>2014-09-14T09:10:26Z</time>
      </trkpt>
      <trkpt lat="45.36846" lon="4.51853">
        <ele>1121</ele>
        <time>2014-09-14T09:10:29Z</time>
      </trkpt>
      <trkpt lat="45.36847" lon="4.51847">
        <ele>1121</ele>
        <time>2014-09-14T09:10:31Z</time>
      </trkpt>
      <trkpt lat="45.36848" lon="4.51838">
        <ele>1122</ele>
        <time>2014-09-14T09:10:34Z</time>
      </trkpt>
      <trkpt lat="45.36851" lon="4.51829">
        <ele>1122</ele>
        <time>2014-09-14T09:10:37Z</time>
      </trkpt>
      <trkpt lat="45.36854" lon="4.51821">
        <ele>1122</ele>
        <time>2014-09-14T09:10:40Z</time>
      </trkpt>
      <trkpt lat="45.36857" lon="4.51815">
        <ele>1122</ele>
        <time>2014-09-14T09:10:42Z</time>
      </trkpt>
      <trkpt lat="45.3686" lon="4.51806">
        <ele>1122</ele>
        <time>2014-09-14T09:10:45Z</time>
      </trkpt>
      <trkpt lat="45.36864" lon="4.51799">
        <ele>1121</ele>
        <time>2014-09-14T09:10:48Z</time>
      </trkpt>
      <trkpt lat="45.36868" lon="4.5179">
        <ele>1121</ele>
        <time>2014-09-14T09:10:51Z</time>
      </trkpt>
      <trkpt lat="45.36871" lon="4.51782">
        <ele>1121</ele>
        <time>2014-09-14T09:10:54Z</time>
      </trkpt>
      <trkpt lat="45.36875" lon="4.51774">
        <ele>1120</ele>
        <time>2014-09-14T09:10:57Z</time>
      </trkpt>
      <trkpt lat="45.36879" lon="4.51766">
        <ele>1119</ele>
        <time>2014-09-14T09:11:00Z</time>
      </trkpt>
      <trkpt lat="45.36882" lon="4.51759">
        <ele>1119</ele>
        <time>2014-09-14T09:11:03Z</time>
      </trkpt>
      <trkpt lat="45.36884" lon="4.51754">
        <ele>1118</ele>
        <time>2014-09-14T09:11:05Z</time>
      </trkpt>
      <trkpt lat="45.36888" lon="4.51746">
        <ele>1118</ele>
        <time>2014-09-14T09:11:08Z</time>
      </trkpt>
      <trkpt lat="45.36892" lon="4.51739">
        <ele>1118</ele>
        <time>2014-09-14T09:11:11Z</time>
      </trkpt>
      <trkpt lat="45.36896" lon="4.51732">
        <ele>1118</ele>
        <time>2014-09-14T09:11:14Z</time>
      </trkpt>
      <trkpt lat="45.36901" lon="4.51725">
        <ele>1117</ele>
        <time>2014-09-14T09:11:17Z</time>
      </trkpt>
      <trkpt lat="45.36905" lon="4.51718">
        <ele>1116</ele>
        <time>2014-09-14T09:11:20Z</time>
      </trkpt>
      <trkpt lat="45.36909" lon="4.51711">
        <ele>1116</ele>
        <time>2014-09-14T09:11:23Z</time>
      </trkpt>
      <trkpt lat="45.36914" lon="4.51705">
        <ele>1115</ele>
        <time>2014-09-14T09:11:26Z</time>
      </trkpt>
      <trkpt lat="45.36917" lon="4.517">
        <ele>1115</ele>
        <time>2014-09-14T09:11:28Z</time>
      </trkpt>
      <trkpt lat="45.36922" lon="4.51694">
        <ele>1114</ele>
        <time>2014-09-14T09:11:31Z</time>
      </trkpt>
      <trkpt lat="45.36926" lon="4.51689">
        <ele>1114</ele>
        <time>2014-09-14T09:11:34Z</time>
      </trkpt>
      <trkpt lat="45.36931" lon="4.51683">
        <ele>1114</ele>
        <time>2014-09-14T09:11:37Z</time>
      </trkpt>
      <trkpt lat="45.36935" lon="4.51676">
        <ele>1114</ele>
        <time>2014-09-14T09:11:40Z</time>
      </trkpt>
      <trkpt lat="45.36937" lon="4.51672">
        <ele>1115</ele>
        <time>2014-09-14T09:11:42Z</time>
      </trkpt>
      <trkpt lat="45.3694" lon="4.51668">
        <ele>1114</ele>
        <time>2014-09-14T09:11:44Z</time>
      </trkpt>
      <trkpt lat="45.36944" lon="4.51663">
        <ele>1114</ele>
        <time>2014-09-14T09:11:46Z</time>
      </trkpt>
      <trkpt lat="45.36948" lon="4.51657">
        <ele>1114</ele>
        <time>2014-09-14T09:11:49Z</time>
      </trkpt>
      <trkpt lat="45.3695" lon="4.51654">
        <ele>1114</ele>
        <time>2014-09-14T09:11:51Z</time>
      </trkpt>
      <trkpt lat="45.36953" lon="4.5165">
        <ele>1115</ele>
        <time>2014-09-14T09:11:53Z</time>
      </trkpt>
      <trkpt lat="45.36957" lon="4.51644">
        <ele>1114</ele>
        <time>2014-09-14T09:11:56Z</time>
      </trkpt>
      <trkpt lat="45.36961" lon="4.51637">
        <ele>1114</ele>
        <time>2014-09-14T09:11:59Z</time>
      </trkpt>
      <trkpt lat="45.36966" lon="4.5163">
        <ele>1113</ele>
        <time>2014-09-14T09:12:02Z</time>
      </trkpt>
      <trkpt lat="45.36969" lon="4.51626">
        <ele>1114</ele>
        <time>2014-09-14T09:12:04Z</time>
      </trkpt>
      <trkpt lat="45.36972" lon="4.51619">
        <ele>1114</ele>
        <time>2014-09-14T09:12:07Z</time>
      </trkpt>
      <trkpt lat="45.36971" lon="4.51615">
        <ele>1114</ele>
        <time>2014-09-14T09:12:09Z</time>
      </trkpt>
      <trkpt lat="45.36969" lon="4.51612">
        <ele>1114</ele>
        <time>2014-09-14T09:12:12Z</time>
      </trkpt>
      <trkpt lat="45.36967" lon="4.51608">
        <ele>1114</ele>
        <time>2014-09-14T09:12:15Z</time>
      </trkpt>
      <trkpt lat="45.36966" lon="4.51604">
        <ele>1115</ele>
        <time>2014-09-14T09:12:18Z</time>
      </trkpt>
      <trkpt lat="45.36965" lon="4.51601">
        <ele>1116</ele>
        <time>2014-09-14T09:12:21Z</time>
      </trkpt>
      <trkpt lat="45.36964" lon="4.51598">
        <ele>1116</ele>
        <time>2014-09-14T09:12:23Z</time>
      </trkpt>
      <trkpt lat="45.36963" lon="4.51596">
        <ele>1116</ele>
        <time>2014-09-14T09:12:25Z</time>
      </trkpt>
      <trkpt lat="45.36961" lon="4.51596">
        <ele>1117</ele>
        <time>2014-09-14T09:12:28Z</time>
      </trkpt>
      <trkpt lat="45.3696" lon="4.51596">
        <ele>1118</ele>
        <time>2014-09-14T09:12:30Z</time>
      </trkpt>
      <trkpt lat="45.36959" lon="4.51599">
        <ele>1118</ele>
        <time>2014-09-14T09:12:32Z</time>
      </trkpt>
      <trkpt lat="45.36958" lon="4.51606">
        <ele>1118</ele>
        <time>2014-09-14T09:12:35Z</time>
      </trkpt>
      <trkpt lat="45.36959" lon="4.51611">
        <ele>1118</ele>
        <time>2014-09-14T09:12:37Z</time>
      </trkpt>
      <trkpt lat="45.36963" lon="4.51617">
        <ele>1118</ele>
        <time>2014-09-14T09:12:40Z</time>
      </trkpt>
      <trkpt lat="45.36959" lon="4.51623">
        <ele>1118</ele>
        <time>2014-09-14T09:12:43Z</time>
      </trkpt>
      <trkpt lat="45.36955" lon="4.5163">
        <ele>1118</ele>
        <time>2014-09-14T09:12:46Z</time>
      </trkpt>
      <trkpt lat="45.36953" lon="4.51634">
        <ele>1118</ele>
        <time>2014-09-14T09:12:48Z</time>
      </trkpt>
      <trkpt lat="45.36948" lon="4.5164">
        <ele>1118</ele>
        <time>2014-09-14T09:12:51Z</time>
      </trkpt>
      <trkpt lat="45.36945" lon="4.51644">
        <ele>1118</ele>
        <time>2014-09-14T09:12:53Z</time>
      </trkpt>
      <trkpt lat="45.36943" lon="4.51647">
        <ele>1118</ele>
        <time>2014-09-14T09:12:55Z</time>
      </trkpt>
      <trkpt lat="45.3694" lon="4.51651">
        <ele>1119</ele>
        <time>2014-09-14T09:12:57Z</time>
      </trkpt>
      <trkpt lat="45.3694" lon="4.51651">
        <ele>1117</ele>
        <time>2014-09-14T09:12:58Z</time>
      </trkpt>
    </trkseg>
  </trk>
</gpx>